This week only. Pastebin PRO Accounts Christmas Special! Don't miss out!Want more features on Pastebin? Sign Up, it's FREE!
Guest

xbmctraktissue

By: anzerman on May 2nd, 2012  |  syntax: None  |  size: 302.52 KB  |  views: 34  |  expires: Never
download  |  raw  |  embed  |  report abuse  |  print
This paste has a previous version, view the difference. Text below is selected. Please press Ctrl+C to copy to your clipboard. (⌘+C on Mac)
  1. 15:08:02 T:8380  NOTICE: -----------------------------------------------------------------------
  2. 15:08:02 T:8380  NOTICE: Starting XBMC (12.0-ALPHA1 Git:20120430-1dd0378), Platform: Windows 7, 64-bit (WoW) Service Pack 1 build 7601. Built on Apr 30 2012 (compiler 1600)
  3. 15:08:02 T:8380  NOTICE: Intel(R) Core(TM)2 Quad CPU    Q6600  @ 2.40GHz
  4. 15:08:02 T:8380  NOTICE: Desktop Resolution: 1920x1080 32Bit at 59Hz
  5. 15:08:02 T:8380  NOTICE: Running with administrator rights
  6. 15:08:02 T:8380  NOTICE: Aero is enabled
  7. 15:08:02 T:8380  NOTICE: special://xbmc/ is mapped to: C:\Program Files (x86)\XBMC
  8. 15:08:02 T:8380  NOTICE: special://xbmcbin/ is mapped to: C:\Program Files (x86)\XBMC
  9. 15:08:02 T:8380  NOTICE: special://masterprofile/ is mapped to: C:\Users\Sidney\AppData\Roaming\XBMC\userdata
  10. 15:08:02 T:8380  NOTICE: special://home/ is mapped to: C:\Users\Sidney\AppData\Roaming\XBMC\
  11. 15:08:02 T:8380  NOTICE: special://temp/ is mapped to: C:\Users\Sidney\AppData\Roaming\XBMC\cache
  12. 15:08:02 T:8380  NOTICE: The executable running is: C:\Program Files (x86)\XBMC\XBMC.exe
  13. 15:08:02 T:8380  NOTICE: Local hostname: Sidney-PC
  14. 15:08:02 T:8380  NOTICE: Log File is located: C:\Users\Sidney\AppData\Roaming\XBMC\xbmc.log
  15. 15:08:02 T:8380  NOTICE: -----------------------------------------------------------------------
  16. 15:08:02 T:8380  NOTICE: Setup SDL
  17. 15:08:02 T:8380  NOTICE: Found screen: Generic PnP Monitor on NVIDIA GeForce GTS 250, adapter 0.
  18. 15:08:02 T:8380  NOTICE: Found screen: Generic PnP Monitor on NVIDIA GeForce GTS 250, adapter 1.
  19. 15:08:02 T:8380  NOTICE: Primary mode: 1920x1080 @ 59.94 - Full Screen
  20. 15:08:02 T:8380  NOTICE: Secondary mode: 1920x1200 @ 59.94 - Full Screen #2
  21. 15:08:02 T:8380  NOTICE: Additional mode: 640x480 @ 60.00 - Full Screen
  22. 15:08:02 T:8380  NOTICE: Additional mode: 640x480 @ 59.94 - Full Screen
  23. 15:08:02 T:8380  NOTICE: Additional mode: 640x480 @ 75.00 - Full Screen
  24. 15:08:02 T:8380  NOTICE: Additional mode: 720x480 @ 60.00 - Full Screen
  25. 15:08:02 T:8380  NOTICE: Previous line repeats 2 times.
  26. 15:08:02 T:8380  NOTICE: Additional mode: 720x480 @ 75.00 - Full Screen
  27. 15:08:02 T:8380  NOTICE: Previous line repeats 2 times.
  28. 15:08:02 T:8380  NOTICE: Additional mode: 720x576 @ 60.00 - Full Screen
  29. 15:08:02 T:8380  NOTICE: Previous line repeats 2 times.
  30. 15:08:02 T:8380  NOTICE: Additional mode: 720x576 @ 75.00 - Full Screen
  31. 15:08:02 T:8380  NOTICE: Previous line repeats 2 times.
  32. 15:08:02 T:8380  NOTICE: Additional mode: 800x600 @ 60.00 - Full Screen
  33. 15:08:02 T:8380  NOTICE: Additional mode: 800x600 @ 75.00 - Full Screen
  34. 15:08:02 T:8380  NOTICE: Additional mode: 1024x768 @ 60.00 - Full Screen
  35. 15:08:02 T:8380  NOTICE: Additional mode: 1024x768 @ 75.00 - Full Screen
  36. 15:08:02 T:8380  NOTICE: Additional mode: 1152x864 @ 60.00 - Full Screen
  37. 15:08:02 T:8380  NOTICE: Previous line repeats 2 times.
  38. 15:08:02 T:8380  NOTICE: Additional mode: 1152x864 @ 75.00 - Full Screen
  39. 15:08:02 T:8380  NOTICE: Previous line repeats 2 times.
  40. 15:08:02 T:8380  NOTICE: Additional mode: 1280x720 @ 60.00 - Full Screen
  41. 15:08:02 T:8380  NOTICE: Additional mode: 1280x720 @ 59.94 - Full Screen
  42. 15:08:02 T:8380  NOTICE: Additional mode: 1280x720 @ 50.00 - Full Screen
  43. 15:08:02 T:8380  NOTICE: Additional mode: 1280x768 @ 60.00 - Full Screen
  44. 15:08:02 T:8380  NOTICE: Previous line repeats 2 times.
  45. 15:08:02 T:8380  NOTICE: Additional mode: 1280x800 @ 60.00 - Full Screen
  46. 15:08:02 T:8380  NOTICE: Additional mode: 1280x960 @ 60.00 - Full Screen
  47. 15:08:02 T:8380  NOTICE: Previous line repeats 2 times.
  48. 15:08:02 T:8380  NOTICE: Additional mode: 1280x960 @ 75.00 - Full Screen
  49. 15:08:02 T:8380  NOTICE: Previous line repeats 2 times.
  50. 15:08:02 T:8380  NOTICE: Additional mode: 1280x1024 @ 60.00 - Full Screen
  51. 15:08:02 T:8380  NOTICE: Additional mode: 1280x1024 @ 75.00 - Full Screen
  52. 15:08:02 T:8380  NOTICE: Additional mode: 1360x768 @ 60.00 - Full Screen
  53. 15:08:02 T:8380  NOTICE: Previous line repeats 2 times.
  54. 15:08:02 T:8380  NOTICE: Additional mode: 1366x768 @ 60.00 - Full Screen
  55. 15:08:02 T:8380  NOTICE: Previous line repeats 2 times.
  56. 15:08:02 T:8380  NOTICE: Additional mode: 1600x900 @ 60.00 - Full Screen
  57. 15:08:02 T:8380  NOTICE: Additional mode: 1600x1024 @ 59.94 - Full Screen
  58. 15:08:02 T:8380  NOTICE: Additional mode: 1600x1024 @ 60.00 - Full Screen
  59. 15:08:02 T:8380  NOTICE: Additional mode: 1600x1024 @ 59.94 - Full Screen
  60. 15:08:02 T:8380  NOTICE: Additional mode: 1600x1024 @ 60.00 - Full Screen
  61. 15:08:02 T:8380  NOTICE: Additional mode: 1600x1024 @ 59.94 - Full Screen
  62. 15:08:02 T:8380  NOTICE: Additional mode: 1600x1024 @ 60.00 - Full Screen
  63. 15:08:02 T:8380  NOTICE: Additional mode: 1680x1050 @ 59.94 - Full Screen
  64. 15:08:02 T:8380  NOTICE: Additional mode: 1680x1050 @ 60.00 - Full Screen
  65. 15:08:02 T:8380  NOTICE: Additional mode: 1920x1080 @ 60.00 - Full Screen
  66. 15:08:02 T:8380  NOTICE: Additional mode: 1920x1080 @ 59.94 - Full Screen
  67. 15:08:02 T:8380  NOTICE: Additional mode: 1920x1080 @ 50.00 - Full Screen
  68. 15:08:02 T:8380  NOTICE: Additional mode: 1440x900 @ 60.00 - Full Screen
  69. 15:08:02 T:8380  NOTICE: Previous line repeats 2 times.
  70. 15:08:02 T:8380  NOTICE: Additional mode: 1400x1050 @ 59.94 - Full Screen
  71. 15:08:02 T:8380  NOTICE: Additional mode: 1400x1050 @ 60.00 - Full Screen
  72. 15:08:02 T:8380  NOTICE: Additional mode: 1400x1050 @ 59.94 - Full Screen
  73. 15:08:02 T:8380  NOTICE: Additional mode: 1400x1050 @ 60.00 - Full Screen
  74. 15:08:02 T:8380  NOTICE: Additional mode: 1400x1050 @ 59.94 - Full Screen
  75. 15:08:02 T:8380  NOTICE: Additional mode: 1400x1050 @ 60.00 - Full Screen
  76. 15:08:02 T:8380  NOTICE: Additional mode: 1920x1200 @ 59.94 - Full Screen #2
  77. 15:08:02 T:8380  NOTICE: Additional mode: 1920x1200 @ 60.00 - Full Screen #2
  78. 15:08:02 T:8380  NOTICE: Additional mode: 640x480 @ 60.00 - Full Screen #2
  79. 15:08:02 T:8380  NOTICE: Additional mode: 640x480 @ 59.94 - Full Screen #2
  80. 15:08:02 T:8380  NOTICE: Additional mode: 640x480 @ 72.00 - Full Screen #2
  81. 15:08:02 T:8380  NOTICE: Additional mode: 640x480 @ 75.00 - Full Screen #2
  82. 15:08:02 T:8380  NOTICE: Additional mode: 720x480 @ 59.94 - Full Screen #2
  83. 15:08:02 T:8380  NOTICE: Additional mode: 720x480 @ 60.00 - Full Screen #2
  84. 15:08:02 T:8380  NOTICE: Additional mode: 720x576 @ 56.00 - Full Screen #2
  85. 15:08:02 T:8380  NOTICE: Previous line repeats 2 times.
  86. 15:08:02 T:8380  NOTICE: Additional mode: 720x576 @ 60.00 - Full Screen #2
  87. 15:08:02 T:8380  NOTICE: Previous line repeats 2 times.
  88. 15:08:02 T:8380  NOTICE: Additional mode: 720x576 @ 72.00 - Full Screen #2
  89. 15:08:02 T:8380  NOTICE: Previous line repeats 2 times.
  90. 15:08:02 T:8380  NOTICE: Additional mode: 720x576 @ 75.00 - Full Screen #2
  91. 15:08:02 T:8380  NOTICE: Previous line repeats 2 times.
  92. 15:08:02 T:8380  NOTICE: Additional mode: 800x600 @ 56.00 - Full Screen #2
  93. 15:08:02 T:8380  NOTICE: Additional mode: 800x600 @ 60.00 - Full Screen #2
  94. 15:08:02 T:8380  NOTICE: Additional mode: 800x600 @ 72.00 - Full Screen #2
  95. 15:08:02 T:8380  NOTICE: Additional mode: 800x600 @ 75.00 - Full Screen #2
  96. 15:08:02 T:8380  NOTICE: Additional mode: 1024x768 @ 60.00 - Full Screen #2
  97. 15:08:02 T:8380  NOTICE: Additional mode: 1024x768 @ 70.00 - Full Screen #2
  98. 15:08:02 T:8380  NOTICE: Additional mode: 1024x768 @ 75.00 - Full Screen #2
  99. 15:08:02 T:8380  NOTICE: Additional mode: 1152x864 @ 75.00 - Full Screen #2
  100. 15:08:02 T:8380  NOTICE: Additional mode: 1176x664 @ 60.00 - Full Screen #2
  101. 15:08:02 T:8380  NOTICE: Previous line repeats 2 times.
  102. 15:08:02 T:8380  NOTICE: Additional mode: 1176x664 @ 59.94 - Full Screen #2
  103. 15:08:02 T:8380  NOTICE: Previous line repeats 2 times.
  104. 15:08:02 T:8380  NOTICE: Additional mode: 1280x720 @ 60.00 - Full Screen #2
  105. 15:08:02 T:8380  NOTICE: Additional mode: 1280x720 @ 59.94 - Full Screen #2
  106. 15:08:02 T:8380  NOTICE: Additional mode: 1280x720 @ 50.00 - Full Screen #2
  107. 15:08:02 T:8380  NOTICE: Additional mode: 1280x768 @ 60.00 - Full Screen #2
  108. 15:08:02 T:8380  NOTICE: Previous line repeats 2 times.
  109. 15:08:02 T:8380  NOTICE: Additional mode: 1280x800 @ 60.00 - Full Screen #2
  110. 15:08:02 T:8380  NOTICE: Previous line repeats 2 times.
  111. 15:08:02 T:8380  NOTICE: Additional mode: 1280x960 @ 60.00 - Full Screen #2
  112. 15:08:02 T:8380  NOTICE: Additional mode: 1280x1024 @ 60.00 - Full Screen #2
  113. 15:08:02 T:8380  NOTICE: Additional mode: 1280x1024 @ 75.00 - Full Screen #2
  114. 15:08:02 T:8380  NOTICE: Additional mode: 1360x768 @ 60.00 - Full Screen #2
  115. 15:08:02 T:8380  NOTICE: Previous line repeats 2 times.
  116. 15:08:02 T:8380  NOTICE: Additional mode: 1366x768 @ 60.00 - Full Screen #2
  117. 15:08:02 T:8380  NOTICE: Previous line repeats 2 times.
  118. 15:08:02 T:8380  NOTICE: Additional mode: 1600x900 @ 59.94 - Full Screen #2
  119. 15:08:02 T:8380  NOTICE: Additional mode: 1600x900 @ 60.00 - Full Screen #2
  120. 15:08:02 T:8380  NOTICE: Additional mode: 1600x900 @ 59.94 - Full Screen #2
  121. 15:08:02 T:8380  NOTICE: Additional mode: 1600x900 @ 60.00 - Full Screen #2
  122. 15:08:02 T:8380  NOTICE: Additional mode: 1600x900 @ 59.94 - Full Screen #2
  123. 15:08:02 T:8380  NOTICE: Additional mode: 1600x900 @ 60.00 - Full Screen #2
  124. 15:08:02 T:8380  NOTICE: Additional mode: 1600x1024 @ 59.94 - Full Screen #2
  125. 15:08:02 T:8380  NOTICE: Additional mode: 1600x1024 @ 60.00 - Full Screen #2
  126. 15:08:02 T:8380  NOTICE: Additional mode: 1600x1024 @ 59.94 - Full Screen #2
  127. 15:08:02 T:8380  NOTICE: Additional mode: 1600x1024 @ 60.00 - Full Screen #2
  128. 15:08:02 T:8380  NOTICE: Additional mode: 1600x1024 @ 59.94 - Full Screen #2
  129. 15:08:02 T:8380  NOTICE: Additional mode: 1600x1024 @ 60.00 - Full Screen #2
  130. 15:08:02 T:8380  NOTICE: Additional mode: 1600x1200 @ 60.00 - Full Screen #2
  131. 15:08:02 T:8380  NOTICE: Additional mode: 1680x1050 @ 59.94 - Full Screen #2
  132. 15:08:02 T:8380  NOTICE: Additional mode: 1680x1050 @ 60.00 - Full Screen #2
  133. 15:08:02 T:8380  NOTICE: Additional mode: 1768x992 @ 30.00i - Full Screen #2
  134. 15:08:02 T:8380  NOTICE: Previous line repeats 2 times.
  135. 15:08:02 T:8380  NOTICE: Additional mode: 1768x992 @ 29.97i - Full Screen #2
  136. 15:08:02 T:8380  NOTICE: Previous line repeats 2 times.
  137. 15:08:02 T:8380  NOTICE: Additional mode: 1920x1080 @ 60.00 - Full Screen #2
  138. 15:08:02 T:8380  NOTICE: Additional mode: 1920x1080 @ 59.94 - Full Screen #2
  139. 15:08:02 T:8380  NOTICE: Additional mode: 1920x1080 @ 30.00i - Full Screen #2
  140. 15:08:02 T:8380  NOTICE: Additional mode: 1920x1080 @ 29.97i - Full Screen #2
  141. 15:08:02 T:8380  NOTICE: Additional mode: 1920x1080 @ 50.00 - Full Screen #2
  142. 15:08:03 T:8380  NOTICE: Additional mode: 1440x900 @ 60.00 - Full Screen #2
  143. 15:08:03 T:8380  NOTICE: Additional mode: 1400x1050 @ 60.00 - Full Screen #2
  144. 15:08:03 T:8380  NOTICE: load settings...
  145. 15:08:03 T:8380  NOTICE: special://profile/ is mapped to: special://masterprofile/
  146. 15:08:03 T:8380  NOTICE: loading special://masterprofile/guisettings.xml
  147. 15:08:03 T:8380  NOTICE: Getting hardware information now...
  148. 15:08:03 T:8380  NOTICE: Checking resolution 12
  149. 15:08:03 T:8380  NOTICE: Loading player core factory settings from special://xbmc/system/playercorefactory.xml.
  150. 15:08:03 T:8380  NOTICE: Loaded playercorefactory configuration
  151. 15:08:03 T:8380  NOTICE: Loading player core factory settings from special://masterprofile/playercorefactory.xml.
  152. 15:08:03 T:8380  NOTICE: special://masterprofile/playercorefactory.xml does not exist. Skipping.
  153. 15:08:03 T:8380  NOTICE: No settings file to load (special://xbmc/system/advancedsettings.xml)
  154. 15:08:03 T:8380  NOTICE: No settings file to load (special://masterprofile/advancedsettings.xml)
  155. 15:08:03 T:8380  NOTICE: Default DVD Player: dvdplayer
  156. 15:08:03 T:8380  NOTICE: Default Video Player: dvdplayer
  157. 15:08:03 T:8380  NOTICE: Default Audio Player: paplayer
  158. 15:08:03 T:8380  NOTICE: Disabled debug logging due to GUI setting. Level 0.
  159. 15:08:03 T:8380  NOTICE: Log level changed to 0
  160. 15:08:03 T:8380  NOTICE: Loading media sources from special://masterprofile/sources.xml
  161. 15:08:03 T:8380  NOTICE: initializing playlistplayer
  162. 15:08:03 T:8380  NOTICE: DONE initializing playlistplayer
  163. 15:08:05 T:3676   ERROR: CRemoteControl::Connect - failed to connect
  164. 15:08:05 T:8648  NOTICE: -->Python Interpreter Initialized<--
  165. 15:08:05 T:9060  NOTICE: -->Python Interpreter Initialized<--
  166. 15:08:05 T:8380  NOTICE: CApplication::UpdateLibraries - Starting video library startup scan
  167. 15:08:05 T:9060   ERROR: C:\Users\Sidney\AppData\Roaming\XBMC\addons\script.TraktUtilities-0.6.5\nbhttpconnection.py:22: DeprecationWarning: the sha module is deprecated; use the hashlib module instead
  168.                                               import sha
  169. 15:08:05 T:8380  NOTICE: initialize done
  170. 15:08:05 T:8380  NOTICE: Running the application...
  171. 15:08:05 T:9532  NOTICE: VideoInfoScanner: Starting scan ..
  172. 15:08:05 T:8380  NOTICE: ES: Starting event server
  173. 15:08:05 T:9460  NOTICE: ES: Starting UDP Event server on 0.0.0.0:9777
  174. 15:08:05 T:9460  NOTICE: UDP: Listening on port 9777
  175. 15:08:05 T:8380   ERROR: Control 1 in window 10099 has been asked to focus, but it can't
  176. 15:08:05 T:9060  NOTICE: Trakt Utilities: service: script.TraktUtilities - version: 0.6.5
  177. 15:08:05 T:10208  NOTICE: -->Python Interpreter Initialized<--
  178. 15:08:05 T:10208  NOTICE:  StorageServer Module loaded RUN
  179. 15:08:05 T:10208  NOTICE: StorageClient-0.9.2 Starting server
  180. 15:08:05 T:10208  NOTICE: StorageServer-0.9.2 Storage Server starting C:\Users\Sidney\AppData\Roaming\XBMC\userdata\Database\commoncache.db
  181. 15:08:06 T:9060  NOTICE: Trakt Utilities: trakt json url: /account/test/48dfcb4813134da82152984e8c4f329bc8b8b46a
  182. 15:08:06 T:8380   ERROR: Error evaluating boolean expression ![substring(ListItem.Filenameandpath,bluray) | substring(ListItem.Filenameandpath,blu-ray) | substring(ListItem.Filenameandpath,bdrip) | substring(ListItem.Filenameandpath,hddvd) | substring(ListItem.Filenameandpath,hdtv) | substring(ListItem.Filenameandpath,web) | substring(ListItem.Filenameandpath,dvd) | substring(ListItem.Filenameandpath,3dbd) | substring(ListItem.Filenameandpath,.iso,Right) | substring(ListItem.Filenameandpath,.ifo,Right) |
  183. 15:08:06 T:8380   ERROR: Error parsing label - missing ']' in "$INFO[ListItem.VideoCodec,flags/videocodec/,.png | substring(Container(8000).ListItem.Filenameandpath,bluray) | substring(Container(8000).ListItem.Filenameandpath,blu-ray) | substring(Container(8000).ListItem.Filenameandpath,bdrip) | substring(Container(8000).ListItem.Filenameandpath,hddvd) | substring(Container(8000).ListItem.Filenameandpath,hdtv) | substring(Container(8000).ListItem.Filenameandpath,web) | substring(Container(8000).ListItem.Filenameandpath,dvd) | substring(Container(8000).ListItem.Filenameandpath,3dbd) | substring(Container(8000).ListItem.Filenameandpath,.iso,Right) | substring(Container(8000).ListItem.Filenameandpath,.ifo,Right)]">$INFO[Container(8000).ListItem.VideoCodec,flags/videocodec/,.png"
  184. 15:08:06 T:8380   ERROR: unmatched parentheses in substring(Container(8000).ListItem.Property(AudioLanguage,chi)
  185. 15:08:06 T:8380   ERROR: unmatched parentheses in substring(Container(8000).ListItem.Property(AudioLanguage,cho)
  186. 15:08:06 T:8380   ERROR: unmatched parentheses in substring(Container(8000).ListItem.Property(AudioLanguage,ces)
  187. 15:08:06 T:8380   ERROR: unmatched parentheses in substring(Container(8000).ListItem.Property(AudioLanguage,dan)
  188. 15:08:06 T:8380   ERROR: unmatched parentheses in substring(Container(8000).ListItem.Property(AudioLanguage,dut)
  189. 15:08:06 T:8380   ERROR: unmatched parentheses in substring(Container(8000).ListItem.Property(AudioLanguage,nld)
  190. 15:08:06 T:8380   ERROR: unmatched parentheses in substring(Container(8000).ListItem.Property(AudioLanguage,eng)
  191. 15:08:06 T:8380   ERROR: unmatched parentheses in substring(Container(8000).ListItem.Property(AudioLanguage,fre)
  192. 15:08:06 T:8380   ERROR: unmatched parentheses in substring(Container(8000).ListItem.Property(AudioLanguage,ger)
  193. 15:08:06 T:8380   ERROR: unmatched parentheses in substring(Container(8000).ListItem.Property(AudioLanguage,deu)
  194. 15:08:06 T:8380   ERROR: unmatched parentheses in substring(Container(8000).ListItem.Property(AudioLanguage,gre)
  195. 15:08:06 T:8380   ERROR: unmatched parentheses in substring(Container(8000).ListItem.Property(AudioLanguage,heb)
  196. 15:08:06 T:8380   ERROR: unmatched parentheses in substring(Container(8000).ListItem.Property(AudioLanguage,hun)
  197. 15:08:06 T:8380   ERROR: unmatched parentheses in substring(Container(8000).ListItem.Property(AudioLanguage,ita)
  198. 15:08:06 T:8380   ERROR: unmatched parentheses in substring(Container(8000).ListItem.Property(AudioLanguage,jpn)
  199. 15:08:06 T:8380   ERROR: unmatched parentheses in substring(Container(8000).ListItem.Property(AudioLanguage,kor)
  200. 15:08:06 T:8380   ERROR: unmatched parentheses in substring(Container(8000).ListItem.Property(AudioLanguage,mdr)
  201. 15:08:06 T:8380   ERROR: unmatched parentheses in substring(Container(8000).ListItem.Property(AudioLanguage,per)
  202. 15:08:06 T:8380   ERROR: unmatched parentheses in substring(Container(8000).ListItem.Property(AudioLanguage,pol)
  203. 15:08:06 T:8380   ERROR: unmatched parentheses in substring(Container(8000).ListItem.Property(AudioLanguage,por)
  204. 15:08:06 T:8380   ERROR: unmatched parentheses in substring(Container(8000).ListItem.Property(AudioLanguage,ron)
  205. 15:08:06 T:8380   ERROR: unmatched parentheses in substring(Container(8000).ListItem.Property(AudioLanguage,rus)
  206. 15:08:06 T:8380   ERROR: unmatched parentheses in substring(Container(8000).ListItem.Property(AudioLanguage,spa)
  207. 15:08:06 T:8380   ERROR: unmatched parentheses in substring(Container(8000).ListItem.Property(AudioLanguage,srp)
  208. 15:08:06 T:8380   ERROR: unmatched parentheses in substring(Container(8000).ListItem.Property(AudioLanguage,swe)
  209. 15:08:06 T:8380   ERROR: unmatched parentheses in substring(Container(8000).ListItem.Property(AudioLanguage,tha)
  210. 15:08:06 T:8380   ERROR: unmatched parentheses in substring(Container(8000).ListItem.Property(AudioLanguage,zul)
  211. 15:08:06 T:9060  NOTICE: Trakt Utilities: trakt json url: /user/library/movies/collection.json/48dfcb4813134da82152984e8c4f329bc8b8b46a/anzermanxbmc
  212. 15:08:08 T:2648  NOTICE: Trakt Utilities: [Notification Service] Waiting~
  213. 15:08:08 T:8648  NOTICE: Artwork Downloader: ## Service - Run at startup: False
  214. 15:08:08 T:8648  NOTICE: Artwork Downloader: ## Service - Delayed startup: -- minutes
  215. 15:08:08 T:8648  NOTICE: Artwork Downloader: ## Service - Run as service: False
  216. 15:08:08 T:8648  NOTICE: Artwork Downloader: ## Service - Time: 00:00
  217. 15:08:10 T:4736   ERROR: CDVDDemuxFFmpeg::Open - error probing input format, J:\Movies YYYY-2009\An Extremely Goofy Movie (2000)\An Extremely Goofy Movie (2000).avi
  218. 15:08:10 T:8380   ERROR: Control 1 in window 10099 has been asked to focus, but it can't
  219. 15:08:11 T:7544   ERROR: CDVDDemuxFFmpeg::Open - error probing input format, J:\Movies YYYY-2009\Enchanted (2007)\Enchanted (2007).avi
  220. 15:08:13 T:9060  NOTICE: Trakt Utilities: found Movie: u'30:Minutes or Less' - IMDb ID: tt1622547
  221. 15:08:13 T:9060  NOTICE: Trakt Utilities: found Movie: u'127 Hours' - IMDb ID: tt1542344
  222. 15:08:13 T:9060  NOTICE: Trakt Utilities: found Movie: u'2012' - IMDb ID: tt1190080
  223. 15:08:13 T:9060  NOTICE: Trakt Utilities: found Movie: u'The A-Team' - IMDb ID: tt0429493
  224. 15:08:13 T:9060  NOTICE: Trakt Utilities: found Movie: u'The Adjustment Bureau' - IMDb ID: tt1385826
  225. 15:08:13 T:9060  NOTICE: Trakt Utilities: found Movie: u'The Adventures of Tintin' - IMDb ID: tt0983193
  226. 15:08:13 T:9060  NOTICE: Trakt Utilities: found Movie: u'Age of the Dragons' - IMDb ID: tt1594917
  227. 15:08:13 T:9060  NOTICE: Trakt Utilities: found Movie: u'All Good Things' - IMDb ID: tt1175709
  228. 15:08:13 T:9060  NOTICE: Trakt Utilities: found Movie: u'The American' - IMDb ID: tt1440728
  229. 15:08:13 T:9060  NOTICE: Trakt Utilities: found Movie: u'Animal Kingdom' - IMDb ID: tt1313092
  230. 15:08:13 T:9060  NOTICE: Trakt Utilities: found Movie: u'Anonymous' - IMDb ID: tt1521197
  231. 15:08:13 T:9060  NOTICE: Trakt Utilities: found Movie: u'Another Earth' - IMDb ID: tt1549572
  232. 15:08:13 T:9060  NOTICE: Trakt Utilities: found Movie: u'51' - IMDb ID: tt1629439
  233. 15:08:13 T:9060  NOTICE: Trakt Utilities: found Movie: u'Arthur' - IMDb ID: tt1334512
  234. 15:08:13 T:9060  NOTICE: Trakt Utilities: found Movie: u'Attack the Block' - IMDb ID: tt1478964
  235. 15:08:13 T:9060  NOTICE: Trakt Utilities: found Movie: u'The Awakening' - IMDb ID: tt1687901
  236. 15:08:13 T:9060  NOTICE: Trakt Utilities: found Movie: u'The Back-up Plan' - IMDb ID: tt1212436
  237. 15:08:13 T:9060  NOTICE: Trakt Utilities: found Movie: u'Bad Teacher' - IMDb ID: tt1284575
  238. 15:08:13 T:9060  NOTICE: Trakt Utilities: found Movie: u'The Bang Bang Club' - IMDb ID: tt1173687
  239. 15:08:13 T:9060  NOTICE: Trakt Utilities: found Movie: u'Battle Los Angeles' - IMDb ID: tt1217613
  240. 15:08:13 T:9060  NOTICE: Trakt Utilities: found Movie: u'The Beaver' - IMDb ID: tt1321860
  241. 15:08:13 T:9060  NOTICE: Trakt Utilities: found Movie: u'Bereavement' - IMDb ID: tt1100051
  242. 15:08:13 T:9060  NOTICE: Trakt Utilities: found Movie: u'The Big Year' - IMDb ID: tt1053810
  243. 15:08:13 T:9060  NOTICE: Trakt Utilities: found Movie: u'BKO: Bangkok Knockout' - IMDb ID: tt1770650
  244. 15:08:13 T:9060  NOTICE: Trakt Utilities: found Movie: u'Black Swan' - IMDb ID: tt0947798
  245. 15:08:13 T:9060  NOTICE: Trakt Utilities: found Movie: u'Blitz' - IMDb ID: tt1297919
  246. 15:08:13 T:9060  NOTICE: Trakt Utilities: found Movie: u'The Book of Eli' - IMDb ID: tt1037705
  247. 15:08:13 T:9060  NOTICE: Trakt Utilities: found Movie: u'The Bounty Hunter' - IMDb ID: tt1038919
  248. 15:08:13 T:9060  NOTICE: Trakt Utilities: found Movie: u'Bridesmaids' - IMDb ID: tt1478338
  249. 15:08:13 T:9060  NOTICE: Trakt Utilities: found Movie: u'Bunraku' - IMDb ID: tt1181795
  250. 15:08:13 T:9060  NOTICE: Trakt Utilities: found Movie: u'Buried' - IMDb ID: tt1462758
  251. 15:08:13 T:9060  NOTICE: Trakt Utilities: found Movie: u'Burn Notice: The Fall of Sam Axe' - IMDb ID: tt1697851
  252. 15:08:13 T:9060  NOTICE: Trakt Utilities: found Movie: u'Cameraman: The Life and Work of Jack Cardiff' - IMDb ID: tt1626811
  253. 15:08:13 T:9060  NOTICE: Trakt Utilities: found Movie: u'Captain America: The First Avenger' - IMDb ID: tt0458339
  254. 15:08:13 T:9060  NOTICE: Trakt Utilities: found Movie: u'Cars 2' - IMDb ID: tt1216475
  255. 15:08:13 T:9060  NOTICE: Trakt Utilities: found Movie: u'Cedar Rapids' - IMDb ID: tt1477837
  256. 15:08:13 T:9060  NOTICE: Trakt Utilities: found Movie: u'Centurion' - IMDb ID: tt1020558
  257. 15:08:13 T:9060  NOTICE: Trakt Utilities: found Movie: u'Ceremony' - IMDb ID: tt1341341
  258. 15:08:13 T:9060  NOTICE: Trakt Utilities: found Movie: u'The Change-Up' - IMDb ID: tt1488555
  259. 15:08:13 T:9060  NOTICE: Trakt Utilities: found Movie: u'Children of the Corn: Genesis' - IMDb ID: tt1745672
  260. 15:08:13 T:9060  NOTICE: Trakt Utilities: found Movie: u'The Chronicles of Narnia: The Voyage of the Dawn Treader' - IMDb ID: tt0980970
  261. 15:08:13 T:9060  NOTICE: Trakt Utilities: found Movie: u'Clash of the Titans' - IMDb ID: tt0800320
  262. 15:08:13 T:9060  NOTICE: Trakt Utilities: found Movie: u'Colombiana' - IMDb ID: tt1657507
  263. 15:08:13 T:9060  NOTICE: Trakt Utilities: found Movie: u'The Company Men' - IMDb ID: tt1172991
  264. 15:08:13 T:9060  NOTICE: Trakt Utilities: found Movie: u'Conan the Barbarian' - IMDb ID: tt0816462
  265. 15:08:13 T:9060  NOTICE: Trakt Utilities: found Movie: u'Contagion' - IMDb ID: tt1598778
  266. 15:08:13 T:9060  NOTICE: Trakt Utilities: found Movie: u'Contraband' - IMDb ID: tt1524137
  267. 15:08:13 T:9060  NOTICE: Trakt Utilities: found Movie: u'Conviction' - IMDb ID: tt1244754
  268. 15:08:13 T:9060  NOTICE: Trakt Utilities: found Movie: u'Cop Out' - IMDb ID: tt1385867
  269. 15:08:13 T:9060  NOTICE: Trakt Utilities: found Movie: u'Cougar Hunting' - IMDb ID: tt1413489
  270. 15:08:13 T:9060  NOTICE: Trakt Utilities: found Movie: u'Cowboys & Aliens' - IMDb ID: tt0409847
  271. 15:08:13 T:9060  NOTICE: Trakt Utilities: found Movie: u'Crazy, Stupid, Love.' - IMDb ID: tt1570728
  272. 15:08:13 T:9060  NOTICE: Trakt Utilities: found Movie: u'Date Night' - IMDb ID: tt1279935
  273. 15:08:13 T:9060  NOTICE: Trakt Utilities: found Movie: u'Death at a Funeral' - IMDb ID: tt1321509
  274. 15:08:13 T:9060  NOTICE: Trakt Utilities: found Movie: u'The Descendants' - IMDb ID: tt1033575
  275. 15:08:13 T:9060  NOTICE: Trakt Utilities: found Movie: u'Despicable Me' - IMDb ID: tt1323594
  276. 15:08:13 T:9060  NOTICE: Trakt Utilities: found Movie: u"The Devil's Double" - IMDb ID: tt1270262
  277. 15:08:13 T:9060  NOTICE: Trakt Utilities: found Movie: u'Diary of a Wimpy Kid' - IMDb ID: tt1196141
  278. 15:08:13 T:9060  NOTICE: Trakt Utilities: found Movie: u'The Dilemma' - IMDb ID: tt1578275
  279. 15:08:13 T:9060  NOTICE: Trakt Utilities: found Movie: u'Dinner for Schmucks' - IMDb ID: tt0427152
  280. 15:08:13 T:9060  NOTICE: Trakt Utilities: found Movie: u'Suzumiya Haruhi no sh\xf4shitsu' - IMDb ID: tt1572781
  281. 15:08:13 T:9060  NOTICE: Trakt Utilities: found Movie: u'Dream House' - IMDb ID: tt1462041
  282. 15:08:13 T:9060  NOTICE: Trakt Utilities: found Movie: u'Drive' - IMDb ID: tt0780504
  283. 15:08:13 T:9060  NOTICE: Trakt Utilities: found Movie: u'Drive Angry' - IMDb ID: tt1502404
  284. 15:08:13 T:9060  NOTICE: Trakt Utilities: found Movie: u'Due Date' - IMDb ID: tt1231583
  285. 15:08:13 T:9060  NOTICE: Trakt Utilities: found Movie: u'The Eagle' - IMDb ID: tt1034389
  286. 15:08:13 T:9060  NOTICE: Trakt Utilities: found Movie: u'Easy A' - IMDb ID: tt1282140
  287. 15:08:13 T:9060  NOTICE: Trakt Utilities: found Movie: u'Tropa de Elite 2 - O Inimigo Agora \xc9 Outro' - IMDb ID: tt1555149
  288. 15:08:13 T:9060  NOTICE: Trakt Utilities: found Movie: u'Everything Must Go' - IMDb ID: tt1531663
  289. 15:08:13 T:9060  NOTICE: Trakt Utilities: found Movie: u'The Expendables' - IMDb ID: tt1320253
  290. 15:08:13 T:9060  NOTICE: Trakt Utilities: found Movie: u'Extremely Loud & Incredibly Close' - IMDb ID: tt0477302
  291. 15:08:13 T:9060  NOTICE: Trakt Utilities: found Movie: u'Fair Game' - IMDb ID: tt0977855
  292. 15:08:13 T:9060  NOTICE: Trakt Utilities: found Movie: u'Fast Five' - IMDb ID: tt1596343
  293. 15:08:13 T:9060  NOTICE: Trakt Utilities: found Movie: u'Faster' - IMDb ID: tt1433108
  294. 15:08:13 T:9060  NOTICE: Trakt Utilities: found Movie: u'Father of Invention' - IMDb ID: tt1381505
  295. 15:08:13 T:9060  NOTICE: Trakt Utilities: found Movie: u'The Fighter' - IMDb ID: tt0964517
  296. 15:08:13 T:9060  NOTICE: Trakt Utilities: found Movie: u'Flypaper' - IMDb ID: tt1541160
  297. 15:08:13 T:9060  NOTICE: Trakt Utilities: found Movie: u'Forks Over Knives' - IMDb ID: tt1567233
  298. 15:08:13 T:9060  NOTICE: Trakt Utilities: found Movie: u'Friends with Benefits' - IMDb ID: tt1632708
  299. 15:08:13 T:9060  NOTICE: Trakt Utilities: found Movie: u'From Paris with Love' - IMDb ID: tt1179034
  300. 15:08:13 T:9060  NOTICE: Trakt Utilities: found Movie: u'Get Him to the Greek' - IMDb ID: tt1226229
  301. 15:08:13 T:9060  NOTICE: Trakt Utilities: found Movie: u'Get Low' - IMDb ID: tt1194263
  302. 15:08:13 T:9060  NOTICE: Trakt Utilities: found Movie: u'The Ghost Writer' - IMDb ID: tt1139328
  303. 15:08:13 T:9060  NOTICE: Trakt Utilities: found Movie: u'The Girl with the Dragon Tattoo' - IMDb ID: tt1568346
  304. 15:08:13 T:9060  NOTICE: Trakt Utilities: found Movie: u'The Greatest Movie Ever Sold' - IMDb ID: tt1743720
  305. 15:08:13 T:9060  NOTICE: Trakt Utilities: found Movie: u'The Green Hornet' - IMDb ID: tt0990407
  306. 15:08:13 T:9060  NOTICE: Trakt Utilities: found Movie: u'Green Lantern' - IMDb ID: tt1133985
  307. 15:08:13 T:9060  NOTICE: Trakt Utilities: found Movie: u'Green Zone' - IMDb ID: tt0947810
  308. 15:08:13 T:9060  NOTICE: Trakt Utilities: found Movie: u'The Grey' - IMDb ID: tt1601913
  309. 15:08:13 T:9060  NOTICE: Trakt Utilities: found Movie: u'Grown Ups' - IMDb ID: tt1375670
  310. 15:08:13 T:9060  NOTICE: Trakt Utilities: found Movie: u"Gulliver's Travels" - IMDb ID: tt1320261
  311. 15:08:13 T:9060  NOTICE: Trakt Utilities: found Movie: u'Hall Pass' - IMDb ID: tt0480687
  312. 15:08:13 T:9060  NOTICE: Trakt Utilities: found Movie: u'The Hangover Part II' - IMDb ID: tt1411697
  313. 15:08:13 T:9060  NOTICE: Trakt Utilities: found Movie: u'Hanna' - IMDb ID: tt0993842
  314. 15:08:13 T:9060  NOTICE: Trakt Utilities: found Movie: u'Harry Potter and the Deathly Hallows: Part 1' - IMDb ID: tt0926084
  315. 15:08:13 T:9060  NOTICE: Trakt Utilities: found Movie: u'Harry Potter and the Deathly Hallows: Part 2' - IMDb ID: tt1201607
  316. 15:08:13 T:9060  NOTICE: Trakt Utilities: found Movie: u'The Help' - IMDb ID: tt1454029
  317. 15:08:13 T:9060  NOTICE: Trakt Utilities: found Movie: u"Henry's Crime" - IMDb ID: tt1220888
  318. 15:08:13 T:9060  NOTICE: Trakt Utilities: found Movie: u'Hop' - IMDb ID: tt1411704
  319. 15:08:13 T:9060  NOTICE: Trakt Utilities: found Movie: u'Horrible Bosses' - IMDb ID: tt1499658
  320. 15:08:13 T:9060  NOTICE: Trakt Utilities: found Movie: u'Hot Tub Time Machine' - IMDb ID: tt1231587
  321. 15:08:13 T:9060  NOTICE: Trakt Utilities: found Movie: u'How to Train Your Dragon' - IMDb ID: tt0892769
  322. 15:08:13 T:9060  NOTICE: Trakt Utilities: found Movie: u'Hugo' - IMDb ID: tt0970179
  323. 15:08:13 T:9060  NOTICE: Trakt Utilities: found Movie: u'I Am Number Four' - IMDb ID: tt1464540
  324. 15:08:13 T:9060  NOTICE: Trakt Utilities: found Movie: u'The Ides of March' - IMDb ID: tt1124035
  325. 15:08:13 T:9060  NOTICE: Trakt Utilities: found Movie: u'Immortals' - IMDb ID: tt1253864
  326. 15:08:13 T:9060  NOTICE: Trakt Utilities: found Movie: u'H\xe6vnen' - IMDb ID: tt1340107
  327. 15:08:13 T:9060  NOTICE: Trakt Utilities: found Movie: u'In Time' - IMDb ID: tt1637688
  328. 15:08:13 T:9060  NOTICE: Trakt Utilities: found Movie: u'The Inbetweeners Movie' - IMDb ID: tt1716772
  329. 15:08:13 T:9060  NOTICE: Trakt Utilities: found Movie: u'Incendies' - IMDb ID: tt1255953
  330. 15:08:13 T:9060  NOTICE: Trakt Utilities: found Movie: u'Inception' - IMDb ID: tt1375666
  331. 15:08:13 T:9060  NOTICE: Trakt Utilities: found Movie: u'Inside Job' - IMDb ID: tt1645089
  332. 15:08:13 T:9060  NOTICE: Trakt Utilities: found Movie: u'Yip Man' - IMDb ID: tt1220719
  333. 15:08:13 T:9060  NOTICE: Trakt Utilities: found Movie: u'Iron Man 2' - IMDb ID: tt1228705
  334. 15:08:13 T:9060  NOTICE: Trakt Utilities: found Movie: u"It's Kind of a Funny Story" - IMDb ID: tt0804497
  335. 15:08:13 T:9060  NOTICE: Trakt Utilities: found Movie: u'Jack and Jill' - IMDb ID: tt0810913
  336. 15:08:13 T:9060  NOTICE: Trakt Utilities: found Movie: u'Jane Eyre' - IMDb ID: tt1229822
  337. 15:08:13 T:9060  NOTICE: Trakt Utilities: found Movie: u'Johnny English Reborn' - IMDb ID: tt1634122
  338. 15:08:13 T:9060  NOTICE: Trakt Utilities: found Movie: u'Jonah Hex' - IMDb ID: tt1075747
  339. 15:08:13 T:9060  NOTICE: Trakt Utilities: found Movie: u'Jumping the Broom' - IMDb ID: tt1640484
  340. 15:08:13 T:9060  NOTICE: Trakt Utilities: found Movie: u'Just Go with It' - IMDb ID: tt1564367
  341. 15:08:13 T:9060  NOTICE: Trakt Utilities: found Movie: u'The Karate Kid' - IMDb ID: tt1155076
  342. 15:08:13 T:9060  NOTICE: Trakt Utilities: found Movie: u'Kick-Ass' - IMDb ID: tt1250777
  343. 15:08:13 T:9060  NOTICE: Trakt Utilities: found Movie: u'Killer Elite' - IMDb ID: tt1448755
  344. 15:08:13 T:9060  NOTICE: Trakt Utilities: found Movie: u'Killing Bono' - IMDb ID: tt1535101
  345. 15:08:13 T:9060  NOTICE: Trakt Utilities: found Movie: u"The King's Speech" - IMDb ID: tt1504320
  346. 15:08:13 T:9060  NOTICE: Trakt Utilities: found Movie: u'Knight and Day' - IMDb ID: tt1013743
  347. 15:08:13 T:9060  NOTICE: Trakt Utilities: found Movie: u'Kung Fu Panda 2' - IMDb ID: tt1302011
  348. 15:08:13 T:9060  NOTICE: Trakt Utilities: found Movie: u'The Last Airbender' - IMDb ID: tt0938283
  349. 15:08:13 T:9060  NOTICE: Trakt Utilities: found Movie: u'The Last Godfather' - IMDb ID: tt1584131
  350. 15:08:13 T:9060  NOTICE: Trakt Utilities: found Movie: u'Legacy' - IMDb ID: tt1436034
  351. 15:08:13 T:9060  NOTICE: Trakt Utilities: found Movie: u'Jing wu feng yun: Chen Zhen' - IMDb ID: tt1456661
  352. 15:08:13 T:9060  NOTICE: Trakt Utilities: found Movie: u'Legion' - IMDb ID: tt1038686
  353. 15:08:13 T:9060  NOTICE: Trakt Utilities: found Movie: u'Life as We Know It' - IMDb ID: tt1055292
  354. 15:08:13 T:9060  NOTICE: Trakt Utilities: found Movie: u'Life in a Day' - IMDb ID: tt1687247
  355. 15:08:13 T:9060  NOTICE: Trakt Utilities: found Movie: u'Limitless' - IMDb ID: tt1219289
  356. 15:08:13 T:9060  NOTICE: Trakt Utilities: found Movie: u'The Lincoln Lawyer' - IMDb ID: tt1189340
  357. 15:08:13 T:9060  NOTICE: Trakt Utilities: found Movie: u'Da bing xiao jiang' - IMDb ID: tt1319718
  358. 15:08:13 T:9060  NOTICE: Trakt Utilities: found Movie: u'Little Fockers' - IMDb ID: tt0970866
  359. 15:08:13 T:9060  NOTICE: Trakt Utilities: found Movie: u'London Boulevard' - IMDb ID: tt1213648
  360. 15:08:13 T:9060  NOTICE: Trakt Utilities: found Movie: u'Lost Boys: The Thirst' - IMDb ID: tt1400526
  361. 15:08:13 T:9060  NOTICE: Trakt Utilities: found Movie: u'Love and Other Drugs' - IMDb ID: tt0758752
  362. 15:08:13 T:9060  NOTICE: Trakt Utilities: found Movie: u'Lucky' - IMDb ID: tt1473397
  363. 15:08:13 T:9060  NOTICE: Trakt Utilities: found Movie: u'' - IMDb ID: tt1470023
  364. 15:08:13 T:9060  NOTICE: Trakt Utilities: found Movie: u'Machete' - IMDb ID: tt0985694
  365. 15:08:13 T:9060  NOTICE: Trakt Utilities: found Movie: u'Machine Gun Preacher' - IMDb ID: tt1586752
  366. 15:08:13 T:9060  NOTICE: Trakt Utilities: found Movie: u'Margin Call' - IMDb ID: tt1615147
  367. 15:08:13 T:9060  NOTICE: Trakt Utilities: found Movie: u'The Mechanic' - IMDb ID: tt0472399
  368. 15:08:13 T:9060  NOTICE: Trakt Utilities: found Movie: u'Megamind' - IMDb ID: tt1001526
  369. 15:08:13 T:9060  NOTICE: Trakt Utilities: found Movie: u'Mission: Impossible - Ghost Protocol' - IMDb ID: tt1229238
  370. 15:08:13 T:9060  NOTICE: Trakt Utilities: found Movie: u'Moneyball' - IMDb ID: tt1210166
  371. 15:08:13 T:9060  NOTICE: Trakt Utilities: found Movie: u'Monsters' - IMDb ID: tt1470827
  372. 15:08:13 T:9060  NOTICE: Trakt Utilities: found Movie: u"Mr. Popper's Penguins" - IMDb ID: tt1396218
  373. 15:08:13 T:9060  NOTICE: Trakt Utilities: found Movie: u'The Muppets' - IMDb ID: tt1204342
  374. 15:08:13 T:9060  NOTICE: Trakt Utilities: found Movie: u'Nanny McPhee and the Big Bang' - IMDb ID: tt1415283
  375. 15:08:13 T:9060  NOTICE: Trakt Utilities: found Movie: u'The Next Three Days' - IMDb ID: tt1458175
  376. 15:08:13 T:9060  NOTICE: Trakt Utilities: found Movie: u'No Strings Attached' - IMDb ID: tt1411238
  377. 15:08:13 T:9060  NOTICE: Trakt Utilities: found Movie: u'Nokas' - IMDb ID: tt1337366
  378. 15:08:13 T:9060  NOTICE: Trakt Utilities: found Movie: u'The Other Guys' - IMDb ID: tt1386588
  379. 15:08:13 T:9060  NOTICE: Trakt Utilities: found Movie: u'Our Idiot Brother' - IMDb ID: tt1637706
  380. 15:08:13 T:9060  NOTICE: Trakt Utilities: found Movie: u'Paranormal Activity 3' - IMDb ID: tt1778304
  381. 15:08:13 T:9060  NOTICE: Trakt Utilities: found Movie: u'Paul' - IMDb ID: tt1092026
  382. 15:08:13 T:9060  NOTICE: Trakt Utilities: found Movie: u'Percy Jackson & the Olympians: The Lightning Thief' - IMDb ID: tt0814255
  383. 15:08:13 T:9060  NOTICE: Trakt Utilities: found Movie: u'The Perfect Host' - IMDb ID: tt1334553
  384. 15:08:13 T:9060  NOTICE: Trakt Utilities: found Movie: u'Pirates of the Caribbean: On Stranger Tides' - IMDb ID: tt1298650
  385. 15:08:13 T:9060  NOTICE: Trakt Utilities: found Movie: u'Rise of the Planet of the Apes' - IMDb ID: tt1318514
  386. 15:08:13 T:9060  NOTICE: Trakt Utilities: found Movie: u'Predators' - IMDb ID: tt1424381
  387. 15:08:13 T:9060  NOTICE: Trakt Utilities: found Movie: u'Priest' - IMDb ID: tt0822847
  388. 15:08:13 T:9060  NOTICE: Trakt Utilities: found Movie: u'Prince of Persia: The Sands of Time' - IMDb ID: tt0473075
  389. 15:08:13 T:9060  NOTICE: Trakt Utilities: found Movie: u'Puncture' - IMDb ID: tt1582248
  390. 15:08:13 T:9060  NOTICE: Trakt Utilities: found Movie: u'Puss in Boots' - IMDb ID: tt0448694
  391. 15:08:13 T:9060  NOTICE: Trakt Utilities: found Movie: u'Rango' - IMDb ID: tt1192628
  392. 15:08:13 T:9060  NOTICE: Trakt Utilities: found Movie: u'Real Steel' - IMDb ID: tt0433035
  393. 15:08:13 T:9060  NOTICE: Trakt Utilities: found Movie: u'Red' - IMDb ID: tt1245526
  394. 15:08:13 T:9060  NOTICE: Trakt Utilities: found Movie: u'Red Riding Hood' - IMDb ID: tt1486185
  395. 15:08:13 T:9060  NOTICE: Trakt Utilities: found Movie: u'Repo Men' - IMDb ID: tt1053424
  396. 15:08:13 T:9060  NOTICE: Trakt Utilities: found Movie: u'Resident Evil: Afterlife' - IMDb ID: tt1220634
  397. 15:08:13 T:9060  NOTICE: Trakt Utilities: found Movie: u'Rio' - IMDb ID: tt1436562
  398. 15:08:13 T:9060  NOTICE: Trakt Utilities: found Movie: u'The Rite' - IMDb ID: tt1161864
  399. 15:08:13 T:9060  NOTICE: Trakt Utilities: found Movie: u'Robin Hood' - IMDb ID: tt0955308
  400. 15:08:13 T:9060  NOTICE: Trakt Utilities: found Movie: u'The Rum Diary' - IMDb ID: tt0376136
  401. 15:08:13 T:9060  NOTICE: Trakt Utilities: found Movie: u'Salt' - IMDb ID: tt0944835
  402. 15:08:13 T:9060  NOTICE: Trakt Utilities: found Movie: u'Sanctum' - IMDb ID: tt0881320
  403. 15:08:13 T:9060  NOTICE: Trakt Utilities: found Movie: u'Scott Pilgrim vs. the World' - IMDb ID: tt0446029
  404. 15:08:13 T:9060  NOTICE: Trakt Utilities: found Movie: u'Season of the Witch' - IMDb ID: tt0479997
  405. 15:08:13 T:9060  NOTICE: Trakt Utilities: found Movie: u'Secretariat' - IMDb ID: tt1028576
  406. 15:08:13 T:9060  NOTICE: Trakt Utilities: found Movie: u'Seeking Justice' - IMDb ID: tt1214962
  407. 15:08:13 T:9060  NOTICE: Trakt Utilities: found Movie: u'Setup' - IMDb ID: tt1748197
  408. 15:08:13 T:9060  NOTICE: Trakt Utilities: found Movie: u"She's Out of My League" - IMDb ID: tt0815236
  409. 15:08:13 T:9060  NOTICE: Trakt Utilities: found Movie: u'Sherlock Holmes: A Game of Shadows' - IMDb ID: tt1515091
  410. 15:08:13 T:9060  NOTICE: Trakt Utilities: found Movie: u'Shrek Forever After' - IMDb ID: tt0892791
  411. 15:08:13 T:9060  NOTICE: Trakt Utilities: found Movie: u'Shutter Island' - IMDb ID: tt1130884
  412. 15:08:13 T:9060  NOTICE: Trakt Utilities: found Movie: u'Sinners and Saints' - IMDb ID: tt1130969
  413. 15:08:13 T:9060  NOTICE: Trakt Utilities: found Movie: u'The Sitter' - IMDb ID: tt1366344
  414. 15:08:13 T:9060  NOTICE: Trakt Utilities: found Movie: u'Skyline' - IMDb ID: tt1564585
  415. 15:08:13 T:9060  NOTICE: Trakt Utilities: found Movie: u'The Smurfs' - IMDb ID: tt0472181
  416. 15:08:13 T:9060  NOTICE: Trakt Utilities: found Movie: u'The Social Network' - IMDb ID: tt1285016
  417. 15:08:13 T:9060  NOTICE: Trakt Utilities: found Movie: u"The Sorcerer's Apprentice" - IMDb ID: tt0963966
  418. 15:08:13 T:9060  NOTICE: Trakt Utilities: found Movie: u'Source Code' - IMDb ID: tt0945513
  419. 15:08:13 T:9060  NOTICE: Trakt Utilities: found Movie: u'The Spy Next Door' - IMDb ID: tt1273678
  420. 15:08:13 T:9060  NOTICE: Trakt Utilities: found Movie: u'Sucker Punch' - IMDb ID: tt0978764
  421. 15:08:13 T:9060  NOTICE: Trakt Utilities: found Movie: u'Demons Never Die' - IMDb ID: tt1777612
  422. 15:08:13 T:9060  NOTICE: Trakt Utilities: found Movie: u'Super 8' - IMDb ID: tt1650062
  423. 15:08:13 T:9060  NOTICE: Trakt Utilities: found Movie: u'The Switch' - IMDb ID: tt0889573
  424. 15:08:13 T:9060  NOTICE: Trakt Utilities: found Movie: u'Take Me Home Tonight' - IMDb ID: tt0810922
  425. 15:08:13 T:9060  NOTICE: Trakt Utilities: found Movie: u'Takers' - IMDb ID: tt1135084
  426. 15:08:13 T:9060  NOTICE: Trakt Utilities: found Movie: u'Tangled' - IMDb ID: tt0398286
  427. 15:08:13 T:9060  NOTICE: Trakt Utilities: found Movie: u"That's What I Am" - IMDb ID: tt1606180
  428. 15:08:13 T:9060  NOTICE: Trakt Utilities: found Movie: u'Thor' - IMDb ID: tt0800369
  429. 15:08:13 T:9060  NOTICE: Trakt Utilities: found Movie: u'The Three Musketeers' - IMDb ID: tt1509767
  430. 15:08:13 T:9060  NOTICE: Trakt Utilities: found Movie: u'Tinker Tailor Soldier Spy' - IMDb ID: tt1340800
  431. 15:08:13 T:9060  NOTICE: Trakt Utilities: found Movie: u'Tomorrow, When the War Began' - IMDb ID: tt1456941
  432. 15:08:13 T:9060  NOTICE: Trakt Utilities: found Movie: u'The Tourist' - IMDb ID: tt1243957
  433. 15:08:13 T:9060  NOTICE: Trakt Utilities: found Movie: u'Tower Heist' - IMDb ID: tt0471042
  434. 15:08:13 T:9060  NOTICE: Trakt Utilities: found Movie: u'The Town' - IMDb ID: tt0840361
  435. 15:08:13 T:9060  NOTICE: Trakt Utilities: found Movie: u'Toy Story 3' - IMDb ID: tt0435761
  436. 15:08:13 T:9060  NOTICE: Trakt Utilities: found Movie: u'Transformers: Dark of the Moon' - IMDb ID: tt1399103
  437. 15:08:13 T:9060  NOTICE: Trakt Utilities: found Movie: u'Trespass' - IMDb ID: tt1674784
  438. 15:08:13 T:9060  NOTICE: Trakt Utilities: found Movie: u'TRON: Legacy' - IMDb ID: tt1104001
  439. 15:08:13 T:9060  NOTICE: Trakt Utilities: found Movie: u'True Grit' - IMDb ID: tt1403865
  440. 15:08:13 T:9060  NOTICE: Trakt Utilities: found Movie: u'Tucker and Dale vs Evil' - IMDb ID: tt1465522
  441. 15:08:13 T:9060  NOTICE: Trakt Utilities: found Movie: u'Underworld: Awakening' - IMDb ID: tt1496025
  442. 15:08:13 T:9060  NOTICE: Trakt Utilities: found Movie: u'Unknown' - IMDb ID: tt1401152
  443. 15:08:13 T:9060  NOTICE: Trakt Utilities: found Movie: u'Unstoppable' - IMDb ID: tt0477080
  444. 15:08:13 T:9060  NOTICE: Trakt Utilities: found Movie: u'Unthinkable' - IMDb ID: tt0914863
  445. 15:08:13 T:9060  NOTICE: Trakt Utilities: found Movie: u"Valentine's Day" - IMDb ID: tt0817230
  446. 15:08:13 T:9060  NOTICE: Trakt Utilities: found Movie: u'Vampires Suck' - IMDb ID: tt1666186
  447. 15:08:13 T:9060  NOTICE: Trakt Utilities: found Movie: u'The Veteran' - IMDb ID: tt1653700
  448. 15:08:13 T:9060  NOTICE: Trakt Utilities: found Movie: u'Wall Street: Money Never Sleeps' - IMDb ID: tt1027718
  449. 15:08:13 T:9060  NOTICE: Trakt Utilities: found Movie: u'War Horse' - IMDb ID: tt1568911
  450. 15:08:13 T:9060  NOTICE: Trakt Utilities: found Movie: u"The Warrior's Way" - IMDb ID: tt1032751
  451. 15:08:13 T:9060  NOTICE: Trakt Utilities: found Movie: u'Warrior' - IMDb ID: tt1291584
  452. 15:08:13 T:9060  NOTICE: Trakt Utilities: found Movie: u'The Way Back' - IMDb ID: tt1023114
  453. 15:08:13 T:9060  NOTICE: Trakt Utilities: found Movie: u'When in Rome' - IMDb ID: tt1185416
  454. 15:08:13 T:9060  NOTICE: Trakt Utilities: found Movie: u'Wild Target' - IMDb ID: tt1235189
  455. 15:08:13 T:9060  NOTICE: Trakt Utilities: found Movie: u'Win Win' - IMDb ID: tt1606392
  456. 15:08:13 T:9060  NOTICE: Trakt Utilities: found Movie: u'The Wolfman' - IMDb ID: tt0780653
  457. 15:08:13 T:9060  NOTICE: Trakt Utilities: found Movie: u'Wrecked' - IMDb ID: tt1316622
  458. 15:08:13 T:9060  NOTICE: Trakt Utilities: found Movie: u'X-Men: First Class' - IMDb ID: tt1270798
  459. 15:08:13 T:9060  NOTICE: Trakt Utilities: found Movie: u'Your Highness' - IMDb ID: tt1240982
  460. 15:08:13 T:9060  NOTICE: Trakt Utilities: found Movie: u'Zookeeper' - IMDb ID: tt1222817
  461. 15:08:13 T:9060  NOTICE: Trakt Utilities: found Movie: u"'Breaker' Morant" - IMDb ID: tt0080310
  462. 15:08:13 T:9060  NOTICE: Trakt Utilities: found Movie: u'\xa1Three Amigos!' - IMDb ID: tt0092086
  463. 15:08:13 T:9060  NOTICE: Trakt Utilities: found Movie: u'2 Fast 2 Furious' - IMDb ID: tt0322259
  464. 15:08:13 T:9060  NOTICE: Trakt Utilities: found Movie: u'3 Men and a Baby' - IMDb ID: tt0094137
  465. 15:08:13 T:9060  NOTICE: Trakt Utilities: found Movie: u'3 Ninjas' - IMDb ID: tt0103596
  466. 15:08:13 T:9060  NOTICE: Trakt Utilities: found Movie: u'The 6th Day' - IMDb ID: tt0216216
  467. 15:08:13 T:9060  NOTICE: Trakt Utilities: found Movie: u'9' - IMDb ID: tt0472033
  468. 15:08:13 T:9060  NOTICE: Trakt Utilities: found Movie: u'10 Things I Hate About You' - IMDb ID: tt0147800
  469. 15:08:13 T:9060  NOTICE: Trakt Utilities: found Movie: u'16 Blocks' - IMDb ID: tt0450232
  470. 15:08:13 T:9060  NOTICE: Trakt Utilities: found Movie: u'17 Again' - IMDb ID: tt0974661
  471. 15:08:13 T:9060  NOTICE: Trakt Utilities: found Movie: u'20000 Leagues Under the Sea' - IMDb ID: tt0046672
  472. 15:08:13 T:9060  NOTICE: Trakt Utilities: found Movie: u'21 Grams' - IMDb ID: tt0315733
  473. 15:08:13 T:9060  NOTICE: Trakt Utilities: found Movie: u'27 Dresses' - IMDb ID: tt0988595
  474. 15:08:13 T:9060  NOTICE: Trakt Utilities: found Movie: u'28 Days Later...' - IMDb ID: tt0289043
  475. 15:08:13 T:9060  NOTICE: Trakt Utilities: found Movie: u'28 Weeks Later' - IMDb ID: tt0463854
  476. 15:08:13 T:9060  NOTICE: Trakt Utilities: found Movie: u'50 First Dates' - IMDb ID: tt0343660
  477. 15:08:13 T:9060  NOTICE: Trakt Utilities: found Movie: u'101 Dalmatians' - IMDb ID: tt0115433
  478. 15:08:13 T:9060  NOTICE: Trakt Utilities: found Movie: u"101 Dalmatians II: Patch's London Adventure" - IMDb ID: tt0324941
  479. 15:08:13 T:9060  NOTICE: Trakt Utilities: found Movie: u'300' - IMDb ID: tt0416449
  480. 15:08:13 T:9060  NOTICE: Trakt Utilities: found Movie: u'3:10 to Yuma' - IMDb ID: tt0381849
  481. 15:08:13 T:9060  NOTICE: Trakt Utilities: found Movie: u'(500) Days of Summer' - IMDb ID: tt1022603
  482. 15:08:13 T:9060  NOTICE: Trakt Utilities: found Movie: u'1408' - IMDb ID: tt0450385
  483. 15:08:13 T:9060  NOTICE: Trakt Utilities: found Movie: u'2001: A Space Odyssey' - IMDb ID: tt0062622
  484. 15:08:13 T:9060  NOTICE: Trakt Utilities: found Movie: u'A Beautiful Mind' - IMDb ID: tt0268978
  485. 15:08:13 T:9060  NOTICE: Trakt Utilities: found Movie: u"A Bug's Life" - IMDb ID: tt0120623
  486. 15:08:13 T:9060  NOTICE: Trakt Utilities: found Movie: u'A Christmas Carol' - IMDb ID: tt1067106
  487. 15:08:13 T:9060  NOTICE: Trakt Utilities: found Movie: u'A Clockwork Orange' - IMDb ID: tt0066921
  488. 15:08:13 T:9060  NOTICE: Trakt Utilities: found Movie: u'A History of Violence' - IMDb ID: tt0399146
  489. 15:08:13 T:9060  NOTICE: Trakt Utilities: found Movie: u'A Little Princess' - IMDb ID: tt0113670
  490. 15:08:13 T:9060  NOTICE: Trakt Utilities: found Movie: u'A Night at the Roxbury' - IMDb ID: tt0120770
  491. 15:08:13 T:9060  NOTICE: Trakt Utilities: found Movie: u'A Perfect Murder' - IMDb ID: tt0120787
  492. 15:08:13 T:9060  NOTICE: Trakt Utilities: found Movie: u'Artificial Intelligence: AI' - IMDb ID: tt0212720
  493. 15:08:13 T:9060  NOTICE: Trakt Utilities: found Movie: u'About a Boy' - IMDb ID: tt0276751
  494. 15:08:13 T:9060  NOTICE: Trakt Utilities: found Movie: u'Accepted' - IMDb ID: tt0384793
  495. 15:08:13 T:9060  NOTICE: Trakt Utilities: found Movie: u'Ace Ventura: Pet Detective' - IMDb ID: tt0109040
  496. 15:08:13 T:9060  NOTICE: Trakt Utilities: found Movie: u'Ace Ventura: When Nature Calls' - IMDb ID: tt0112281
  497. 15:08:13 T:9060  NOTICE: Trakt Utilities: found Movie: u'Adaptation.' - IMDb ID: tt0268126
  498. 15:08:13 T:9060  NOTICE: Trakt Utilities: found Movie: u'Koneko monogatari' - IMDb ID: tt0097050
  499. 15:08:13 T:9060  NOTICE: Trakt Utilities: found Movie: u'The Air I Breathe' - IMDb ID: tt0485851
  500. 15:08:13 T:9060  NOTICE: Trakt Utilities: found Movie: u'The Air Up There' - IMDb ID: tt0109067
  501. 15:08:13 T:9060  NOTICE: Trakt Utilities: found Movie: u'Airheads' - IMDb ID: tt0109068
  502. 15:08:13 T:9060  NOTICE: Trakt Utilities: found Movie: u'Aladdin' - IMDb ID: tt0103639
  503. 15:08:13 T:9060  NOTICE: Trakt Utilities: found Movie: u'Aladdin and the King of Thieves' - IMDb ID: tt0115491
  504. 15:08:13 T:9060  NOTICE: Trakt Utilities: found Movie: u'The Return of Jafar' - IMDb ID: tt0107952
  505. 15:08:13 T:9060  NOTICE: Trakt Utilities: found Movie: u'Alice in Wonderland' - IMDb ID: tt0043274
  506. 15:08:13 T:9060  NOTICE: Trakt Utilities: found Movie: u'Alien: Resurrection' - IMDb ID: tt0118583
  507. 15:08:13 T:9060  NOTICE: Trakt Utilities: found Movie: u'Alien' - IMDb ID: tt0078748
  508. 15:08:13 T:9060  NOTICE: Trakt Utilities: found Movie: u'Alien\xb3' - IMDb ID: tt0103644
  509. 15:08:13 T:9060  NOTICE: Trakt Utilities: found Movie: u'Aliens' - IMDb ID: tt0090605
  510. 15:08:13 T:9060  NOTICE: Trakt Utilities: found Movie: u'All I Want for Christmas' - IMDb ID: tt0101301
  511. 15:08:13 T:9060  NOTICE: Trakt Utilities: found Movie: u'Almost Famous' - IMDb ID: tt0181875
  512. 15:08:13 T:9060  NOTICE: Trakt Utilities: found Movie: u'Alpha Dog' - IMDb ID: tt0426883
  513. 15:08:13 T:9060  NOTICE: Trakt Utilities: found Movie: u'American Beauty' - IMDb ID: tt0169547
  514. 15:08:13 T:9060  NOTICE: Trakt Utilities: found Movie: u'American Gangster' - IMDb ID: tt0765429
  515. 15:08:13 T:9060  NOTICE: Trakt Utilities: found Movie: u'American Graffiti' - IMDb ID: tt0069704
  516. 15:08:13 T:9060  NOTICE: Trakt Utilities: found Movie: u'American History X' - IMDb ID: tt0120586
  517. 15:08:13 T:9060  NOTICE: Trakt Utilities: found Movie: u'American Psycho' - IMDb ID: tt0144084
  518. 15:08:13 T:9060  NOTICE: Trakt Utilities: found Movie: u'An American Tail: Fievel Goes West' - IMDb ID: tt0101329
  519. 15:08:13 T:9060  NOTICE: Trakt Utilities: found Movie: u'An Extremely Goofy Movie' - IMDb ID: tt0208185
  520. 15:08:13 T:9060  NOTICE: Trakt Utilities: found Movie: u'Anaconda' - IMDb ID: tt0118615
  521. 15:08:13 T:9060  NOTICE: Trakt Utilities: found Movie: u'Analyze That' - IMDb ID: tt0289848
  522. 15:08:13 T:9060  NOTICE: Trakt Utilities: found Movie: u'Analyze This' - IMDb ID: tt0122933
  523. 15:08:13 T:9060  NOTICE: Trakt Utilities: found Movie: u'Anchorman: The Legend of Ron Burgundy' - IMDb ID: tt0357413
  524. 15:08:13 T:9060  NOTICE: Trakt Utilities: found Movie: u'Angels & Demons' - IMDb ID: tt0808151
  525. 15:08:13 T:9060  NOTICE: Trakt Utilities: found Movie: u'Anger Management' - IMDb ID: tt0305224
  526. 15:08:13 T:9060  NOTICE: Trakt Utilities: found Movie: u'The Animal' - IMDb ID: tt0255798
  527. 15:08:13 T:9060  NOTICE: Trakt Utilities: found Movie: u'Annie' - IMDb ID: tt0083564
  528. 15:08:13 T:9060  NOTICE: Trakt Utilities: found Movie: u'Another Stakeout' - IMDb ID: tt0106292
  529. 15:08:13 T:9060  NOTICE: Trakt Utilities: found Movie: u'Apocalypse Now' - IMDb ID: tt0078788
  530. 15:08:13 T:9060  NOTICE: Trakt Utilities: found Movie: u'Apocalypto' - IMDb ID: tt0472043
  531. 15:08:13 T:9060  NOTICE: Trakt Utilities: found Movie: u'The AristoCats' - IMDb ID: tt0065421
  532. 15:08:13 T:9060  NOTICE: Trakt Utilities: found Movie: u'Armageddon' - IMDb ID: tt0120591
  533. 15:08:13 T:9060  NOTICE: Trakt Utilities: found Movie: u'Armored' - IMDb ID: tt0913354
  534. 15:08:13 T:9060  NOTICE: Trakt Utilities: found Movie: u'Around the World in 80 Days' - IMDb ID: tt0327437
  535. 15:08:13 T:9060  NOTICE: Trakt Utilities: found Movie: u'Assassins' - IMDb ID: tt0112401
  536. 15:08:13 T:9060  NOTICE: Trakt Utilities: found Movie: u'Astro Boy' - IMDb ID: tt0375568
  537. 15:08:13 T:9060  NOTICE: Trakt Utilities: found Movie: u"Atlantis: Milo's Return" - IMDb ID: tt0344864
  538. 15:08:13 T:9060  NOTICE: Trakt Utilities: found Movie: u'Atlantis: The Lost Empire' - IMDb ID: tt0230011
  539. 15:08:13 T:9060  NOTICE: Trakt Utilities: found Movie: u'Austin Powers: International Man of Mystery' - IMDb ID: tt0118655
  540. 15:08:13 T:9060  NOTICE: Trakt Utilities: found Movie: u'Austin Powers: The Spy Who Shagged Me' - IMDb ID: tt0145660
  541. 15:08:13 T:9060  NOTICE: Trakt Utilities: found Movie: u'Avatar' - IMDb ID: tt0499549
  542. 15:08:13 T:9060  NOTICE: Trakt Utilities: found Movie: u'AVPR: Aliens vs Predator - Requiem' - IMDb ID: tt0758730
  543. 15:08:13 T:9060  NOTICE: Trakt Utilities: found Movie: u'Awakenings' - IMDb ID: tt0099077
  544. 15:08:13 T:9060  NOTICE: Trakt Utilities: found Movie: u'Babel' - IMDb ID: tt0449467
  545. 15:08:13 T:9060  NOTICE: Trakt Utilities: found Movie: u'Babylon A.D.' - IMDb ID: tt0364970
  546. 15:08:13 T:9060  NOTICE: Trakt Utilities: found Movie: u'Back to the Future' - IMDb ID: tt0088763
  547. 15:08:13 T:9060  NOTICE: Trakt Utilities: found Movie: u'Back to the Future Part II' - IMDb ID: tt0096874
  548. 15:08:13 T:9060  NOTICE: Trakt Utilities: found Movie: u'Back to the Future Part III' - IMDb ID: tt0099088
  549. 15:08:13 T:9060  NOTICE: Trakt Utilities: found Movie: u'Backdraft' - IMDb ID: tt0101393
  550. 15:08:13 T:9060  NOTICE: Trakt Utilities: found Movie: u'Bad Boys' - IMDb ID: tt0112442
  551. 15:08:13 T:9060  NOTICE: Trakt Utilities: found Movie: u'The Bad Lieutenant: Port of Call - New Orleans' - IMDb ID: tt1095217
  552. 15:08:13 T:9060  NOTICE: Trakt Utilities: found Movie: u'Bad Santa' - IMDb ID: tt0307987
  553. 15:08:13 T:9060  NOTICE: Trakt Utilities: found Movie: u'Bambi' - IMDb ID: tt0034492
  554. 15:08:13 T:9060  NOTICE: Trakt Utilities: found Movie: u'Bambi II' - IMDb ID: tt0447854
  555. 15:08:13 T:9060  NOTICE: Trakt Utilities: found Movie: u'The Bank Job' - IMDb ID: tt0200465
  556. 15:08:13 T:9060  NOTICE: Trakt Utilities: found Movie: u'BASEketball' - IMDb ID: tt0131857
  557. 15:08:13 T:9060  NOTICE: Trakt Utilities: found Movie: u'Basic' - IMDb ID: tt0264395
  558. 15:08:13 T:9060  NOTICE: Trakt Utilities: found Movie: u'Batman & Robin' - IMDb ID: tt0118688
  559. 15:08:13 T:9060  NOTICE: Trakt Utilities: found Movie: u'Batman' - IMDb ID: tt0096895
  560. 15:08:13 T:9060  NOTICE: Trakt Utilities: found Movie: u'Batman Begins' - IMDb ID: tt0372784
  561. 15:08:13 T:9060  NOTICE: Trakt Utilities: found Movie: u'Batman Forever' - IMDb ID: tt0112462
  562. 15:08:13 T:9060  NOTICE: Trakt Utilities: found Movie: u'Beauty and the Beast' - IMDb ID: tt0101414
  563. 15:08:13 T:9060  NOTICE: Trakt Utilities: found Movie: u'Bedknobs and Broomsticks' - IMDb ID: tt0066817
  564. 15:08:13 T:9060  NOTICE: Trakt Utilities: found Movie: u'Beethoven' - IMDb ID: tt0103786
  565. 15:08:13 T:9060  NOTICE: Trakt Utilities: found Movie: u'Begotten' - IMDb ID: tt0101420
  566. 15:08:13 T:9060  NOTICE: Trakt Utilities: found Movie: u'Being John Malkovich' - IMDb ID: tt0120601
  567. 15:08:13 T:9060  NOTICE: Trakt Utilities: found Movie: u'Beowulf' - IMDb ID: tt0442933
  568. 15:08:13 T:9060  NOTICE: Trakt Utilities: found Movie: u'The Beverly Hillbillies' - IMDb ID: tt0106400
  569. 15:08:13 T:9060  NOTICE: Trakt Utilities: found Movie: u'The BFG' - IMDb ID: tt0096866
  570. 15:08:13 T:9060  NOTICE: Trakt Utilities: found Movie: u'Bicentennial Man' - IMDb ID: tt0182789
  571. 15:08:13 T:9060  NOTICE: Trakt Utilities: found Movie: u'Big Daddy' - IMDb ID: tt0142342
  572. 15:08:13 T:9060  NOTICE: Trakt Utilities: found Movie: u'Big Fish' - IMDb ID: tt0319061
  573. 15:08:13 T:9060  NOTICE: Trakt Utilities: found Movie: u'The Big Lebowski' - IMDb ID: tt0118715
  574. 15:08:13 T:9060  NOTICE: Trakt Utilities: found Movie: u"Big Momma's House" - IMDb ID: tt0208003
  575. 15:08:13 T:9060  NOTICE: Trakt Utilities: found Movie: u'Big Stan' - IMDb ID: tt0490086
  576. 15:08:13 T:9060  NOTICE: Trakt Utilities: found Movie: u'Big Trouble in Little China' - IMDb ID: tt0090728
  577. 15:08:13 T:9060  NOTICE: Trakt Utilities: found Movie: u'The Big White' - IMDb ID: tt0402850
  578. 15:08:13 T:9060  NOTICE: Trakt Utilities: found Movie: u'Billy Madison' - IMDb ID: tt0112508
  579. 15:08:13 T:9060  NOTICE: Trakt Utilities: found Movie: u'The Black Cauldron' - IMDb ID: tt0088814
  580. 15:08:13 T:9060  NOTICE: Trakt Utilities: found Movie: u'Black Dynamite' - IMDb ID: tt1190536
  581. 15:08:13 T:9060  NOTICE: Trakt Utilities: found Movie: u'Black Hawk Down' - IMDb ID: tt0265086
  582. 15:08:13 T:9060  NOTICE: Trakt Utilities: found Movie: u'Blade: Trinity' - IMDb ID: tt0359013
  583. 15:08:13 T:9060  NOTICE: Trakt Utilities: found Movie: u'Blade' - IMDb ID: tt0120611
  584. 15:08:13 T:9060  NOTICE: Trakt Utilities: found Movie: u'Blade II' - IMDb ID: tt0187738
  585. 15:08:13 T:9060  NOTICE: Trakt Utilities: found Movie: u'Blade Runner' - IMDb ID: tt0083658
  586. 15:08:13 T:9060  NOTICE: Trakt Utilities: found Movie: u'Blank Check' - IMDb ID: tt0109287
  587. 15:08:13 T:9060  NOTICE: Trakt Utilities: found Movie: u'The Blind Side' - IMDb ID: tt0878804
  588. 15:08:13 T:9060  NOTICE: Trakt Utilities: found Movie: u'Blood Diamond' - IMDb ID: tt0450259
  589. 15:08:13 T:9060  NOTICE: Trakt Utilities: found Movie: u'The Blues Brothers' - IMDb ID: tt0080455
  590. 15:08:13 T:9060  NOTICE: Trakt Utilities: found Movie: u'The Boat That Rocked' - IMDb ID: tt1131729
  591. 15:08:13 T:9060  NOTICE: Trakt Utilities: found Movie: u'' - IMDb ID: tt0216584
  592. 15:08:13 T:9060  NOTICE: Trakt Utilities: found Movie: u'Body of Lies' - IMDb ID: tt0758774
  593. 15:08:13 T:9060  NOTICE: Trakt Utilities: found Movie: u'Bolt' - IMDb ID: tt0397892
  594. 15:08:13 T:9060  NOTICE: Trakt Utilities: found Movie: u'The Boondock Saints' - IMDb ID: tt0144117
  595. 15:08:13 T:9060  NOTICE: Trakt Utilities: found Movie: u'The Bourne Identity' - IMDb ID: tt0258463
  596. 15:08:13 T:9060  NOTICE: Trakt Utilities: found Movie: u'The Bourne Supremacy' - IMDb ID: tt0372183
  597. 15:08:13 T:9060  NOTICE: Trakt Utilities: found Movie: u'The Bourne Ultimatum' - IMDb ID: tt0440963
  598. 15:08:13 T:9060  NOTICE: Trakt Utilities: found Movie: u'Bra Boys' - IMDb ID: tt0951318
  599. 15:08:13 T:9060  NOTICE: Trakt Utilities: found Movie: u'The Brave Little Toaster' - IMDb ID: tt0092695
  600. 15:08:13 T:9060  NOTICE: Trakt Utilities: found Movie: u'Braveheart' - IMDb ID: tt0112573
  601. 15:08:13 T:9060  NOTICE: Trakt Utilities: found Movie: u'Breakdown' - IMDb ID: tt0118771
  602. 15:08:13 T:9060  NOTICE: Trakt Utilities: found Movie: u'The Breakfast Club' - IMDb ID: tt0088847
  603. 15:08:13 T:9060  NOTICE: Trakt Utilities: found Movie: u"Brewster's Millions" - IMDb ID: tt0088850
  604. 15:08:13 T:9060  NOTICE: Trakt Utilities: found Movie: u'Brick' - IMDb ID: tt0393109
  605. 15:08:13 T:9060  NOTICE: Trakt Utilities: found Movie: u'Brother Bear' - IMDb ID: tt0328880
  606. 15:08:13 T:9060  NOTICE: Trakt Utilities: found Movie: u'Brother Bear 2' - IMDb ID: tt0465925
  607. 15:08:13 T:9060  NOTICE: Trakt Utilities: found Movie: u'Bruce Almighty' - IMDb ID: tt0315327
  608. 15:08:13 T:9060  NOTICE: Trakt Utilities: found Movie: u'Bulletproof Monk' - IMDb ID: tt0245803
  609. 15:08:13 T:9060  NOTICE: Trakt Utilities: found Movie: u'Burn After Reading' - IMDb ID: tt0887883
  610. 15:08:13 T:9060  NOTICE: Trakt Utilities: found Movie: u'Butch Cassidy and the Sundance Kid' - IMDb ID: tt0064115
  611. 15:08:13 T:9060  NOTICE: Trakt Utilities: found Movie: u'The Butterfly Effect' - IMDb ID: tt0289879
  612. 15:08:13 T:9060  NOTICE: Trakt Utilities: found Movie: u'Buzz Lightyear of Star Command: The Adventure Begins' - IMDb ID: tt0181196
  613. 15:08:13 T:9060  NOTICE: Trakt Utilities: found Movie: u'Caddyshack' - IMDb ID: tt0080487
  614. 15:08:13 T:9060  NOTICE: Trakt Utilities: found Movie: u'Calamity Jane' - IMDb ID: tt0045591
  615. 15:08:13 T:9060  NOTICE: Trakt Utilities: found Movie: u'Camp Nowhere' - IMDb ID: tt0109369
  616. 15:08:13 T:9060  NOTICE: Trakt Utilities: found Movie: u'Cars' - IMDb ID: tt0317219
  617. 15:08:13 T:9060  NOTICE: Trakt Utilities: found Movie: u'Case 39' - IMDb ID: tt0795351
  618. 15:08:13 T:9060  NOTICE: Trakt Utilities: found Movie: u'Casino' - IMDb ID: tt0112641
  619. 15:08:13 T:9060  NOTICE: Trakt Utilities: found Movie: u'Casino Royale' - IMDb ID: tt0381061
  620. 15:08:13 T:9060  NOTICE: Trakt Utilities: found Movie: u'Casper' - IMDb ID: tt0112642
  621. 15:08:13 T:9060  NOTICE: Trakt Utilities: found Movie: u'Cast Away' - IMDb ID: tt0162222
  622. 15:08:13 T:9060  NOTICE: Trakt Utilities: found Movie: u'Catch Me If You Can' - IMDb ID: tt0264464
  623. 15:08:13 T:9060  NOTICE: Trakt Utilities: found Movie: u'Charlie and the Chocolate Factory' - IMDb ID: tt0367594
  624. 15:08:13 T:9060  NOTICE: Trakt Utilities: found Movie: u"Charlotte's Web" - IMDb ID: tt0413895
  625. 15:08:13 T:9060  NOTICE: Trakt Utilities: found Movie: u'Chasing Amy' - IMDb ID: tt0118842
  626. 15:08:13 T:9060  NOTICE: Trakt Utilities: found Movie: u'Cheaper by the Dozen' - IMDb ID: tt0349205
  627. 15:08:13 T:9060  NOTICE: Trakt Utilities: found Movie: u'Chicken Little' - IMDb ID: tt0371606
  628. 15:08:13 T:9060  NOTICE: Trakt Utilities: found Movie: u'Children of Men' - IMDb ID: tt0206634
  629. 15:08:13 T:9060  NOTICE: Trakt Utilities: found Movie: u'Chitty Chitty Bang Bang' - IMDb ID: tt0062803
  630. 15:08:13 T:9060  NOTICE: Trakt Utilities: found Movie: u'Christine' - IMDb ID: tt0085333
  631. 15:08:13 T:9060  NOTICE: Trakt Utilities: found Movie: u"Christmas Vacation 2: Cousin Eddie's Island Adventure" - IMDb ID: tt0367623
  632. 15:08:13 T:9060  NOTICE: Trakt Utilities: found Movie: u'Christmas with the Kranks' - IMDb ID: tt0388419
  633. 15:08:13 T:9060  NOTICE: Trakt Utilities: found Movie: u'The Chronicles of Narnia: Prince Caspian' - IMDb ID: tt0499448
  634. 15:08:13 T:9060  NOTICE: Trakt Utilities: found Movie: u'The Chronicles of Narnia: The Lion, the Witch and the Wardrobe' - IMDb ID: tt0363771
  635. 15:08:13 T:9060  NOTICE: Trakt Utilities: found Movie: u'The Chronicles of Riddick' - IMDb ID: tt0296572
  636. 15:08:13 T:9060  NOTICE: Trakt Utilities: found Movie: u'Cinderella' - IMDb ID: tt0042332
  637. 15:08:13 T:9060  NOTICE: Trakt Utilities: found Movie: u'Cidade de Deus' - IMDb ID: tt0317248
  638. 15:08:13 T:9060  NOTICE: Trakt Utilities: found Movie: u'City Slickers' - IMDb ID: tt0101587
  639. 15:08:13 T:9060  NOTICE: Trakt Utilities: found Movie: u"City Slickers II: The Legend of Curly's Gold" - IMDb ID: tt0109439
  640. 15:08:13 T:9060  NOTICE: Trakt Utilities: found Movie: u'Clear and Present Danger' - IMDb ID: tt0109444
  641. 15:08:13 T:9060  NOTICE: Trakt Utilities: found Movie: u'Click' - IMDb ID: tt0389860
  642. 15:08:13 T:9060  NOTICE: Trakt Utilities: found Movie: u'Close Encounters of the Third Kind' - IMDb ID: tt0075860
  643. 15:08:13 T:9060  NOTICE: Trakt Utilities: found Movie: u'Cloudy with a Chance of Meatballs' - IMDb ID: tt0844471
  644. 15:08:13 T:9060  NOTICE: Trakt Utilities: found Movie: u'Cloverfield' - IMDb ID: tt1060277
  645. 15:08:13 T:9060  NOTICE: Trakt Utilities: found Movie: u'Clue' - IMDb ID: tt0088930
  646. 15:08:13 T:9060  NOTICE: Trakt Utilities: found Movie: u'Thick as Thieves' - IMDb ID: tt1112782
  647. 15:08:13 T:9060  NOTICE: Trakt Utilities: found Movie: u'Collateral' - IMDb ID: tt0369339
  648. 15:08:13 T:9060  NOTICE: Trakt Utilities: found Movie: u'Con Air' - IMDb ID: tt0118880
  649. 15:08:13 T:9060  NOTICE: Trakt Utilities: found Movie: u'Constantine' - IMDb ID: tt0360486
  650. 15:08:13 T:9060  NOTICE: Trakt Utilities: found Movie: u'Contact' - IMDb ID: tt0118884
  651. 15:08:13 T:9060  NOTICE: Trakt Utilities: found Movie: u'The Contract' - IMDb ID: tt0445946
  652. 15:08:13 T:9060  NOTICE: Trakt Utilities: found Movie: u'Cool Runnings' - IMDb ID: tt0106611
  653. 15:08:13 T:9060  NOTICE: Trakt Utilities: found Movie: u'Coraline' - IMDb ID: tt0327597
  654. 15:08:13 T:9060  NOTICE: Trakt Utilities: found Movie: u'The Core' - IMDb ID: tt0298814
  655. 15:08:13 T:9060  NOTICE: Trakt Utilities: found Movie: u'Corpse Bride' - IMDb ID: tt0121164
  656. 15:08:13 T:9060  NOTICE: Trakt Utilities: found Movie: u'The Count of Monte Cristo' - IMDb ID: tt0245844
  657. 15:08:13 T:9060  NOTICE: Trakt Utilities: found Movie: u'Cradle 2 the Grave' - IMDb ID: tt0306685
  658. 15:08:13 T:9060  NOTICE: Trakt Utilities: found Movie: u'Crank: High Voltage' - IMDb ID: tt1121931
  659. 15:08:13 T:9060  NOTICE: Trakt Utilities: found Movie: u'Crank' - IMDb ID: tt0479884
  660. 15:08:13 T:9060  NOTICE: Trakt Utilities: found Movie: u'Crash' - IMDb ID: tt0375679
  661. 15:08:13 T:9060  NOTICE: Trakt Utilities: found Movie: u'Cruel Intentions' - IMDb ID: tt0139134
  662. 15:08:13 T:9060  NOTICE: Trakt Utilities: found Movie: u'Cube' - IMDb ID: tt0123755
  663. 15:08:13 T:9060  NOTICE: Trakt Utilities: found Movie: u'Cube Zero' - IMDb ID: tt0377713
  664. 15:08:13 T:9060  NOTICE: Trakt Utilities: found Movie: u'Cube 2: Hypercube' - IMDb ID: tt0285492
  665. 15:08:13 T:9060  NOTICE: Trakt Utilities: found Movie: u'The Curious Case of Benjamin Button' - IMDb ID: tt0421715
  666. 15:08:13 T:9060  NOTICE: Trakt Utilities: found Movie: u'Cypher' - IMDb ID: tt0284978
  667. 15:08:13 T:9060  NOTICE: Trakt Utilities: found Movie: u'D2: The Mighty Ducks' - IMDb ID: tt0109520
  668. 15:08:13 T:9060  NOTICE: Trakt Utilities: found Movie: u'D3: The Mighty Ducks' - IMDb ID: tt0116000
  669. 15:08:13 T:9060  NOTICE: Trakt Utilities: found Movie: u'Daddy Long Legs' - IMDb ID: tt0047969
  670. 15:08:13 T:9060  NOTICE: Trakt Utilities: found Movie: u'Dance Flick' - IMDb ID: tt1153706
  671. 15:08:13 T:9060  NOTICE: Trakt Utilities: found Movie: u'Daredevil' - IMDb ID: tt0287978
  672. 15:08:13 T:9060  NOTICE: Trakt Utilities: found Movie: u'Dark City' - IMDb ID: tt0118929
  673. 15:08:13 T:9060  NOTICE: Trakt Utilities: found Movie: u'The Dark Knight' - IMDb ID: tt0468569
  674. 15:08:13 T:9060  NOTICE: Trakt Utilities: found Movie: u'Date Movie' - IMDb ID: tt0466342
  675. 15:08:13 T:9060  NOTICE: Trakt Utilities: found Movie: u'Dave' - IMDb ID: tt0106673
  676. 15:08:13 T:9060  NOTICE: Trakt Utilities: found Movie: u'The Da Vinci Code' - IMDb ID: tt0382625
  677. 15:08:13 T:9060  NOTICE: Trakt Utilities: found Movie: u'Dawn of the Dead' - IMDb ID: tt0077402
  678. 15:08:13 T:9060  NOTICE: Trakt Utilities: found Movie: u'Dawn of the Dead' - IMDb ID: tt0363547
  679. 15:08:13 T:9060  NOTICE: Trakt Utilities: found Movie: u'The Day After Tomorrow' - IMDb ID: tt0319262
  680. 15:08:13 T:9060  NOTICE: Trakt Utilities: found Movie: u'The Day the Earth Stood Still' - IMDb ID: tt0970416
  681. 15:08:13 T:9060  NOTICE: Trakt Utilities: found Movie: u'Dnevnoy dozor' - IMDb ID: tt0409904
  682. 15:08:13 T:9060  NOTICE: Trakt Utilities: found Movie: u'Daybreakers' - IMDb ID: tt0433362
  683. 15:08:13 T:9060  NOTICE: Trakt Utilities: found Movie: u'Dead Like Me: Life After Death' - IMDb ID: tt1079444
  684. 15:08:13 T:9060  NOTICE: Trakt Utilities: found Movie: u'Dead Man' - IMDb ID: tt0112817
  685. 15:08:13 T:9060  NOTICE: Trakt Utilities: found Movie: u'Death at a Funeral' - IMDb ID: tt0795368
  686. 15:08:13 T:9060  NOTICE: Trakt Utilities: found Movie: u'Death Proof' - IMDb ID: tt1028528
  687. 15:08:13 T:9060  NOTICE: Trakt Utilities: found Movie: u'Death Race' - IMDb ID: tt0452608
  688. 15:08:13 T:9060  NOTICE: Trakt Utilities: found Movie: u'Deck the Halls' - IMDb ID: tt0790604
  689. 15:08:13 T:9060  NOTICE: Trakt Utilities: found Movie: u'Deep Blue Sea' - IMDb ID: tt0149261
  690. 15:08:13 T:9060  NOTICE: Trakt Utilities: found Movie: u'Deep Impact' - IMDb ID: tt0120647
  691. 15:08:13 T:9060  NOTICE: Trakt Utilities: found Movie: u'Deepwater' - IMDb ID: tt0383304
  692. 15:08:13 T:9060  NOTICE: Trakt Utilities: found Movie: u'Defendor' - IMDb ID: tt1303828
  693. 15:08:13 T:9060  NOTICE: Trakt Utilities: found Movie: u'Definitely, Maybe' - IMDb ID: tt0832266
  694. 15:08:13 T:9060  NOTICE: Trakt Utilities: found Movie: u'Deja Vu' - IMDb ID: tt0453467
  695. 15:08:13 T:9060  NOTICE: Trakt Utilities: found Movie: u'Demolition Man' - IMDb ID: tt0106697
  696. 15:08:13 T:9060  NOTICE: Trakt Utilities: found Movie: u'Dennis the Menace' - IMDb ID: tt0106701
  697. 15:08:13 T:9060  NOTICE: Trakt Utilities: found Movie: u'The Departed' - IMDb ID: tt0407887
  698. 15:08:13 T:9060  NOTICE: Trakt Utilities: found Movie: u'Desperado' - IMDb ID: tt0112851
  699. 15:08:13 T:9060  NOTICE: Trakt Utilities: found Movie: u'Deuce Bigalow: European Gigolo' - IMDb ID: tt0367652
  700. 15:08:13 T:9060  NOTICE: Trakt Utilities: found Movie: u'Deuce Bigalow: Male Gigolo' - IMDb ID: tt0205000
  701. 15:08:13 T:9060  NOTICE: Trakt Utilities: found Movie: u'The Devil Wears Prada' - IMDb ID: tt0458352
  702. 15:08:13 T:9060  NOTICE: Trakt Utilities: found Movie: u'Die Hard: With a Vengeance' - IMDb ID: tt0112864
  703. 15:08:13 T:9060  NOTICE: Trakt Utilities: found Movie: u'Die Hard' - IMDb ID: tt0095016
  704. 15:08:13 T:9060  NOTICE: Trakt Utilities: found Movie: u'Die Hard 2' - IMDb ID: tt0099423
  705. 15:08:13 T:9060  NOTICE: Trakt Utilities: found Movie: u'Live Free or Die Hard' - IMDb ID: tt0337978
  706. 15:08:13 T:9060  NOTICE: Trakt Utilities: found Movie: u'Dinosaur' - IMDb ID: tt0130623
  707. 15:08:13 T:9060  NOTICE: Trakt Utilities: found Movie: u'Dirty Dancing' - IMDb ID: tt0092890
  708. 15:08:13 T:9060  NOTICE: Trakt Utilities: found Movie: u'Dirty Rotten Scoundrels' - IMDb ID: tt0095031
  709. 15:08:13 T:9060  NOTICE: Trakt Utilities: found Movie: u'District 9' - IMDb ID: tt1136608
  710. 15:08:13 T:9060  NOTICE: Trakt Utilities: found Movie: u'Dodgeball: A True Underdog Story' - IMDb ID: tt0364725
  711. 15:08:13 T:9060  NOTICE: Trakt Utilities: found Movie: u'Doghouse' - IMDb ID: tt1023500
  712. 15:08:13 T:9060  NOTICE: Trakt Utilities: found Movie: u'Dogma' - IMDb ID: tt0120655
  713. 15:08:13 T:9060  NOTICE: Trakt Utilities: found Movie: u'Donnie Darko' - IMDb ID: tt0246578
  714. 15:08:13 T:9060  NOTICE: Trakt Utilities: found Movie: u'Doom' - IMDb ID: tt0419706
  715. 15:08:13 T:9060  NOTICE: Trakt Utilities: found Movie: u'Doomsday' - IMDb ID: tt0483607
  716. 15:08:13 T:9060  NOTICE: Trakt Utilities: found Movie: u'Dorian Gray' - IMDb ID: tt1235124
  717. 15:08:13 T:9060  NOTICE: Trakt Utilities: found Movie: u'Down to Earth' - IMDb ID: tt0231775
  718. 15:08:13 T:9060  NOTICE: Trakt Utilities: found Movie: u'The Dukes of Hazzard' - IMDb ID: tt0377818
  719. 15:08:13 T:9060  NOTICE: Trakt Utilities: found Movie: u'Dumbo' - IMDb ID: tt0033563
  720. 15:08:13 T:9060  NOTICE: Trakt Utilities: found Movie: u'Dune' - IMDb ID: tt0087182
  721. 15:08:13 T:9060  NOTICE: Trakt Utilities: found Movie: u'Duplicity' - IMDb ID: tt1135487
  722. 15:08:13 T:9060  NOTICE: Trakt Utilities: found Movie: u'E.T.: The Extra-Terrestrial' - IMDb ID: tt0083866
  723. 15:08:13 T:9060  NOTICE: Trakt Utilities: found Movie: u'Eastern Promises' - IMDb ID: tt0765443
  724. 15:08:13 T:9060  NOTICE: Trakt Utilities: found Movie: u'Elf' - IMDb ID: tt0319343
  725. 15:08:13 T:9060  NOTICE: Trakt Utilities: found Movie: u"The Emperor's New Groove 2: Kronk's New Groove" - IMDb ID: tt0401398
  726. 15:08:13 T:9060  NOTICE: Trakt Utilities: found Movie: u"The Emperor's New Groove" - IMDb ID: tt0120917
  727. 15:08:13 T:9060  NOTICE: Trakt Utilities: found Movie: u'Employee of the Month' - IMDb ID: tt0424993
  728. 15:08:13 T:9060  NOTICE: Trakt Utilities: found Movie: u'Enchanted' - IMDb ID: tt0461770
  729. 15:08:13 T:9060  NOTICE: Trakt Utilities: found Movie: u'Encino Man' - IMDb ID: tt0104187
  730. 15:08:13 T:9060  NOTICE: Trakt Utilities: found Movie: u'Enemy at the Gates' - IMDb ID: tt0215750
  731. 15:08:13 T:9060  NOTICE: Trakt Utilities: found Movie: u'Enemy of the State' - IMDb ID: tt0120660
  732. 15:08:13 T:9060  NOTICE: Trakt Utilities: found Movie: u'Equilibrium' - IMDb ID: tt0238380
  733. 15:08:13 T:9060  NOTICE: Trakt Utilities: found Movie: u'Ernest Goes to Africa' - IMDb ID: tt0119068
  734. 15:08:13 T:9060  NOTICE: Trakt Utilities: found Movie: u'Ernest Goes to Camp' - IMDb ID: tt0092974
  735. 15:08:13 T:9060  NOTICE: Trakt Utilities: found Movie: u'Ernest Goes to Jail' - IMDb ID: tt0099512
  736. 15:08:13 T:9060  NOTICE: Trakt Utilities: found Movie: u'Ernest Goes to School' - IMDb ID: tt0109739
  737. 15:08:13 T:9060  NOTICE: Trakt Utilities: found Movie: u'Ernest in the Army' - IMDb ID: tt0129908
  738. 15:08:13 T:9060  NOTICE: Trakt Utilities: found Movie: u'Ernest Rides Again' - IMDb ID: tt0106827
  739. 15:08:13 T:9060  NOTICE: Trakt Utilities: found Movie: u'Ernest Saves Christmas' - IMDb ID: tt0095107
  740. 15:08:13 T:9060  NOTICE: Trakt Utilities: found Movie: u'Ernest Scared Stupid' - IMDb ID: tt0101821
  741. 15:08:13 T:9060  NOTICE: Trakt Utilities: found Movie: u'EuroTrip' - IMDb ID: tt0356150
  742. 15:08:13 T:9060  NOTICE: Trakt Utilities: found Movie: u'Event Horizon' - IMDb ID: tt0119081
  743. 15:08:13 T:9060  NOTICE: Trakt Utilities: found Movie: u'Evolution' - IMDb ID: tt0251075
  744. 15:08:13 T:9060  NOTICE: Trakt Utilities: found Movie: u'Eyes Wide Shut' - IMDb ID: tt0120663
  745. 15:08:13 T:9060  NOTICE: Trakt Utilities: found Movie: u'Face/Off' - IMDb ID: tt0119094
  746. 15:08:13 T:9060  NOTICE: Trakt Utilities: found Movie: u'Fallen' - IMDb ID: tt0119099
  747. 15:08:13 T:9060  NOTICE: Trakt Utilities: found Movie: u'The Family Man' - IMDb ID: tt0218967
  748. 15:08:13 T:9060  NOTICE: Trakt Utilities: found Movie: u'Fanboys' - IMDb ID: tt0489049
  749. 15:08:13 T:9060  NOTICE: Trakt Utilities: found Movie: u'Fantasia' - IMDb ID: tt0032455
  750. 15:08:13 T:9060  NOTICE: Trakt Utilities: found Movie: u'4: Rise of the Silver Surfer' - IMDb ID: tt0486576
  751. 15:08:13 T:9060  NOTICE: Trakt Utilities: found Movie: u'Fantastic Mr. Fox' - IMDb ID: tt0432283
  752. 15:08:13 T:9060  NOTICE: Trakt Utilities: found Movie: u'Fargo' - IMDb ID: tt0116282
  753. 15:08:13 T:9060  NOTICE: Trakt Utilities: found Movie: u'Fast & Furious' - IMDb ID: tt1013752
  754. 15:08:13 T:9060  NOTICE: Trakt Utilities: found Movie: u'The Fast and the Furious: Tokyo Drift' - IMDb ID: tt0463985
  755. 15:08:13 T:9060  NOTICE: Trakt Utilities: found Movie: u'The Fast and the Furious' - IMDb ID: tt0232500
  756. 15:08:13 T:9060  NOTICE: Trakt Utilities: found Movie: u'Fast Times at Ridgemont High' - IMDb ID: tt0083929
  757. 15:08:13 T:9060  NOTICE: Trakt Utilities: found Movie: u'Father of the Bride' - IMDb ID: tt0101862
  758. 15:08:13 T:9060  NOTICE: Trakt Utilities: found Movie: u'Father of the Bride Part II' - IMDb ID: tt0113041
  759. 15:08:13 T:9060  NOTICE: Trakt Utilities: found Movie: u'Fear and Loathing in Las Vegas' - IMDb ID: tt0120669
  760. 15:08:13 T:9060  NOTICE: Trakt Utilities: found Movie: u'Huo Yuan Jia' - IMDb ID: tt0446059
  761. 15:08:13 T:9060  NOTICE: Trakt Utilities: found Movie: u'Felon' - IMDb ID: tt1117385
  762. 15:08:13 T:9060  NOTICE: Trakt Utilities: found Movie: u'FernGully 2: The Magical Rescue' - IMDb ID: tt0129924
  763. 15:08:13 T:9060  NOTICE: Trakt Utilities: found Movie: u'FernGully: The Last Rainforest' - IMDb ID: tt0104254
  764. 15:08:13 T:9060  NOTICE: Trakt Utilities: found Movie: u"Ferris Bueller's Day Off" - IMDb ID: tt0091042
  765. 15:08:13 T:9060  NOTICE: Trakt Utilities: found Movie: u'The Fifth Element' - IMDb ID: tt0119116
  766. 15:08:13 T:9060  NOTICE: Trakt Utilities: found Movie: u'Fight Club' - IMDb ID: tt0137523
  767. 15:08:13 T:9060  NOTICE: Trakt Utilities: found Movie: u'Final Destination' - IMDb ID: tt0195714
  768. 15:08:13 T:9060  NOTICE: Trakt Utilities: found Movie: u'Final Destination 2' - IMDb ID: tt0309593
  769. 15:08:13 T:9060  NOTICE: Trakt Utilities: found Movie: u'The Final Destination' - IMDb ID: tt1144884
  770. 15:08:13 T:9060  NOTICE: Trakt Utilities: found Movie: u'Finding Forrester' - IMDb ID: tt0181536
  771. 15:08:13 T:9060  NOTICE: Trakt Utilities: found Movie: u'Finding Nemo' - IMDb ID: tt0266543
  772. 15:08:13 T:9060  NOTICE: Trakt Utilities: found Movie: u'Firewall' - IMDb ID: tt0408345
  773. 15:08:13 T:9060  NOTICE: Trakt Utilities: found Movie: u'First Blood' - IMDb ID: tt0083944
  774. 15:08:13 T:9060  NOTICE: Trakt Utilities: found Movie: u'The First Wives Club' - IMDb ID: tt0116313
  775. 15:08:13 T:9060  NOTICE: Trakt Utilities: found Movie: u'Five Minutes of Heaven' - IMDb ID: tt1238291
  776. 15:08:13 T:9060  NOTICE: Trakt Utilities: found Movie: u'Flash of Genius' - IMDb ID: tt1054588
  777. 15:08:13 T:9060  NOTICE: Trakt Utilities: found Movie: u'Flight of the Navigator' - IMDb ID: tt0091059
  778. 15:08:13 T:9060  NOTICE: Trakt Utilities: found Movie: u'Flubber' - IMDb ID: tt0119137
  779. 15:08:13 T:9060  NOTICE: Trakt Utilities: found Movie: u'Airplane!' - IMDb ID: tt0080339
  780. 15:08:13 T:9060  NOTICE: Trakt Utilities: found Movie: u'The Fog' - IMDb ID: tt0080749
  781. 15:08:13 T:9060  NOTICE: Trakt Utilities: found Movie: u'The Forbidden Kingdom' - IMDb ID: tt0865556
  782. 15:08:13 T:9060  NOTICE: Trakt Utilities: found Movie: u'Forgetting Sarah Marshall' - IMDb ID: tt0800039
  783. 15:08:13 T:9060  NOTICE: Trakt Utilities: found Movie: u'The 51st State' - IMDb ID: tt0227984
  784. 15:08:13 T:9060  NOTICE: Trakt Utilities: found Movie: u'Forrest Gump' - IMDb ID: tt0109830
  785. 15:08:13 T:9060  NOTICE: Trakt Utilities: found Movie: u'The Fountain' - IMDb ID: tt0414993
  786. 15:08:13 T:9060  NOTICE: Trakt Utilities: found Movie: u'The Fourth Kind' - IMDb ID: tt1220198
  787. 15:08:13 T:9060  NOTICE: Trakt Utilities: found Movie: u'The Fox and the Hound' - IMDb ID: tt0082406
  788. 15:08:13 T:9060  NOTICE: Trakt Utilities: found Movie: u'Fracture' - IMDb ID: tt0488120
  789. 15:08:13 T:9060  NOTICE: Trakt Utilities: found Movie: u'Freaky Friday' - IMDb ID: tt0322330
  790. 15:08:13 T:9060  NOTICE: Trakt Utilities: found Movie: u'Freddy Got Fingered' - IMDb ID: tt0240515
  791. 15:08:13 T:9060  NOTICE: Trakt Utilities: found Movie: u'Free Willy' - IMDb ID: tt0106965
  792. 15:08:13 T:9060  NOTICE: Trakt Utilities: found Movie: u'Frequently Asked Questions About Time Travel' - IMDb ID: tt0910554
  793. 15:08:13 T:9060  NOTICE: Trakt Utilities: found Movie: u'Friday' - IMDb ID: tt0113118
  794. 15:08:13 T:9060  NOTICE: Trakt Utilities: found Movie: u'Friday After Next' - IMDb ID: tt0293815
  795. 15:08:13 T:9060  NOTICE: Trakt Utilities: found Movie: u'From Hell' - IMDb ID: tt0120681
  796. 15:08:13 T:9060  NOTICE: Trakt Utilities: found Movie: u'The Fugitive' - IMDb ID: tt0106977
  797. 15:08:13 T:9060  NOTICE: Trakt Utilities: found Movie: u'Full Metal Jacket' - IMDb ID: tt0093058
  798. 15:08:13 T:9060  NOTICE: Trakt Utilities: found Movie: u'Galaxy Quest' - IMDb ID: tt0177789
  799. 15:08:13 T:9060  NOTICE: Trakt Utilities: found Movie: u'Gallipoli' - IMDb ID: tt0082432
  800. 15:08:13 T:9060  NOTICE: Trakt Utilities: found Movie: u'The Game' - IMDb ID: tt0119174
  801. 15:08:13 T:9060  NOTICE: Trakt Utilities: found Movie: u'Gangs of New York' - IMDb ID: tt0217505
  802. 15:08:13 T:9060  NOTICE: Trakt Utilities: found Movie: u'Gattaca' - IMDb ID: tt0119177
  803. 15:08:13 T:9060  NOTICE: Trakt Utilities: found Movie: u'George of the Jungle' - IMDb ID: tt0119190
  804. 15:08:13 T:9060  NOTICE: Trakt Utilities: found Movie: u'Ghost' - IMDb ID: tt0099653
  805. 15:08:13 T:9060  NOTICE: Trakt Utilities: found Movie: u'Ghost Busters' - IMDb ID: tt0087332
  806. 15:08:13 T:9060  NOTICE: Trakt Utilities: found Movie: u'Ghost Dad' - IMDb ID: tt0099654
  807. 15:08:13 T:9060  NOTICE: Trakt Utilities: found Movie: u'Ghost Ship' - IMDb ID: tt0288477
  808. 15:08:13 T:9060  NOTICE: Trakt Utilities: found Movie: u'Gladiator' - IMDb ID: tt0172495
  809. 15:08:13 T:9060  NOTICE: Trakt Utilities: found Movie: u'Glory' - IMDb ID: tt0097441
  810. 15:08:13 T:9060  NOTICE: Trakt Utilities: found Movie: u'The Godfather: Part II' - IMDb ID: tt0071562
  811. 15:08:13 T:9060  NOTICE: Trakt Utilities: found Movie: u'The Godfather: Part III' - IMDb ID: tt0099674
  812. 15:08:13 T:9060  NOTICE: Trakt Utilities: found Movie: u'The Godfather' - IMDb ID: tt0068646
  813. 15:08:13 T:9060  NOTICE: Trakt Utilities: found Movie: u'Godzilla' - IMDb ID: tt0120685
  814. 15:08:13 T:9060  NOTICE: Trakt Utilities: found Movie: u'Gone in Sixty Seconds' - IMDb ID: tt0187078
  815. 15:08:13 T:9060  NOTICE: Trakt Utilities: found Movie: u'Good Burger' - IMDb ID: tt0119215
  816. 15:08:13 T:9060  NOTICE: Trakt Utilities: found Movie: u'Good Luck Chuck' - IMDb ID: tt0452625
  817. 15:08:13 T:9060  NOTICE: Trakt Utilities: found Movie: u'Good Will Hunting' - IMDb ID: tt0119217
  818. 15:08:13 T:9060  NOTICE: Trakt Utilities: found Movie: u'Il buono, il brutto, il cattivo.' - IMDb ID: tt0060196
  819. 15:08:13 T:9060  NOTICE: Trakt Utilities: found Movie: u'Goodfellas' - IMDb ID: tt0099685
  820. 15:08:13 T:9060  NOTICE: Trakt Utilities: found Movie: u'The Goonies' - IMDb ID: tt0089218
  821. 15:08:13 T:9060  NOTICE: Trakt Utilities: found Movie: u'Gothika' - IMDb ID: tt0348836
  822. 15:08:13 T:9060  NOTICE: Trakt Utilities: found Movie: u'Gran Torino' - IMDb ID: tt1205489
  823. 15:08:13 T:9060  NOTICE: Trakt Utilities: found Movie: u'Grease' - IMDb ID: tt0077631
  824. 15:08:13 T:9060  NOTICE: Trakt Utilities: found Movie: u'Grease 2' - IMDb ID: tt0084021
  825. 15:08:13 T:9060  NOTICE: Trakt Utilities: found Movie: u'The Great Mouse Detective' - IMDb ID: tt0091149
  826. 15:08:13 T:9060  NOTICE: Trakt Utilities: found Movie: u'The Green Mile' - IMDb ID: tt0120689
  827. 15:08:13 T:9060  NOTICE: Trakt Utilities: found Movie: u'Groundhog Day' - IMDb ID: tt0107048
  828. 15:08:13 T:9060  NOTICE: Trakt Utilities: found Movie: u"Gulliver's Travels" - IMDb ID: tt0115195
  829. 15:08:13 T:9060  NOTICE: Trakt Utilities: found Movie: u'Hackers' - IMDb ID: tt0113243
  830. 15:08:13 T:9060  NOTICE: Trakt Utilities: found Movie: u'Haggard: The Movie' - IMDb ID: tt0298656
  831. 15:08:13 T:9060  NOTICE: Trakt Utilities: found Movie: u'Hairspray' - IMDb ID: tt0427327
  832. 15:08:13 T:9060  NOTICE: Trakt Utilities: found Movie: u'Hancock' - IMDb ID: tt0448157
  833. 15:08:13 T:9060  NOTICE: Trakt Utilities: found Movie: u'The Hangover' - IMDb ID: tt1119646
  834. 15:08:13 T:9060  NOTICE: Trakt Utilities: found Movie: u'Hannibal' - IMDb ID: tt0212985
  835. 15:08:13 T:9060  NOTICE: Trakt Utilities: found Movie: u'Hannibal Rising' - IMDb ID: tt0367959
  836. 15:08:13 T:9060  NOTICE: Trakt Utilities: found Movie: u'Happy Gilmore' - IMDb ID: tt0116483
  837. 15:08:13 T:9060  NOTICE: Trakt Utilities: found Movie: u'The Harimaya Bridge' - IMDb ID: tt0902982
  838. 15:08:13 T:9060  NOTICE: Trakt Utilities: found Movie: u'Harold & Kumar Escape from Guantanamo Bay' - IMDb ID: tt0481536
  839. 15:08:13 T:9060  NOTICE: Trakt Utilities: found Movie: u'Harold & Kumar Go to White Castle' - IMDb ID: tt0366551
  840. 15:08:13 T:9060  NOTICE: Trakt Utilities: found Movie: u'Harry and the Hendersons' - IMDb ID: tt0093148
  841. 15:08:13 T:9060  NOTICE: Trakt Utilities: found Movie: u'Harry Brown' - IMDb ID: tt1289406
  842. 15:08:13 T:9060  NOTICE: Trakt Utilities: found Movie: u'Harry Potter and the Chamber of Secrets' - IMDb ID: tt0295297
  843. 15:08:13 T:9060  NOTICE: Trakt Utilities: found Movie: u'Harry Potter and the Goblet of Fire' - IMDb ID: tt0330373
  844. 15:08:13 T:9060  NOTICE: Trakt Utilities: found Movie: u'Harry Potter and the Half-Blood Prince' - IMDb ID: tt0417741
  845. 15:08:13 T:9060  NOTICE: Trakt Utilities: found Movie: u'Harry Potter and the Order of the Phoenix' - IMDb ID: tt0373889
  846. 15:08:13 T:9060  NOTICE: Trakt Utilities: found Movie: u'Harry Potter and the Prisoner of Azkaban' - IMDb ID: tt0304141
  847. 15:08:13 T:9060  NOTICE: Trakt Utilities: found Movie: u"Harry Potter and the Sorcerer's Stone" - IMDb ID: tt0241527
  848. 15:08:13 T:9060  NOTICE: Trakt Utilities: found Movie: u'Heist' - IMDb ID: tt0252503
  849. 15:08:13 T:9060  NOTICE: Trakt Utilities: found Movie: u'Hellboy' - IMDb ID: tt0167190
  850. 15:08:13 T:9060  NOTICE: Trakt Utilities: found Movie: u'Hellboy II: The Golden Army' - IMDb ID: tt0411477
  851. 15:08:13 T:9060  NOTICE: Trakt Utilities: found Movie: u'Herbie Rides Again' - IMDb ID: tt0071607
  852. 15:08:13 T:9060  NOTICE: Trakt Utilities: found Movie: u'Hercules' - IMDb ID: tt0119282
  853. 15:08:13 T:9060  NOTICE: Trakt Utilities: found Movie: u'High Fidelity' - IMDb ID: tt0146882
  854. 15:08:13 T:9060  NOTICE: Trakt Utilities: found Movie: u"The Hitchhiker's Guide to the Galaxy" - IMDb ID: tt0371724
  855. 15:08:13 T:9060  NOTICE: Trakt Utilities: found Movie: u'Hitman' - IMDb ID: tt0465494
  856. 15:08:13 T:9060  NOTICE: Trakt Utilities: found Movie: u'The Holiday' - IMDb ID: tt0457939
  857. 15:08:13 T:9060  NOTICE: Trakt Utilities: found Movie: u'Home Alone' - IMDb ID: tt0099785
  858. 15:08:13 T:9060  NOTICE: Trakt Utilities: found Movie: u'Home Alone 2: Lost in New York' - IMDb ID: tt0104431
  859. 15:08:13 T:9060  NOTICE: Trakt Utilities: found Movie: u'Homeward Bound: The Incredible Journey' - IMDb ID: tt0107131
  860. 15:08:13 T:9060  NOTICE: Trakt Utilities: found Movie: u'Honey I Blew Up the Kid' - IMDb ID: tt0104437
  861. 15:08:13 T:9060  NOTICE: Trakt Utilities: found Movie: u'Honey, I Shrunk the Kids' - IMDb ID: tt0097523
  862. 15:08:13 T:9060  NOTICE: Trakt Utilities: found Movie: u'Hoodwinked!' - IMDb ID: tt0443536
  863. 15:08:13 T:9060  NOTICE: Trakt Utilities: found Movie: u'Hook' - IMDb ID: tt0102057
  864. 15:08:13 T:9060  NOTICE: Trakt Utilities: found Movie: u'Horton Hears a Who!' - IMDb ID: tt0451079
  865. 15:08:13 T:9060  NOTICE: Trakt Utilities: found Movie: u'Hostage' - IMDb ID: tt0340163
  866. 15:08:13 T:9060  NOTICE: Trakt Utilities: found Movie: u'Hot Fuzz' - IMDb ID: tt0425112
  867. 15:08:13 T:9060  NOTICE: Trakt Utilities: found Movie: u'Hot Rod' - IMDb ID: tt0787475
  868. 15:08:13 T:9060  NOTICE: Trakt Utilities: found Movie: u'How High' - IMDb ID: tt0278488
  869. 15:08:13 T:9060  NOTICE: Trakt Utilities: found Movie: u'How the Grinch Stole Christmas' - IMDb ID: tt0170016
  870. 15:08:13 T:9060  NOTICE: Trakt Utilities: found Movie: u'How to Lose a Guy in 10 Days' - IMDb ID: tt0251127
  871. 15:08:13 T:9060  NOTICE: Trakt Utilities: found Movie: u'The Hunchback of Notre Dame' - IMDb ID: tt0116583
  872. 15:08:13 T:9060  NOTICE: Trakt Utilities: found Movie: u'The Hunt for Red October' - IMDb ID: tt0099810
  873. 15:08:13 T:9060  NOTICE: Trakt Utilities: found Movie: u'The Hurt Locker' - IMDb ID: tt0887912
  874. 15:08:13 T:9060  NOTICE: Trakt Utilities: found Movie: u"I'll Be Home for Christmas" - IMDb ID: tt0155753
  875. 15:08:13 T:9060  NOTICE: Trakt Utilities: found Movie: u'I Am Legend' - IMDb ID: tt0480249
  876. 15:08:13 T:9060  NOTICE: Trakt Utilities: found Movie: u'I Love You, Man' - IMDb ID: tt1155056
  877. 15:08:13 T:9060  NOTICE: Trakt Utilities: found Movie: u'I Now Pronounce You Chuck & Larry' - IMDb ID: tt0762107
  878. 15:08:13 T:9060  NOTICE: Trakt Utilities: found Movie: u'I, Robot' - IMDb ID: tt0343818
  879. 15:08:13 T:9060  NOTICE: Trakt Utilities: found Movie: u'Ice Age: Dawn of the Dinosaurs' - IMDb ID: tt1080016
  880. 15:08:13 T:9060  NOTICE: Trakt Utilities: found Movie: u'Ice Age' - IMDb ID: tt0268380
  881. 15:08:13 T:9060  NOTICE: Trakt Utilities: found Movie: u'Identity' - IMDb ID: tt0309698
  882. 15:08:13 T:9060  NOTICE: Trakt Utilities: found Movie: u'The Illusionist' - IMDb ID: tt0443543
  883. 15:08:13 T:9060  NOTICE: Trakt Utilities: found Movie: u'The Imaginarium of Doctor Parnassus' - IMDb ID: tt1054606
  884. 15:08:13 T:9060  NOTICE: Trakt Utilities: found Movie: u'In the Line of Fire' - IMDb ID: tt0107206
  885. 15:08:13 T:9060  NOTICE: Trakt Utilities: found Movie: u'The Incredibles' - IMDb ID: tt0317705
  886. 15:08:13 T:9060  NOTICE: Trakt Utilities: found Movie: u'Independence Day' - IMDb ID: tt0116629
  887. 15:08:13 T:9060  NOTICE: Trakt Utilities: found Movie: u'The Indian in the Cupboard' - IMDb ID: tt0113419
  888. 15:08:13 T:9060  NOTICE: Trakt Utilities: found Movie: u'Indiana Jones and the Kingdom of the Crystal Skull' - IMDb ID: tt0367882
  889. 15:08:13 T:9060  NOTICE: Trakt Utilities: found Movie: u'Indiana Jones and the Last Crusade' - IMDb ID: tt0097576
  890. 15:08:13 T:9060  NOTICE: Trakt Utilities: found Movie: u'Raiders of the Lost Ark' - IMDb ID: tt0082971
  891. 15:08:13 T:9060  NOTICE: Trakt Utilities: found Movie: u'Indiana Jones and the Temple of Doom' - IMDb ID: tt0087469
  892. 15:08:13 T:9060  NOTICE: Trakt Utilities: found Movie: u'Mou gaan dou' - IMDb ID: tt0338564
  893. 15:08:13 T:9060  NOTICE: Trakt Utilities: found Movie: u'Inglourious Basterds' - IMDb ID: tt0361748
  894. 15:08:13 T:9060  NOTICE: Trakt Utilities: found Movie: u'Inside Man' - IMDb ID: tt0454848
  895. 15:08:13 T:9060  NOTICE: Trakt Utilities: found Movie: u'Insomnia' - IMDb ID: tt0278504
  896. 15:08:13 T:9060  NOTICE: Trakt Utilities: found Movie: u'Inspector Gadget' - IMDb ID: tt0141369
  897. 15:08:13 T:9060  NOTICE: Trakt Utilities: found Movie: u'The Invention of Lying' - IMDb ID: tt1058017
  898. 15:08:13 T:9060  NOTICE: Trakt Utilities: found Movie: u'Invictus' - IMDb ID: tt1057500
  899. 15:08:13 T:9060  NOTICE: Trakt Utilities: found Movie: u'The Iron Giant' - IMDb ID: tt0129167
  900. 15:08:13 T:9060  NOTICE: Trakt Utilities: found Movie: u'Iron Man' - IMDb ID: tt0371746
  901. 15:08:13 T:9060  NOTICE: Trakt Utilities: found Movie: u'The Island' - IMDb ID: tt0399201
  902. 15:08:13 T:9060  NOTICE: Trakt Utilities: found Movie: u"It's Complicated" - IMDb ID: tt1230414
  903. 15:08:13 T:9060  NOTICE: Trakt Utilities: found Movie: u'The Italian Job' - IMDb ID: tt0317740
  904. 15:08:13 T:9060  NOTICE: Trakt Utilities: found Movie: u'The Jackal' - IMDb ID: tt0119395
  905. 15:08:13 T:9060  NOTICE: Trakt Utilities: found Movie: u'Jackie Brown' - IMDb ID: tt0119396
  906. 15:08:13 T:9060  NOTICE: Trakt Utilities: found Movie: u'James and the Giant Peach' - IMDb ID: tt0116683
  907. 15:08:13 T:9060  NOTICE: Trakt Utilities: found Movie: u'Jarhead' - IMDb ID: tt0418763
  908. 15:08:13 T:9060  NOTICE: Trakt Utilities: found Movie: u'Jaws' - IMDb ID: tt0073195
  909. 15:08:13 T:9060  NOTICE: Trakt Utilities: found Movie: u'Jay and Silent Bob Strike Back' - IMDb ID: tt0261392
  910. 15:08:13 T:9060  NOTICE: Trakt Utilities: found Movie: u'Jerry Maguire' - IMDb ID: tt0116695
  911. 15:08:13 T:9060  NOTICE: Trakt Utilities: found Movie: u'The Jewel of the Nile' - IMDb ID: tt0089370
  912. 15:08:13 T:9060  NOTICE: Trakt Utilities: found Movie: u'Jingle All the Way' - IMDb ID: tt0116705
  913. 15:08:13 T:9060  NOTICE: Trakt Utilities: found Movie: u'Joe Dirt' - IMDb ID: tt0245686
  914. 15:08:13 T:9060  NOTICE: Trakt Utilities: found Movie: u'John Q' - IMDb ID: tt0251160
  915. 15:08:13 T:9060  NOTICE: Trakt Utilities: found Movie: u'Jumanji' - IMDb ID: tt0113497
  916. 15:08:13 T:9060  NOTICE: Trakt Utilities: found Movie: u'Jumper' - IMDb ID: tt0489099
  917. 15:08:13 T:9060  NOTICE: Trakt Utilities: found Movie: u'Jungle 2 Jungle' - IMDb ID: tt0119432
  918. 15:08:13 T:9060  NOTICE: Trakt Utilities: found Movie: u'The Jungle Book 2' - IMDb ID: tt0283426
  919. 15:08:13 T:9060  NOTICE: Trakt Utilities: found Movie: u'The Jungle Book' - IMDb ID: tt0061852
  920. 15:08:13 T:9060  NOTICE: Trakt Utilities: found Movie: u'Jurassic Park' - IMDb ID: tt0107290
  921. 15:08:13 T:9060  NOTICE: Trakt Utilities: found Movie: u'Jurassic Park III' - IMDb ID: tt0163025
  922. 15:08:13 T:9060  NOTICE: Trakt Utilities: found Movie: u'K-PAX' - IMDb ID: tt0272152
  923. 15:08:13 T:9060  NOTICE: Trakt Utilities: found Movie: u'The Karate Kid, Part II' - IMDb ID: tt0091326
  924. 15:08:13 T:9060  NOTICE: Trakt Utilities: found Movie: u'The Karate Kid, Part III' - IMDb ID: tt0097647
  925. 15:08:13 T:9060  NOTICE: Trakt Utilities: found Movie: u'The Karate Kid' - IMDb ID: tt0087538
  926. 15:08:13 T:9060  NOTICE: Trakt Utilities: found Movie: u'Kill Bill: Vol. 1' - IMDb ID: tt0266697
  927. 15:08:13 T:9060  NOTICE: Trakt Utilities: found Movie: u'Kill Bill: Vol. 2' - IMDb ID: tt0378194
  928. 15:08:13 T:9060  NOTICE: Trakt Utilities: found Movie: u'King Kong' - IMDb ID: tt0360717
  929. 15:08:13 T:9060  NOTICE: Trakt Utilities: found Movie: u'Kingdom of Heaven' - IMDb ID: tt0320661
  930. 15:08:13 T:9060  NOTICE: Trakt Utilities: found Movie: u'Kiss Kiss Bang Bang' - IMDb ID: tt0373469
  931. 15:08:13 T:9060  NOTICE: Trakt Utilities: found Movie: u'Knocked Up' - IMDb ID: tt0478311
  932. 15:08:13 T:9060  NOTICE: Trakt Utilities: found Movie: u'Knowing' - IMDb ID: tt0448011
  933. 15:08:13 T:9060  NOTICE: Trakt Utilities: found Movie: u'Kung Fu Panda' - IMDb ID: tt0441773
  934. 15:08:13 T:9060  NOTICE: Trakt Utilities: found Movie: u'Kung Pow: Enter the Fist' - IMDb ID: tt0240468
  935. 15:08:13 T:9060  NOTICE: Trakt Utilities: found Movie: u'L.A. Confidential' - IMDb ID: tt0119488
  936. 15:08:13 T:9060  NOTICE: Trakt Utilities: found Movie: u'Lady and the Tramp' - IMDb ID: tt0048280
  937. 15:08:13 T:9060  NOTICE: Trakt Utilities: found Movie: u'Lady Killers' - IMDb ID: tt0376717
  938. 15:08:13 T:9060  NOTICE: Trakt Utilities: found Movie: u'The Land Before Time II: The Great Valley Adventure' - IMDb ID: tt0110300
  939. 15:08:13 T:9060  NOTICE: Trakt Utilities: found Movie: u'The Land Before Time III: The Time of the Great Giving' - IMDb ID: tt0113596
  940. 15:08:13 T:9060  NOTICE: Trakt Utilities: found Movie: u'The Land Before Time IV: Journey Through the Mists' - IMDb ID: tt0116817
  941. 15:08:13 T:9060  NOTICE: Trakt Utilities: found Movie: u'The Land Before Time IX: Journey to the Big Water' - IMDb ID: tt0345543
  942. 15:08:13 T:9060  NOTICE: Trakt Utilities: found Movie: u'The Land Before Time V: The Mysterious Island' - IMDb ID: tt0123950
  943. 15:08:13 T:9060  NOTICE: Trakt Utilities: found Movie: u'The Land Before Time VI: The Secret of Saurus Rock' - IMDb ID: tt0167247
  944. 15:08:13 T:9060  NOTICE: Trakt Utilities: found Movie: u'The Land Before Time VII: The Stone of Cold Fire' - IMDb ID: tt0267657
  945. 15:08:13 T:9060  NOTICE: Trakt Utilities: found Movie: u'The Land Before Time VIII: The Big Freeze' - IMDb ID: tt0301526
  946. 15:08:13 T:9060  NOTICE: Trakt Utilities: found Movie: u'The Land Before Time X: The Great Longneck Migration' - IMDb ID: tt0378230
  947. 15:08:13 T:9060  NOTICE: Trakt Utilities: found Movie: u'The Land Before Time XI: Invasion of the Tinysauruses' - IMDb ID: tt0424228
  948. 15:08:13 T:9060  NOTICE: Trakt Utilities: found Movie: u'The Land Before Time XII: The Great Day of the Flyers' - IMDb ID: tt0933064
  949. 15:08:13 T:9060  NOTICE: Trakt Utilities: found Movie: u'The Land Before Time' - IMDb ID: tt0095489
  950. 15:08:13 T:9060  NOTICE: Trakt Utilities: found Movie: u'Lara Croft: Tomb Raider' - IMDb ID: tt0146316
  951. 15:08:13 T:9060  NOTICE: Trakt Utilities: found Movie: u'Lara Croft Tomb Raider: The Cradle of Life' - IMDb ID: tt0325703
  952. 15:08:13 T:9060  NOTICE: Trakt Utilities: found Movie: u'Lassie' - IMDb ID: tt0431213
  953. 15:08:13 T:9060  NOTICE: Trakt Utilities: found Movie: u'Last Action Hero' - IMDb ID: tt0107362
  954. 15:08:13 T:9060  NOTICE: Trakt Utilities: found Movie: u'Last Man Standing' - IMDb ID: tt0116830
  955. 15:08:13 T:9060  NOTICE: Trakt Utilities: found Movie: u'The Last Samurai' - IMDb ID: tt0325710
  956. 15:08:13 T:9060  NOTICE: Trakt Utilities: found Movie: u'The Last Starfighter' - IMDb ID: tt0087597
  957. 15:08:13 T:9060  NOTICE: Trakt Utilities: found Movie: u'Law Abiding Citizen' - IMDb ID: tt1197624
  958. 15:08:13 T:9060  NOTICE: Trakt Utilities: found Movie: u'The Lawnmower Man' - IMDb ID: tt0104692
  959. 15:08:13 T:9060  NOTICE: Trakt Utilities: found Movie: u'Layer Cake' - IMDb ID: tt0375912
  960. 15:08:13 T:9060  NOTICE: Trakt Utilities: found Movie: u'Leaves of Grass' - IMDb ID: tt1151359
  961. 15:08:13 T:9060  NOTICE: Trakt Utilities: found Movie: u'The Legend of Bagger Vance' - IMDb ID: tt0146984
  962. 15:08:13 T:9060  NOTICE: Trakt Utilities: found Movie: u'Legends of the Fall' - IMDb ID: tt0110322
  963. 15:08:13 T:9060  NOTICE: Trakt Utilities: found Movie: u"Lemony Snicket's A Series of Unfortunate Events" - IMDb ID: tt0339291
  964. 15:08:13 T:9060  NOTICE: Trakt Utilities: found Movie: u'' - IMDb ID: tt0110413
  965. 15:08:13 T:9060  NOTICE: Trakt Utilities: found Movie: u'Lethal Weapon' - IMDb ID: tt0093409
  966. 15:08:13 T:9060  NOTICE: Trakt Utilities: found Movie: u'Lethal Weapon 2' - IMDb ID: tt0097733
  967. 15:08:13 T:9060  NOTICE: Trakt Utilities: found Movie: u'Lethal Weapon 3' - IMDb ID: tt0104714
  968. 15:08:13 T:9060  NOTICE: Trakt Utilities: found Movie: u'Lethal Weapon 4' - IMDb ID: tt0122151
  969. 15:08:13 T:9060  NOTICE: Trakt Utilities: found Movie: u'Letters from Iwo Jima' - IMDb ID: tt0498380
  970. 15:08:13 T:9060  NOTICE: Trakt Utilities: found Movie: u'The Life Aquatic with Steve Zissou' - IMDb ID: tt0362270
  971. 15:08:13 T:9060  NOTICE: Trakt Utilities: found Movie: u'Life Is Beautiful' - IMDb ID: tt1758690
  972. 15:08:13 T:9060  NOTICE: Trakt Utilities: found Movie: u'Life of Brian' - IMDb ID: tt0079470
  973. 15:08:13 T:9060  NOTICE: Trakt Utilities: found Movie: u'Lilo & Stitch' - IMDb ID: tt0275847
  974. 15:08:13 T:9060  NOTICE: Trakt Utilities: found Movie: u'The Lion King 1\xbd' - IMDb ID: tt0318403
  975. 15:08:13 T:9060  NOTICE: Trakt Utilities: found Movie: u"The Lion King II: Simba's Pride" - IMDb ID: tt0120131
  976. 15:08:13 T:9060  NOTICE: Trakt Utilities: found Movie: u'The Lion King' - IMDb ID: tt0110357
  977. 15:08:13 T:9060  NOTICE: Trakt Utilities: found Movie: u"The Little Mermaid: Ariel's Beginning" - IMDb ID: tt0969647
  978. 15:08:13 T:9060  NOTICE: Trakt Utilities: found Movie: u'The Little Mermaid' - IMDb ID: tt0097757
  979. 15:08:13 T:9060  NOTICE: Trakt Utilities: found Movie: u'Little Nicky' - IMDb ID: tt0185431
  980. 15:08:13 T:9060  NOTICE: Trakt Utilities: found Movie: u'The Little Rascals' - IMDb ID: tt0110366
  981. 15:08:13 T:9060  NOTICE: Trakt Utilities: found Movie: u'Lock, Stock and Two Smoking Barrels' - IMDb ID: tt0120735
  982. 15:08:13 T:9060  NOTICE: Trakt Utilities: found Movie: u'The Longest Yard' - IMDb ID: tt0398165
  983. 15:08:13 T:9060  NOTICE: Trakt Utilities: found Movie: u"Look Who's Talking" - IMDb ID: tt0097778
  984. 15:08:13 T:9060  NOTICE: Trakt Utilities: found Movie: u"Look Who's Talking Now" - IMDb ID: tt0107438
  985. 15:08:13 T:9060  NOTICE: Trakt Utilities: found Movie: u"Look Who's Talking Too" - IMDb ID: tt0100050
  986. 15:08:13 T:9060  NOTICE: Trakt Utilities: found Movie: u'The Lookout' - IMDb ID: tt0427470
  987. 15:08:13 T:9060  NOTICE: Trakt Utilities: found Movie: u'The Lord of the Rings: The Return of the King' - IMDb ID: tt0167260
  988. 15:08:13 T:9060  NOTICE: Trakt Utilities: found Movie: u'The Lord of the Rings: The Fellowship of the Ring' - IMDb ID: tt0120737
  989. 15:08:13 T:9060  NOTICE: Trakt Utilities: found Movie: u'The Lord of the Rings: The Two Towers' - IMDb ID: tt0167261
  990. 15:08:13 T:9060  NOTICE: Trakt Utilities: found Movie: u'Lord of War' - IMDb ID: tt0399295
  991. 15:08:13 T:9060  NOTICE: Trakt Utilities: found Movie: u'Lords of Dogtown' - IMDb ID: tt0355702
  992. 15:08:13 T:9060  NOTICE: Trakt Utilities: found Movie: u'Lost Boys: The Tribe' - IMDb ID: tt1031254
  993. 15:08:13 T:9060  NOTICE: Trakt Utilities: found Movie: u'The Lost Boys' - IMDb ID: tt0093437
  994. 15:08:13 T:9060  NOTICE: Trakt Utilities: found Movie: u'Lost in Space' - IMDb ID: tt0120738
  995. 15:08:13 T:9060  NOTICE: Trakt Utilities: found Movie: u'The Lost World: Jurassic Park' - IMDb ID: tt0119567
  996. 15:08:13 T:9060  NOTICE: Trakt Utilities: found Movie: u'Love Actually' - IMDb ID: tt0314331
  997. 15:08:13 T:9060  NOTICE: Trakt Utilities: found Movie: u'The Love Bug' - IMDb ID: tt0064603
  998. 15:08:13 T:9060  NOTICE: Trakt Utilities: found Movie: u'The Love Guru' - IMDb ID: tt0811138
  999. 15:08:13 T:9060  NOTICE: Trakt Utilities: found Movie: u'Lucky Number Slevin' - IMDb ID: tt0425210
  1000. 15:08:13 T:9060  NOTICE: Trakt Utilities: found Movie: u'The Machinist' - IMDb ID: tt0361862
  1001. 15:08:13 T:9060  NOTICE: Trakt Utilities: found Movie: u'Mad Max' - IMDb ID: tt0079501
  1002. 15:08:13 T:9060  NOTICE: Trakt Utilities: found Movie: u'Mad Max 2' - IMDb ID: tt0082694
  1003. 15:08:13 T:9060  NOTICE: Trakt Utilities: found Movie: u'Madagascar' - IMDb ID: tt0351283
  1004. 15:08:13 T:9060  NOTICE: Trakt Utilities: found Movie: u'Madagascar: Escape 2 Africa' - IMDb ID: tt0479952
  1005. 15:08:13 T:9060  NOTICE: Trakt Utilities: found Movie: u'Maid in Manhattan' - IMDb ID: tt0252076
  1006. 15:08:13 T:9060  NOTICE: Trakt Utilities: found Movie: u'Major Payne' - IMDb ID: tt0110443
  1007. 15:08:13 T:9060  NOTICE: Trakt Utilities: found Movie: u'The Man from Earth' - IMDb ID: tt0756683
  1008. 15:08:13 T:9060  NOTICE: Trakt Utilities: found Movie: u'Man of the House' - IMDb ID: tt0113755
  1009. 15:08:13 T:9060  NOTICE: Trakt Utilities: found Movie: u'Man of the Year' - IMDb ID: tt0483726
  1010. 15:08:13 T:9060  NOTICE: Trakt Utilities: found Movie: u'Man on Fire' - IMDb ID: tt0328107
  1011. 15:08:13 T:9060  NOTICE: Trakt Utilities: found Movie: u'The Manchurian Candidate' - IMDb ID: tt0368008
  1012. 15:08:13 T:9060  NOTICE: Trakt Utilities: found Movie: u'Manhunter' - IMDb ID: tt0091474
  1013. 15:08:13 T:9060  NOTICE: Trakt Utilities: found Movie: u'Marley & Me' - IMDb ID: tt0822832
  1014. 15:08:13 T:9060  NOTICE: Trakt Utilities: found Movie: u'Mary Poppins' - IMDb ID: tt0058331
  1015. 15:08:13 T:9060  NOTICE: Trakt Utilities: found Movie: u'The Mask' - IMDb ID: tt0110475
  1016. 15:08:13 T:9060  NOTICE: Trakt Utilities: found Movie: u'Matchstick Men' - IMDb ID: tt0325805
  1017. 15:08:13 T:9060  NOTICE: Trakt Utilities: found Movie: u'Matilda' - IMDb ID: tt0117008
  1018. 15:08:13 T:9060  NOTICE: Trakt Utilities: found Movie: u'The Matrix Reloaded' - IMDb ID: tt0234215
  1019. 15:08:13 T:9060  NOTICE: Trakt Utilities: found Movie: u'The Matrix Revolutions' - IMDb ID: tt0242653
  1020. 15:08:13 T:9060  NOTICE: Trakt Utilities: found Movie: u'The Matrix' - IMDb ID: tt0133093
  1021. 15:08:13 T:9060  NOTICE: Trakt Utilities: found Movie: u'Me, Myself & Irene' - IMDb ID: tt0183505
  1022. 15:08:13 T:9060  NOTICE: Trakt Utilities: found Movie: u'Mean Machine' - IMDb ID: tt0291341
  1023. 15:08:13 T:9060  NOTICE: Trakt Utilities: found Movie: u'The Medallion' - IMDb ID: tt0288045
  1024. 15:08:13 T:9060  NOTICE: Trakt Utilities: found Movie: u'Meet the Fockers' - IMDb ID: tt0290002
  1025. 15:08:13 T:9060  NOTICE: Trakt Utilities: found Movie: u'Meet the Robinsons' - IMDb ID: tt0396555
  1026. 15:08:13 T:9060  NOTICE: Trakt Utilities: found Movie: u'Memento' - IMDb ID: tt0209144
  1027. 15:08:13 T:9060  NOTICE: Trakt Utilities: found Movie: u'Men at Work' - IMDb ID: tt0100135
  1028. 15:08:13 T:9060  NOTICE: Trakt Utilities: found Movie: u'Men in Black' - IMDb ID: tt0119654
  1029. 15:08:13 T:9060  NOTICE: Trakt Utilities: found Movie: u'Men in Black II' - IMDb ID: tt0120912
  1030. 15:08:13 T:9060  NOTICE: Trakt Utilities: found Movie: u'Men of Honor' - IMDb ID: tt0203019
  1031. 15:08:13 T:9060  NOTICE: Trakt Utilities: found Movie: u'Mercury Rising' - IMDb ID: tt0120749
  1032. 15:08:13 T:9060  NOTICE: Trakt Utilities: found Movie: u'The Mighty Ducks' - IMDb ID: tt0104868
  1033. 15:08:13 T:9060  NOTICE: Trakt Utilities: found Movie: u"Miller's Crossing" - IMDb ID: tt0100150
  1034. 15:08:13 T:9060  NOTICE: Trakt Utilities: found Movie: u'Minority Report' - IMDb ID: tt0181689
  1035. 15:08:13 T:9060  NOTICE: Trakt Utilities: found Movie: u'Miracle on 34th Street' - IMDb ID: tt0039628
  1036. 15:08:13 T:9060  NOTICE: Trakt Utilities: found Movie: u'Mission: Impossible' - IMDb ID: tt0117060
  1037. 15:08:13 T:9060  NOTICE: Trakt Utilities: found Movie: u'Mission: Impossible III' - IMDb ID: tt0317919
  1038. 15:08:13 T:9060  NOTICE: Trakt Utilities: found Movie: u'The Mist' - IMDb ID: tt0884328
  1039. 15:08:13 T:9060  NOTICE: Trakt Utilities: found Movie: u'Money Talks' - IMDb ID: tt0119695
  1040. 15:08:13 T:9060  NOTICE: Trakt Utilities: found Movie: u'The Monster Squad' - IMDb ID: tt0093560
  1041. 15:08:13 T:9060  NOTICE: Trakt Utilities: found Movie: u'Monsters, Inc.' - IMDb ID: tt0198781
  1042. 15:08:13 T:9060  NOTICE: Trakt Utilities: found Movie: u'The Meaning of Life' - IMDb ID: tt0085959
  1043. 15:08:13 T:9060  NOTICE: Trakt Utilities: found Movie: u'Monty Python and the Holy Grail' - IMDb ID: tt0071853
  1044. 15:08:13 T:9060  NOTICE: Trakt Utilities: found Movie: u'Moon' - IMDb ID: tt1182345
  1045. 15:08:13 T:9060  NOTICE: Trakt Utilities: found Movie: u'Mousehunt' - IMDb ID: tt0119715
  1046. 15:08:13 T:9060  NOTICE: Trakt Utilities: found Movie: u'Mr. & Mrs. Smith' - IMDb ID: tt0356910
  1047. 15:08:13 T:9060  NOTICE: Trakt Utilities: found Movie: u'Mr. Deeds' - IMDb ID: tt0280590
  1048. 15:08:13 T:9060  NOTICE: Trakt Utilities: found Movie: u"Mr. Magorium's Wonder Emporium" - IMDb ID: tt0457419
  1049. 15:08:13 T:9060  NOTICE: Trakt Utilities: found Movie: u'Mr. Nanny' - IMDb ID: tt0107612
  1050. 15:08:13 T:9060  NOTICE: Trakt Utilities: found Movie: u'Mr. Nobody' - IMDb ID: tt0485947
  1051. 15:08:13 T:9060  NOTICE: Trakt Utilities: found Movie: u'Mr. Woodcock' - IMDb ID: tt0419984
  1052. 15:08:13 T:9060  NOTICE: Trakt Utilities: found Movie: u'Mulholland Dr.' - IMDb ID: tt0166924
  1053. 15:08:13 T:9060  NOTICE: Trakt Utilities: found Movie: u'Mulan' - IMDb ID: tt0120762
  1054. 15:08:13 T:9060  NOTICE: Trakt Utilities: found Movie: u'Mulan II' - IMDb ID: tt0279967
  1055. 15:08:13 T:9060  NOTICE: Trakt Utilities: found Movie: u'The Mummy Returns' - IMDb ID: tt0209163
  1056. 15:08:13 T:9060  NOTICE: Trakt Utilities: found Movie: u'The Mummy: Tomb of the Dragon Emperor' - IMDb ID: tt0859163
  1057. 15:08:13 T:9060  NOTICE: Trakt Utilities: found Movie: u'The Mummy' - IMDb ID: tt0120616
  1058. 15:08:13 T:9060  NOTICE: Trakt Utilities: found Movie: u'The Muppet Christmas Carol' - IMDb ID: tt0104940
  1059. 15:08:13 T:9060  NOTICE: Trakt Utilities: found Movie: u'Muppet Treasure Island' - IMDb ID: tt0117110
  1060. 15:08:13 T:9060  NOTICE: Trakt Utilities: found Movie: u'Muppets from Space' - IMDb ID: tt0158811
  1061. 15:08:13 T:9060  NOTICE: Trakt Utilities: found Movie: u'My Big Fat Greek Wedding' - IMDb ID: tt0259446
  1062. 15:08:13 T:9060  NOTICE: Trakt Utilities: found Movie: u'My Fair Lady' - IMDb ID: tt0058385
  1063. 15:08:13 T:9060  NOTICE: Trakt Utilities: found Movie: u'The Naked Gun 2\xbd: The Smell of Fear' - IMDb ID: tt0102510
  1064. 15:08:13 T:9060  NOTICE: Trakt Utilities: found Movie: u'Naked Gun 33 1/3: The Final Insult' - IMDb ID: tt0110622
  1065. 15:08:13 T:9060  NOTICE: Trakt Utilities: found Movie: u'The Naked Gun: From the Files of Police Squad!' - IMDb ID: tt0095705
  1066. 15:08:13 T:9060  NOTICE: Trakt Utilities: found Movie: u'Naked Lunch' - IMDb ID: tt0102511
  1067. 15:08:13 T:9060  NOTICE: Trakt Utilities: found Movie: u'Nanny McPhee' - IMDb ID: tt0396752
  1068. 15:08:13 T:9060  NOTICE: Trakt Utilities: found Movie: u'Napoleon Dynamite' - IMDb ID: tt0374900
  1069. 15:08:13 T:9060  NOTICE: Trakt Utilities: found Movie: u'Christmas Vacation' - IMDb ID: tt0097958
  1070. 15:08:13 T:9060  NOTICE: Trakt Utilities: found Movie: u"National Lampoon's Movie Madness" - IMDb ID: tt0082799
  1071. 15:08:13 T:9060  NOTICE: Trakt Utilities: found Movie: u'European Vacation' - IMDb ID: tt0089670
  1072. 15:08:13 T:9060  NOTICE: Trakt Utilities: found Movie: u'National Treasure' - IMDb ID: tt0368891
  1073. 15:08:13 T:9060  NOTICE: Trakt Utilities: found Movie: u'National Treasure: Book of Secrets' - IMDb ID: tt0465234
  1074. 15:08:13 T:9060  NOTICE: Trakt Utilities: found Movie: u'Natural Born Killers' - IMDb ID: tt0110632
  1075. 15:08:13 T:9060  NOTICE: Trakt Utilities: found Movie: u'Natural Born Killers' - IMDb ID: tt0110632
  1076. 15:08:13 T:9060  NOTICE: Trakt Utilities: found Movie: u'The Negotiator' - IMDb ID: tt0120768
  1077. 15:08:13 T:9060  NOTICE: Trakt Utilities: found Movie: u'Never Back Down' - IMDb ID: tt1023111
  1078. 15:08:13 T:9060  NOTICE: Trakt Utilities: found Movie: u'Die unendliche Geschichte' - IMDb ID: tt0088323
  1079. 15:08:13 T:9060  NOTICE: Trakt Utilities: found Movie: u'Next' - IMDb ID: tt0435705
  1080. 15:08:13 T:9060  NOTICE: Trakt Utilities: found Movie: u'Next Friday' - IMDb ID: tt0195945
  1081. 15:08:13 T:9060  NOTICE: Trakt Utilities: found Movie: u'Night at the Museum' - IMDb ID: tt0477347
  1082. 15:08:13 T:9060  NOTICE: Trakt Utilities: found Movie: u'Night at the Museum: Battle of the Smithsonian' - IMDb ID: tt1078912
  1083. 15:08:13 T:9060  NOTICE: Trakt Utilities: found Movie: u'Night Shift' - IMDb ID: tt0084412
  1084. 15:08:13 T:9060  NOTICE: Trakt Utilities: found Movie: u'The Nightmare Before Christmas' - IMDb ID: tt0107688
  1085. 15:08:13 T:9060  NOTICE: Trakt Utilities: found Movie: u'The Incredible Hulk' - IMDb ID: tt0800080
  1086. 15:08:13 T:9060  NOTICE: Trakt Utilities: found Movie: u'The Nines' - IMDb ID: tt0810988
  1087. 15:08:13 T:9060  NOTICE: Trakt Utilities: found Movie: u'Ninja Assassin' - IMDb ID: tt1186367
  1088. 15:08:13 T:9060  NOTICE: Trakt Utilities: found Movie: u'No Country for Old Men' - IMDb ID: tt0477348
  1089. 15:08:13 T:9060  NOTICE: Trakt Utilities: found Movie: u'Nothing to Lose' - IMDb ID: tt0119807
  1090. 15:08:13 T:9060  NOTICE: Trakt Utilities: found Movie: u'Nutty Professor II: The Klumps' - IMDb ID: tt0144528
  1091. 15:08:13 T:9060  NOTICE: Trakt Utilities: found Movie: u'The Nutty Professor' - IMDb ID: tt0117218
  1092. 15:08:13 T:9060  NOTICE: Trakt Utilities: found Movie: u'Observe and Report' - IMDb ID: tt1197628
  1093. 15:08:13 T:9060  NOTICE: Trakt Utilities: found Movie: u"Ocean's Eleven" - IMDb ID: tt0240772
  1094. 15:08:13 T:9060  NOTICE: Trakt Utilities: found Movie: u"Ocean's Thirteen" - IMDb ID: tt0496806
  1095. 15:08:13 T:9060  NOTICE: Trakt Utilities: found Movie: u"Ocean's Twelve" - IMDb ID: tt0349903
  1096. 15:08:13 T:9060  NOTICE: Trakt Utilities: found Movie: u'Office Space' - IMDb ID: tt0151804
  1097. 15:08:13 T:9060  NOTICE: Trakt Utilities: found Movie: u'Old School' - IMDb ID: tt0302886
  1098. 15:08:13 T:9060  NOTICE: Trakt Utilities: found Movie: u'Old Yeller' - IMDb ID: tt0050798
  1099. 15:08:13 T:9060  NOTICE: Trakt Utilities: found Movie: u'Open Season' - IMDb ID: tt0400717
  1100. 15:08:13 T:9060  NOTICE: Trakt Utilities: found Movie: u'Open Season 2' - IMDb ID: tt1107365
  1101. 15:08:13 T:9060  NOTICE: Trakt Utilities: found Movie: u'The Other Man' - IMDb ID: tt0974613
  1102. 15:08:13 T:9060  NOTICE: Trakt Utilities: found Movie: u'Out Cold' - IMDb ID: tt0253798
  1103. 15:08:13 T:9060  NOTICE: Trakt Utilities: found Movie: u'Out of Sight' - IMDb ID: tt0120780
  1104. 15:08:13 T:9060  NOTICE: Trakt Utilities: found Movie: u'The Outsiders' - IMDb ID: tt0086066
  1105. 15:08:13 T:9060  NOTICE: Trakt Utilities: found Movie: u'Over the Hedge' - IMDb ID: tt0327084
  1106. 15:08:13 T:9060  NOTICE: Trakt Utilities: found Movie: u'Overboard' - IMDb ID: tt0093693
  1107. 15:08:13 T:9060  NOTICE: Trakt Utilities: found Movie: u'El laberinto del fauno' - IMDb ID: tt0457430
  1108. 15:08:13 T:9060  NOTICE: Trakt Utilities: found Movie: u'Pandorum' - IMDb ID: tt1188729
  1109. 15:08:13 T:9060  NOTICE: Trakt Utilities: found Movie: u'Paranormal Activity' - IMDb ID: tt1179904
  1110. 15:08:13 T:9060  NOTICE: Trakt Utilities: found Movie: u'The Parent Trap' - IMDb ID: tt0120783
  1111. 15:08:13 T:9060  NOTICE: Trakt Utilities: found Movie: u'The Patriot' - IMDb ID: tt0187393
  1112. 15:08:13 T:9060  NOTICE: Trakt Utilities: found Movie: u'Paulie' - IMDb ID: tt0125454
  1113. 15:08:13 T:9060  NOTICE: Trakt Utilities: found Movie: u'Payback' - IMDb ID: tt0120784
  1114. 15:08:13 T:9060  NOTICE: Trakt Utilities: found Movie: u'Paycheck' - IMDb ID: tt0338337
  1115. 15:08:13 T:9060  NOTICE: Trakt Utilities: found Movie: u"Pete's Dragon" - IMDb ID: tt0076538
  1116. 15:08:13 T:9060  NOTICE: Trakt Utilities: found Movie: u'Peter Pan' - IMDb ID: tt0046183
  1117. 15:08:13 T:9060  NOTICE: Trakt Utilities: found Movie: u'Peter Pan' - IMDb ID: tt0046183
  1118. 15:08:13 T:9060  NOTICE: Trakt Utilities: found Movie: u'The Phantom' - IMDb ID: tt0117331
  1119. 15:08:13 T:9060  NOTICE: Trakt Utilities: found Movie: u'Phenomenon' - IMDb ID: tt0117333
  1120. 15:08:13 T:9060  NOTICE: Trakt Utilities: found Movie: u'Pi' - IMDb ID: tt0138704
  1121. 15:08:13 T:9060  NOTICE: Trakt Utilities: found Movie: u'The Pianist' - IMDb ID: tt0253474
  1122. 15:08:13 T:9060  NOTICE: Trakt Utilities: found Movie: u"Piglet's Big Movie" - IMDb ID: tt0323642
  1123. 15:08:13 T:9060  NOTICE: Trakt Utilities: found Movie: u'Pineapple Express' - IMDb ID: tt0910936
  1124. 15:08:13 T:9060  NOTICE: Trakt Utilities: found Movie: u'Pirates of Silicon Valley' - IMDb ID: tt0168122
  1125. 15:08:13 T:9060  NOTICE: Trakt Utilities: found Movie: u"Pirates of the Caribbean: At World's End" - IMDb ID: tt0449088
  1126. 15:08:13 T:9060  NOTICE: Trakt Utilities: found Movie: u"Pirates of the Caribbean: Dead Man's Chest" - IMDb ID: tt0383574
  1127. 15:08:13 T:9060  NOTICE: Trakt Utilities: found Movie: u'Pirates of the Caribbean: The Curse of the Black Pearl' - IMDb ID: tt0325980
  1128. 15:08:13 T:9060  NOTICE: Trakt Utilities: found Movie: u'Pitch Black' - IMDb ID: tt0134847
  1129. 15:08:13 T:9060  NOTICE: Trakt Utilities: found Movie: u'Planet 51' - IMDb ID: tt0762125
  1130. 15:08:13 T:9060  NOTICE: Trakt Utilities: found Movie: u'Planet of the Apes' - IMDb ID: tt0133152
  1131. 15:08:13 T:9060  NOTICE: Trakt Utilities: found Movie: u'Pocahontas' - IMDb ID: tt0114148
  1132. 15:08:13 T:9060  NOTICE: Trakt Utilities: found Movie: u'The Polar Express' - IMDb ID: tt0338348
  1133. 15:08:13 T:9060  NOTICE: Trakt Utilities: found Movie: u'Poltergeist' - IMDb ID: tt0084516
  1134. 15:08:13 T:9060  NOTICE: Trakt Utilities: found Movie: u'Poltergeist II: The Other Side' - IMDb ID: tt0091778
  1135. 15:08:13 T:9060  NOTICE: Trakt Utilities: found Movie: u'Poltergeist III' - IMDb ID: tt0095889
  1136. 15:08:13 T:9060  NOTICE: Trakt Utilities: found Movie: u"Pooh's Grand Adventure: The Search for Christopher Robin" - IMDb ID: tt0119918
  1137. 15:08:13 T:9060  NOTICE: Trakt Utilities: found Movie: u"Pooh's Heffalump Movie" - IMDb ID: tt0407121
  1138. 15:08:13 T:9060  NOTICE: Trakt Utilities: found Movie: u"Porky's" - IMDb ID: tt0084522
  1139. 15:08:13 T:9060  NOTICE: Trakt Utilities: found Movie: u'Predator' - IMDb ID: tt0093773
  1140. 15:08:13 T:9060  NOTICE: Trakt Utilities: found Movie: u'Predator 2' - IMDb ID: tt0100403
  1141. 15:08:13 T:9060  NOTICE: Trakt Utilities: found Movie: u'The Prestige' - IMDb ID: tt0482571
  1142. 15:08:13 T:9060  NOTICE: Trakt Utilities: found Movie: u'Primal Fear' - IMDb ID: tt0117381
  1143. 15:08:13 T:9060  NOTICE: Trakt Utilities: found Movie: u'Primer' - IMDb ID: tt0390384
  1144. 15:08:13 T:9060  NOTICE: Trakt Utilities: found Movie: u'The Princess and the Frog' - IMDb ID: tt0780521
  1145. 15:08:13 T:9060  NOTICE: Trakt Utilities: found Movie: u'The Princess Bride' - IMDb ID: tt0093779
  1146. 15:08:13 T:9060  NOTICE: Trakt Utilities: found Movie: u'Private Benjamin' - IMDb ID: tt0081375
  1147. 15:08:13 T:9060  NOTICE: Trakt Utilities: found Movie: u'Problem Child' - IMDb ID: tt0100419
  1148. 15:08:13 T:9060  NOTICE: Trakt Utilities: found Movie: u'Problem Child 2' - IMDb ID: tt0102719
  1149. 15:08:13 T:9060  NOTICE: Trakt Utilities: found Movie: u'The Producers' - IMDb ID: tt0395251
  1150. 15:08:13 T:9060  NOTICE: Trakt Utilities: found Movie: u'Le professionnel' - IMDb ID: tt0082949
  1151. 15:08:13 T:9060  NOTICE: Trakt Utilities: found Movie: u'The Proposal' - IMDb ID: tt1041829
  1152. 15:08:13 T:9060  NOTICE: Trakt Utilities: found Movie: u'Public Enemies' - IMDb ID: tt1152836
  1153. 15:08:13 T:9060  NOTICE: Trakt Utilities: found Movie: u'Pulp Fiction' - IMDb ID: tt0110912
  1154. 15:08:13 T:9060  NOTICE: Trakt Utilities: found Movie: u'Quantum of Solace' - IMDb ID: tt0830515
  1155. 15:08:13 T:9060  NOTICE: Trakt Utilities: found Movie: u'Rambo: First Blood Part II' - IMDb ID: tt0089880
  1156. 15:08:13 T:9060  NOTICE: Trakt Utilities: found Movie: u'Rambo' - IMDb ID: tt0462499
  1157. 15:08:13 T:9060  NOTICE: Trakt Utilities: found Movie: u'Rat Race' - IMDb ID: tt0250687
  1158. 15:08:13 T:9060  NOTICE: Trakt Utilities: found Movie: u'Ratatouille' - IMDb ID: tt0382932
  1159. 15:08:13 T:9060  NOTICE: Trakt Utilities: found Movie: u'The Rebound' - IMDb ID: tt1205535
  1160. 15:08:13 T:9060  NOTICE: Trakt Utilities: found Movie: u'Red Dragon' - IMDb ID: tt0289765
  1161. 15:08:13 T:9060  NOTICE: Trakt Utilities: found Movie: u'Religulous' - IMDb ID: tt0815241
  1162. 15:08:13 T:9060  NOTICE: Trakt Utilities: found Movie: u'Remember the Titans' - IMDb ID: tt0210945
  1163. 15:08:13 T:9060  NOTICE: Trakt Utilities: found Movie: u'Requiem for a Dream' - IMDb ID: tt0180093
  1164. 15:08:13 T:9060  NOTICE: Trakt Utilities: found Movie: u'Rescue Dawn' - IMDb ID: tt0462504
  1165. 15:08:13 T:9060  NOTICE: Trakt Utilities: found Movie: u'The Rescuers Down Under' - IMDb ID: tt0100477
  1166. 15:08:13 T:9060  NOTICE: Trakt Utilities: found Movie: u'The Rescuers' - IMDb ID: tt0076618
  1167. 15:08:13 T:9060  NOTICE: Trakt Utilities: found Movie: u'Reservoir Dogs' - IMDb ID: tt0105236
  1168. 15:08:13 T:9060  NOTICE: Trakt Utilities: found Movie: u'Resident Evil: Degeneration' - IMDb ID: tt1174954
  1169. 15:08:13 T:9060  NOTICE: Trakt Utilities: found Movie: u'Resident Evil: Extinction' - IMDb ID: tt0432021
  1170. 15:08:13 T:9060  NOTICE: Trakt Utilities: found Movie: u'Resident Evil' - IMDb ID: tt0120804
  1171. 15:08:13 T:9060  NOTICE: Trakt Utilities: found Movie: u'Resident Evil: Apocalypse' - IMDb ID: tt0318627
  1172. 15:08:13 T:9060  NOTICE: Trakt Utilities: found Movie: u'Revenge of the Nerds' - IMDb ID: tt0088000
  1173. 15:08:13 T:9060  NOTICE: Trakt Utilities: found Movie: u'Revenge of the Nerds II: Nerds in Paradise' - IMDb ID: tt0093857
  1174. 15:08:13 T:9060  NOTICE: Trakt Utilities: found Movie: u'Revenge of the Nerds III: The Next Generation' - IMDb ID: tt0105251
  1175. 15:08:13 T:9060  NOTICE: Trakt Utilities: found Movie: u'Revenge of the Nerds IV: Nerds in Love' - IMDb ID: tt0110982
  1176. 15:08:13 T:9060  NOTICE: Trakt Utilities: found Movie: u'Revolver' - IMDb ID: tt0365686
  1177. 15:08:13 T:9060  NOTICE: Trakt Utilities: found Movie: u'Ri\xa2hie Ri\xa2h' - IMDb ID: tt0110989
  1178. 15:08:13 T:9060  NOTICE: Trakt Utilities: found Movie: u'Risky Business' - IMDb ID: tt0086200
  1179. 15:08:13 T:9060  NOTICE: Trakt Utilities: found Movie: u'Road House' - IMDb ID: tt0098206
  1180. 15:08:13 T:9060  NOTICE: Trakt Utilities: found Movie: u'Road Trip' - IMDb ID: tt0215129
  1181. 15:08:13 T:9060  NOTICE: Trakt Utilities: found Movie: u'The Road' - IMDb ID: tt0898367
  1182. 15:08:13 T:9060  NOTICE: Trakt Utilities: found Movie: u'Robin Hood: Men in Tights' - IMDb ID: tt0107977
  1183. 15:08:13 T:9060  NOTICE: Trakt Utilities: found Movie: u'Robin Hood' - IMDb ID: tt0070608
  1184. 15:08:13 T:9060  NOTICE: Trakt Utilities: found Movie: u'RoboCop' - IMDb ID: tt0093870
  1185. 15:08:13 T:9060  NOTICE: Trakt Utilities: found Movie: u'RoboCop 2' - IMDb ID: tt0100502
  1186. 15:08:13 T:9060  NOTICE: Trakt Utilities: found Movie: u'RoboCop 3' - IMDb ID: tt0107978
  1187. 15:08:13 T:9060  NOTICE: Trakt Utilities: found Movie: u'Robots' - IMDb ID: tt0358082
  1188. 15:08:13 T:9060  NOTICE: Trakt Utilities: found Movie: u'The Rock' - IMDb ID: tt0117500
  1189. 15:08:13 T:9060  NOTICE: Trakt Utilities: found Movie: u'RocknRolla' - IMDb ID: tt1032755
  1190. 15:08:13 T:9060  NOTICE: Trakt Utilities: found Movie: u'Rocky' - IMDb ID: tt0075148
  1191. 15:08:13 T:9060  NOTICE: Trakt Utilities: found Movie: u'Role Models' - IMDb ID: tt0430922
  1192. 15:08:13 T:9060  NOTICE: Trakt Utilities: found Movie: u'Romancing the Stone' - IMDb ID: tt0088011
  1193. 15:08:13 T:9060  NOTICE: Trakt Utilities: found Movie: u'Romeo Must Die' - IMDb ID: tt0165929
  1194. 15:08:13 T:9060  NOTICE: Trakt Utilities: found Movie: u'Ronin' - IMDb ID: tt0122690
  1195. 15:08:13 T:9060  NOTICE: Trakt Utilities: found Movie: u'Rounders' - IMDb ID: tt0128442
  1196. 15:08:13 T:9060  NOTICE: Trakt Utilities: found Movie: u'Rules of Engagement' - IMDb ID: tt0160797
  1197. 15:08:13 T:9060  NOTICE: Trakt Utilities: found Movie: u'Runaway Jury' - IMDb ID: tt0313542
  1198. 15:08:13 T:9060  NOTICE: Trakt Utilities: found Movie: u'Rush Hour' - IMDb ID: tt0120812
  1199. 15:08:13 T:9060  NOTICE: Trakt Utilities: found Movie: u'Rush Hour 2' - IMDb ID: tt0266915
  1200. 15:08:13 T:9060  NOTICE: Trakt Utilities: found Movie: u'Rush Hour 3' - IMDb ID: tt0293564
  1201. 15:08:13 T:9060  NOTICE: Trakt Utilities: found Movie: u'Sahara' - IMDb ID: tt0318649
  1202. 15:08:13 T:9060  NOTICE: Trakt Utilities: found Movie: u'The Santa Clause 2' - IMDb ID: tt0304669
  1203. 15:08:13 T:9060  NOTICE: Trakt Utilities: found Movie: u'The Santa Clause 3: The Escape Clause' - IMDb ID: tt0452681
  1204. 15:08:13 T:9060  NOTICE: Trakt Utilities: found Movie: u'The Santa Clause' - IMDb ID: tt0111070
  1205. 15:08:13 T:9060  NOTICE: Trakt Utilities: found Movie: u'Saving Private Ryan' - IMDb ID: tt0120815
  1206. 15:08:13 T:9060  NOTICE: Trakt Utilities: found Movie: u'Scarface' - IMDb ID: tt0086250
  1207. 15:08:13 T:9060  NOTICE: Trakt Utilities: found Movie: u'The School of Rock' - IMDb ID: tt0332379
  1208. 15:08:13 T:9060  NOTICE: Trakt Utilities: found Movie: u'Scooby-Doo' - IMDb ID: tt0267913
  1209. 15:08:13 T:9060  NOTICE: Trakt Utilities: found Movie: u'Scooby Doo 2: Monsters Unleashed' - IMDb ID: tt0331632
  1210. 15:08:13 T:9060  NOTICE: Trakt Utilities: found Movie: u'The Score' - IMDb ID: tt0227445
  1211. 15:08:13 T:9060  NOTICE: Trakt Utilities: found Movie: u'The Scorpion King: Rise of a Warrior' - IMDb ID: tt1104123
  1212. 15:08:13 T:9060  NOTICE: Trakt Utilities: found Movie: u'Scream' - IMDb ID: tt0117571
  1213. 15:08:13 T:9060  NOTICE: Trakt Utilities: found Movie: u'Scream 2' - IMDb ID: tt0120082
  1214. 15:08:13 T:9060  NOTICE: Trakt Utilities: found Movie: u'Scrooged' - IMDb ID: tt0096061
  1215. 15:08:13 T:9060  NOTICE: Trakt Utilities: found Movie: u'Se7en' - IMDb ID: tt0114369
  1216. 15:08:13 T:9060  NOTICE: Trakt Utilities: found Movie: u'Seabiscuit' - IMDb ID: tt0329575
  1217. 15:08:13 T:9060  NOTICE: Trakt Utilities: found Movie: u'The Secret Garden' - IMDb ID: tt0108071
  1218. 15:08:13 T:9060  NOTICE: Trakt Utilities: found Movie: u'The Secret of NIMH' - IMDb ID: tt0084649
  1219. 15:08:13 T:9060  NOTICE: Trakt Utilities: found Movie: u'Senior Trip' - IMDb ID: tt0113936
  1220. 15:08:13 T:9060  NOTICE: Trakt Utilities: found Movie: u'Serenity' - IMDb ID: tt0379786
  1221. 15:08:13 T:9060  NOTICE: Trakt Utilities: found Movie: u'Seven Pounds' - IMDb ID: tt0814314
  1222. 15:08:13 T:9060  NOTICE: Trakt Utilities: found Movie: u'Shaft' - IMDb ID: tt0162650
  1223. 15:08:13 T:9060  NOTICE: Trakt Utilities: found Movie: u'Shanghai Knights' - IMDb ID: tt0300471
  1224. 15:08:13 T:9060  NOTICE: Trakt Utilities: found Movie: u'Shanghai Noon' - IMDb ID: tt0184894
  1225. 15:08:13 T:9060  NOTICE: Trakt Utilities: found Movie: u'Shark Tale' - IMDb ID: tt0307453
  1226. 15:08:13 T:9060  NOTICE: Trakt Utilities: found Movie: u'Shaun of the Dead' - IMDb ID: tt0365748
  1227. 15:08:13 T:9060  NOTICE: Trakt Utilities: found Movie: u'The Shawshank Redemption' - IMDb ID: tt0111161
  1228. 15:08:13 T:9060  NOTICE: Trakt Utilities: found Movie: u'Sherlock Holmes' - IMDb ID: tt0988045
  1229. 15:08:13 T:9060  NOTICE: Trakt Utilities: found Movie: u'The Shining' - IMDb ID: tt0081505
  1230. 15:08:13 T:9060  NOTICE: Trakt Utilities: found Movie: u'Shooter' - IMDb ID: tt0822854
  1231. 15:08:13 T:9060  NOTICE: Trakt Utilities: found Movie: u'Short Circuit' - IMDb ID: tt0091949
  1232. 15:08:13 T:9060  NOTICE: Trakt Utilities: found Movie: u'Shrek' - IMDb ID: tt0126029
  1233. 15:08:13 T:9060  NOTICE: Trakt Utilities: found Movie: u'Shrek 2' - IMDb ID: tt0298148
  1234. 15:08:13 T:9060  NOTICE: Trakt Utilities: found Movie: u'Shrek the Third' - IMDb ID: tt0413267
  1235. 15:08:13 T:9060  NOTICE: Trakt Utilities: found Movie: u'The Siege' - IMDb ID: tt0133952
  1236. 15:08:13 T:9060  NOTICE: Trakt Utilities: found Movie: u'The Silence of the Lambs' - IMDb ID: tt0102926
  1237. 15:08:13 T:9060  NOTICE: Trakt Utilities: found Movie: u'The Simpsons Movie' - IMDb ID: tt0462538
  1238. 15:08:13 T:9060  NOTICE: Trakt Utilities: found Movie: u'Sin City' - IMDb ID: tt0401792
  1239. 15:08:13 T:9060  NOTICE: Trakt Utilities: found Movie: u'Sister Act' - IMDb ID: tt0105417
  1240. 15:08:13 T:9060  NOTICE: Trakt Utilities: found Movie: u'Sister Act 2: Back in the Habit' - IMDb ID: tt0108147
  1241. 15:08:13 T:9060  NOTICE: Trakt Utilities: found Movie: u'Six Days Seven Nights' - IMDb ID: tt0120828
  1242. 15:08:13 T:9060  NOTICE: Trakt Utilities: found Movie: u'The Sixth Sense' - IMDb ID: tt0167404
  1243. 15:08:13 T:9060  NOTICE: Trakt Utilities: found Movie: u'Slam Dunk Ernest' - IMDb ID: tt0114469
  1244. 15:08:13 T:9060  NOTICE: Trakt Utilities: found Movie: u'Sleeping Beauty' - IMDb ID: tt0053285
  1245. 15:08:13 T:9060  NOTICE: Trakt Utilities: found Movie: u'Sleepless in Seattle' - IMDb ID: tt0108160
  1246. 15:08:13 T:9060  NOTICE: Trakt Utilities: found Movie: u'Sleepy Hollow' - IMDb ID: tt0162661
  1247. 15:08:13 T:9060  NOTICE: Trakt Utilities: found Movie: u'Small Soldiers' - IMDb ID: tt0122718
  1248. 15:08:13 T:9060  NOTICE: Trakt Utilities: found Movie: u'Snakes on a Plane' - IMDb ID: tt0417148
  1249. 15:08:13 T:9060  NOTICE: Trakt Utilities: found Movie: u'Snatch.' - IMDb ID: tt0208092
  1250. 15:08:13 T:9060  NOTICE: Trakt Utilities: found Movie: u'Snow White and the Seven Dwarfs' - IMDb ID: tt0029583
  1251. 15:08:13 T:9060  NOTICE: Trakt Utilities: found Movie: u'So I Married an Axe Murderer' - IMDb ID: tt0108174
  1252. 15:08:13 T:9060  NOTICE: Trakt Utilities: found Movie: u'Song of the South' - IMDb ID: tt0038969
  1253. 15:08:13 T:9060  NOTICE: Trakt Utilities: found Movie: u'The Sound of Music' - IMDb ID: tt0059742
  1254. 15:08:13 T:9060  NOTICE: Trakt Utilities: found Movie: u'Space Jam' - IMDb ID: tt0117705
  1255. 15:08:13 T:9060  NOTICE: Trakt Utilities: found Movie: u'Spaceballs' - IMDb ID: tt0094012
  1256. 15:08:13 T:9060  NOTICE: Trakt Utilities: found Movie: u'Speed' - IMDb ID: tt0111257
  1257. 15:08:13 T:9060  NOTICE: Trakt Utilities: found Movie: u'Sphere' - IMDb ID: tt0120184
  1258. 15:08:13 T:9060  NOTICE: Trakt Utilities: found Movie: u'Spider-Man' - IMDb ID: tt0145487
  1259. 15:08:13 T:9060  NOTICE: Trakt Utilities: found Movie: u'Spider-Man 2' - IMDb ID: tt0316654
  1260. 15:08:13 T:9060  NOTICE: Trakt Utilities: found Movie: u'Spider-Man 3' - IMDb ID: tt0413300
  1261. 15:08:13 T:9060  NOTICE: Trakt Utilities: found Movie: u'Sen to Chihiro no kamikakushi' - IMDb ID: tt0245429
  1262. 15:08:13 T:9060  NOTICE: Trakt Utilities: found Movie: u'Splice' - IMDb ID: tt1017460
  1263. 15:08:13 T:9060  NOTICE: Trakt Utilities: found Movie: u'Stakeout' - IMDb ID: tt0094025
  1264. 15:08:13 T:9060  NOTICE: Trakt Utilities: found Movie: u'Stan Helsing' - IMDb ID: tt1185266
  1265. 15:08:13 T:9060  NOTICE: Trakt Utilities: found Movie: u'Star Trek' - IMDb ID: tt0796366
  1266. 15:08:13 T:9060  NOTICE: Trakt Utilities: found Movie: u'Star Trek III: The Search for Spock' - IMDb ID: tt0088170
  1267. 15:08:13 T:9060  NOTICE: Trakt Utilities: found Movie: u'Star Wars' - IMDb ID: tt0076759
  1268. 15:08:13 T:9060  NOTICE: Trakt Utilities: found Movie: u'Star Wars: Episode I - The Phantom Menace' - IMDb ID: tt0120915
  1269. 15:08:13 T:9060  NOTICE: Trakt Utilities: found Movie: u'Star Wars: Episode II - Attack of the Clones' - IMDb ID: tt0121765
  1270. 15:08:13 T:9060  NOTICE: Trakt Utilities: found Movie: u'Star Wars: Episode III - Revenge of the Sith' - IMDb ID: tt0121766
  1271. 15:08:13 T:9060  NOTICE: Trakt Utilities: found Movie: u'Star Wars: Episode V - The Empire Strikes Back' - IMDb ID: tt0080684
  1272. 15:08:13 T:9060  NOTICE: Trakt Utilities: found Movie: u'Star Wars: Episode VI - Return of the Jedi' - IMDb ID: tt0086190
  1273. 15:08:13 T:9060  NOTICE: Trakt Utilities: found Movie: u'Starship Troopers' - IMDb ID: tt0120201
  1274. 15:08:13 T:9060  NOTICE: Trakt Utilities: found Movie: u'Starship Troopers 2: Hero of the Federation' - IMDb ID: tt0367093
  1275. 15:08:13 T:9060  NOTICE: Trakt Utilities: found Movie: u'Starship Troopers 3: Marauder' - IMDb ID: tt0844760
  1276. 15:08:13 T:9060  NOTICE: Trakt Utilities: found Movie: u'Staten Island' - IMDb ID: tt0976246
  1277. 15:08:13 T:9060  NOTICE: Trakt Utilities: found Movie: u'Step Brothers' - IMDb ID: tt0838283
  1278. 15:08:13 T:9060  NOTICE: Trakt Utilities: found Movie: u'The Sting' - IMDb ID: tt0070735
  1279. 15:08:13 T:9060  NOTICE: Trakt Utilities: found Movie: u'Strange Days' - IMDb ID: tt0114558
  1280. 15:08:13 T:9060  NOTICE: Trakt Utilities: found Movie: u'Stranger Than Fiction' - IMDb ID: tt0420223
  1281. 15:08:13 T:9060  NOTICE: Trakt Utilities: found Movie: u'Street Kings' - IMDb ID: tt0421073
  1282. 15:08:13 T:9060  NOTICE: Trakt Utilities: found Movie: u'Striking Distance' - IMDb ID: tt0108238
  1283. 15:08:13 T:9060  NOTICE: Trakt Utilities: found Movie: u'Stuart Little' - IMDb ID: tt0164912
  1284. 15:08:13 T:9060  NOTICE: Trakt Utilities: found Movie: u'Super Troopers' - IMDb ID: tt0247745
  1285. 15:08:13 T:9060  NOTICE: Trakt Utilities: found Movie: u'Superbad' - IMDb ID: tt0829482
  1286. 15:08:13 T:9060  NOTICE: Trakt Utilities: found Movie: u'Superstar' - IMDb ID: tt0167427
  1287. 15:08:13 T:9060  NOTICE: Trakt Utilities: found Movie: u"Surf's Up" - IMDb ID: tt0423294
  1288. 15:08:13 T:9060  NOTICE: Trakt Utilities: found Movie: u'Surrogates' - IMDb ID: tt0986263
  1289. 15:08:13 T:9060  NOTICE: Trakt Utilities: found Movie: u'Suspect Zero' - IMDb ID: tt0324127
  1290. 15:08:13 T:9060  NOTICE: Trakt Utilities: found Movie: u'Sweeney Todd: The Demon Barber of Fleet Street' - IMDb ID: tt0408236
  1291. 15:08:13 T:9060  NOTICE: Trakt Utilities: found Movie: u'Swingers' - IMDb ID: tt0117802
  1292. 15:08:13 T:9060  NOTICE: Trakt Utilities: found Movie: u'Swiss Family Robinson' - IMDb ID: tt0054357
  1293. 15:08:13 T:9060  NOTICE: Trakt Utilities: found Movie: u'Swordfish' - IMDb ID: tt0244244
  1294. 15:08:13 T:9060  NOTICE: Trakt Utilities: found Movie: u'Taken' - IMDb ID: tt0936501
  1295. 15:08:13 T:9060  NOTICE: Trakt Utilities: found Movie: u'The Taking of Pelham 1 2 3' - IMDb ID: tt1111422
  1296. 15:08:13 T:9060  NOTICE: Trakt Utilities: found Movie: u'The Tale of Despereaux' - IMDb ID: tt0420238
  1297. 15:08:13 T:9060  NOTICE: Trakt Utilities: found Movie: u'Talladega Nights: The Ballad of Ricky Bobby' - IMDb ID: tt0415306
  1298. 15:08:13 T:9060  NOTICE: Trakt Utilities: found Movie: u'Tarzan' - IMDb ID: tt0120855
  1299. 15:08:13 T:9060  NOTICE: Trakt Utilities: found Movie: u'Tears of the Sun' - IMDb ID: tt0314353
  1300. 15:08:13 T:9060  NOTICE: Trakt Utilities: found Movie: u'Teen Wolf' - IMDb ID: tt0090142
  1301. 15:08:13 T:9060  NOTICE: Trakt Utilities: found Movie: u'Tenacious D in The Pick of Destiny' - IMDb ID: tt0365830
  1302. 15:08:13 T:9060  NOTICE: Trakt Utilities: found Movie: u'The Terminal' - IMDb ID: tt0362227
  1303. 15:08:13 T:9060  NOTICE: Trakt Utilities: found Movie: u'Terminator 2: Judgment Day' - IMDb ID: tt0103064
  1304. 15:08:13 T:9060  NOTICE: Trakt Utilities: found Movie: u'Terminator 3: Rise of the Machines' - IMDb ID: tt0181852
  1305. 15:08:13 T:9060  NOTICE: Trakt Utilities: found Movie: u'Terminator Salvation' - IMDb ID: tt0438488
  1306. 15:08:13 T:9060  NOTICE: Trakt Utilities: found Movie: u'The Terminator' - IMDb ID: tt0088247
  1307. 15:08:13 T:9060  NOTICE: Trakt Utilities: found Movie: u'Thank You for Smoking' - IMDb ID: tt0427944
  1308. 15:08:13 T:9060  NOTICE: Trakt Utilities: found Movie: u'The Flintstones' - IMDb ID: tt0109813
  1309. 15:08:13 T:9060  NOTICE: Trakt Utilities: found Movie: u'The Plan' - IMDb ID: tt1286130
  1310. 15:08:13 T:9060  NOTICE: Trakt Utilities: found Movie: u'The Tournament' - IMDb ID: tt0471041
  1311. 15:08:13 T:9060  NOTICE: Trakt Utilities: found Movie: u'There Will Be Blood' - IMDb ID: tt0469494
  1312. 15:08:13 T:9060  NOTICE: Trakt Utilities: found Movie: u'They Live' - IMDb ID: tt0096256
  1313. 15:08:13 T:9060  NOTICE: Trakt Utilities: found Movie: u'Thir13en Ghosts' - IMDb ID: tt0245674
  1314. 15:08:13 T:9060  NOTICE: Trakt Utilities: found Movie: u'This Is Spinal Tap' - IMDb ID: tt0088258
  1315. 15:08:13 T:9060  NOTICE: Trakt Utilities: found Movie: u'The Thomas Crown Affair' - IMDb ID: tt0155267
  1316. 15:08:13 T:9060  NOTICE: Trakt Utilities: found Movie: u'Three Kings' - IMDb ID: tt0120188
  1317. 15:08:13 T:9060  NOTICE: Trakt Utilities: found Movie: u'The Three Musketeers' - IMDb ID: tt0108333
  1318. 15:08:13 T:9060  NOTICE: Trakt Utilities: found Movie: u'The Tigger Movie' - IMDb ID: tt0220099
  1319. 15:08:13 T:9060  NOTICE: Trakt Utilities: found Movie: u'Time Bandits' - IMDb ID: tt0081633
  1320. 15:08:13 T:9060  NOTICE: Trakt Utilities: found Movie: u'The Time Machine' - IMDb ID: tt0054387
  1321. 15:08:13 T:9060  NOTICE: Trakt Utilities: found Movie: u'Tinker Bell' - IMDb ID: tt0823671
  1322. 15:08:13 T:9060  NOTICE: Trakt Utilities: found Movie: u'Titan A.E.' - IMDb ID: tt0120913
  1323. 15:08:13 T:9060  NOTICE: Trakt Utilities: found Movie: u'Tombstone' - IMDb ID: tt0108358
  1324. 15:08:13 T:9060  NOTICE: Trakt Utilities: found Movie: u'Top Gun' - IMDb ID: tt0092099
  1325. 15:08:13 T:9060  NOTICE: Trakt Utilities: found Movie: u'Total Recall' - IMDb ID: tt0100802
  1326. 15:08:13 T:9060  NOTICE: Trakt Utilities: found Movie: u'Toy Story' - IMDb ID: tt0114709
  1327. 15:08:13 T:9060  NOTICE: Trakt Utilities: found Movie: u'Toy Story 2' - IMDb ID: tt0120363
  1328. 15:08:13 T:9060  NOTICE: Trakt Utilities: found Movie: u'Trading Places' - IMDb ID: tt0086465
  1329. 15:08:13 T:9060  NOTICE: Trakt Utilities: found Movie: u'Training Day' - IMDb ID: tt0139654
  1330. 15:08:13 T:9060  NOTICE: Trakt Utilities: found Movie: u'Trainspotting' - IMDb ID: tt0117951
  1331. 15:08:13 T:9060  NOTICE: Trakt Utilities: found Movie: u'Transformers' - IMDb ID: tt0418279
  1332. 15:08:13 T:9060  NOTICE: Trakt Utilities: found Movie: u'Transformers: Revenge of the Fallen' - IMDb ID: tt1055369
  1333. 15:08:13 T:9060  NOTICE: Trakt Utilities: found Movie: u'Transporter 2' - IMDb ID: tt0388482
  1334. 15:08:13 T:9060  NOTICE: Trakt Utilities: found Movie: u'Transporter 3' - IMDb ID: tt1129442
  1335. 15:08:13 T:9060  NOTICE: Trakt Utilities: found Movie: u'The Transporter' - IMDb ID: tt0293662
  1336. 15:08:13 T:9060  NOTICE: Trakt Utilities: found Movie: u'Treasure Planet' - IMDb ID: tt0133240
  1337. 15:08:13 T:9060  NOTICE: Trakt Utilities: found Movie: u'TRON' - IMDb ID: tt0084827
  1338. 15:08:13 T:9060  NOTICE: Trakt Utilities: found Movie: u'Tropic Thunder' - IMDb ID: tt0942385
  1339. 15:08:13 T:9060  NOTICE: Trakt Utilities: found Movie: u'The Truman Show' - IMDb ID: tt0120382
  1340. 15:08:13 T:9060  NOTICE: Trakt Utilities: found Movie: u'Twelve Monkeys' - IMDb ID: tt0114746
  1341. 15:08:13 T:9060  NOTICE: Trakt Utilities: found Movie: u'Twilight' - IMDb ID: tt1099212
  1342. 15:08:13 T:9060  NOTICE: Trakt Utilities: found Movie: u'New Moon' - IMDb ID: tt1259571
  1343. 15:08:13 T:9060  NOTICE: Trakt Utilities: found Movie: u'Twisted' - IMDb ID: tt0315297
  1344. 15:08:13 T:9060  NOTICE: Trakt Utilities: found Movie: u'Twister' - IMDb ID: tt0117998
  1345. 15:08:13 T:9060  NOTICE: Trakt Utilities: found Movie: u'U-571' - IMDb ID: tt0141926
  1346. 15:08:13 T:9060  NOTICE: Trakt Utilities: found Movie: u'U.S. Marshals' - IMDb ID: tt0120873
  1347. 15:08:13 T:9060  NOTICE: Trakt Utilities: found Movie: u'The Ugly Truth' - IMDb ID: tt1142988
  1348. 15:08:13 T:9060  NOTICE: Trakt Utilities: found Movie: u'Ultraviolet' - IMDb ID: tt0370032
  1349. 15:08:13 T:9060  NOTICE: Trakt Utilities: found Movie: u'Unbreakable' - IMDb ID: tt0217869
  1350. 15:08:13 T:9060  NOTICE: Trakt Utilities: found Movie: u'Underworld: Evolution' - IMDb ID: tt0401855
  1351. 15:08:13 T:9060  NOTICE: Trakt Utilities: found Movie: u'Underworld' - IMDb ID: tt0320691
  1352. 15:08:13 T:9060  NOTICE: Trakt Utilities: found Movie: u'Underworld: Rise of the Lycans' - IMDb ID: tt0834001
  1353. 15:08:13 T:9060  NOTICE: Trakt Utilities: found Movie: u'Unforgiven' - IMDb ID: tt0105695
  1354. 15:08:13 T:9060  NOTICE: Trakt Utilities: found Movie: u'The United States of Leland' - IMDb ID: tt0301976
  1355. 15:08:13 T:9060  NOTICE: Trakt Utilities: found Movie: u'Danny the Dog' - IMDb ID: tt0342258
  1356. 15:08:13 T:9060  NOTICE: Trakt Utilities: found Movie: u'Up' - IMDb ID: tt1049413
  1357. 15:08:13 T:9060  NOTICE: Trakt Utilities: found Movie: u'Up in the Air' - IMDb ID: tt1193138
  1358. 15:08:13 T:9060  NOTICE: Trakt Utilities: found Movie: u'The Usual Suspects' - IMDb ID: tt0114814
  1359. 15:08:13 T:9060  NOTICE: Trakt Utilities: found Movie: u'V for Vendetta' - IMDb ID: tt0434409
  1360. 15:08:13 T:9060  NOTICE: Trakt Utilities: found Movie: u'Vacation' - IMDb ID: tt0085995
  1361. 15:08:13 T:9060  NOTICE: Trakt Utilities: found Movie: u'Van Helsing' - IMDb ID: tt0338526
  1362. 15:08:13 T:9060  NOTICE: Trakt Utilities: found Movie: u'Vanilla Sky' - IMDb ID: tt0259711
  1363. 15:08:13 T:9060  NOTICE: Trakt Utilities: found Movie: u'Vantage Point' - IMDb ID: tt0443274
  1364. 15:08:13 T:9060  NOTICE: Trakt Utilities: found Movie: u'Vegas Vacation' - IMDb ID: tt0120434
  1365. 15:08:13 T:9060  NOTICE: Trakt Utilities: found Movie: u'Virtuosity' - IMDb ID: tt0114857
  1366. 15:08:13 T:9060  NOTICE: Trakt Utilities: found Movie: u'Virus' - IMDb ID: tt0120458
  1367. 15:08:13 T:9060  NOTICE: Trakt Utilities: found Movie: u'Waiting...' - IMDb ID: tt0348333
  1368. 15:08:13 T:9060  NOTICE: Trakt Utilities: found Movie: u'Wake Up, Ron Burgundy: The Lost Movie' - IMDb ID: tt0423505
  1369. 15:08:13 T:9060  NOTICE: Trakt Utilities: found Movie: u'Wall Street' - IMDb ID: tt0094291
  1370. 15:08:13 T:9060  NOTICE: Trakt Utilities: found Movie: u'WALL\xb7E' - IMDb ID: tt0910970
  1371. 15:08:13 T:9060  NOTICE: Trakt Utilities: found Movie: u'Wanted' - IMDb ID: tt0493464
  1372. 15:08:13 T:9060  NOTICE: Trakt Utilities: found Movie: u'War of the Worlds' - IMDb ID: tt0407304
  1373. 15:08:13 T:9060  NOTICE: Trakt Utilities: found Movie: u'Watchmen' - IMDb ID: tt0409459
  1374. 15:08:13 T:9060  NOTICE: Trakt Utilities: found Movie: u'The Way of the Gun' - IMDb ID: tt0202677
  1375. 15:08:13 T:9060  NOTICE: Trakt Utilities: found Movie: u"Wayne's World" - IMDb ID: tt0105793
  1376. 15:08:13 T:9060  NOTICE: Trakt Utilities: found Movie: u"Wayne's World 2" - IMDb ID: tt0108525
  1377. 15:08:13 T:9060  NOTICE: Trakt Utilities: found Movie: u"We're Back! A Dinosaur's Story" - IMDb ID: tt0108526
  1378. 15:08:13 T:9060  NOTICE: Trakt Utilities: found Movie: u'We Are Marshall' - IMDb ID: tt0758794
  1379. 15:08:13 T:9060  NOTICE: Trakt Utilities: found Movie: u'Wedding Crashers' - IMDb ID: tt0396269
  1380. 15:08:13 T:9060  NOTICE: Trakt Utilities: found Movie: u'The Wedding Singer' - IMDb ID: tt0120888
  1381. 15:08:13 T:9060  NOTICE: Trakt Utilities: found Movie: u'Where the Wild Things Are' - IMDb ID: tt0386117
  1382. 15:08:13 T:9060  NOTICE: Trakt Utilities: found Movie: u"White Men Can't Jump" - IMDb ID: tt0105812
  1383. 15:08:13 T:9060  NOTICE: Trakt Utilities: found Movie: u'Who Framed Roger Rabbit' - IMDb ID: tt0096438
  1384. 15:08:13 T:9060  NOTICE: Trakt Utilities: found Movie: u'The Whole Nine Yards' - IMDb ID: tt0190138
  1385. 15:08:13 T:9060  NOTICE: Trakt Utilities: found Movie: u'Wild Hogs' - IMDb ID: tt0486946
  1386. 15:08:13 T:9060  NOTICE: Trakt Utilities: found Movie: u'Wild Wild West' - IMDb ID: tt0120891
  1387. 15:08:13 T:9060  NOTICE: Trakt Utilities: found Movie: u'Willy Wonka & the Chocolate Factory' - IMDb ID: tt0067992
  1388. 15:08:13 T:9060  NOTICE: Trakt Utilities: found Movie: u'The Wizard of Oz' - IMDb ID: tt0032138
  1389. 15:08:13 T:9060  NOTICE: Trakt Utilities: found Movie: u'X-Men' - IMDb ID: tt0120903
  1390. 15:08:13 T:9060  NOTICE: Trakt Utilities: found Movie: u'X-Men Origins: Wolverine' - IMDb ID: tt0458525
  1391. 15:08:13 T:9060  NOTICE: Trakt Utilities: found Movie: u'X-Men: The Last Stand' - IMDb ID: tt0376994
  1392. 15:08:13 T:9060  NOTICE: Trakt Utilities: found Movie: u'X2' - IMDb ID: tt0290334
  1393. 15:08:13 T:9060  NOTICE: Trakt Utilities: found Movie: u'Year One' - IMDb ID: tt1045778
  1394. 15:08:13 T:9060  NOTICE: Trakt Utilities: found Movie: u'Yes Man' - IMDb ID: tt1068680
  1395. 15:08:13 T:9060  NOTICE: Trakt Utilities: found Movie: u"You Don't Mess with the Zohan" - IMDb ID: tt0960144
  1396. 15:08:13 T:9060  NOTICE: Trakt Utilities: found Movie: u'Young Guns' - IMDb ID: tt0096487
  1397. 15:08:13 T:9060  NOTICE: Trakt Utilities: found Movie: u'Young Guns II' - IMDb ID: tt0100994
  1398. 15:08:13 T:9060  NOTICE: Trakt Utilities: found Movie: u'Zack and Miri Make a Porno' - IMDb ID: tt1007028
  1399. 15:08:13 T:9060  NOTICE: Trakt Utilities: found Movie: u'Zodiac' - IMDb ID: tt0443706
  1400. 15:08:13 T:9060  NOTICE: Trakt Utilities: found Movie: u'Zombieland' - IMDb ID: tt1156398
  1401. 15:08:14 T:9060  NOTICE: Trakt Utilities: trakt json url: /movie/library/48dfcb4813134da82152984e8c4f329bc8b8b46a
  1402. 15:08:14 T:7544   ERROR: CDVDDemuxFFmpeg::Open - error probing input format, J:\Movies YYYY-2009\Mulan 2 (2004)\Mulan 2 (2004).avi
  1403. 15:08:15 T:9060  NOTICE: Trakt Utilities: successfully uploaded collection:
  1404. 15:08:15 T:9060  NOTICE: Trakt Utilities: inserted: 0 already_exist: 2 skipped: 1
  1405. 15:08:15 T:9060  NOTICE: Trakt Utilities: skipped movies: [{u'year': 2010, u'imdb_id': u'tt1758690', u'title': u'Life Is Beautiful'}]
  1406. 15:08:15 T:9060  NOTICE: Trakt Utilities: trakt json url: /user/library/movies/all.json/48dfcb4813134da82152984e8c4f329bc8b8b46a/anzermanxbmc
  1407. 15:08:18 T:9532  NOTICE: VideoInfoScanner: Finished scan. Scanning for video info took 00:12
  1408. 15:08:18 T:2648  NOTICE: Trakt Utilities: [Notification Service] message: {"jsonrpc":"2.0","method":"VideoLibrary.OnScanFinished","params":{"data":null,"sender":"xbmc"}}
  1409. 15:08:19 T:6512   ERROR: CDVDDemuxFFmpeg::Open - error probing input format, J:\Movies YYYY-2009\An Extremely Goofy Movie (2000)\An Extremely Goofy Movie (2000).avi
  1410. 15:08:21 T:7544   ERROR: CDVDDemuxFFmpeg::Open - error probing input format, J:\Movies YYYY-2009\Enchanted (2007)\Enchanted (2007).avi
  1411. 15:08:22 T:4736   ERROR: CDVDDemuxFFmpeg::Open - error probing input format, J:\Movies YYYY-2009\Mulan 2 (2004)\Mulan 2 (2004).avi
  1412. 15:08:23 T:9060  NOTICE: Trakt Utilities: u'Wrecked' not found in xbmc library
  1413. 15:08:23 T:9060  NOTICE: Trakt Utilities: trakt json url: /movie/unlibrary/48dfcb4813134da82152984e8c4f329bc8b8b46a
  1414. 15:08:24 T:9060  NOTICE: Trakt Utilities: successfully cleared collection: 1 movies removed from library
  1415. 15:08:24 T:8380   ERROR: Control 1 in window 10099 has been asked to focus, but it can't
  1416. 15:08:39 T:8552   ERROR: Previous line repeats 1 times.
  1417. 15:08:39 T:8552  NOTICE: -->Python Interpreter Initialized<--
  1418. 15:08:53 T:10200 WARNING: XFILE::CDirectoryFactory::Create - Unsupported protocol(script) in script://
  1419. 15:08:54 T:4744  NOTICE: -->Python Interpreter Initialized<--
  1420. 15:08:54 T:4744   ERROR: C:\Users\Sidney\AppData\Roaming\XBMC\addons\script.TraktUtilities-0.6.5\nbhttpconnection.py:22: DeprecationWarning: the sha module is deprecated; use the hashlib module instead
  1421.                                               import sha
  1422. 15:08:54 T:4744  NOTICE: Trakt Utilities: default: script.TraktUtilities - version: 0.6.5
  1423. 15:08:54 T:4744  NOTICE: Trakt Utilities: trakt json url: /account/test/48dfcb4813134da82152984e8c4f329bc8b8b46a
  1424. 15:08:58 T:4744  NOTICE: Trakt Utilities: Select: 3
  1425. 15:08:59 T:4744  NOTICE: Trakt Utilities: Select: -1
  1426. 15:08:59 T:4744  NOTICE: Trakt Utilities: menu quit by user
  1427. 15:09:02 T:4744  NOTICE: Trakt Utilities: Select: 3
  1428. 15:09:04 T:4744  NOTICE: Trakt Utilities: Select: 1
  1429. 15:09:04 T:4744  NOTICE: Trakt Utilities: trakt json url: /shows/trending.json/48dfcb4813134da82152984e8c4f329bc8b8b46a
  1430. 15:09:07 T:4744  NOTICE: Trakt Utilities: trakt json url: /user/watchlist/shows.json/48dfcb4813134da82152984e8c4f329bc8b8b46a/anzermanxbmc
  1431. 15:09:07 T:4744  NOTICE: Trakt Utilities: Broke loop due to abort
  1432. 15:09:07 T:4744  NOTICE: Trakt Utilities: Error in request from 'getWatchlistTVShowsFromTrakt()'
  1433. 15:09:07 T:4744   ERROR: Error Type: <type 'exceptions.TypeError'>
  1434. 15:09:07 T:4744   ERROR: Error Contents: object of type 'NoneType' has no len()
  1435. 15:09:07 T:4744   ERROR: Traceback (most recent call last):
  1436.                                               File "C:\Users\Sidney\AppData\Roaming\XBMC\addons\script.TraktUtilities-0.6.5\default.py", line 122, in <module>
  1437.                                                 menu()
  1438.                                               File "C:\Users\Sidney\AppData\Roaming\XBMC\addons\script.TraktUtilities-0.6.5\default.py", line 49, in menu
  1439.                                                 submenuTrendingMoviesTVShows()
  1440.                                               File "C:\Users\Sidney\AppData\Roaming\XBMC\addons\script.TraktUtilities-0.6.5\default.py", line 90, in submenuTrendingMoviesTVShows
  1441.                                                 showTrendingTVShows()
  1442.                                               File "C:\Users\Sidney\AppData\Roaming\XBMC\addons\script.TraktUtilities-0.6.5\trending.py", line 74, in showTrendingTVShows
  1443.                                                 watchlist = traktShowListByTvdbID(getWatchlistTVShowsFromTrakt())
  1444.                                               File "C:\Users\Sidney\AppData\Roaming\XBMC\addons\script.TraktUtilities-0.6.5\utilities.py", line 224, in traktShowListByTvdbID
  1445.                                                 for i in range(0, len(data)):
  1446.                                             TypeError: object of type 'NoneType' has no len()
  1447. 15:09:09 T:9976  NOTICE: -->Python Interpreter Initialized<--
  1448. 15:09:09 T:9976   ERROR: C:\Users\Sidney\AppData\Roaming\XBMC\addons\script.TraktUtilities-0.6.5\nbhttpconnection.py:22: DeprecationWarning: the sha module is deprecated; use the hashlib module instead
  1449.                                               import sha
  1450. 15:09:09 T:9976  NOTICE: Trakt Utilities: default: script.TraktUtilities - version: 0.6.5
  1451. 15:09:09 T:9976  NOTICE: Trakt Utilities: trakt json url: /account/test/48dfcb4813134da82152984e8c4f329bc8b8b46a
  1452. 15:09:10 T:9976  NOTICE: Trakt Utilities: Select: 1
  1453. 15:09:11 T:9976  NOTICE: Trakt Utilities: trakt json url: /user/friends.json/48dfcb4813134da82152984e8c4f329bc8b8b46a/anzermanxbmc
  1454. 15:09:11 T:9976  NOTICE: Trakt Utilities: Broke loop due to abort
  1455. 15:09:11 T:9976  NOTICE: Trakt Utilities: Error in request from 'getFriendsFromTrakt()'
  1456. 15:09:16 T:8380   ERROR: XBPyThread::stop - script didn't stop in proper time - lets kill it
  1457. 15:09:19 T:9976  NOTICE: Trakt Utilities: Select: 4
  1458. 15:09:21 T:3752  NOTICE: -->Python Interpreter Initialized<--
  1459. 15:09:22 T:3752   ERROR: C:\Users\Sidney\AppData\Roaming\XBMC\addons\script.TraktUtilities-0.6.5\nbhttpconnection.py:22: DeprecationWarning: the sha module is deprecated; use the hashlib module instead
  1460.                                               import sha
  1461. 15:09:22 T:3752  NOTICE: Trakt Utilities: default: script.TraktUtilities - version: 0.6.5
  1462. 15:09:22 T:3752  NOTICE: Trakt Utilities: trakt json url: /account/test/48dfcb4813134da82152984e8c4f329bc8b8b46a
  1463. 15:09:25 T:3752  NOTICE: Trakt Utilities: Select: 4
  1464. 15:09:33 T:3752  NOTICE: Trakt Utilities: Select: 0
  1465. 15:09:34 T:3752  NOTICE: Trakt Utilities: trakt json url: /user/library/movies/collection.json/48dfcb4813134da82152984e8c4f329bc8b8b46a/anzermanxbmc
  1466. 15:09:39 T:8380   ERROR: Control 1 in window 10099 has been asked to focus, but it can't
  1467. 15:09:40 T:3752  NOTICE: Trakt Utilities: found Movie: u'30:Minutes or Less' - IMDb ID: tt1622547
  1468. 15:09:40 T:3752  NOTICE: Trakt Utilities: found Movie: u'127 Hours' - IMDb ID: tt1542344
  1469. 15:09:40 T:3752  NOTICE: Trakt Utilities: found Movie: u'2012' - IMDb ID: tt1190080
  1470. 15:09:40 T:3752  NOTICE: Trakt Utilities: found Movie: u'The A-Team' - IMDb ID: tt0429493
  1471. 15:09:40 T:3752  NOTICE: Trakt Utilities: found Movie: u'The Adjustment Bureau' - IMDb ID: tt1385826
  1472. 15:09:40 T:3752  NOTICE: Trakt Utilities: found Movie: u'The Adventures of Tintin' - IMDb ID: tt0983193
  1473. 15:09:40 T:3752  NOTICE: Trakt Utilities: found Movie: u'Age of the Dragons' - IMDb ID: tt1594917
  1474. 15:09:40 T:3752  NOTICE: Trakt Utilities: found Movie: u'All Good Things' - IMDb ID: tt1175709
  1475. 15:09:40 T:3752  NOTICE: Trakt Utilities: found Movie: u'The American' - IMDb ID: tt1440728
  1476. 15:09:40 T:3752  NOTICE: Trakt Utilities: found Movie: u'Animal Kingdom' - IMDb ID: tt1313092
  1477. 15:09:40 T:3752  NOTICE: Trakt Utilities: found Movie: u'Anonymous' - IMDb ID: tt1521197
  1478. 15:09:40 T:3752  NOTICE: Trakt Utilities: found Movie: u'Another Earth' - IMDb ID: tt1549572
  1479. 15:09:40 T:3752  NOTICE: Trakt Utilities: found Movie: u'51' - IMDb ID: tt1629439
  1480. 15:09:40 T:3752  NOTICE: Trakt Utilities: found Movie: u'Arthur' - IMDb ID: tt1334512
  1481. 15:09:40 T:3752  NOTICE: Trakt Utilities: found Movie: u'Attack the Block' - IMDb ID: tt1478964
  1482. 15:09:40 T:3752  NOTICE: Trakt Utilities: found Movie: u'The Awakening' - IMDb ID: tt1687901
  1483. 15:09:40 T:3752  NOTICE: Trakt Utilities: found Movie: u'The Back-up Plan' - IMDb ID: tt1212436
  1484. 15:09:40 T:3752  NOTICE: Trakt Utilities: found Movie: u'Bad Teacher' - IMDb ID: tt1284575
  1485. 15:09:40 T:3752  NOTICE: Trakt Utilities: found Movie: u'The Bang Bang Club' - IMDb ID: tt1173687
  1486. 15:09:40 T:3752  NOTICE: Trakt Utilities: found Movie: u'Battle Los Angeles' - IMDb ID: tt1217613
  1487. 15:09:40 T:3752  NOTICE: Trakt Utilities: found Movie: u'The Beaver' - IMDb ID: tt1321860
  1488. 15:09:40 T:3752  NOTICE: Trakt Utilities: found Movie: u'Bereavement' - IMDb ID: tt1100051
  1489. 15:09:40 T:3752  NOTICE: Trakt Utilities: found Movie: u'The Big Year' - IMDb ID: tt1053810
  1490. 15:09:40 T:3752  NOTICE: Trakt Utilities: found Movie: u'BKO: Bangkok Knockout' - IMDb ID: tt1770650
  1491. 15:09:40 T:3752  NOTICE: Trakt Utilities: found Movie: u'Black Swan' - IMDb ID: tt0947798
  1492. 15:09:40 T:3752  NOTICE: Trakt Utilities: found Movie: u'Blitz' - IMDb ID: tt1297919
  1493. 15:09:40 T:3752  NOTICE: Trakt Utilities: found Movie: u'The Book of Eli' - IMDb ID: tt1037705
  1494. 15:09:40 T:3752  NOTICE: Trakt Utilities: found Movie: u'The Bounty Hunter' - IMDb ID: tt1038919
  1495. 15:09:40 T:3752  NOTICE: Trakt Utilities: found Movie: u'Bridesmaids' - IMDb ID: tt1478338
  1496. 15:09:40 T:3752  NOTICE: Trakt Utilities: found Movie: u'Bunraku' - IMDb ID: tt1181795
  1497. 15:09:40 T:3752  NOTICE: Trakt Utilities: found Movie: u'Buried' - IMDb ID: tt1462758
  1498. 15:09:40 T:3752  NOTICE: Trakt Utilities: found Movie: u'Burn Notice: The Fall of Sam Axe' - IMDb ID: tt1697851
  1499. 15:09:40 T:3752  NOTICE: Trakt Utilities: found Movie: u'Cameraman: The Life and Work of Jack Cardiff' - IMDb ID: tt1626811
  1500. 15:09:40 T:3752  NOTICE: Trakt Utilities: found Movie: u'Captain America: The First Avenger' - IMDb ID: tt0458339
  1501. 15:09:40 T:3752  NOTICE: Trakt Utilities: found Movie: u'Cars 2' - IMDb ID: tt1216475
  1502. 15:09:40 T:3752  NOTICE: Trakt Utilities: found Movie: u'Cedar Rapids' - IMDb ID: tt1477837
  1503. 15:09:40 T:3752  NOTICE: Trakt Utilities: found Movie: u'Centurion' - IMDb ID: tt1020558
  1504. 15:09:40 T:3752  NOTICE: Trakt Utilities: found Movie: u'Ceremony' - IMDb ID: tt1341341
  1505. 15:09:40 T:3752  NOTICE: Trakt Utilities: found Movie: u'The Change-Up' - IMDb ID: tt1488555
  1506. 15:09:40 T:3752  NOTICE: Trakt Utilities: found Movie: u'Children of the Corn: Genesis' - IMDb ID: tt1745672
  1507. 15:09:40 T:3752  NOTICE: Trakt Utilities: found Movie: u'The Chronicles of Narnia: The Voyage of the Dawn Treader' - IMDb ID: tt0980970
  1508. 15:09:40 T:3752  NOTICE: Trakt Utilities: found Movie: u'Clash of the Titans' - IMDb ID: tt0800320
  1509. 15:09:40 T:3752  NOTICE: Trakt Utilities: found Movie: u'Colombiana' - IMDb ID: tt1657507
  1510. 15:09:40 T:3752  NOTICE: Trakt Utilities: found Movie: u'The Company Men' - IMDb ID: tt1172991
  1511. 15:09:40 T:3752  NOTICE: Trakt Utilities: found Movie: u'Conan the Barbarian' - IMDb ID: tt0816462
  1512. 15:09:40 T:3752  NOTICE: Trakt Utilities: found Movie: u'Contagion' - IMDb ID: tt1598778
  1513. 15:09:40 T:3752  NOTICE: Trakt Utilities: found Movie: u'Contraband' - IMDb ID: tt1524137
  1514. 15:09:40 T:3752  NOTICE: Trakt Utilities: found Movie: u'Conviction' - IMDb ID: tt1244754
  1515. 15:09:40 T:3752  NOTICE: Trakt Utilities: found Movie: u'Cop Out' - IMDb ID: tt1385867
  1516. 15:09:40 T:3752  NOTICE: Trakt Utilities: found Movie: u'Cougar Hunting' - IMDb ID: tt1413489
  1517. 15:09:40 T:3752  NOTICE: Trakt Utilities: found Movie: u'Cowboys & Aliens' - IMDb ID: tt0409847
  1518. 15:09:40 T:3752  NOTICE: Trakt Utilities: found Movie: u'Crazy, Stupid, Love.' - IMDb ID: tt1570728
  1519. 15:09:40 T:3752  NOTICE: Trakt Utilities: found Movie: u'Date Night' - IMDb ID: tt1279935
  1520. 15:09:40 T:3752  NOTICE: Trakt Utilities: found Movie: u'Death at a Funeral' - IMDb ID: tt1321509
  1521. 15:09:40 T:3752  NOTICE: Trakt Utilities: found Movie: u'The Descendants' - IMDb ID: tt1033575
  1522. 15:09:40 T:3752  NOTICE: Trakt Utilities: found Movie: u'Despicable Me' - IMDb ID: tt1323594
  1523. 15:09:40 T:3752  NOTICE: Trakt Utilities: found Movie: u"The Devil's Double" - IMDb ID: tt1270262
  1524. 15:09:40 T:3752  NOTICE: Trakt Utilities: found Movie: u'Diary of a Wimpy Kid' - IMDb ID: tt1196141
  1525. 15:09:40 T:3752  NOTICE: Trakt Utilities: found Movie: u'The Dilemma' - IMDb ID: tt1578275
  1526. 15:09:40 T:3752  NOTICE: Trakt Utilities: found Movie: u'Dinner for Schmucks' - IMDb ID: tt0427152
  1527. 15:09:40 T:3752  NOTICE: Trakt Utilities: found Movie: u'Suzumiya Haruhi no sh\xf4shitsu' - IMDb ID: tt1572781
  1528. 15:09:40 T:3752  NOTICE: Trakt Utilities: found Movie: u'Dream House' - IMDb ID: tt1462041
  1529. 15:09:40 T:3752  NOTICE: Trakt Utilities: found Movie: u'Drive' - IMDb ID: tt0780504
  1530. 15:09:40 T:3752  NOTICE: Trakt Utilities: found Movie: u'Drive Angry' - IMDb ID: tt1502404
  1531. 15:09:40 T:3752  NOTICE: Trakt Utilities: found Movie: u'Due Date' - IMDb ID: tt1231583
  1532. 15:09:40 T:3752  NOTICE: Trakt Utilities: found Movie: u'The Eagle' - IMDb ID: tt1034389
  1533. 15:09:40 T:3752  NOTICE: Trakt Utilities: found Movie: u'Easy A' - IMDb ID: tt1282140
  1534. 15:09:40 T:3752  NOTICE: Trakt Utilities: found Movie: u'Tropa de Elite 2 - O Inimigo Agora \xc9 Outro' - IMDb ID: tt1555149
  1535. 15:09:40 T:3752  NOTICE: Trakt Utilities: found Movie: u'Everything Must Go' - IMDb ID: tt1531663
  1536. 15:09:40 T:3752  NOTICE: Trakt Utilities: found Movie: u'The Expendables' - IMDb ID: tt1320253
  1537. 15:09:40 T:3752  NOTICE: Trakt Utilities: found Movie: u'Extremely Loud & Incredibly Close' - IMDb ID: tt0477302
  1538. 15:09:40 T:3752  NOTICE: Trakt Utilities: found Movie: u'Fair Game' - IMDb ID: tt0977855
  1539. 15:09:40 T:3752  NOTICE: Trakt Utilities: found Movie: u'Fast Five' - IMDb ID: tt1596343
  1540. 15:09:40 T:3752  NOTICE: Trakt Utilities: found Movie: u'Faster' - IMDb ID: tt1433108
  1541. 15:09:40 T:3752  NOTICE: Trakt Utilities: found Movie: u'Father of Invention' - IMDb ID: tt1381505
  1542. 15:09:40 T:3752  NOTICE: Trakt Utilities: found Movie: u'The Fighter' - IMDb ID: tt0964517
  1543. 15:09:40 T:3752  NOTICE: Trakt Utilities: found Movie: u'Flypaper' - IMDb ID: tt1541160
  1544. 15:09:40 T:3752  NOTICE: Trakt Utilities: found Movie: u'Forks Over Knives' - IMDb ID: tt1567233
  1545. 15:09:40 T:3752  NOTICE: Trakt Utilities: found Movie: u'Friends with Benefits' - IMDb ID: tt1632708
  1546. 15:09:40 T:3752  NOTICE: Trakt Utilities: found Movie: u'From Paris with Love' - IMDb ID: tt1179034
  1547. 15:09:40 T:3752  NOTICE: Trakt Utilities: found Movie: u'Get Him to the Greek' - IMDb ID: tt1226229
  1548. 15:09:40 T:3752  NOTICE: Trakt Utilities: found Movie: u'Get Low' - IMDb ID: tt1194263
  1549. 15:09:40 T:3752  NOTICE: Trakt Utilities: found Movie: u'The Ghost Writer' - IMDb ID: tt1139328
  1550. 15:09:40 T:3752  NOTICE: Trakt Utilities: found Movie: u'The Girl with the Dragon Tattoo' - IMDb ID: tt1568346
  1551. 15:09:40 T:3752  NOTICE: Trakt Utilities: found Movie: u'The Greatest Movie Ever Sold' - IMDb ID: tt1743720
  1552. 15:09:40 T:3752  NOTICE: Trakt Utilities: found Movie: u'The Green Hornet' - IMDb ID: tt0990407
  1553. 15:09:40 T:3752  NOTICE: Trakt Utilities: found Movie: u'Green Lantern' - IMDb ID: tt1133985
  1554. 15:09:40 T:3752  NOTICE: Trakt Utilities: found Movie: u'Green Zone' - IMDb ID: tt0947810
  1555. 15:09:40 T:3752  NOTICE: Trakt Utilities: found Movie: u'The Grey' - IMDb ID: tt1601913
  1556. 15:09:40 T:3752  NOTICE: Trakt Utilities: found Movie: u'Grown Ups' - IMDb ID: tt1375670
  1557. 15:09:40 T:3752  NOTICE: Trakt Utilities: found Movie: u"Gulliver's Travels" - IMDb ID: tt1320261
  1558. 15:09:40 T:3752  NOTICE: Trakt Utilities: found Movie: u'Hall Pass' - IMDb ID: tt0480687
  1559. 15:09:40 T:3752  NOTICE: Trakt Utilities: found Movie: u'The Hangover Part II' - IMDb ID: tt1411697
  1560. 15:09:40 T:3752  NOTICE: Trakt Utilities: found Movie: u'Hanna' - IMDb ID: tt0993842
  1561. 15:09:40 T:3752  NOTICE: Trakt Utilities: found Movie: u'Harry Potter and the Deathly Hallows: Part 1' - IMDb ID: tt0926084
  1562. 15:09:40 T:3752  NOTICE: Trakt Utilities: found Movie: u'Harry Potter and the Deathly Hallows: Part 2' - IMDb ID: tt1201607
  1563. 15:09:40 T:3752  NOTICE: Trakt Utilities: found Movie: u'The Help' - IMDb ID: tt1454029
  1564. 15:09:40 T:3752  NOTICE: Trakt Utilities: found Movie: u"Henry's Crime" - IMDb ID: tt1220888
  1565. 15:09:40 T:3752  NOTICE: Trakt Utilities: found Movie: u'Hop' - IMDb ID: tt1411704
  1566. 15:09:40 T:3752  NOTICE: Trakt Utilities: found Movie: u'Horrible Bosses' - IMDb ID: tt1499658
  1567. 15:09:40 T:3752  NOTICE: Trakt Utilities: found Movie: u'Hot Tub Time Machine' - IMDb ID: tt1231587
  1568. 15:09:40 T:3752  NOTICE: Trakt Utilities: found Movie: u'How to Train Your Dragon' - IMDb ID: tt0892769
  1569. 15:09:40 T:3752  NOTICE: Trakt Utilities: found Movie: u'Hugo' - IMDb ID: tt0970179
  1570. 15:09:40 T:3752  NOTICE: Trakt Utilities: found Movie: u'I Am Number Four' - IMDb ID: tt1464540
  1571. 15:09:40 T:3752  NOTICE: Trakt Utilities: found Movie: u'The Ides of March' - IMDb ID: tt1124035
  1572. 15:09:40 T:3752  NOTICE: Trakt Utilities: found Movie: u'Immortals' - IMDb ID: tt1253864
  1573. 15:09:40 T:3752  NOTICE: Trakt Utilities: found Movie: u'H\xe6vnen' - IMDb ID: tt1340107
  1574. 15:09:40 T:3752  NOTICE: Trakt Utilities: found Movie: u'In Time' - IMDb ID: tt1637688
  1575. 15:09:40 T:3752  NOTICE: Trakt Utilities: found Movie: u'The Inbetweeners Movie' - IMDb ID: tt1716772
  1576. 15:09:40 T:3752  NOTICE: Trakt Utilities: found Movie: u'Incendies' - IMDb ID: tt1255953
  1577. 15:09:40 T:3752  NOTICE: Trakt Utilities: found Movie: u'Inception' - IMDb ID: tt1375666
  1578. 15:09:40 T:3752  NOTICE: Trakt Utilities: found Movie: u'Inside Job' - IMDb ID: tt1645089
  1579. 15:09:40 T:3752  NOTICE: Trakt Utilities: found Movie: u'Yip Man' - IMDb ID: tt1220719
  1580. 15:09:40 T:3752  NOTICE: Trakt Utilities: found Movie: u'Iron Man 2' - IMDb ID: tt1228705
  1581. 15:09:40 T:3752  NOTICE: Trakt Utilities: found Movie: u"It's Kind of a Funny Story" - IMDb ID: tt0804497
  1582. 15:09:40 T:3752  NOTICE: Trakt Utilities: found Movie: u'Jack and Jill' - IMDb ID: tt0810913
  1583. 15:09:40 T:3752  NOTICE: Trakt Utilities: found Movie: u'Jane Eyre' - IMDb ID: tt1229822
  1584. 15:09:40 T:3752  NOTICE: Trakt Utilities: found Movie: u'Johnny English Reborn' - IMDb ID: tt1634122
  1585. 15:09:40 T:3752  NOTICE: Trakt Utilities: found Movie: u'Jonah Hex' - IMDb ID: tt1075747
  1586. 15:09:40 T:3752  NOTICE: Trakt Utilities: found Movie: u'Jumping the Broom' - IMDb ID: tt1640484
  1587. 15:09:40 T:3752  NOTICE: Trakt Utilities: found Movie: u'Just Go with It' - IMDb ID: tt1564367
  1588. 15:09:40 T:3752  NOTICE: Trakt Utilities: found Movie: u'The Karate Kid' - IMDb ID: tt1155076
  1589. 15:09:40 T:3752  NOTICE: Trakt Utilities: found Movie: u'Kick-Ass' - IMDb ID: tt1250777
  1590. 15:09:40 T:3752  NOTICE: Trakt Utilities: found Movie: u'Killer Elite' - IMDb ID: tt1448755
  1591. 15:09:40 T:3752  NOTICE: Trakt Utilities: found Movie: u'Killing Bono' - IMDb ID: tt1535101
  1592. 15:09:40 T:3752  NOTICE: Trakt Utilities: found Movie: u"The King's Speech" - IMDb ID: tt1504320
  1593. 15:09:40 T:3752  NOTICE: Trakt Utilities: found Movie: u'Knight and Day' - IMDb ID: tt1013743
  1594. 15:09:40 T:3752  NOTICE: Trakt Utilities: found Movie: u'Kung Fu Panda 2' - IMDb ID: tt1302011
  1595. 15:09:40 T:3752  NOTICE: Trakt Utilities: found Movie: u'The Last Airbender' - IMDb ID: tt0938283
  1596. 15:09:40 T:3752  NOTICE: Trakt Utilities: found Movie: u'The Last Godfather' - IMDb ID: tt1584131
  1597. 15:09:40 T:3752  NOTICE: Trakt Utilities: found Movie: u'Legacy' - IMDb ID: tt1436034
  1598. 15:09:40 T:3752  NOTICE: Trakt Utilities: found Movie: u'Jing wu feng yun: Chen Zhen' - IMDb ID: tt1456661
  1599. 15:09:40 T:3752  NOTICE: Trakt Utilities: found Movie: u'Legion' - IMDb ID: tt1038686
  1600. 15:09:40 T:3752  NOTICE: Trakt Utilities: found Movie: u'Life as We Know It' - IMDb ID: tt1055292
  1601. 15:09:40 T:3752  NOTICE: Trakt Utilities: found Movie: u'Life in a Day' - IMDb ID: tt1687247
  1602. 15:09:40 T:3752  NOTICE: Trakt Utilities: found Movie: u'Limitless' - IMDb ID: tt1219289
  1603. 15:09:40 T:3752  NOTICE: Trakt Utilities: found Movie: u'The Lincoln Lawyer' - IMDb ID: tt1189340
  1604. 15:09:40 T:3752  NOTICE: Trakt Utilities: found Movie: u'Da bing xiao jiang' - IMDb ID: tt1319718
  1605. 15:09:40 T:3752  NOTICE: Trakt Utilities: found Movie: u'Little Fockers' - IMDb ID: tt0970866
  1606. 15:09:40 T:3752  NOTICE: Trakt Utilities: found Movie: u'London Boulevard' - IMDb ID: tt1213648
  1607. 15:09:40 T:3752  NOTICE: Trakt Utilities: found Movie: u'Lost Boys: The Thirst' - IMDb ID: tt1400526
  1608. 15:09:40 T:3752  NOTICE: Trakt Utilities: found Movie: u'Love and Other Drugs' - IMDb ID: tt0758752
  1609. 15:09:40 T:3752  NOTICE: Trakt Utilities: found Movie: u'Lucky' - IMDb ID: tt1473397
  1610. 15:09:40 T:3752  NOTICE: Trakt Utilities: found Movie: u'' - IMDb ID: tt1470023
  1611. 15:09:40 T:3752  NOTICE: Trakt Utilities: found Movie: u'Machete' - IMDb ID: tt0985694
  1612. 15:09:40 T:3752  NOTICE: Trakt Utilities: found Movie: u'Machine Gun Preacher' - IMDb ID: tt1586752
  1613. 15:09:40 T:3752  NOTICE: Trakt Utilities: found Movie: u'Margin Call' - IMDb ID: tt1615147
  1614. 15:09:40 T:3752  NOTICE: Trakt Utilities: found Movie: u'The Mechanic' - IMDb ID: tt0472399
  1615. 15:09:40 T:3752  NOTICE: Trakt Utilities: found Movie: u'Megamind' - IMDb ID: tt1001526
  1616. 15:09:40 T:3752  NOTICE: Trakt Utilities: found Movie: u'Mission: Impossible - Ghost Protocol' - IMDb ID: tt1229238
  1617. 15:09:40 T:3752  NOTICE: Trakt Utilities: found Movie: u'Moneyball' - IMDb ID: tt1210166
  1618. 15:09:40 T:3752  NOTICE: Trakt Utilities: found Movie: u'Monsters' - IMDb ID: tt1470827
  1619. 15:09:40 T:3752  NOTICE: Trakt Utilities: found Movie: u"Mr. Popper's Penguins" - IMDb ID: tt1396218
  1620. 15:09:40 T:3752  NOTICE: Trakt Utilities: found Movie: u'The Muppets' - IMDb ID: tt1204342
  1621. 15:09:40 T:3752  NOTICE: Trakt Utilities: found Movie: u'Nanny McPhee and the Big Bang' - IMDb ID: tt1415283
  1622. 15:09:40 T:3752  NOTICE: Trakt Utilities: found Movie: u'The Next Three Days' - IMDb ID: tt1458175
  1623. 15:09:40 T:3752  NOTICE: Trakt Utilities: found Movie: u'No Strings Attached' - IMDb ID: tt1411238
  1624. 15:09:40 T:3752  NOTICE: Trakt Utilities: found Movie: u'Nokas' - IMDb ID: tt1337366
  1625. 15:09:40 T:3752  NOTICE: Trakt Utilities: found Movie: u'The Other Guys' - IMDb ID: tt1386588
  1626. 15:09:40 T:3752  NOTICE: Trakt Utilities: found Movie: u'Our Idiot Brother' - IMDb ID: tt1637706
  1627. 15:09:40 T:3752  NOTICE: Trakt Utilities: found Movie: u'Paranormal Activity 3' - IMDb ID: tt1778304
  1628. 15:09:40 T:3752  NOTICE: Trakt Utilities: found Movie: u'Paul' - IMDb ID: tt1092026
  1629. 15:09:40 T:3752  NOTICE: Trakt Utilities: found Movie: u'Percy Jackson & the Olympians: The Lightning Thief' - IMDb ID: tt0814255
  1630. 15:09:40 T:3752  NOTICE: Trakt Utilities: found Movie: u'The Perfect Host' - IMDb ID: tt1334553
  1631. 15:09:40 T:3752  NOTICE: Trakt Utilities: found Movie: u'Pirates of the Caribbean: On Stranger Tides' - IMDb ID: tt1298650
  1632. 15:09:40 T:3752  NOTICE: Trakt Utilities: found Movie: u'Rise of the Planet of the Apes' - IMDb ID: tt1318514
  1633. 15:09:40 T:3752  NOTICE: Trakt Utilities: found Movie: u'Predators' - IMDb ID: tt1424381
  1634. 15:09:40 T:3752  NOTICE: Trakt Utilities: found Movie: u'Priest' - IMDb ID: tt0822847
  1635. 15:09:40 T:3752  NOTICE: Trakt Utilities: found Movie: u'Prince of Persia: The Sands of Time' - IMDb ID: tt0473075
  1636. 15:09:40 T:3752  NOTICE: Trakt Utilities: found Movie: u'Puncture' - IMDb ID: tt1582248
  1637. 15:09:40 T:3752  NOTICE: Trakt Utilities: found Movie: u'Puss in Boots' - IMDb ID: tt0448694
  1638. 15:09:40 T:3752  NOTICE: Trakt Utilities: found Movie: u'Rango' - IMDb ID: tt1192628
  1639. 15:09:40 T:3752  NOTICE: Trakt Utilities: found Movie: u'Real Steel' - IMDb ID: tt0433035
  1640. 15:09:40 T:3752  NOTICE: Trakt Utilities: found Movie: u'Red' - IMDb ID: tt1245526
  1641. 15:09:40 T:3752  NOTICE: Trakt Utilities: found Movie: u'Red Riding Hood' - IMDb ID: tt1486185
  1642. 15:09:40 T:3752  NOTICE: Trakt Utilities: found Movie: u'Repo Men' - IMDb ID: tt1053424
  1643. 15:09:40 T:3752  NOTICE: Trakt Utilities: found Movie: u'Resident Evil: Afterlife' - IMDb ID: tt1220634
  1644. 15:09:40 T:3752  NOTICE: Trakt Utilities: found Movie: u'Rio' - IMDb ID: tt1436562
  1645. 15:09:40 T:3752  NOTICE: Trakt Utilities: found Movie: u'The Rite' - IMDb ID: tt1161864
  1646. 15:09:40 T:3752  NOTICE: Trakt Utilities: found Movie: u'Robin Hood' - IMDb ID: tt0955308
  1647. 15:09:40 T:3752  NOTICE: Trakt Utilities: found Movie: u'The Rum Diary' - IMDb ID: tt0376136
  1648. 15:09:40 T:3752  NOTICE: Trakt Utilities: found Movie: u'Salt' - IMDb ID: tt0944835
  1649. 15:09:40 T:3752  NOTICE: Trakt Utilities: found Movie: u'Sanctum' - IMDb ID: tt0881320
  1650. 15:09:40 T:3752  NOTICE: Trakt Utilities: found Movie: u'Scott Pilgrim vs. the World' - IMDb ID: tt0446029
  1651. 15:09:40 T:3752  NOTICE: Trakt Utilities: found Movie: u'Season of the Witch' - IMDb ID: tt0479997
  1652. 15:09:40 T:3752  NOTICE: Trakt Utilities: found Movie: u'Secretariat' - IMDb ID: tt1028576
  1653. 15:09:40 T:3752  NOTICE: Trakt Utilities: found Movie: u'Seeking Justice' - IMDb ID: tt1214962
  1654. 15:09:40 T:3752  NOTICE: Trakt Utilities: found Movie: u'Setup' - IMDb ID: tt1748197
  1655. 15:09:40 T:3752  NOTICE: Trakt Utilities: found Movie: u"She's Out of My League" - IMDb ID: tt0815236
  1656. 15:09:40 T:3752  NOTICE: Trakt Utilities: found Movie: u'Sherlock Holmes: A Game of Shadows' - IMDb ID: tt1515091
  1657. 15:09:40 T:3752  NOTICE: Trakt Utilities: found Movie: u'Shrek Forever After' - IMDb ID: tt0892791
  1658. 15:09:40 T:3752  NOTICE: Trakt Utilities: found Movie: u'Shutter Island' - IMDb ID: tt1130884
  1659. 15:09:40 T:3752  NOTICE: Trakt Utilities: found Movie: u'Sinners and Saints' - IMDb ID: tt1130969
  1660. 15:09:40 T:3752  NOTICE: Trakt Utilities: found Movie: u'The Sitter' - IMDb ID: tt1366344
  1661. 15:09:40 T:3752  NOTICE: Trakt Utilities: found Movie: u'Skyline' - IMDb ID: tt1564585
  1662. 15:09:40 T:3752  NOTICE: Trakt Utilities: found Movie: u'The Smurfs' - IMDb ID: tt0472181
  1663. 15:09:40 T:3752  NOTICE: Trakt Utilities: found Movie: u'The Social Network' - IMDb ID: tt1285016
  1664. 15:09:40 T:3752  NOTICE: Trakt Utilities: found Movie: u"The Sorcerer's Apprentice" - IMDb ID: tt0963966
  1665. 15:09:40 T:3752  NOTICE: Trakt Utilities: found Movie: u'Source Code' - IMDb ID: tt0945513
  1666. 15:09:40 T:3752  NOTICE: Trakt Utilities: found Movie: u'The Spy Next Door' - IMDb ID: tt1273678
  1667. 15:09:40 T:3752  NOTICE: Trakt Utilities: found Movie: u'Sucker Punch' - IMDb ID: tt0978764
  1668. 15:09:40 T:3752  NOTICE: Trakt Utilities: found Movie: u'Demons Never Die' - IMDb ID: tt1777612
  1669. 15:09:40 T:3752  NOTICE: Trakt Utilities: found Movie: u'Super 8' - IMDb ID: tt1650062
  1670. 15:09:40 T:3752  NOTICE: Trakt Utilities: found Movie: u'The Switch' - IMDb ID: tt0889573
  1671. 15:09:40 T:3752  NOTICE: Trakt Utilities: found Movie: u'Take Me Home Tonight' - IMDb ID: tt0810922
  1672. 15:09:40 T:3752  NOTICE: Trakt Utilities: found Movie: u'Takers' - IMDb ID: tt1135084
  1673. 15:09:40 T:3752  NOTICE: Trakt Utilities: found Movie: u'Tangled' - IMDb ID: tt0398286
  1674. 15:09:40 T:3752  NOTICE: Trakt Utilities: found Movie: u"That's What I Am" - IMDb ID: tt1606180
  1675. 15:09:40 T:3752  NOTICE: Trakt Utilities: found Movie: u'Thor' - IMDb ID: tt0800369
  1676. 15:09:40 T:3752  NOTICE: Trakt Utilities: found Movie: u'The Three Musketeers' - IMDb ID: tt1509767
  1677. 15:09:40 T:3752  NOTICE: Trakt Utilities: found Movie: u'Tinker Tailor Soldier Spy' - IMDb ID: tt1340800
  1678. 15:09:40 T:3752  NOTICE: Trakt Utilities: found Movie: u'Tomorrow, When the War Began' - IMDb ID: tt1456941
  1679. 15:09:40 T:3752  NOTICE: Trakt Utilities: found Movie: u'The Tourist' - IMDb ID: tt1243957
  1680. 15:09:40 T:3752  NOTICE: Trakt Utilities: found Movie: u'Tower Heist' - IMDb ID: tt0471042
  1681. 15:09:40 T:3752  NOTICE: Trakt Utilities: found Movie: u'The Town' - IMDb ID: tt0840361
  1682. 15:09:40 T:3752  NOTICE: Trakt Utilities: found Movie: u'Toy Story 3' - IMDb ID: tt0435761
  1683. 15:09:40 T:3752  NOTICE: Trakt Utilities: found Movie: u'Transformers: Dark of the Moon' - IMDb ID: tt1399103
  1684. 15:09:40 T:3752  NOTICE: Trakt Utilities: found Movie: u'Trespass' - IMDb ID: tt1674784
  1685. 15:09:40 T:3752  NOTICE: Trakt Utilities: found Movie: u'TRON: Legacy' - IMDb ID: tt1104001
  1686. 15:09:40 T:3752  NOTICE: Trakt Utilities: found Movie: u'True Grit' - IMDb ID: tt1403865
  1687. 15:09:40 T:3752  NOTICE: Trakt Utilities: found Movie: u'Tucker and Dale vs Evil' - IMDb ID: tt1465522
  1688. 15:09:40 T:3752  NOTICE: Trakt Utilities: found Movie: u'Underworld: Awakening' - IMDb ID: tt1496025
  1689. 15:09:40 T:3752  NOTICE: Trakt Utilities: found Movie: u'Unknown' - IMDb ID: tt1401152
  1690. 15:09:40 T:3752  NOTICE: Trakt Utilities: found Movie: u'Unstoppable' - IMDb ID: tt0477080
  1691. 15:09:40 T:3752  NOTICE: Trakt Utilities: found Movie: u'Unthinkable' - IMDb ID: tt0914863
  1692. 15:09:40 T:3752  NOTICE: Trakt Utilities: found Movie: u"Valentine's Day" - IMDb ID: tt0817230
  1693. 15:09:40 T:3752  NOTICE: Trakt Utilities: found Movie: u'Vampires Suck' - IMDb ID: tt1666186
  1694. 15:09:40 T:3752  NOTICE: Trakt Utilities: found Movie: u'The Veteran' - IMDb ID: tt1653700
  1695. 15:09:40 T:3752  NOTICE: Trakt Utilities: found Movie: u'Wall Street: Money Never Sleeps' - IMDb ID: tt1027718
  1696. 15:09:40 T:3752  NOTICE: Trakt Utilities: found Movie: u'War Horse' - IMDb ID: tt1568911
  1697. 15:09:40 T:3752  NOTICE: Trakt Utilities: found Movie: u"The Warrior's Way" - IMDb ID: tt1032751
  1698. 15:09:40 T:3752  NOTICE: Trakt Utilities: found Movie: u'Warrior' - IMDb ID: tt1291584
  1699. 15:09:40 T:3752  NOTICE: Trakt Utilities: found Movie: u'The Way Back' - IMDb ID: tt1023114
  1700. 15:09:40 T:3752  NOTICE: Trakt Utilities: found Movie: u'When in Rome' - IMDb ID: tt1185416
  1701. 15:09:40 T:3752  NOTICE: Trakt Utilities: found Movie: u'Wild Target' - IMDb ID: tt1235189
  1702. 15:09:40 T:3752  NOTICE: Trakt Utilities: found Movie: u'Win Win' - IMDb ID: tt1606392
  1703. 15:09:40 T:3752  NOTICE: Trakt Utilities: found Movie: u'The Wolfman' - IMDb ID: tt0780653
  1704. 15:09:40 T:3752  NOTICE: Trakt Utilities: found Movie: u'Wrecked' - IMDb ID: tt1316622
  1705. 15:09:40 T:3752  NOTICE: Trakt Utilities: found Movie: u'X-Men: First Class' - IMDb ID: tt1270798
  1706. 15:09:40 T:3752  NOTICE: Trakt Utilities: found Movie: u'Your Highness' - IMDb ID: tt1240982
  1707. 15:09:40 T:3752  NOTICE: Trakt Utilities: found Movie: u'Zookeeper' - IMDb ID: tt1222817
  1708. 15:09:40 T:3752  NOTICE: Trakt Utilities: found Movie: u"'Breaker' Morant" - IMDb ID: tt0080310
  1709. 15:09:40 T:3752  NOTICE: Trakt Utilities: found Movie: u'\xa1Three Amigos!' - IMDb ID: tt0092086
  1710. 15:09:40 T:3752  NOTICE: Trakt Utilities: found Movie: u'2 Fast 2 Furious' - IMDb ID: tt0322259
  1711. 15:09:40 T:3752  NOTICE: Trakt Utilities: found Movie: u'3 Men and a Baby' - IMDb ID: tt0094137
  1712. 15:09:40 T:3752  NOTICE: Trakt Utilities: found Movie: u'3 Ninjas' - IMDb ID: tt0103596
  1713. 15:09:40 T:3752  NOTICE: Trakt Utilities: found Movie: u'The 6th Day' - IMDb ID: tt0216216
  1714. 15:09:40 T:3752  NOTICE: Trakt Utilities: found Movie: u'9' - IMDb ID: tt0472033
  1715. 15:09:40 T:3752  NOTICE: Trakt Utilities: found Movie: u'10 Things I Hate About You' - IMDb ID: tt0147800
  1716. 15:09:40 T:3752  NOTICE: Trakt Utilities: found Movie: u'16 Blocks' - IMDb ID: tt0450232
  1717. 15:09:40 T:3752  NOTICE: Trakt Utilities: found Movie: u'17 Again' - IMDb ID: tt0974661
  1718. 15:09:40 T:3752  NOTICE: Trakt Utilities: found Movie: u'20000 Leagues Under the Sea' - IMDb ID: tt0046672
  1719. 15:09:40 T:3752  NOTICE: Trakt Utilities: found Movie: u'21 Grams' - IMDb ID: tt0315733
  1720. 15:09:40 T:3752  NOTICE: Trakt Utilities: found Movie: u'27 Dresses' - IMDb ID: tt0988595
  1721. 15:09:40 T:3752  NOTICE: Trakt Utilities: found Movie: u'28 Days Later...' - IMDb ID: tt0289043
  1722. 15:09:40 T:3752  NOTICE: Trakt Utilities: found Movie: u'28 Weeks Later' - IMDb ID: tt0463854
  1723. 15:09:40 T:3752  NOTICE: Trakt Utilities: found Movie: u'50 First Dates' - IMDb ID: tt0343660
  1724. 15:09:40 T:3752  NOTICE: Trakt Utilities: found Movie: u'101 Dalmatians' - IMDb ID: tt0115433
  1725. 15:09:40 T:3752  NOTICE: Trakt Utilities: found Movie: u"101 Dalmatians II: Patch's London Adventure" - IMDb ID: tt0324941
  1726. 15:09:40 T:3752  NOTICE: Trakt Utilities: found Movie: u'300' - IMDb ID: tt0416449
  1727. 15:09:40 T:3752  NOTICE: Trakt Utilities: found Movie: u'3:10 to Yuma' - IMDb ID: tt0381849
  1728. 15:09:40 T:3752  NOTICE: Trakt Utilities: found Movie: u'(500) Days of Summer' - IMDb ID: tt1022603
  1729. 15:09:40 T:3752  NOTICE: Trakt Utilities: found Movie: u'1408' - IMDb ID: tt0450385
  1730. 15:09:40 T:3752  NOTICE: Trakt Utilities: found Movie: u'2001: A Space Odyssey' - IMDb ID: tt0062622
  1731. 15:09:40 T:3752  NOTICE: Trakt Utilities: found Movie: u'A Beautiful Mind' - IMDb ID: tt0268978
  1732. 15:09:40 T:3752  NOTICE: Trakt Utilities: found Movie: u"A Bug's Life" - IMDb ID: tt0120623
  1733. 15:09:40 T:3752  NOTICE: Trakt Utilities: found Movie: u'A Christmas Carol' - IMDb ID: tt1067106
  1734. 15:09:40 T:3752  NOTICE: Trakt Utilities: found Movie: u'A Clockwork Orange' - IMDb ID: tt0066921
  1735. 15:09:40 T:3752  NOTICE: Trakt Utilities: found Movie: u'A History of Violence' - IMDb ID: tt0399146
  1736. 15:09:40 T:3752  NOTICE: Trakt Utilities: found Movie: u'A Little Princess' - IMDb ID: tt0113670
  1737. 15:09:40 T:3752  NOTICE: Trakt Utilities: found Movie: u'A Night at the Roxbury' - IMDb ID: tt0120770
  1738. 15:09:40 T:3752  NOTICE: Trakt Utilities: found Movie: u'A Perfect Murder' - IMDb ID: tt0120787
  1739. 15:09:40 T:3752  NOTICE: Trakt Utilities: found Movie: u'Artificial Intelligence: AI' - IMDb ID: tt0212720
  1740. 15:09:40 T:3752  NOTICE: Trakt Utilities: found Movie: u'About a Boy' - IMDb ID: tt0276751
  1741. 15:09:40 T:3752  NOTICE: Trakt Utilities: found Movie: u'Accepted' - IMDb ID: tt0384793
  1742. 15:09:40 T:3752  NOTICE: Trakt Utilities: found Movie: u'Ace Ventura: Pet Detective' - IMDb ID: tt0109040
  1743. 15:09:40 T:3752  NOTICE: Trakt Utilities: found Movie: u'Ace Ventura: When Nature Calls' - IMDb ID: tt0112281
  1744. 15:09:40 T:3752  NOTICE: Trakt Utilities: found Movie: u'Adaptation.' - IMDb ID: tt0268126
  1745. 15:09:40 T:3752  NOTICE: Trakt Utilities: found Movie: u'Koneko monogatari' - IMDb ID: tt0097050
  1746. 15:09:40 T:3752  NOTICE: Trakt Utilities: found Movie: u'The Air I Breathe' - IMDb ID: tt0485851
  1747. 15:09:40 T:3752  NOTICE: Trakt Utilities: found Movie: u'The Air Up There' - IMDb ID: tt0109067
  1748. 15:09:40 T:3752  NOTICE: Trakt Utilities: found Movie: u'Airheads' - IMDb ID: tt0109068
  1749. 15:09:40 T:3752  NOTICE: Trakt Utilities: found Movie: u'Aladdin' - IMDb ID: tt0103639
  1750. 15:09:40 T:3752  NOTICE: Trakt Utilities: found Movie: u'Aladdin and the King of Thieves' - IMDb ID: tt0115491
  1751. 15:09:40 T:3752  NOTICE: Trakt Utilities: found Movie: u'The Return of Jafar' - IMDb ID: tt0107952
  1752. 15:09:40 T:3752  NOTICE: Trakt Utilities: found Movie: u'Alice in Wonderland' - IMDb ID: tt0043274
  1753. 15:09:40 T:3752  NOTICE: Trakt Utilities: found Movie: u'Alien: Resurrection' - IMDb ID: tt0118583
  1754. 15:09:40 T:3752  NOTICE: Trakt Utilities: found Movie: u'Alien' - IMDb ID: tt0078748
  1755. 15:09:40 T:3752  NOTICE: Trakt Utilities: found Movie: u'Alien\xb3' - IMDb ID: tt0103644
  1756. 15:09:40 T:3752  NOTICE: Trakt Utilities: found Movie: u'Aliens' - IMDb ID: tt0090605
  1757. 15:09:40 T:3752  NOTICE: Trakt Utilities: found Movie: u'All I Want for Christmas' - IMDb ID: tt0101301
  1758. 15:09:40 T:3752  NOTICE: Trakt Utilities: found Movie: u'Almost Famous' - IMDb ID: tt0181875
  1759. 15:09:40 T:3752  NOTICE: Trakt Utilities: found Movie: u'Alpha Dog' - IMDb ID: tt0426883
  1760. 15:09:40 T:3752  NOTICE: Trakt Utilities: found Movie: u'American Beauty' - IMDb ID: tt0169547
  1761. 15:09:40 T:3752  NOTICE: Trakt Utilities: found Movie: u'American Gangster' - IMDb ID: tt0765429
  1762. 15:09:40 T:3752  NOTICE: Trakt Utilities: found Movie: u'American Graffiti' - IMDb ID: tt0069704
  1763. 15:09:40 T:3752  NOTICE: Trakt Utilities: found Movie: u'American History X' - IMDb ID: tt0120586
  1764. 15:09:40 T:3752  NOTICE: Trakt Utilities: found Movie: u'American Psycho' - IMDb ID: tt0144084
  1765. 15:09:40 T:3752  NOTICE: Trakt Utilities: found Movie: u'An American Tail: Fievel Goes West' - IMDb ID: tt0101329
  1766. 15:09:40 T:3752  NOTICE: Trakt Utilities: found Movie: u'An Extremely Goofy Movie' - IMDb ID: tt0208185
  1767. 15:09:40 T:3752  NOTICE: Trakt Utilities: found Movie: u'Anaconda' - IMDb ID: tt0118615
  1768. 15:09:40 T:3752  NOTICE: Trakt Utilities: found Movie: u'Analyze That' - IMDb ID: tt0289848
  1769. 15:09:40 T:3752  NOTICE: Trakt Utilities: found Movie: u'Analyze This' - IMDb ID: tt0122933
  1770. 15:09:40 T:3752  NOTICE: Trakt Utilities: found Movie: u'Anchorman: The Legend of Ron Burgundy' - IMDb ID: tt0357413
  1771. 15:09:40 T:3752  NOTICE: Trakt Utilities: found Movie: u'Angels & Demons' - IMDb ID: tt0808151
  1772. 15:09:40 T:3752  NOTICE: Trakt Utilities: found Movie: u'Anger Management' - IMDb ID: tt0305224
  1773. 15:09:40 T:3752  NOTICE: Trakt Utilities: found Movie: u'The Animal' - IMDb ID: tt0255798
  1774. 15:09:40 T:3752  NOTICE: Trakt Utilities: found Movie: u'Annie' - IMDb ID: tt0083564
  1775. 15:09:40 T:3752  NOTICE: Trakt Utilities: found Movie: u'Another Stakeout' - IMDb ID: tt0106292
  1776. 15:09:40 T:3752  NOTICE: Trakt Utilities: found Movie: u'Apocalypse Now' - IMDb ID: tt0078788
  1777. 15:09:40 T:3752  NOTICE: Trakt Utilities: found Movie: u'Apocalypto' - IMDb ID: tt0472043
  1778. 15:09:40 T:3752  NOTICE: Trakt Utilities: found Movie: u'The AristoCats' - IMDb ID: tt0065421
  1779. 15:09:40 T:3752  NOTICE: Trakt Utilities: found Movie: u'Armageddon' - IMDb ID: tt0120591
  1780. 15:09:40 T:3752  NOTICE: Trakt Utilities: found Movie: u'Armored' - IMDb ID: tt0913354
  1781. 15:09:40 T:3752  NOTICE: Trakt Utilities: found Movie: u'Around the World in 80 Days' - IMDb ID: tt0327437
  1782. 15:09:40 T:3752  NOTICE: Trakt Utilities: found Movie: u'Assassins' - IMDb ID: tt0112401
  1783. 15:09:40 T:3752  NOTICE: Trakt Utilities: found Movie: u'Astro Boy' - IMDb ID: tt0375568
  1784. 15:09:40 T:3752  NOTICE: Trakt Utilities: found Movie: u"Atlantis: Milo's Return" - IMDb ID: tt0344864
  1785. 15:09:40 T:3752  NOTICE: Trakt Utilities: found Movie: u'Atlantis: The Lost Empire' - IMDb ID: tt0230011
  1786. 15:09:40 T:3752  NOTICE: Trakt Utilities: found Movie: u'Austin Powers: International Man of Mystery' - IMDb ID: tt0118655
  1787. 15:09:40 T:3752  NOTICE: Trakt Utilities: found Movie: u'Austin Powers: The Spy Who Shagged Me' - IMDb ID: tt0145660
  1788. 15:09:40 T:3752  NOTICE: Trakt Utilities: found Movie: u'Avatar' - IMDb ID: tt0499549
  1789. 15:09:40 T:3752  NOTICE: Trakt Utilities: found Movie: u'AVPR: Aliens vs Predator - Requiem' - IMDb ID: tt0758730
  1790. 15:09:40 T:3752  NOTICE: Trakt Utilities: found Movie: u'Awakenings' - IMDb ID: tt0099077
  1791. 15:09:40 T:3752  NOTICE: Trakt Utilities: found Movie: u'Babel' - IMDb ID: tt0449467
  1792. 15:09:40 T:3752  NOTICE: Trakt Utilities: found Movie: u'Babylon A.D.' - IMDb ID: tt0364970
  1793. 15:09:40 T:3752  NOTICE: Trakt Utilities: found Movie: u'Back to the Future' - IMDb ID: tt0088763
  1794. 15:09:40 T:3752  NOTICE: Trakt Utilities: found Movie: u'Back to the Future Part II' - IMDb ID: tt0096874
  1795. 15:09:40 T:3752  NOTICE: Trakt Utilities: found Movie: u'Back to the Future Part III' - IMDb ID: tt0099088
  1796. 15:09:40 T:3752  NOTICE: Trakt Utilities: found Movie: u'Backdraft' - IMDb ID: tt0101393
  1797. 15:09:40 T:3752  NOTICE: Trakt Utilities: found Movie: u'Bad Boys' - IMDb ID: tt0112442
  1798. 15:09:40 T:3752  NOTICE: Trakt Utilities: found Movie: u'The Bad Lieutenant: Port of Call - New Orleans' - IMDb ID: tt1095217
  1799. 15:09:40 T:3752  NOTICE: Trakt Utilities: found Movie: u'Bad Santa' - IMDb ID: tt0307987
  1800. 15:09:40 T:3752  NOTICE: Trakt Utilities: found Movie: u'Bambi' - IMDb ID: tt0034492
  1801. 15:09:40 T:3752  NOTICE: Trakt Utilities: found Movie: u'Bambi II' - IMDb ID: tt0447854
  1802. 15:09:40 T:3752  NOTICE: Trakt Utilities: found Movie: u'The Bank Job' - IMDb ID: tt0200465
  1803. 15:09:40 T:3752  NOTICE: Trakt Utilities: found Movie: u'BASEketball' - IMDb ID: tt0131857
  1804. 15:09:40 T:3752  NOTICE: Trakt Utilities: found Movie: u'Basic' - IMDb ID: tt0264395
  1805. 15:09:40 T:3752  NOTICE: Trakt Utilities: found Movie: u'Batman & Robin' - IMDb ID: tt0118688
  1806. 15:09:40 T:3752  NOTICE: Trakt Utilities: found Movie: u'Batman' - IMDb ID: tt0096895
  1807. 15:09:40 T:3752  NOTICE: Trakt Utilities: found Movie: u'Batman Begins' - IMDb ID: tt0372784
  1808. 15:09:40 T:3752  NOTICE: Trakt Utilities: found Movie: u'Batman Forever' - IMDb ID: tt0112462
  1809. 15:09:40 T:3752  NOTICE: Trakt Utilities: found Movie: u'Beauty and the Beast' - IMDb ID: tt0101414
  1810. 15:09:40 T:3752  NOTICE: Trakt Utilities: found Movie: u'Bedknobs and Broomsticks' - IMDb ID: tt0066817
  1811. 15:09:40 T:3752  NOTICE: Trakt Utilities: found Movie: u'Beethoven' - IMDb ID: tt0103786
  1812. 15:09:40 T:3752  NOTICE: Trakt Utilities: found Movie: u'Begotten' - IMDb ID: tt0101420
  1813. 15:09:40 T:3752  NOTICE: Trakt Utilities: found Movie: u'Being John Malkovich' - IMDb ID: tt0120601
  1814. 15:09:40 T:3752  NOTICE: Trakt Utilities: found Movie: u'Beowulf' - IMDb ID: tt0442933
  1815. 15:09:40 T:3752  NOTICE: Trakt Utilities: found Movie: u'The Beverly Hillbillies' - IMDb ID: tt0106400
  1816. 15:09:40 T:3752  NOTICE: Trakt Utilities: found Movie: u'The BFG' - IMDb ID: tt0096866
  1817. 15:09:40 T:3752  NOTICE: Trakt Utilities: found Movie: u'Bicentennial Man' - IMDb ID: tt0182789
  1818. 15:09:40 T:3752  NOTICE: Trakt Utilities: found Movie: u'Big Daddy' - IMDb ID: tt0142342
  1819. 15:09:40 T:3752  NOTICE: Trakt Utilities: found Movie: u'Big Fish' - IMDb ID: tt0319061
  1820. 15:09:40 T:3752  NOTICE: Trakt Utilities: found Movie: u'The Big Lebowski' - IMDb ID: tt0118715
  1821. 15:09:40 T:3752  NOTICE: Trakt Utilities: found Movie: u"Big Momma's House" - IMDb ID: tt0208003
  1822. 15:09:40 T:3752  NOTICE: Trakt Utilities: found Movie: u'Big Stan' - IMDb ID: tt0490086
  1823. 15:09:40 T:3752  NOTICE: Trakt Utilities: found Movie: u'Big Trouble in Little China' - IMDb ID: tt0090728
  1824. 15:09:40 T:3752  NOTICE: Trakt Utilities: found Movie: u'The Big White' - IMDb ID: tt0402850
  1825. 15:09:40 T:3752  NOTICE: Trakt Utilities: found Movie: u'Billy Madison' - IMDb ID: tt0112508
  1826. 15:09:40 T:3752  NOTICE: Trakt Utilities: found Movie: u'The Black Cauldron' - IMDb ID: tt0088814
  1827. 15:09:40 T:3752  NOTICE: Trakt Utilities: found Movie: u'Black Dynamite' - IMDb ID: tt1190536
  1828. 15:09:40 T:3752  NOTICE: Trakt Utilities: found Movie: u'Black Hawk Down' - IMDb ID: tt0265086
  1829. 15:09:40 T:3752  NOTICE: Trakt Utilities: found Movie: u'Blade: Trinity' - IMDb ID: tt0359013
  1830. 15:09:40 T:3752  NOTICE: Trakt Utilities: found Movie: u'Blade' - IMDb ID: tt0120611
  1831. 15:09:40 T:3752  NOTICE: Trakt Utilities: found Movie: u'Blade II' - IMDb ID: tt0187738
  1832. 15:09:40 T:3752  NOTICE: Trakt Utilities: found Movie: u'Blade Runner' - IMDb ID: tt0083658
  1833. 15:09:40 T:3752  NOTICE: Trakt Utilities: found Movie: u'Blank Check' - IMDb ID: tt0109287
  1834. 15:09:40 T:3752  NOTICE: Trakt Utilities: found Movie: u'The Blind Side' - IMDb ID: tt0878804
  1835. 15:09:40 T:3752  NOTICE: Trakt Utilities: found Movie: u'Blood Diamond' - IMDb ID: tt0450259
  1836. 15:09:40 T:3752  NOTICE: Trakt Utilities: found Movie: u'The Blues Brothers' - IMDb ID: tt0080455
  1837. 15:09:40 T:3752  NOTICE: Trakt Utilities: found Movie: u'The Boat That Rocked' - IMDb ID: tt1131729
  1838. 15:09:40 T:3752  NOTICE: Trakt Utilities: found Movie: u'' - IMDb ID: tt0216584
  1839. 15:09:40 T:3752  NOTICE: Trakt Utilities: found Movie: u'Body of Lies' - IMDb ID: tt0758774
  1840. 15:09:40 T:3752  NOTICE: Trakt Utilities: found Movie: u'Bolt' - IMDb ID: tt0397892
  1841. 15:09:40 T:3752  NOTICE: Trakt Utilities: found Movie: u'The Boondock Saints' - IMDb ID: tt0144117
  1842. 15:09:40 T:3752  NOTICE: Trakt Utilities: found Movie: u'The Bourne Identity' - IMDb ID: tt0258463
  1843. 15:09:40 T:3752  NOTICE: Trakt Utilities: found Movie: u'The Bourne Supremacy' - IMDb ID: tt0372183
  1844. 15:09:40 T:3752  NOTICE: Trakt Utilities: found Movie: u'The Bourne Ultimatum' - IMDb ID: tt0440963
  1845. 15:09:40 T:3752  NOTICE: Trakt Utilities: found Movie: u'Bra Boys' - IMDb ID: tt0951318
  1846. 15:09:40 T:3752  NOTICE: Trakt Utilities: found Movie: u'The Brave Little Toaster' - IMDb ID: tt0092695
  1847. 15:09:40 T:3752  NOTICE: Trakt Utilities: found Movie: u'Braveheart' - IMDb ID: tt0112573
  1848. 15:09:40 T:3752  NOTICE: Trakt Utilities: found Movie: u'Breakdown' - IMDb ID: tt0118771
  1849. 15:09:40 T:3752  NOTICE: Trakt Utilities: found Movie: u'The Breakfast Club' - IMDb ID: tt0088847
  1850. 15:09:40 T:3752  NOTICE: Trakt Utilities: found Movie: u"Brewster's Millions" - IMDb ID: tt0088850
  1851. 15:09:40 T:3752  NOTICE: Trakt Utilities: found Movie: u'Brick' - IMDb ID: tt0393109
  1852. 15:09:40 T:3752  NOTICE: Trakt Utilities: found Movie: u'Brother Bear' - IMDb ID: tt0328880
  1853. 15:09:40 T:3752  NOTICE: Trakt Utilities: found Movie: u'Brother Bear 2' - IMDb ID: tt0465925
  1854. 15:09:40 T:3752  NOTICE: Trakt Utilities: found Movie: u'Bruce Almighty' - IMDb ID: tt0315327
  1855. 15:09:40 T:3752  NOTICE: Trakt Utilities: found Movie: u'Bulletproof Monk' - IMDb ID: tt0245803
  1856. 15:09:40 T:3752  NOTICE: Trakt Utilities: found Movie: u'Burn After Reading' - IMDb ID: tt0887883
  1857. 15:09:40 T:3752  NOTICE: Trakt Utilities: found Movie: u'Butch Cassidy and the Sundance Kid' - IMDb ID: tt0064115
  1858. 15:09:40 T:3752  NOTICE: Trakt Utilities: found Movie: u'The Butterfly Effect' - IMDb ID: tt0289879
  1859. 15:09:40 T:3752  NOTICE: Trakt Utilities: found Movie: u'Buzz Lightyear of Star Command: The Adventure Begins' - IMDb ID: tt0181196
  1860. 15:09:40 T:3752  NOTICE: Trakt Utilities: found Movie: u'Caddyshack' - IMDb ID: tt0080487
  1861. 15:09:40 T:3752  NOTICE: Trakt Utilities: found Movie: u'Calamity Jane' - IMDb ID: tt0045591
  1862. 15:09:40 T:3752  NOTICE: Trakt Utilities: found Movie: u'Camp Nowhere' - IMDb ID: tt0109369
  1863. 15:09:40 T:3752  NOTICE: Trakt Utilities: found Movie: u'Cars' - IMDb ID: tt0317219
  1864. 15:09:40 T:3752  NOTICE: Trakt Utilities: found Movie: u'Case 39' - IMDb ID: tt0795351
  1865. 15:09:40 T:3752  NOTICE: Trakt Utilities: found Movie: u'Casino' - IMDb ID: tt0112641
  1866. 15:09:40 T:3752  NOTICE: Trakt Utilities: found Movie: u'Casino Royale' - IMDb ID: tt0381061
  1867. 15:09:40 T:3752  NOTICE: Trakt Utilities: found Movie: u'Casper' - IMDb ID: tt0112642
  1868. 15:09:40 T:3752  NOTICE: Trakt Utilities: found Movie: u'Cast Away' - IMDb ID: tt0162222
  1869. 15:09:40 T:3752  NOTICE: Trakt Utilities: found Movie: u'Catch Me If You Can' - IMDb ID: tt0264464
  1870. 15:09:40 T:3752  NOTICE: Trakt Utilities: found Movie: u'Charlie and the Chocolate Factory' - IMDb ID: tt0367594
  1871. 15:09:40 T:3752  NOTICE: Trakt Utilities: found Movie: u"Charlotte's Web" - IMDb ID: tt0413895
  1872. 15:09:40 T:3752  NOTICE: Trakt Utilities: found Movie: u'Chasing Amy' - IMDb ID: tt0118842
  1873. 15:09:40 T:3752  NOTICE: Trakt Utilities: found Movie: u'Cheaper by the Dozen' - IMDb ID: tt0349205
  1874. 15:09:40 T:3752  NOTICE: Trakt Utilities: found Movie: u'Chicken Little' - IMDb ID: tt0371606
  1875. 15:09:40 T:3752  NOTICE: Trakt Utilities: found Movie: u'Children of Men' - IMDb ID: tt0206634
  1876. 15:09:40 T:3752  NOTICE: Trakt Utilities: found Movie: u'Chitty Chitty Bang Bang' - IMDb ID: tt0062803
  1877. 15:09:40 T:3752  NOTICE: Trakt Utilities: found Movie: u'Christine' - IMDb ID: tt0085333
  1878. 15:09:40 T:3752  NOTICE: Trakt Utilities: found Movie: u"Christmas Vacation 2: Cousin Eddie's Island Adventure" - IMDb ID: tt0367623
  1879. 15:09:40 T:3752  NOTICE: Trakt Utilities: found Movie: u'Christmas with the Kranks' - IMDb ID: tt0388419
  1880. 15:09:40 T:3752  NOTICE: Trakt Utilities: found Movie: u'The Chronicles of Narnia: Prince Caspian' - IMDb ID: tt0499448
  1881. 15:09:40 T:3752  NOTICE: Trakt Utilities: found Movie: u'The Chronicles of Narnia: The Lion, the Witch and the Wardrobe' - IMDb ID: tt0363771
  1882. 15:09:40 T:3752  NOTICE: Trakt Utilities: found Movie: u'The Chronicles of Riddick' - IMDb ID: tt0296572
  1883. 15:09:40 T:3752  NOTICE: Trakt Utilities: found Movie: u'Cinderella' - IMDb ID: tt0042332
  1884. 15:09:40 T:3752  NOTICE: Trakt Utilities: found Movie: u'Cidade de Deus' - IMDb ID: tt0317248
  1885. 15:09:40 T:3752  NOTICE: Trakt Utilities: found Movie: u'City Slickers' - IMDb ID: tt0101587
  1886. 15:09:40 T:3752  NOTICE: Trakt Utilities: found Movie: u"City Slickers II: The Legend of Curly's Gold" - IMDb ID: tt0109439
  1887. 15:09:40 T:3752  NOTICE: Trakt Utilities: found Movie: u'Clear and Present Danger' - IMDb ID: tt0109444
  1888. 15:09:40 T:3752  NOTICE: Trakt Utilities: found Movie: u'Click' - IMDb ID: tt0389860
  1889. 15:09:40 T:3752  NOTICE: Trakt Utilities: found Movie: u'Close Encounters of the Third Kind' - IMDb ID: tt0075860
  1890. 15:09:40 T:3752  NOTICE: Trakt Utilities: found Movie: u'Cloudy with a Chance of Meatballs' - IMDb ID: tt0844471
  1891. 15:09:40 T:3752  NOTICE: Trakt Utilities: found Movie: u'Cloverfield' - IMDb ID: tt1060277
  1892. 15:09:40 T:3752  NOTICE: Trakt Utilities: found Movie: u'Clue' - IMDb ID: tt0088930
  1893. 15:09:40 T:3752  NOTICE: Trakt Utilities: found Movie: u'Thick as Thieves' - IMDb ID: tt1112782
  1894. 15:09:40 T:3752  NOTICE: Trakt Utilities: found Movie: u'Collateral' - IMDb ID: tt0369339
  1895. 15:09:40 T:3752  NOTICE: Trakt Utilities: found Movie: u'Con Air' - IMDb ID: tt0118880
  1896. 15:09:40 T:3752  NOTICE: Trakt Utilities: found Movie: u'Constantine' - IMDb ID: tt0360486
  1897. 15:09:40 T:3752  NOTICE: Trakt Utilities: found Movie: u'Contact' - IMDb ID: tt0118884
  1898. 15:09:40 T:3752  NOTICE: Trakt Utilities: found Movie: u'The Contract' - IMDb ID: tt0445946
  1899. 15:09:40 T:3752  NOTICE: Trakt Utilities: found Movie: u'Cool Runnings' - IMDb ID: tt0106611
  1900. 15:09:40 T:3752  NOTICE: Trakt Utilities: found Movie: u'Coraline' - IMDb ID: tt0327597
  1901. 15:09:40 T:3752  NOTICE: Trakt Utilities: found Movie: u'The Core' - IMDb ID: tt0298814
  1902. 15:09:40 T:3752  NOTICE: Trakt Utilities: found Movie: u'Corpse Bride' - IMDb ID: tt0121164
  1903. 15:09:40 T:3752  NOTICE: Trakt Utilities: found Movie: u'The Count of Monte Cristo' - IMDb ID: tt0245844
  1904. 15:09:40 T:3752  NOTICE: Trakt Utilities: found Movie: u'Cradle 2 the Grave' - IMDb ID: tt0306685
  1905. 15:09:40 T:3752  NOTICE: Trakt Utilities: found Movie: u'Crank: High Voltage' - IMDb ID: tt1121931
  1906. 15:09:40 T:3752  NOTICE: Trakt Utilities: found Movie: u'Crank' - IMDb ID: tt0479884
  1907. 15:09:40 T:3752  NOTICE: Trakt Utilities: found Movie: u'Crash' - IMDb ID: tt0375679
  1908. 15:09:40 T:3752  NOTICE: Trakt Utilities: found Movie: u'Cruel Intentions' - IMDb ID: tt0139134
  1909. 15:09:40 T:3752  NOTICE: Trakt Utilities: found Movie: u'Cube' - IMDb ID: tt0123755
  1910. 15:09:40 T:3752  NOTICE: Trakt Utilities: found Movie: u'Cube Zero' - IMDb ID: tt0377713
  1911. 15:09:40 T:3752  NOTICE: Trakt Utilities: found Movie: u'Cube 2: Hypercube' - IMDb ID: tt0285492
  1912. 15:09:40 T:3752  NOTICE: Trakt Utilities: found Movie: u'The Curious Case of Benjamin Button' - IMDb ID: tt0421715
  1913. 15:09:40 T:3752  NOTICE: Trakt Utilities: found Movie: u'Cypher' - IMDb ID: tt0284978
  1914. 15:09:40 T:3752  NOTICE: Trakt Utilities: found Movie: u'D2: The Mighty Ducks' - IMDb ID: tt0109520
  1915. 15:09:40 T:3752  NOTICE: Trakt Utilities: found Movie: u'D3: The Mighty Ducks' - IMDb ID: tt0116000
  1916. 15:09:40 T:3752  NOTICE: Trakt Utilities: found Movie: u'Daddy Long Legs' - IMDb ID: tt0047969
  1917. 15:09:40 T:3752  NOTICE: Trakt Utilities: found Movie: u'Dance Flick' - IMDb ID: tt1153706
  1918. 15:09:40 T:3752  NOTICE: Trakt Utilities: found Movie: u'Daredevil' - IMDb ID: tt0287978
  1919. 15:09:40 T:3752  NOTICE: Trakt Utilities: found Movie: u'Dark City' - IMDb ID: tt0118929
  1920. 15:09:40 T:3752  NOTICE: Trakt Utilities: found Movie: u'The Dark Knight' - IMDb ID: tt0468569
  1921. 15:09:40 T:3752  NOTICE: Trakt Utilities: found Movie: u'Date Movie' - IMDb ID: tt0466342
  1922. 15:09:40 T:3752  NOTICE: Trakt Utilities: found Movie: u'Dave' - IMDb ID: tt0106673
  1923. 15:09:40 T:3752  NOTICE: Trakt Utilities: found Movie: u'The Da Vinci Code' - IMDb ID: tt0382625
  1924. 15:09:40 T:3752  NOTICE: Trakt Utilities: found Movie: u'Dawn of the Dead' - IMDb ID: tt0077402
  1925. 15:09:40 T:3752  NOTICE: Trakt Utilities: found Movie: u'Dawn of the Dead' - IMDb ID: tt0363547
  1926. 15:09:40 T:3752  NOTICE: Trakt Utilities: found Movie: u'The Day After Tomorrow' - IMDb ID: tt0319262
  1927. 15:09:40 T:3752  NOTICE: Trakt Utilities: found Movie: u'The Day the Earth Stood Still' - IMDb ID: tt0970416
  1928. 15:09:40 T:3752  NOTICE: Trakt Utilities: found Movie: u'Dnevnoy dozor' - IMDb ID: tt0409904
  1929. 15:09:40 T:3752  NOTICE: Trakt Utilities: found Movie: u'Daybreakers' - IMDb ID: tt0433362
  1930. 15:09:40 T:3752  NOTICE: Trakt Utilities: found Movie: u'Dead Like Me: Life After Death' - IMDb ID: tt1079444
  1931. 15:09:40 T:3752  NOTICE: Trakt Utilities: found Movie: u'Dead Man' - IMDb ID: tt0112817
  1932. 15:09:40 T:3752  NOTICE: Trakt Utilities: found Movie: u'Death at a Funeral' - IMDb ID: tt0795368
  1933. 15:09:40 T:3752  NOTICE: Trakt Utilities: found Movie: u'Death Proof' - IMDb ID: tt1028528
  1934. 15:09:40 T:3752  NOTICE: Trakt Utilities: found Movie: u'Death Race' - IMDb ID: tt0452608
  1935. 15:09:40 T:3752  NOTICE: Trakt Utilities: found Movie: u'Deck the Halls' - IMDb ID: tt0790604
  1936. 15:09:40 T:3752  NOTICE: Trakt Utilities: found Movie: u'Deep Blue Sea' - IMDb ID: tt0149261
  1937. 15:09:40 T:3752  NOTICE: Trakt Utilities: found Movie: u'Deep Impact' - IMDb ID: tt0120647
  1938. 15:09:40 T:3752  NOTICE: Trakt Utilities: found Movie: u'Deepwater' - IMDb ID: tt0383304
  1939. 15:09:40 T:3752  NOTICE: Trakt Utilities: found Movie: u'Defendor' - IMDb ID: tt1303828
  1940. 15:09:40 T:3752  NOTICE: Trakt Utilities: found Movie: u'Definitely, Maybe' - IMDb ID: tt0832266
  1941. 15:09:40 T:3752  NOTICE: Trakt Utilities: found Movie: u'Deja Vu' - IMDb ID: tt0453467
  1942. 15:09:40 T:3752  NOTICE: Trakt Utilities: found Movie: u'Demolition Man' - IMDb ID: tt0106697
  1943. 15:09:40 T:3752  NOTICE: Trakt Utilities: found Movie: u'Dennis the Menace' - IMDb ID: tt0106701
  1944. 15:09:40 T:3752  NOTICE: Trakt Utilities: found Movie: u'The Departed' - IMDb ID: tt0407887
  1945. 15:09:40 T:3752  NOTICE: Trakt Utilities: found Movie: u'Desperado' - IMDb ID: tt0112851
  1946. 15:09:40 T:3752  NOTICE: Trakt Utilities: found Movie: u'Deuce Bigalow: European Gigolo' - IMDb ID: tt0367652
  1947. 15:09:40 T:3752  NOTICE: Trakt Utilities: found Movie: u'Deuce Bigalow: Male Gigolo' - IMDb ID: tt0205000
  1948. 15:09:40 T:3752  NOTICE: Trakt Utilities: found Movie: u'The Devil Wears Prada' - IMDb ID: tt0458352
  1949. 15:09:40 T:3752  NOTICE: Trakt Utilities: found Movie: u'Die Hard: With a Vengeance' - IMDb ID: tt0112864
  1950. 15:09:40 T:3752  NOTICE: Trakt Utilities: found Movie: u'Die Hard' - IMDb ID: tt0095016
  1951. 15:09:40 T:3752  NOTICE: Trakt Utilities: found Movie: u'Die Hard 2' - IMDb ID: tt0099423
  1952. 15:09:40 T:3752  NOTICE: Trakt Utilities: found Movie: u'Live Free or Die Hard' - IMDb ID: tt0337978
  1953. 15:09:40 T:3752  NOTICE: Trakt Utilities: found Movie: u'Dinosaur' - IMDb ID: tt0130623
  1954. 15:09:40 T:3752  NOTICE: Trakt Utilities: found Movie: u'Dirty Dancing' - IMDb ID: tt0092890
  1955. 15:09:40 T:3752  NOTICE: Trakt Utilities: found Movie: u'Dirty Rotten Scoundrels' - IMDb ID: tt0095031
  1956. 15:09:40 T:3752  NOTICE: Trakt Utilities: found Movie: u'District 9' - IMDb ID: tt1136608
  1957. 15:09:40 T:3752  NOTICE: Trakt Utilities: found Movie: u'Dodgeball: A True Underdog Story' - IMDb ID: tt0364725
  1958. 15:09:40 T:3752  NOTICE: Trakt Utilities: found Movie: u'Doghouse' - IMDb ID: tt1023500
  1959. 15:09:40 T:3752  NOTICE: Trakt Utilities: found Movie: u'Dogma' - IMDb ID: tt0120655
  1960. 15:09:40 T:3752  NOTICE: Trakt Utilities: found Movie: u'Donnie Darko' - IMDb ID: tt0246578
  1961. 15:09:40 T:3752  NOTICE: Trakt Utilities: found Movie: u'Doom' - IMDb ID: tt0419706
  1962. 15:09:40 T:3752  NOTICE: Trakt Utilities: found Movie: u'Doomsday' - IMDb ID: tt0483607
  1963. 15:09:40 T:3752  NOTICE: Trakt Utilities: found Movie: u'Dorian Gray' - IMDb ID: tt1235124
  1964. 15:09:40 T:3752  NOTICE: Trakt Utilities: found Movie: u'Down to Earth' - IMDb ID: tt0231775
  1965. 15:09:40 T:3752  NOTICE: Trakt Utilities: found Movie: u'The Dukes of Hazzard' - IMDb ID: tt0377818
  1966. 15:09:40 T:3752  NOTICE: Trakt Utilities: found Movie: u'Dumbo' - IMDb ID: tt0033563
  1967. 15:09:40 T:3752  NOTICE: Trakt Utilities: found Movie: u'Dune' - IMDb ID: tt0087182
  1968. 15:09:40 T:3752  NOTICE: Trakt Utilities: found Movie: u'Duplicity' - IMDb ID: tt1135487
  1969. 15:09:40 T:3752  NOTICE: Trakt Utilities: found Movie: u'E.T.: The Extra-Terrestrial' - IMDb ID: tt0083866
  1970. 15:09:40 T:3752  NOTICE: Trakt Utilities: found Movie: u'Eastern Promises' - IMDb ID: tt0765443
  1971. 15:09:40 T:3752  NOTICE: Trakt Utilities: found Movie: u'Elf' - IMDb ID: tt0319343
  1972. 15:09:40 T:3752  NOTICE: Trakt Utilities: found Movie: u"The Emperor's New Groove 2: Kronk's New Groove" - IMDb ID: tt0401398
  1973. 15:09:40 T:3752  NOTICE: Trakt Utilities: found Movie: u"The Emperor's New Groove" - IMDb ID: tt0120917
  1974. 15:09:40 T:3752  NOTICE: Trakt Utilities: found Movie: u'Employee of the Month' - IMDb ID: tt0424993
  1975. 15:09:40 T:3752  NOTICE: Trakt Utilities: found Movie: u'Enchanted' - IMDb ID: tt0461770
  1976. 15:09:40 T:3752  NOTICE: Trakt Utilities: found Movie: u'Encino Man' - IMDb ID: tt0104187
  1977. 15:09:40 T:3752  NOTICE: Trakt Utilities: found Movie: u'Enemy at the Gates' - IMDb ID: tt0215750
  1978. 15:09:40 T:3752  NOTICE: Trakt Utilities: found Movie: u'Enemy of the State' - IMDb ID: tt0120660
  1979. 15:09:40 T:3752  NOTICE: Trakt Utilities: found Movie: u'Equilibrium' - IMDb ID: tt0238380
  1980. 15:09:40 T:3752  NOTICE: Trakt Utilities: found Movie: u'Ernest Goes to Africa' - IMDb ID: tt0119068
  1981. 15:09:40 T:3752  NOTICE: Trakt Utilities: found Movie: u'Ernest Goes to Camp' - IMDb ID: tt0092974
  1982. 15:09:40 T:3752  NOTICE: Trakt Utilities: found Movie: u'Ernest Goes to Jail' - IMDb ID: tt0099512
  1983. 15:09:40 T:3752  NOTICE: Trakt Utilities: found Movie: u'Ernest Goes to School' - IMDb ID: tt0109739
  1984. 15:09:40 T:3752  NOTICE: Trakt Utilities: found Movie: u'Ernest in the Army' - IMDb ID: tt0129908
  1985. 15:09:40 T:3752  NOTICE: Trakt Utilities: found Movie: u'Ernest Rides Again' - IMDb ID: tt0106827
  1986. 15:09:40 T:3752  NOTICE: Trakt Utilities: found Movie: u'Ernest Saves Christmas' - IMDb ID: tt0095107
  1987. 15:09:40 T:3752  NOTICE: Trakt Utilities: found Movie: u'Ernest Scared Stupid' - IMDb ID: tt0101821
  1988. 15:09:40 T:3752  NOTICE: Trakt Utilities: found Movie: u'EuroTrip' - IMDb ID: tt0356150
  1989. 15:09:40 T:3752  NOTICE: Trakt Utilities: found Movie: u'Event Horizon' - IMDb ID: tt0119081
  1990. 15:09:40 T:3752  NOTICE: Trakt Utilities: found Movie: u'Evolution' - IMDb ID: tt0251075
  1991. 15:09:40 T:3752  NOTICE: Trakt Utilities: found Movie: u'Eyes Wide Shut' - IMDb ID: tt0120663
  1992. 15:09:40 T:3752  NOTICE: Trakt Utilities: found Movie: u'Face/Off' - IMDb ID: tt0119094
  1993. 15:09:40 T:3752  NOTICE: Trakt Utilities: found Movie: u'Fallen' - IMDb ID: tt0119099
  1994. 15:09:40 T:3752  NOTICE: Trakt Utilities: found Movie: u'The Family Man' - IMDb ID: tt0218967
  1995. 15:09:40 T:3752  NOTICE: Trakt Utilities: found Movie: u'Fanboys' - IMDb ID: tt0489049
  1996. 15:09:40 T:3752  NOTICE: Trakt Utilities: found Movie: u'Fantasia' - IMDb ID: tt0032455
  1997. 15:09:40 T:3752  NOTICE: Trakt Utilities: found Movie: u'4: Rise of the Silver Surfer' - IMDb ID: tt0486576
  1998. 15:09:40 T:3752  NOTICE: Trakt Utilities: found Movie: u'Fantastic Mr. Fox' - IMDb ID: tt0432283
  1999. 15:09:40 T:3752  NOTICE: Trakt Utilities: found Movie: u'Fargo' - IMDb ID: tt0116282
  2000. 15:09:40 T:3752  NOTICE: Trakt Utilities: found Movie: u'Fast & Furious' - IMDb ID: tt1013752
  2001. 15:09:40 T:3752  NOTICE: Trakt Utilities: found Movie: u'The Fast and the Furious: Tokyo Drift' - IMDb ID: tt0463985
  2002. 15:09:40 T:3752  NOTICE: Trakt Utilities: found Movie: u'The Fast and the Furious' - IMDb ID: tt0232500
  2003. 15:09:40 T:3752  NOTICE: Trakt Utilities: found Movie: u'Fast Times at Ridgemont High' - IMDb ID: tt0083929
  2004. 15:09:40 T:3752  NOTICE: Trakt Utilities: found Movie: u'Father of the Bride' - IMDb ID: tt0101862
  2005. 15:09:40 T:3752  NOTICE: Trakt Utilities: found Movie: u'Father of the Bride Part II' - IMDb ID: tt0113041
  2006. 15:09:40 T:3752  NOTICE: Trakt Utilities: found Movie: u'Fear and Loathing in Las Vegas' - IMDb ID: tt0120669
  2007. 15:09:40 T:3752  NOTICE: Trakt Utilities: found Movie: u'Huo Yuan Jia' - IMDb ID: tt0446059
  2008. 15:09:40 T:3752  NOTICE: Trakt Utilities: found Movie: u'Felon' - IMDb ID: tt1117385
  2009. 15:09:40 T:3752  NOTICE: Trakt Utilities: found Movie: u'FernGully 2: The Magical Rescue' - IMDb ID: tt0129924
  2010. 15:09:40 T:3752  NOTICE: Trakt Utilities: found Movie: u'FernGully: The Last Rainforest' - IMDb ID: tt0104254
  2011. 15:09:40 T:3752  NOTICE: Trakt Utilities: found Movie: u"Ferris Bueller's Day Off" - IMDb ID: tt0091042
  2012. 15:09:40 T:3752  NOTICE: Trakt Utilities: found Movie: u'The Fifth Element' - IMDb ID: tt0119116
  2013. 15:09:40 T:3752  NOTICE: Trakt Utilities: found Movie: u'Fight Club' - IMDb ID: tt0137523
  2014. 15:09:40 T:3752  NOTICE: Trakt Utilities: found Movie: u'Final Destination' - IMDb ID: tt0195714
  2015. 15:09:40 T:3752  NOTICE: Trakt Utilities: found Movie: u'Final Destination 2' - IMDb ID: tt0309593
  2016. 15:09:40 T:3752  NOTICE: Trakt Utilities: found Movie: u'The Final Destination' - IMDb ID: tt1144884
  2017. 15:09:40 T:3752  NOTICE: Trakt Utilities: found Movie: u'Finding Forrester' - IMDb ID: tt0181536
  2018. 15:09:40 T:3752  NOTICE: Trakt Utilities: found Movie: u'Finding Nemo' - IMDb ID: tt0266543
  2019. 15:09:40 T:3752  NOTICE: Trakt Utilities: found Movie: u'Firewall' - IMDb ID: tt0408345
  2020. 15:09:40 T:3752  NOTICE: Trakt Utilities: found Movie: u'First Blood' - IMDb ID: tt0083944
  2021. 15:09:40 T:3752  NOTICE: Trakt Utilities: found Movie: u'The First Wives Club' - IMDb ID: tt0116313
  2022. 15:09:40 T:3752  NOTICE: Trakt Utilities: found Movie: u'Five Minutes of Heaven' - IMDb ID: tt1238291
  2023. 15:09:40 T:3752  NOTICE: Trakt Utilities: found Movie: u'Flash of Genius' - IMDb ID: tt1054588
  2024. 15:09:40 T:3752  NOTICE: Trakt Utilities: found Movie: u'Flight of the Navigator' - IMDb ID: tt0091059
  2025. 15:09:40 T:3752  NOTICE: Trakt Utilities: found Movie: u'Flubber' - IMDb ID: tt0119137
  2026. 15:09:40 T:3752  NOTICE: Trakt Utilities: found Movie: u'Airplane!' - IMDb ID: tt0080339
  2027. 15:09:40 T:3752  NOTICE: Trakt Utilities: found Movie: u'The Fog' - IMDb ID: tt0080749
  2028. 15:09:40 T:3752  NOTICE: Trakt Utilities: found Movie: u'The Forbidden Kingdom' - IMDb ID: tt0865556
  2029. 15:09:40 T:3752  NOTICE: Trakt Utilities: found Movie: u'Forgetting Sarah Marshall' - IMDb ID: tt0800039
  2030. 15:09:40 T:3752  NOTICE: Trakt Utilities: found Movie: u'The 51st State' - IMDb ID: tt0227984
  2031. 15:09:40 T:3752  NOTICE: Trakt Utilities: found Movie: u'Forrest Gump' - IMDb ID: tt0109830
  2032. 15:09:40 T:3752  NOTICE: Trakt Utilities: found Movie: u'The Fountain' - IMDb ID: tt0414993
  2033. 15:09:40 T:3752  NOTICE: Trakt Utilities: found Movie: u'The Fourth Kind' - IMDb ID: tt1220198
  2034. 15:09:40 T:3752  NOTICE: Trakt Utilities: found Movie: u'The Fox and the Hound' - IMDb ID: tt0082406
  2035. 15:09:40 T:3752  NOTICE: Trakt Utilities: found Movie: u'Fracture' - IMDb ID: tt0488120
  2036. 15:09:40 T:3752  NOTICE: Trakt Utilities: found Movie: u'Freaky Friday' - IMDb ID: tt0322330
  2037. 15:09:40 T:3752  NOTICE: Trakt Utilities: found Movie: u'Freddy Got Fingered' - IMDb ID: tt0240515
  2038. 15:09:40 T:3752  NOTICE: Trakt Utilities: found Movie: u'Free Willy' - IMDb ID: tt0106965
  2039. 15:09:40 T:3752  NOTICE: Trakt Utilities: found Movie: u'Frequently Asked Questions About Time Travel' - IMDb ID: tt0910554
  2040. 15:09:40 T:3752  NOTICE: Trakt Utilities: found Movie: u'Friday' - IMDb ID: tt0113118
  2041. 15:09:40 T:3752  NOTICE: Trakt Utilities: found Movie: u'Friday After Next' - IMDb ID: tt0293815
  2042. 15:09:40 T:3752  NOTICE: Trakt Utilities: found Movie: u'From Hell' - IMDb ID: tt0120681
  2043. 15:09:40 T:3752  NOTICE: Trakt Utilities: found Movie: u'The Fugitive' - IMDb ID: tt0106977
  2044. 15:09:40 T:3752  NOTICE: Trakt Utilities: found Movie: u'Full Metal Jacket' - IMDb ID: tt0093058
  2045. 15:09:40 T:3752  NOTICE: Trakt Utilities: found Movie: u'Galaxy Quest' - IMDb ID: tt0177789
  2046. 15:09:40 T:3752  NOTICE: Trakt Utilities: found Movie: u'Gallipoli' - IMDb ID: tt0082432
  2047. 15:09:40 T:3752  NOTICE: Trakt Utilities: found Movie: u'The Game' - IMDb ID: tt0119174
  2048. 15:09:40 T:3752  NOTICE: Trakt Utilities: found Movie: u'Gangs of New York' - IMDb ID: tt0217505
  2049. 15:09:40 T:3752  NOTICE: Trakt Utilities: found Movie: u'Gattaca' - IMDb ID: tt0119177
  2050. 15:09:40 T:3752  NOTICE: Trakt Utilities: found Movie: u'George of the Jungle' - IMDb ID: tt0119190
  2051. 15:09:40 T:3752  NOTICE: Trakt Utilities: found Movie: u'Ghost' - IMDb ID: tt0099653
  2052. 15:09:40 T:3752  NOTICE: Trakt Utilities: found Movie: u'Ghost Busters' - IMDb ID: tt0087332
  2053. 15:09:40 T:3752  NOTICE: Trakt Utilities: found Movie: u'Ghost Dad' - IMDb ID: tt0099654
  2054. 15:09:40 T:3752  NOTICE: Trakt Utilities: found Movie: u'Ghost Ship' - IMDb ID: tt0288477
  2055. 15:09:40 T:3752  NOTICE: Trakt Utilities: found Movie: u'Gladiator' - IMDb ID: tt0172495
  2056. 15:09:40 T:3752  NOTICE: Trakt Utilities: found Movie: u'Glory' - IMDb ID: tt0097441
  2057. 15:09:40 T:3752  NOTICE: Trakt Utilities: found Movie: u'The Godfather: Part II' - IMDb ID: tt0071562
  2058. 15:09:40 T:3752  NOTICE: Trakt Utilities: found Movie: u'The Godfather: Part III' - IMDb ID: tt0099674
  2059. 15:09:40 T:3752  NOTICE: Trakt Utilities: found Movie: u'The Godfather' - IMDb ID: tt0068646
  2060. 15:09:40 T:3752  NOTICE: Trakt Utilities: found Movie: u'Godzilla' - IMDb ID: tt0120685
  2061. 15:09:40 T:3752  NOTICE: Trakt Utilities: found Movie: u'Gone in Sixty Seconds' - IMDb ID: tt0187078
  2062. 15:09:40 T:3752  NOTICE: Trakt Utilities: found Movie: u'Good Burger' - IMDb ID: tt0119215
  2063. 15:09:40 T:3752  NOTICE: Trakt Utilities: found Movie: u'Good Luck Chuck' - IMDb ID: tt0452625
  2064. 15:09:40 T:3752  NOTICE: Trakt Utilities: found Movie: u'Good Will Hunting' - IMDb ID: tt0119217
  2065. 15:09:40 T:3752  NOTICE: Trakt Utilities: found Movie: u'Il buono, il brutto, il cattivo.' - IMDb ID: tt0060196
  2066. 15:09:40 T:3752  NOTICE: Trakt Utilities: found Movie: u'Goodfellas' - IMDb ID: tt0099685
  2067. 15:09:40 T:3752  NOTICE: Trakt Utilities: found Movie: u'The Goonies' - IMDb ID: tt0089218
  2068. 15:09:40 T:3752  NOTICE: Trakt Utilities: found Movie: u'Gothika' - IMDb ID: tt0348836
  2069. 15:09:40 T:3752  NOTICE: Trakt Utilities: found Movie: u'Gran Torino' - IMDb ID: tt1205489
  2070. 15:09:40 T:3752  NOTICE: Trakt Utilities: found Movie: u'Grease' - IMDb ID: tt0077631
  2071. 15:09:40 T:3752  NOTICE: Trakt Utilities: found Movie: u'Grease 2' - IMDb ID: tt0084021
  2072. 15:09:40 T:3752  NOTICE: Trakt Utilities: found Movie: u'The Great Mouse Detective' - IMDb ID: tt0091149
  2073. 15:09:40 T:3752  NOTICE: Trakt Utilities: found Movie: u'The Green Mile' - IMDb ID: tt0120689
  2074. 15:09:40 T:3752  NOTICE: Trakt Utilities: found Movie: u'Groundhog Day' - IMDb ID: tt0107048
  2075. 15:09:40 T:3752  NOTICE: Trakt Utilities: found Movie: u"Gulliver's Travels" - IMDb ID: tt0115195
  2076. 15:09:40 T:3752  NOTICE: Trakt Utilities: found Movie: u'Hackers' - IMDb ID: tt0113243
  2077. 15:09:40 T:3752  NOTICE: Trakt Utilities: found Movie: u'Haggard: The Movie' - IMDb ID: tt0298656
  2078. 15:09:40 T:3752  NOTICE: Trakt Utilities: found Movie: u'Hairspray' - IMDb ID: tt0427327
  2079. 15:09:40 T:3752  NOTICE: Trakt Utilities: found Movie: u'Hancock' - IMDb ID: tt0448157
  2080. 15:09:40 T:3752  NOTICE: Trakt Utilities: found Movie: u'The Hangover' - IMDb ID: tt1119646
  2081. 15:09:40 T:3752  NOTICE: Trakt Utilities: found Movie: u'Hannibal' - IMDb ID: tt0212985
  2082. 15:09:40 T:3752  NOTICE: Trakt Utilities: found Movie: u'Hannibal Rising' - IMDb ID: tt0367959
  2083. 15:09:40 T:3752  NOTICE: Trakt Utilities: found Movie: u'Happy Gilmore' - IMDb ID: tt0116483
  2084. 15:09:40 T:3752  NOTICE: Trakt Utilities: found Movie: u'The Harimaya Bridge' - IMDb ID: tt0902982
  2085. 15:09:40 T:3752  NOTICE: Trakt Utilities: found Movie: u'Harold & Kumar Escape from Guantanamo Bay' - IMDb ID: tt0481536
  2086. 15:09:40 T:3752  NOTICE: Trakt Utilities: found Movie: u'Harold & Kumar Go to White Castle' - IMDb ID: tt0366551
  2087. 15:09:40 T:3752  NOTICE: Trakt Utilities: found Movie: u'Harry and the Hendersons' - IMDb ID: tt0093148
  2088. 15:09:40 T:3752  NOTICE: Trakt Utilities: found Movie: u'Harry Brown' - IMDb ID: tt1289406
  2089. 15:09:40 T:3752  NOTICE: Trakt Utilities: found Movie: u'Harry Potter and the Chamber of Secrets' - IMDb ID: tt0295297
  2090. 15:09:40 T:3752  NOTICE: Trakt Utilities: found Movie: u'Harry Potter and the Goblet of Fire' - IMDb ID: tt0330373
  2091. 15:09:40 T:3752  NOTICE: Trakt Utilities: found Movie: u'Harry Potter and the Half-Blood Prince' - IMDb ID: tt0417741
  2092. 15:09:40 T:3752  NOTICE: Trakt Utilities: found Movie: u'Harry Potter and the Order of the Phoenix' - IMDb ID: tt0373889
  2093. 15:09:40 T:3752  NOTICE: Trakt Utilities: found Movie: u'Harry Potter and the Prisoner of Azkaban' - IMDb ID: tt0304141
  2094. 15:09:40 T:3752  NOTICE: Trakt Utilities: found Movie: u"Harry Potter and the Sorcerer's Stone" - IMDb ID: tt0241527
  2095. 15:09:40 T:3752  NOTICE: Trakt Utilities: found Movie: u'Heist' - IMDb ID: tt0252503
  2096. 15:09:40 T:3752  NOTICE: Trakt Utilities: found Movie: u'Hellboy' - IMDb ID: tt0167190
  2097. 15:09:40 T:3752  NOTICE: Trakt Utilities: found Movie: u'Hellboy II: The Golden Army' - IMDb ID: tt0411477
  2098. 15:09:40 T:3752  NOTICE: Trakt Utilities: found Movie: u'Herbie Rides Again' - IMDb ID: tt0071607
  2099. 15:09:40 T:3752  NOTICE: Trakt Utilities: found Movie: u'Hercules' - IMDb ID: tt0119282
  2100. 15:09:40 T:3752  NOTICE: Trakt Utilities: found Movie: u'High Fidelity' - IMDb ID: tt0146882
  2101. 15:09:40 T:3752  NOTICE: Trakt Utilities: found Movie: u"The Hitchhiker's Guide to the Galaxy" - IMDb ID: tt0371724
  2102. 15:09:40 T:3752  NOTICE: Trakt Utilities: found Movie: u'Hitman' - IMDb ID: tt0465494
  2103. 15:09:40 T:3752  NOTICE: Trakt Utilities: found Movie: u'The Holiday' - IMDb ID: tt0457939
  2104. 15:09:40 T:3752  NOTICE: Trakt Utilities: found Movie: u'Home Alone' - IMDb ID: tt0099785
  2105. 15:09:40 T:3752  NOTICE: Trakt Utilities: found Movie: u'Home Alone 2: Lost in New York' - IMDb ID: tt0104431
  2106. 15:09:40 T:3752  NOTICE: Trakt Utilities: found Movie: u'Homeward Bound: The Incredible Journey' - IMDb ID: tt0107131
  2107. 15:09:40 T:3752  NOTICE: Trakt Utilities: found Movie: u'Honey I Blew Up the Kid' - IMDb ID: tt0104437
  2108. 15:09:40 T:3752  NOTICE: Trakt Utilities: found Movie: u'Honey, I Shrunk the Kids' - IMDb ID: tt0097523
  2109. 15:09:40 T:3752  NOTICE: Trakt Utilities: found Movie: u'Hoodwinked!' - IMDb ID: tt0443536
  2110. 15:09:40 T:3752  NOTICE: Trakt Utilities: found Movie: u'Hook' - IMDb ID: tt0102057
  2111. 15:09:40 T:3752  NOTICE: Trakt Utilities: found Movie: u'Horton Hears a Who!' - IMDb ID: tt0451079
  2112. 15:09:40 T:3752  NOTICE: Trakt Utilities: found Movie: u'Hostage' - IMDb ID: tt0340163
  2113. 15:09:40 T:3752  NOTICE: Trakt Utilities: found Movie: u'Hot Fuzz' - IMDb ID: tt0425112
  2114. 15:09:40 T:3752  NOTICE: Trakt Utilities: found Movie: u'Hot Rod' - IMDb ID: tt0787475
  2115. 15:09:40 T:3752  NOTICE: Trakt Utilities: found Movie: u'How High' - IMDb ID: tt0278488
  2116. 15:09:40 T:3752  NOTICE: Trakt Utilities: found Movie: u'How the Grinch Stole Christmas' - IMDb ID: tt0170016
  2117. 15:09:40 T:3752  NOTICE: Trakt Utilities: found Movie: u'How to Lose a Guy in 10 Days' - IMDb ID: tt0251127
  2118. 15:09:40 T:3752  NOTICE: Trakt Utilities: found Movie: u'The Hunchback of Notre Dame' - IMDb ID: tt0116583
  2119. 15:09:40 T:3752  NOTICE: Trakt Utilities: found Movie: u'The Hunt for Red October' - IMDb ID: tt0099810
  2120. 15:09:40 T:3752  NOTICE: Trakt Utilities: found Movie: u'The Hurt Locker' - IMDb ID: tt0887912
  2121. 15:09:40 T:3752  NOTICE: Trakt Utilities: found Movie: u"I'll Be Home for Christmas" - IMDb ID: tt0155753
  2122. 15:09:40 T:3752  NOTICE: Trakt Utilities: found Movie: u'I Am Legend' - IMDb ID: tt0480249
  2123. 15:09:40 T:3752  NOTICE: Trakt Utilities: found Movie: u'I Love You, Man' - IMDb ID: tt1155056
  2124. 15:09:40 T:3752  NOTICE: Trakt Utilities: found Movie: u'I Now Pronounce You Chuck & Larry' - IMDb ID: tt0762107
  2125. 15:09:40 T:3752  NOTICE: Trakt Utilities: found Movie: u'I, Robot' - IMDb ID: tt0343818
  2126. 15:09:40 T:3752  NOTICE: Trakt Utilities: found Movie: u'Ice Age: Dawn of the Dinosaurs' - IMDb ID: tt1080016
  2127. 15:09:40 T:3752  NOTICE: Trakt Utilities: found Movie: u'Ice Age' - IMDb ID: tt0268380
  2128. 15:09:40 T:3752  NOTICE: Trakt Utilities: found Movie: u'Identity' - IMDb ID: tt0309698
  2129. 15:09:40 T:3752  NOTICE: Trakt Utilities: found Movie: u'The Illusionist' - IMDb ID: tt0443543
  2130. 15:09:40 T:3752  NOTICE: Trakt Utilities: found Movie: u'The Imaginarium of Doctor Parnassus' - IMDb ID: tt1054606
  2131. 15:09:40 T:3752  NOTICE: Trakt Utilities: found Movie: u'In the Line of Fire' - IMDb ID: tt0107206
  2132. 15:09:40 T:3752  NOTICE: Trakt Utilities: found Movie: u'The Incredibles' - IMDb ID: tt0317705
  2133. 15:09:40 T:3752  NOTICE: Trakt Utilities: found Movie: u'Independence Day' - IMDb ID: tt0116629
  2134. 15:09:40 T:3752  NOTICE: Trakt Utilities: found Movie: u'The Indian in the Cupboard' - IMDb ID: tt0113419
  2135. 15:09:40 T:3752  NOTICE: Trakt Utilities: found Movie: u'Indiana Jones and the Kingdom of the Crystal Skull' - IMDb ID: tt0367882
  2136. 15:09:40 T:3752  NOTICE: Trakt Utilities: found Movie: u'Indiana Jones and the Last Crusade' - IMDb ID: tt0097576
  2137. 15:09:40 T:3752  NOTICE: Trakt Utilities: found Movie: u'Raiders of the Lost Ark' - IMDb ID: tt0082971
  2138. 15:09:40 T:3752  NOTICE: Trakt Utilities: found Movie: u'Indiana Jones and the Temple of Doom' - IMDb ID: tt0087469
  2139. 15:09:40 T:3752  NOTICE: Trakt Utilities: found Movie: u'Mou gaan dou' - IMDb ID: tt0338564
  2140. 15:09:40 T:3752  NOTICE: Trakt Utilities: found Movie: u'Inglourious Basterds' - IMDb ID: tt0361748
  2141. 15:09:40 T:3752  NOTICE: Trakt Utilities: found Movie: u'Inside Man' - IMDb ID: tt0454848
  2142. 15:09:40 T:3752  NOTICE: Trakt Utilities: found Movie: u'Insomnia' - IMDb ID: tt0278504
  2143. 15:09:40 T:3752  NOTICE: Trakt Utilities: found Movie: u'Inspector Gadget' - IMDb ID: tt0141369
  2144. 15:09:40 T:3752  NOTICE: Trakt Utilities: found Movie: u'The Invention of Lying' - IMDb ID: tt1058017
  2145. 15:09:40 T:3752  NOTICE: Trakt Utilities: found Movie: u'Invictus' - IMDb ID: tt1057500
  2146. 15:09:40 T:3752  NOTICE: Trakt Utilities: found Movie: u'The Iron Giant' - IMDb ID: tt0129167
  2147. 15:09:40 T:3752  NOTICE: Trakt Utilities: found Movie: u'Iron Man' - IMDb ID: tt0371746
  2148. 15:09:40 T:3752  NOTICE: Trakt Utilities: found Movie: u'The Island' - IMDb ID: tt0399201
  2149. 15:09:40 T:3752  NOTICE: Trakt Utilities: found Movie: u"It's Complicated" - IMDb ID: tt1230414
  2150. 15:09:40 T:3752  NOTICE: Trakt Utilities: found Movie: u'The Italian Job' - IMDb ID: tt0317740
  2151. 15:09:40 T:3752  NOTICE: Trakt Utilities: found Movie: u'The Jackal' - IMDb ID: tt0119395
  2152. 15:09:40 T:3752  NOTICE: Trakt Utilities: found Movie: u'Jackie Brown' - IMDb ID: tt0119396
  2153. 15:09:40 T:3752  NOTICE: Trakt Utilities: found Movie: u'James and the Giant Peach' - IMDb ID: tt0116683
  2154. 15:09:40 T:3752  NOTICE: Trakt Utilities: found Movie: u'Jarhead' - IMDb ID: tt0418763
  2155. 15:09:40 T:3752  NOTICE: Trakt Utilities: found Movie: u'Jaws' - IMDb ID: tt0073195
  2156. 15:09:40 T:3752  NOTICE: Trakt Utilities: found Movie: u'Jay and Silent Bob Strike Back' - IMDb ID: tt0261392
  2157. 15:09:40 T:3752  NOTICE: Trakt Utilities: found Movie: u'Jerry Maguire' - IMDb ID: tt0116695
  2158. 15:09:40 T:3752  NOTICE: Trakt Utilities: found Movie: u'The Jewel of the Nile' - IMDb ID: tt0089370
  2159. 15:09:40 T:3752  NOTICE: Trakt Utilities: found Movie: u'Jingle All the Way' - IMDb ID: tt0116705
  2160. 15:09:40 T:3752  NOTICE: Trakt Utilities: found Movie: u'Joe Dirt' - IMDb ID: tt0245686
  2161. 15:09:40 T:3752  NOTICE: Trakt Utilities: found Movie: u'John Q' - IMDb ID: tt0251160
  2162. 15:09:40 T:3752  NOTICE: Trakt Utilities: found Movie: u'Jumanji' - IMDb ID: tt0113497
  2163. 15:09:40 T:3752  NOTICE: Trakt Utilities: found Movie: u'Jumper' - IMDb ID: tt0489099
  2164. 15:09:40 T:3752  NOTICE: Trakt Utilities: found Movie: u'Jungle 2 Jungle' - IMDb ID: tt0119432
  2165. 15:09:40 T:3752  NOTICE: Trakt Utilities: found Movie: u'The Jungle Book 2' - IMDb ID: tt0283426
  2166. 15:09:40 T:3752  NOTICE: Trakt Utilities: found Movie: u'The Jungle Book' - IMDb ID: tt0061852
  2167. 15:09:40 T:3752  NOTICE: Trakt Utilities: found Movie: u'Jurassic Park' - IMDb ID: tt0107290
  2168. 15:09:40 T:3752  NOTICE: Trakt Utilities: found Movie: u'Jurassic Park III' - IMDb ID: tt0163025
  2169. 15:09:40 T:3752  NOTICE: Trakt Utilities: found Movie: u'K-PAX' - IMDb ID: tt0272152
  2170. 15:09:40 T:3752  NOTICE: Trakt Utilities: found Movie: u'The Karate Kid, Part II' - IMDb ID: tt0091326
  2171. 15:09:40 T:3752  NOTICE: Trakt Utilities: found Movie: u'The Karate Kid, Part III' - IMDb ID: tt0097647
  2172. 15:09:40 T:3752  NOTICE: Trakt Utilities: found Movie: u'The Karate Kid' - IMDb ID: tt0087538
  2173. 15:09:40 T:3752  NOTICE: Trakt Utilities: found Movie: u'Kill Bill: Vol. 1' - IMDb ID: tt0266697
  2174. 15:09:40 T:3752  NOTICE: Trakt Utilities: found Movie: u'Kill Bill: Vol. 2' - IMDb ID: tt0378194
  2175. 15:09:40 T:3752  NOTICE: Trakt Utilities: found Movie: u'King Kong' - IMDb ID: tt0360717
  2176. 15:09:40 T:3752  NOTICE: Trakt Utilities: found Movie: u'Kingdom of Heaven' - IMDb ID: tt0320661
  2177. 15:09:40 T:3752  NOTICE: Trakt Utilities: found Movie: u'Kiss Kiss Bang Bang' - IMDb ID: tt0373469
  2178. 15:09:40 T:3752  NOTICE: Trakt Utilities: found Movie: u'Knocked Up' - IMDb ID: tt0478311
  2179. 15:09:40 T:3752  NOTICE: Trakt Utilities: found Movie: u'Knowing' - IMDb ID: tt0448011
  2180. 15:09:40 T:3752  NOTICE: Trakt Utilities: found Movie: u'Kung Fu Panda' - IMDb ID: tt0441773
  2181. 15:09:40 T:3752  NOTICE: Trakt Utilities: found Movie: u'Kung Pow: Enter the Fist' - IMDb ID: tt0240468
  2182. 15:09:40 T:3752  NOTICE: Trakt Utilities: found Movie: u'L.A. Confidential' - IMDb ID: tt0119488
  2183. 15:09:40 T:3752  NOTICE: Trakt Utilities: found Movie: u'Lady and the Tramp' - IMDb ID: tt0048280
  2184. 15:09:40 T:3752  NOTICE: Trakt Utilities: found Movie: u'Lady Killers' - IMDb ID: tt0376717
  2185. 15:09:40 T:3752  NOTICE: Trakt Utilities: found Movie: u'The Land Before Time II: The Great Valley Adventure' - IMDb ID: tt0110300
  2186. 15:09:40 T:3752  NOTICE: Trakt Utilities: found Movie: u'The Land Before Time III: The Time of the Great Giving' - IMDb ID: tt0113596
  2187. 15:09:40 T:3752  NOTICE: Trakt Utilities: found Movie: u'The Land Before Time IV: Journey Through the Mists' - IMDb ID: tt0116817
  2188. 15:09:40 T:3752  NOTICE: Trakt Utilities: found Movie: u'The Land Before Time IX: Journey to the Big Water' - IMDb ID: tt0345543
  2189. 15:09:40 T:3752  NOTICE: Trakt Utilities: found Movie: u'The Land Before Time V: The Mysterious Island' - IMDb ID: tt0123950
  2190. 15:09:40 T:3752  NOTICE: Trakt Utilities: found Movie: u'The Land Before Time VI: The Secret of Saurus Rock' - IMDb ID: tt0167247
  2191. 15:09:40 T:3752  NOTICE: Trakt Utilities: found Movie: u'The Land Before Time VII: The Stone of Cold Fire' - IMDb ID: tt0267657
  2192. 15:09:40 T:3752  NOTICE: Trakt Utilities: found Movie: u'The Land Before Time VIII: The Big Freeze' - IMDb ID: tt0301526
  2193. 15:09:40 T:3752  NOTICE: Trakt Utilities: found Movie: u'The Land Before Time X: The Great Longneck Migration' - IMDb ID: tt0378230
  2194. 15:09:40 T:3752  NOTICE: Trakt Utilities: found Movie: u'The Land Before Time XI: Invasion of the Tinysauruses' - IMDb ID: tt0424228
  2195. 15:09:40 T:3752  NOTICE: Trakt Utilities: found Movie: u'The Land Before Time XII: The Great Day of the Flyers' - IMDb ID: tt0933064
  2196. 15:09:40 T:3752  NOTICE: Trakt Utilities: found Movie: u'The Land Before Time' - IMDb ID: tt0095489
  2197. 15:09:40 T:3752  NOTICE: Trakt Utilities: found Movie: u'Lara Croft: Tomb Raider' - IMDb ID: tt0146316
  2198. 15:09:40 T:3752  NOTICE: Trakt Utilities: found Movie: u'Lara Croft Tomb Raider: The Cradle of Life' - IMDb ID: tt0325703
  2199. 15:09:40 T:3752  NOTICE: Trakt Utilities: found Movie: u'Lassie' - IMDb ID: tt0431213
  2200. 15:09:40 T:3752  NOTICE: Trakt Utilities: found Movie: u'Last Action Hero' - IMDb ID: tt0107362
  2201. 15:09:40 T:3752  NOTICE: Trakt Utilities: found Movie: u'Last Man Standing' - IMDb ID: tt0116830
  2202. 15:09:40 T:3752  NOTICE: Trakt Utilities: found Movie: u'The Last Samurai' - IMDb ID: tt0325710
  2203. 15:09:40 T:3752  NOTICE: Trakt Utilities: found Movie: u'The Last Starfighter' - IMDb ID: tt0087597
  2204. 15:09:40 T:3752  NOTICE: Trakt Utilities: found Movie: u'Law Abiding Citizen' - IMDb ID: tt1197624
  2205. 15:09:40 T:3752  NOTICE: Trakt Utilities: found Movie: u'The Lawnmower Man' - IMDb ID: tt0104692
  2206. 15:09:40 T:3752  NOTICE: Trakt Utilities: found Movie: u'Layer Cake' - IMDb ID: tt0375912
  2207. 15:09:40 T:3752  NOTICE: Trakt Utilities: found Movie: u'Leaves of Grass' - IMDb ID: tt1151359
  2208. 15:09:40 T:3752  NOTICE: Trakt Utilities: found Movie: u'The Legend of Bagger Vance' - IMDb ID: tt0146984
  2209. 15:09:40 T:3752  NOTICE: Trakt Utilities: found Movie: u'Legends of the Fall' - IMDb ID: tt0110322
  2210. 15:09:40 T:3752  NOTICE: Trakt Utilities: found Movie: u"Lemony Snicket's A Series of Unfortunate Events" - IMDb ID: tt0339291
  2211. 15:09:40 T:3752  NOTICE: Trakt Utilities: found Movie: u'' - IMDb ID: tt0110413
  2212. 15:09:40 T:3752  NOTICE: Trakt Utilities: found Movie: u'Lethal Weapon' - IMDb ID: tt0093409
  2213. 15:09:40 T:3752  NOTICE: Trakt Utilities: found Movie: u'Lethal Weapon 2' - IMDb ID: tt0097733
  2214. 15:09:40 T:3752  NOTICE: Trakt Utilities: found Movie: u'Lethal Weapon 3' - IMDb ID: tt0104714
  2215. 15:09:40 T:3752  NOTICE: Trakt Utilities: found Movie: u'Lethal Weapon 4' - IMDb ID: tt0122151
  2216. 15:09:40 T:3752  NOTICE: Trakt Utilities: found Movie: u'Letters from Iwo Jima' - IMDb ID: tt0498380
  2217. 15:09:40 T:3752  NOTICE: Trakt Utilities: found Movie: u'The Life Aquatic with Steve Zissou' - IMDb ID: tt0362270
  2218. 15:09:40 T:3752  NOTICE: Trakt Utilities: found Movie: u'Life Is Beautiful' - IMDb ID: tt1758690
  2219. 15:09:40 T:3752  NOTICE: Trakt Utilities: found Movie: u'Life of Brian' - IMDb ID: tt0079470
  2220. 15:09:40 T:3752  NOTICE: Trakt Utilities: found Movie: u'Lilo & Stitch' - IMDb ID: tt0275847
  2221. 15:09:40 T:3752  NOTICE: Trakt Utilities: found Movie: u'The Lion King 1\xbd' - IMDb ID: tt0318403
  2222. 15:09:40 T:3752  NOTICE: Trakt Utilities: found Movie: u"The Lion King II: Simba's Pride" - IMDb ID: tt0120131
  2223. 15:09:40 T:3752  NOTICE: Trakt Utilities: found Movie: u'The Lion King' - IMDb ID: tt0110357
  2224. 15:09:40 T:3752  NOTICE: Trakt Utilities: found Movie: u"The Little Mermaid: Ariel's Beginning" - IMDb ID: tt0969647
  2225. 15:09:40 T:3752  NOTICE: Trakt Utilities: found Movie: u'The Little Mermaid' - IMDb ID: tt0097757
  2226. 15:09:40 T:3752  NOTICE: Trakt Utilities: found Movie: u'Little Nicky' - IMDb ID: tt0185431
  2227. 15:09:40 T:3752  NOTICE: Trakt Utilities: found Movie: u'The Little Rascals' - IMDb ID: tt0110366
  2228. 15:09:40 T:3752  NOTICE: Trakt Utilities: found Movie: u'Lock, Stock and Two Smoking Barrels' - IMDb ID: tt0120735
  2229. 15:09:40 T:3752  NOTICE: Trakt Utilities: found Movie: u'The Longest Yard' - IMDb ID: tt0398165
  2230. 15:09:40 T:3752  NOTICE: Trakt Utilities: found Movie: u"Look Who's Talking" - IMDb ID: tt0097778
  2231. 15:09:40 T:3752  NOTICE: Trakt Utilities: found Movie: u"Look Who's Talking Now" - IMDb ID: tt0107438
  2232. 15:09:40 T:3752  NOTICE: Trakt Utilities: found Movie: u"Look Who's Talking Too" - IMDb ID: tt0100050
  2233. 15:09:40 T:3752  NOTICE: Trakt Utilities: found Movie: u'The Lookout' - IMDb ID: tt0427470
  2234. 15:09:40 T:3752  NOTICE: Trakt Utilities: found Movie: u'The Lord of the Rings: The Return of the King' - IMDb ID: tt0167260
  2235. 15:09:40 T:3752  NOTICE: Trakt Utilities: found Movie: u'The Lord of the Rings: The Fellowship of the Ring' - IMDb ID: tt0120737
  2236. 15:09:40 T:3752  NOTICE: Trakt Utilities: found Movie: u'The Lord of the Rings: The Two Towers' - IMDb ID: tt0167261
  2237. 15:09:40 T:3752  NOTICE: Trakt Utilities: found Movie: u'Lord of War' - IMDb ID: tt0399295
  2238. 15:09:40 T:3752  NOTICE: Trakt Utilities: found Movie: u'Lords of Dogtown' - IMDb ID: tt0355702
  2239. 15:09:40 T:3752  NOTICE: Trakt Utilities: found Movie: u'Lost Boys: The Tribe' - IMDb ID: tt1031254
  2240. 15:09:40 T:3752  NOTICE: Trakt Utilities: found Movie: u'The Lost Boys' - IMDb ID: tt0093437
  2241. 15:09:40 T:3752  NOTICE: Trakt Utilities: found Movie: u'Lost in Space' - IMDb ID: tt0120738
  2242. 15:09:40 T:3752  NOTICE: Trakt Utilities: found Movie: u'The Lost World: Jurassic Park' - IMDb ID: tt0119567
  2243. 15:09:40 T:3752  NOTICE: Trakt Utilities: found Movie: u'Love Actually' - IMDb ID: tt0314331
  2244. 15:09:40 T:3752  NOTICE: Trakt Utilities: found Movie: u'The Love Bug' - IMDb ID: tt0064603
  2245. 15:09:40 T:3752  NOTICE: Trakt Utilities: found Movie: u'The Love Guru' - IMDb ID: tt0811138
  2246. 15:09:40 T:3752  NOTICE: Trakt Utilities: found Movie: u'Lucky Number Slevin' - IMDb ID: tt0425210
  2247. 15:09:40 T:3752  NOTICE: Trakt Utilities: found Movie: u'The Machinist' - IMDb ID: tt0361862
  2248. 15:09:40 T:3752  NOTICE: Trakt Utilities: found Movie: u'Mad Max' - IMDb ID: tt0079501
  2249. 15:09:40 T:3752  NOTICE: Trakt Utilities: found Movie: u'Mad Max 2' - IMDb ID: tt0082694
  2250. 15:09:40 T:3752  NOTICE: Trakt Utilities: found Movie: u'Madagascar' - IMDb ID: tt0351283
  2251. 15:09:40 T:3752  NOTICE: Trakt Utilities: found Movie: u'Madagascar: Escape 2 Africa' - IMDb ID: tt0479952
  2252. 15:09:40 T:3752  NOTICE: Trakt Utilities: found Movie: u'Maid in Manhattan' - IMDb ID: tt0252076
  2253. 15:09:40 T:3752  NOTICE: Trakt Utilities: found Movie: u'Major Payne' - IMDb ID: tt0110443
  2254. 15:09:40 T:3752  NOTICE: Trakt Utilities: found Movie: u'The Man from Earth' - IMDb ID: tt0756683
  2255. 15:09:40 T:3752  NOTICE: Trakt Utilities: found Movie: u'Man of the House' - IMDb ID: tt0113755
  2256. 15:09:40 T:3752  NOTICE: Trakt Utilities: found Movie: u'Man of the Year' - IMDb ID: tt0483726
  2257. 15:09:40 T:3752  NOTICE: Trakt Utilities: found Movie: u'Man on Fire' - IMDb ID: tt0328107
  2258. 15:09:40 T:3752  NOTICE: Trakt Utilities: found Movie: u'The Manchurian Candidate' - IMDb ID: tt0368008
  2259. 15:09:40 T:3752  NOTICE: Trakt Utilities: found Movie: u'Manhunter' - IMDb ID: tt0091474
  2260. 15:09:40 T:3752  NOTICE: Trakt Utilities: found Movie: u'Marley & Me' - IMDb ID: tt0822832
  2261. 15:09:40 T:3752  NOTICE: Trakt Utilities: found Movie: u'Mary Poppins' - IMDb ID: tt0058331
  2262. 15:09:40 T:3752  NOTICE: Trakt Utilities: found Movie: u'The Mask' - IMDb ID: tt0110475
  2263. 15:09:40 T:3752  NOTICE: Trakt Utilities: found Movie: u'Matchstick Men' - IMDb ID: tt0325805
  2264. 15:09:40 T:3752  NOTICE: Trakt Utilities: found Movie: u'Matilda' - IMDb ID: tt0117008
  2265. 15:09:40 T:3752  NOTICE: Trakt Utilities: found Movie: u'The Matrix Reloaded' - IMDb ID: tt0234215
  2266. 15:09:40 T:3752  NOTICE: Trakt Utilities: found Movie: u'The Matrix Revolutions' - IMDb ID: tt0242653
  2267. 15:09:40 T:3752  NOTICE: Trakt Utilities: found Movie: u'The Matrix' - IMDb ID: tt0133093
  2268. 15:09:40 T:3752  NOTICE: Trakt Utilities: found Movie: u'Me, Myself & Irene' - IMDb ID: tt0183505
  2269. 15:09:40 T:3752  NOTICE: Trakt Utilities: found Movie: u'Mean Machine' - IMDb ID: tt0291341
  2270. 15:09:40 T:3752  NOTICE: Trakt Utilities: found Movie: u'The Medallion' - IMDb ID: tt0288045
  2271. 15:09:40 T:3752  NOTICE: Trakt Utilities: found Movie: u'Meet the Fockers' - IMDb ID: tt0290002
  2272. 15:09:40 T:3752  NOTICE: Trakt Utilities: found Movie: u'Meet the Robinsons' - IMDb ID: tt0396555
  2273. 15:09:40 T:3752  NOTICE: Trakt Utilities: found Movie: u'Memento' - IMDb ID: tt0209144
  2274. 15:09:40 T:3752  NOTICE: Trakt Utilities: found Movie: u'Men at Work' - IMDb ID: tt0100135
  2275. 15:09:40 T:3752  NOTICE: Trakt Utilities: found Movie: u'Men in Black' - IMDb ID: tt0119654
  2276. 15:09:40 T:3752  NOTICE: Trakt Utilities: found Movie: u'Men in Black II' - IMDb ID: tt0120912
  2277. 15:09:40 T:3752  NOTICE: Trakt Utilities: found Movie: u'Men of Honor' - IMDb ID: tt0203019
  2278. 15:09:40 T:3752  NOTICE: Trakt Utilities: found Movie: u'Mercury Rising' - IMDb ID: tt0120749
  2279. 15:09:40 T:3752  NOTICE: Trakt Utilities: found Movie: u'The Mighty Ducks' - IMDb ID: tt0104868
  2280. 15:09:40 T:3752  NOTICE: Trakt Utilities: found Movie: u"Miller's Crossing" - IMDb ID: tt0100150
  2281. 15:09:40 T:3752  NOTICE: Trakt Utilities: found Movie: u'Minority Report' - IMDb ID: tt0181689
  2282. 15:09:40 T:3752  NOTICE: Trakt Utilities: found Movie: u'Miracle on 34th Street' - IMDb ID: tt0039628
  2283. 15:09:40 T:3752  NOTICE: Trakt Utilities: found Movie: u'Mission: Impossible' - IMDb ID: tt0117060
  2284. 15:09:40 T:3752  NOTICE: Trakt Utilities: found Movie: u'Mission: Impossible III' - IMDb ID: tt0317919
  2285. 15:09:40 T:3752  NOTICE: Trakt Utilities: found Movie: u'The Mist' - IMDb ID: tt0884328
  2286. 15:09:40 T:3752  NOTICE: Trakt Utilities: found Movie: u'Money Talks' - IMDb ID: tt0119695
  2287. 15:09:40 T:3752  NOTICE: Trakt Utilities: found Movie: u'The Monster Squad' - IMDb ID: tt0093560
  2288. 15:09:40 T:3752  NOTICE: Trakt Utilities: found Movie: u'Monsters, Inc.' - IMDb ID: tt0198781
  2289. 15:09:40 T:3752  NOTICE: Trakt Utilities: found Movie: u'The Meaning of Life' - IMDb ID: tt0085959
  2290. 15:09:40 T:3752  NOTICE: Trakt Utilities: found Movie: u'Monty Python and the Holy Grail' - IMDb ID: tt0071853
  2291. 15:09:40 T:3752  NOTICE: Trakt Utilities: found Movie: u'Moon' - IMDb ID: tt1182345
  2292. 15:09:40 T:3752  NOTICE: Trakt Utilities: found Movie: u'Mousehunt' - IMDb ID: tt0119715
  2293. 15:09:40 T:3752  NOTICE: Trakt Utilities: found Movie: u'Mr. & Mrs. Smith' - IMDb ID: tt0356910
  2294. 15:09:40 T:3752  NOTICE: Trakt Utilities: found Movie: u'Mr. Deeds' - IMDb ID: tt0280590
  2295. 15:09:40 T:3752  NOTICE: Trakt Utilities: found Movie: u"Mr. Magorium's Wonder Emporium" - IMDb ID: tt0457419
  2296. 15:09:40 T:3752  NOTICE: Trakt Utilities: found Movie: u'Mr. Nanny' - IMDb ID: tt0107612
  2297. 15:09:40 T:3752  NOTICE: Trakt Utilities: found Movie: u'Mr. Nobody' - IMDb ID: tt0485947
  2298. 15:09:40 T:3752  NOTICE: Trakt Utilities: found Movie: u'Mr. Woodcock' - IMDb ID: tt0419984
  2299. 15:09:40 T:3752  NOTICE: Trakt Utilities: found Movie: u'Mulholland Dr.' - IMDb ID: tt0166924
  2300. 15:09:40 T:3752  NOTICE: Trakt Utilities: found Movie: u'Mulan' - IMDb ID: tt0120762
  2301. 15:09:40 T:3752  NOTICE: Trakt Utilities: found Movie: u'Mulan II' - IMDb ID: tt0279967
  2302. 15:09:40 T:3752  NOTICE: Trakt Utilities: found Movie: u'The Mummy Returns' - IMDb ID: tt0209163
  2303. 15:09:40 T:3752  NOTICE: Trakt Utilities: found Movie: u'The Mummy: Tomb of the Dragon Emperor' - IMDb ID: tt0859163
  2304. 15:09:40 T:3752  NOTICE: Trakt Utilities: found Movie: u'The Mummy' - IMDb ID: tt0120616
  2305. 15:09:40 T:3752  NOTICE: Trakt Utilities: found Movie: u'The Muppet Christmas Carol' - IMDb ID: tt0104940
  2306. 15:09:40 T:3752  NOTICE: Trakt Utilities: found Movie: u'Muppet Treasure Island' - IMDb ID: tt0117110
  2307. 15:09:40 T:3752  NOTICE: Trakt Utilities: found Movie: u'Muppets from Space' - IMDb ID: tt0158811
  2308. 15:09:40 T:3752  NOTICE: Trakt Utilities: found Movie: u'My Big Fat Greek Wedding' - IMDb ID: tt0259446
  2309. 15:09:40 T:3752  NOTICE: Trakt Utilities: found Movie: u'My Fair Lady' - IMDb ID: tt0058385
  2310. 15:09:40 T:3752  NOTICE: Trakt Utilities: found Movie: u'The Naked Gun 2\xbd: The Smell of Fear' - IMDb ID: tt0102510
  2311. 15:09:40 T:3752  NOTICE: Trakt Utilities: found Movie: u'Naked Gun 33 1/3: The Final Insult' - IMDb ID: tt0110622
  2312. 15:09:40 T:3752  NOTICE: Trakt Utilities: found Movie: u'The Naked Gun: From the Files of Police Squad!' - IMDb ID: tt0095705
  2313. 15:09:40 T:3752  NOTICE: Trakt Utilities: found Movie: u'Naked Lunch' - IMDb ID: tt0102511
  2314. 15:09:40 T:3752  NOTICE: Trakt Utilities: found Movie: u'Nanny McPhee' - IMDb ID: tt0396752
  2315. 15:09:40 T:3752  NOTICE: Trakt Utilities: found Movie: u'Napoleon Dynamite' - IMDb ID: tt0374900
  2316. 15:09:40 T:3752  NOTICE: Trakt Utilities: found Movie: u'Christmas Vacation' - IMDb ID: tt0097958
  2317. 15:09:40 T:3752  NOTICE: Trakt Utilities: found Movie: u"National Lampoon's Movie Madness" - IMDb ID: tt0082799
  2318. 15:09:40 T:3752  NOTICE: Trakt Utilities: found Movie: u'European Vacation' - IMDb ID: tt0089670
  2319. 15:09:40 T:3752  NOTICE: Trakt Utilities: found Movie: u'National Treasure' - IMDb ID: tt0368891
  2320. 15:09:40 T:3752  NOTICE: Trakt Utilities: found Movie: u'National Treasure: Book of Secrets' - IMDb ID: tt0465234
  2321. 15:09:40 T:3752  NOTICE: Trakt Utilities: found Movie: u'Natural Born Killers' - IMDb ID: tt0110632
  2322. 15:09:40 T:3752  NOTICE: Trakt Utilities: found Movie: u'Natural Born Killers' - IMDb ID: tt0110632
  2323. 15:09:40 T:3752  NOTICE: Trakt Utilities: found Movie: u'The Negotiator' - IMDb ID: tt0120768
  2324. 15:09:40 T:3752  NOTICE: Trakt Utilities: found Movie: u'Never Back Down' - IMDb ID: tt1023111
  2325. 15:09:40 T:3752  NOTICE: Trakt Utilities: found Movie: u'Die unendliche Geschichte' - IMDb ID: tt0088323
  2326. 15:09:40 T:3752  NOTICE: Trakt Utilities: found Movie: u'Next' - IMDb ID: tt0435705
  2327. 15:09:40 T:3752  NOTICE: Trakt Utilities: found Movie: u'Next Friday' - IMDb ID: tt0195945
  2328. 15:09:40 T:3752  NOTICE: Trakt Utilities: found Movie: u'Night at the Museum' - IMDb ID: tt0477347
  2329. 15:09:40 T:3752  NOTICE: Trakt Utilities: found Movie: u'Night at the Museum: Battle of the Smithsonian' - IMDb ID: tt1078912
  2330. 15:09:40 T:3752  NOTICE: Trakt Utilities: found Movie: u'Night Shift' - IMDb ID: tt0084412
  2331. 15:09:40 T:3752  NOTICE: Trakt Utilities: found Movie: u'The Nightmare Before Christmas' - IMDb ID: tt0107688
  2332. 15:09:40 T:3752  NOTICE: Trakt Utilities: found Movie: u'The Incredible Hulk' - IMDb ID: tt0800080
  2333. 15:09:40 T:3752  NOTICE: Trakt Utilities: found Movie: u'The Nines' - IMDb ID: tt0810988
  2334. 15:09:40 T:3752  NOTICE: Trakt Utilities: found Movie: u'Ninja Assassin' - IMDb ID: tt1186367
  2335. 15:09:40 T:3752  NOTICE: Trakt Utilities: found Movie: u'No Country for Old Men' - IMDb ID: tt0477348
  2336. 15:09:40 T:3752  NOTICE: Trakt Utilities: found Movie: u'Nothing to Lose' - IMDb ID: tt0119807
  2337. 15:09:40 T:3752  NOTICE: Trakt Utilities: found Movie: u'Nutty Professor II: The Klumps' - IMDb ID: tt0144528
  2338. 15:09:40 T:3752  NOTICE: Trakt Utilities: found Movie: u'The Nutty Professor' - IMDb ID: tt0117218
  2339. 15:09:40 T:3752  NOTICE: Trakt Utilities: found Movie: u'Observe and Report' - IMDb ID: tt1197628
  2340. 15:09:40 T:3752  NOTICE: Trakt Utilities: found Movie: u"Ocean's Eleven" - IMDb ID: tt0240772
  2341. 15:09:40 T:3752  NOTICE: Trakt Utilities: found Movie: u"Ocean's Thirteen" - IMDb ID: tt0496806
  2342. 15:09:40 T:3752  NOTICE: Trakt Utilities: found Movie: u"Ocean's Twelve" - IMDb ID: tt0349903
  2343. 15:09:40 T:3752  NOTICE: Trakt Utilities: found Movie: u'Office Space' - IMDb ID: tt0151804
  2344. 15:09:40 T:3752  NOTICE: Trakt Utilities: found Movie: u'Old School' - IMDb ID: tt0302886
  2345. 15:09:40 T:3752  NOTICE: Trakt Utilities: found Movie: u'Old Yeller' - IMDb ID: tt0050798
  2346. 15:09:40 T:3752  NOTICE: Trakt Utilities: found Movie: u'Open Season' - IMDb ID: tt0400717
  2347. 15:09:40 T:3752  NOTICE: Trakt Utilities: found Movie: u'Open Season 2' - IMDb ID: tt1107365
  2348. 15:09:40 T:3752  NOTICE: Trakt Utilities: found Movie: u'The Other Man' - IMDb ID: tt0974613
  2349. 15:09:40 T:3752  NOTICE: Trakt Utilities: found Movie: u'Out Cold' - IMDb ID: tt0253798
  2350. 15:09:40 T:3752  NOTICE: Trakt Utilities: found Movie: u'Out of Sight' - IMDb ID: tt0120780
  2351. 15:09:40 T:3752  NOTICE: Trakt Utilities: found Movie: u'The Outsiders' - IMDb ID: tt0086066
  2352. 15:09:40 T:3752  NOTICE: Trakt Utilities: found Movie: u'Over the Hedge' - IMDb ID: tt0327084
  2353. 15:09:40 T:3752  NOTICE: Trakt Utilities: found Movie: u'Overboard' - IMDb ID: tt0093693
  2354. 15:09:40 T:3752  NOTICE: Trakt Utilities: found Movie: u'El laberinto del fauno' - IMDb ID: tt0457430
  2355. 15:09:40 T:3752  NOTICE: Trakt Utilities: found Movie: u'Pandorum' - IMDb ID: tt1188729
  2356. 15:09:40 T:3752  NOTICE: Trakt Utilities: found Movie: u'Paranormal Activity' - IMDb ID: tt1179904
  2357. 15:09:40 T:3752  NOTICE: Trakt Utilities: found Movie: u'The Parent Trap' - IMDb ID: tt0120783
  2358. 15:09:40 T:3752  NOTICE: Trakt Utilities: found Movie: u'The Patriot' - IMDb ID: tt0187393
  2359. 15:09:40 T:3752  NOTICE: Trakt Utilities: found Movie: u'Paulie' - IMDb ID: tt0125454
  2360. 15:09:40 T:3752  NOTICE: Trakt Utilities: found Movie: u'Payback' - IMDb ID: tt0120784
  2361. 15:09:40 T:3752  NOTICE: Trakt Utilities: found Movie: u'Paycheck' - IMDb ID: tt0338337
  2362. 15:09:40 T:3752  NOTICE: Trakt Utilities: found Movie: u"Pete's Dragon" - IMDb ID: tt0076538
  2363. 15:09:40 T:3752  NOTICE: Trakt Utilities: found Movie: u'Peter Pan' - IMDb ID: tt0046183
  2364. 15:09:40 T:3752  NOTICE: Trakt Utilities: found Movie: u'Peter Pan' - IMDb ID: tt0046183
  2365. 15:09:40 T:3752  NOTICE: Trakt Utilities: found Movie: u'The Phantom' - IMDb ID: tt0117331
  2366. 15:09:40 T:3752  NOTICE: Trakt Utilities: found Movie: u'Phenomenon' - IMDb ID: tt0117333
  2367. 15:09:40 T:3752  NOTICE: Trakt Utilities: found Movie: u'Pi' - IMDb ID: tt0138704
  2368. 15:09:40 T:3752  NOTICE: Trakt Utilities: found Movie: u'The Pianist' - IMDb ID: tt0253474
  2369. 15:09:40 T:3752  NOTICE: Trakt Utilities: found Movie: u"Piglet's Big Movie" - IMDb ID: tt0323642
  2370. 15:09:40 T:3752  NOTICE: Trakt Utilities: found Movie: u'Pineapple Express' - IMDb ID: tt0910936
  2371. 15:09:40 T:3752  NOTICE: Trakt Utilities: found Movie: u'Pirates of Silicon Valley' - IMDb ID: tt0168122
  2372. 15:09:40 T:3752  NOTICE: Trakt Utilities: found Movie: u"Pirates of the Caribbean: At World's End" - IMDb ID: tt0449088
  2373. 15:09:40 T:3752  NOTICE: Trakt Utilities: found Movie: u"Pirates of the Caribbean: Dead Man's Chest" - IMDb ID: tt0383574
  2374. 15:09:40 T:3752  NOTICE: Trakt Utilities: found Movie: u'Pirates of the Caribbean: The Curse of the Black Pearl' - IMDb ID: tt0325980
  2375. 15:09:40 T:3752  NOTICE: Trakt Utilities: found Movie: u'Pitch Black' - IMDb ID: tt0134847
  2376. 15:09:40 T:3752  NOTICE: Trakt Utilities: found Movie: u'Planet 51' - IMDb ID: tt0762125
  2377. 15:09:40 T:3752  NOTICE: Trakt Utilities: found Movie: u'Planet of the Apes' - IMDb ID: tt0133152
  2378. 15:09:40 T:3752  NOTICE: Trakt Utilities: found Movie: u'Pocahontas' - IMDb ID: tt0114148
  2379. 15:09:40 T:3752  NOTICE: Trakt Utilities: found Movie: u'The Polar Express' - IMDb ID: tt0338348
  2380. 15:09:40 T:3752  NOTICE: Trakt Utilities: found Movie: u'Poltergeist' - IMDb ID: tt0084516
  2381. 15:09:40 T:3752  NOTICE: Trakt Utilities: found Movie: u'Poltergeist II: The Other Side' - IMDb ID: tt0091778
  2382. 15:09:40 T:3752  NOTICE: Trakt Utilities: found Movie: u'Poltergeist III' - IMDb ID: tt0095889
  2383. 15:09:40 T:3752  NOTICE: Trakt Utilities: found Movie: u"Pooh's Grand Adventure: The Search for Christopher Robin" - IMDb ID: tt0119918
  2384. 15:09:40 T:3752  NOTICE: Trakt Utilities: found Movie: u"Pooh's Heffalump Movie" - IMDb ID: tt0407121
  2385. 15:09:40 T:3752  NOTICE: Trakt Utilities: found Movie: u"Porky's" - IMDb ID: tt0084522
  2386. 15:09:40 T:3752  NOTICE: Trakt Utilities: found Movie: u'Predator' - IMDb ID: tt0093773
  2387. 15:09:40 T:3752  NOTICE: Trakt Utilities: found Movie: u'Predator 2' - IMDb ID: tt0100403
  2388. 15:09:40 T:3752  NOTICE: Trakt Utilities: found Movie: u'The Prestige' - IMDb ID: tt0482571
  2389. 15:09:40 T:3752  NOTICE: Trakt Utilities: found Movie: u'Primal Fear' - IMDb ID: tt0117381
  2390. 15:09:40 T:3752  NOTICE: Trakt Utilities: found Movie: u'Primer' - IMDb ID: tt0390384
  2391. 15:09:40 T:3752  NOTICE: Trakt Utilities: found Movie: u'The Princess and the Frog' - IMDb ID: tt0780521
  2392. 15:09:40 T:3752  NOTICE: Trakt Utilities: found Movie: u'The Princess Bride' - IMDb ID: tt0093779
  2393. 15:09:40 T:3752  NOTICE: Trakt Utilities: found Movie: u'Private Benjamin' - IMDb ID: tt0081375
  2394. 15:09:40 T:3752  NOTICE: Trakt Utilities: found Movie: u'Problem Child' - IMDb ID: tt0100419
  2395. 15:09:40 T:3752  NOTICE: Trakt Utilities: found Movie: u'Problem Child 2' - IMDb ID: tt0102719
  2396. 15:09:40 T:3752  NOTICE: Trakt Utilities: found Movie: u'The Producers' - IMDb ID: tt0395251
  2397. 15:09:40 T:3752  NOTICE: Trakt Utilities: found Movie: u'Le professionnel' - IMDb ID: tt0082949
  2398. 15:09:40 T:3752  NOTICE: Trakt Utilities: found Movie: u'The Proposal' - IMDb ID: tt1041829
  2399. 15:09:40 T:3752  NOTICE: Trakt Utilities: found Movie: u'Public Enemies' - IMDb ID: tt1152836
  2400. 15:09:40 T:3752  NOTICE: Trakt Utilities: found Movie: u'Pulp Fiction' - IMDb ID: tt0110912
  2401. 15:09:40 T:3752  NOTICE: Trakt Utilities: found Movie: u'Quantum of Solace' - IMDb ID: tt0830515
  2402. 15:09:40 T:3752  NOTICE: Trakt Utilities: found Movie: u'Rambo: First Blood Part II' - IMDb ID: tt0089880
  2403. 15:09:40 T:3752  NOTICE: Trakt Utilities: found Movie: u'Rambo' - IMDb ID: tt0462499
  2404. 15:09:40 T:3752  NOTICE: Trakt Utilities: found Movie: u'Rat Race' - IMDb ID: tt0250687
  2405. 15:09:40 T:3752  NOTICE: Trakt Utilities: found Movie: u'Ratatouille' - IMDb ID: tt0382932
  2406. 15:09:40 T:3752  NOTICE: Trakt Utilities: found Movie: u'The Rebound' - IMDb ID: tt1205535
  2407. 15:09:40 T:3752  NOTICE: Trakt Utilities: found Movie: u'Red Dragon' - IMDb ID: tt0289765
  2408. 15:09:40 T:3752  NOTICE: Trakt Utilities: found Movie: u'Religulous' - IMDb ID: tt0815241
  2409. 15:09:40 T:3752  NOTICE: Trakt Utilities: found Movie: u'Remember the Titans' - IMDb ID: tt0210945
  2410. 15:09:40 T:3752  NOTICE: Trakt Utilities: found Movie: u'Requiem for a Dream' - IMDb ID: tt0180093
  2411. 15:09:40 T:3752  NOTICE: Trakt Utilities: found Movie: u'Rescue Dawn' - IMDb ID: tt0462504
  2412. 15:09:40 T:3752  NOTICE: Trakt Utilities: found Movie: u'The Rescuers Down Under' - IMDb ID: tt0100477
  2413. 15:09:40 T:3752  NOTICE: Trakt Utilities: found Movie: u'The Rescuers' - IMDb ID: tt0076618
  2414. 15:09:40 T:3752  NOTICE: Trakt Utilities: found Movie: u'Reservoir Dogs' - IMDb ID: tt0105236
  2415. 15:09:40 T:3752  NOTICE: Trakt Utilities: found Movie: u'Resident Evil: Degeneration' - IMDb ID: tt1174954
  2416. 15:09:40 T:3752  NOTICE: Trakt Utilities: found Movie: u'Resident Evil: Extinction' - IMDb ID: tt0432021
  2417. 15:09:40 T:3752  NOTICE: Trakt Utilities: found Movie: u'Resident Evil' - IMDb ID: tt0120804
  2418. 15:09:40 T:3752  NOTICE: Trakt Utilities: found Movie: u'Resident Evil: Apocalypse' - IMDb ID: tt0318627
  2419. 15:09:40 T:3752  NOTICE: Trakt Utilities: found Movie: u'Revenge of the Nerds' - IMDb ID: tt0088000
  2420. 15:09:40 T:3752  NOTICE: Trakt Utilities: found Movie: u'Revenge of the Nerds II: Nerds in Paradise' - IMDb ID: tt0093857
  2421. 15:09:40 T:3752  NOTICE: Trakt Utilities: found Movie: u'Revenge of the Nerds III: The Next Generation' - IMDb ID: tt0105251
  2422. 15:09:40 T:3752  NOTICE: Trakt Utilities: found Movie: u'Revenge of the Nerds IV: Nerds in Love' - IMDb ID: tt0110982
  2423. 15:09:40 T:3752  NOTICE: Trakt Utilities: found Movie: u'Revolver' - IMDb ID: tt0365686
  2424. 15:09:40 T:3752  NOTICE: Trakt Utilities: found Movie: u'Ri\xa2hie Ri\xa2h' - IMDb ID: tt0110989
  2425. 15:09:40 T:3752  NOTICE: Trakt Utilities: found Movie: u'Risky Business' - IMDb ID: tt0086200
  2426. 15:09:40 T:3752  NOTICE: Trakt Utilities: found Movie: u'Road House' - IMDb ID: tt0098206
  2427. 15:09:40 T:3752  NOTICE: Trakt Utilities: found Movie: u'Road Trip' - IMDb ID: tt0215129
  2428. 15:09:40 T:3752  NOTICE: Trakt Utilities: found Movie: u'The Road' - IMDb ID: tt0898367
  2429. 15:09:40 T:3752  NOTICE: Trakt Utilities: found Movie: u'Robin Hood: Men in Tights' - IMDb ID: tt0107977
  2430. 15:09:40 T:3752  NOTICE: Trakt Utilities: found Movie: u'Robin Hood' - IMDb ID: tt0070608
  2431. 15:09:40 T:3752  NOTICE: Trakt Utilities: found Movie: u'RoboCop' - IMDb ID: tt0093870
  2432. 15:09:40 T:3752  NOTICE: Trakt Utilities: found Movie: u'RoboCop 2' - IMDb ID: tt0100502
  2433. 15:09:40 T:3752  NOTICE: Trakt Utilities: found Movie: u'RoboCop 3' - IMDb ID: tt0107978
  2434. 15:09:40 T:3752  NOTICE: Trakt Utilities: found Movie: u'Robots' - IMDb ID: tt0358082
  2435. 15:09:40 T:3752  NOTICE: Trakt Utilities: found Movie: u'The Rock' - IMDb ID: tt0117500
  2436. 15:09:40 T:3752  NOTICE: Trakt Utilities: found Movie: u'RocknRolla' - IMDb ID: tt1032755
  2437. 15:09:40 T:3752  NOTICE: Trakt Utilities: found Movie: u'Rocky' - IMDb ID: tt0075148
  2438. 15:09:40 T:3752  NOTICE: Trakt Utilities: found Movie: u'Role Models' - IMDb ID: tt0430922
  2439. 15:09:40 T:3752  NOTICE: Trakt Utilities: found Movie: u'Romancing the Stone' - IMDb ID: tt0088011
  2440. 15:09:40 T:3752  NOTICE: Trakt Utilities: found Movie: u'Romeo Must Die' - IMDb ID: tt0165929
  2441. 15:09:40 T:3752  NOTICE: Trakt Utilities: found Movie: u'Ronin' - IMDb ID: tt0122690
  2442. 15:09:40 T:3752  NOTICE: Trakt Utilities: found Movie: u'Rounders' - IMDb ID: tt0128442
  2443. 15:09:40 T:3752  NOTICE: Trakt Utilities: found Movie: u'Rules of Engagement' - IMDb ID: tt0160797
  2444. 15:09:40 T:3752  NOTICE: Trakt Utilities: found Movie: u'Runaway Jury' - IMDb ID: tt0313542
  2445. 15:09:40 T:3752  NOTICE: Trakt Utilities: found Movie: u'Rush Hour' - IMDb ID: tt0120812
  2446. 15:09:40 T:3752  NOTICE: Trakt Utilities: found Movie: u'Rush Hour 2' - IMDb ID: tt0266915
  2447. 15:09:40 T:3752  NOTICE: Trakt Utilities: found Movie: u'Rush Hour 3' - IMDb ID: tt0293564
  2448. 15:09:40 T:3752  NOTICE: Trakt Utilities: found Movie: u'Sahara' - IMDb ID: tt0318649
  2449. 15:09:40 T:3752  NOTICE: Trakt Utilities: found Movie: u'The Santa Clause 2' - IMDb ID: tt0304669
  2450. 15:09:40 T:3752  NOTICE: Trakt Utilities: found Movie: u'The Santa Clause 3: The Escape Clause' - IMDb ID: tt0452681
  2451. 15:09:40 T:3752  NOTICE: Trakt Utilities: found Movie: u'The Santa Clause' - IMDb ID: tt0111070
  2452. 15:09:40 T:3752  NOTICE: Trakt Utilities: found Movie: u'Saving Private Ryan' - IMDb ID: tt0120815
  2453. 15:09:40 T:3752  NOTICE: Trakt Utilities: found Movie: u'Scarface' - IMDb ID: tt0086250
  2454. 15:09:40 T:3752  NOTICE: Trakt Utilities: found Movie: u'The School of Rock' - IMDb ID: tt0332379
  2455. 15:09:40 T:3752  NOTICE: Trakt Utilities: found Movie: u'Scooby-Doo' - IMDb ID: tt0267913
  2456. 15:09:40 T:3752  NOTICE: Trakt Utilities: found Movie: u'Scooby Doo 2: Monsters Unleashed' - IMDb ID: tt0331632
  2457. 15:09:40 T:3752  NOTICE: Trakt Utilities: found Movie: u'The Score' - IMDb ID: tt0227445
  2458. 15:09:40 T:3752  NOTICE: Trakt Utilities: found Movie: u'The Scorpion King: Rise of a Warrior' - IMDb ID: tt1104123
  2459. 15:09:40 T:3752  NOTICE: Trakt Utilities: found Movie: u'Scream' - IMDb ID: tt0117571
  2460. 15:09:40 T:3752  NOTICE: Trakt Utilities: found Movie: u'Scream 2' - IMDb ID: tt0120082
  2461. 15:09:40 T:3752  NOTICE: Trakt Utilities: found Movie: u'Scrooged' - IMDb ID: tt0096061
  2462. 15:09:40 T:3752  NOTICE: Trakt Utilities: found Movie: u'Se7en' - IMDb ID: tt0114369
  2463. 15:09:40 T:3752  NOTICE: Trakt Utilities: found Movie: u'Seabiscuit' - IMDb ID: tt0329575
  2464. 15:09:40 T:3752  NOTICE: Trakt Utilities: found Movie: u'The Secret Garden' - IMDb ID: tt0108071
  2465. 15:09:40 T:3752  NOTICE: Trakt Utilities: found Movie: u'The Secret of NIMH' - IMDb ID: tt0084649
  2466. 15:09:40 T:3752  NOTICE: Trakt Utilities: found Movie: u'Senior Trip' - IMDb ID: tt0113936
  2467. 15:09:40 T:3752  NOTICE: Trakt Utilities: found Movie: u'Serenity' - IMDb ID: tt0379786
  2468. 15:09:40 T:3752  NOTICE: Trakt Utilities: found Movie: u'Seven Pounds' - IMDb ID: tt0814314
  2469. 15:09:40 T:3752  NOTICE: Trakt Utilities: found Movie: u'Shaft' - IMDb ID: tt0162650
  2470. 15:09:40 T:3752  NOTICE: Trakt Utilities: found Movie: u'Shanghai Knights' - IMDb ID: tt0300471
  2471. 15:09:40 T:3752  NOTICE: Trakt Utilities: found Movie: u'Shanghai Noon' - IMDb ID: tt0184894
  2472. 15:09:40 T:3752  NOTICE: Trakt Utilities: found Movie: u'Shark Tale' - IMDb ID: tt0307453
  2473. 15:09:40 T:3752  NOTICE: Trakt Utilities: found Movie: u'Shaun of the Dead' - IMDb ID: tt0365748
  2474. 15:09:40 T:3752  NOTICE: Trakt Utilities: found Movie: u'The Shawshank Redemption' - IMDb ID: tt0111161
  2475. 15:09:40 T:3752  NOTICE: Trakt Utilities: found Movie: u'Sherlock Holmes' - IMDb ID: tt0988045
  2476. 15:09:40 T:3752  NOTICE: Trakt Utilities: found Movie: u'The Shining' - IMDb ID: tt0081505
  2477. 15:09:40 T:3752  NOTICE: Trakt Utilities: found Movie: u'Shooter' - IMDb ID: tt0822854
  2478. 15:09:40 T:3752  NOTICE: Trakt Utilities: found Movie: u'Short Circuit' - IMDb ID: tt0091949
  2479. 15:09:40 T:3752  NOTICE: Trakt Utilities: found Movie: u'Shrek' - IMDb ID: tt0126029
  2480. 15:09:40 T:3752  NOTICE: Trakt Utilities: found Movie: u'Shrek 2' - IMDb ID: tt0298148
  2481. 15:09:40 T:3752  NOTICE: Trakt Utilities: found Movie: u'Shrek the Third' - IMDb ID: tt0413267
  2482. 15:09:40 T:3752  NOTICE: Trakt Utilities: found Movie: u'The Siege' - IMDb ID: tt0133952
  2483. 15:09:40 T:3752  NOTICE: Trakt Utilities: found Movie: u'The Silence of the Lambs' - IMDb ID: tt0102926
  2484. 15:09:40 T:3752  NOTICE: Trakt Utilities: found Movie: u'The Simpsons Movie' - IMDb ID: tt0462538
  2485. 15:09:40 T:3752  NOTICE: Trakt Utilities: found Movie: u'Sin City' - IMDb ID: tt0401792
  2486. 15:09:40 T:3752  NOTICE: Trakt Utilities: found Movie: u'Sister Act' - IMDb ID: tt0105417
  2487. 15:09:40 T:3752  NOTICE: Trakt Utilities: found Movie: u'Sister Act 2: Back in the Habit' - IMDb ID: tt0108147
  2488. 15:09:40 T:3752  NOTICE: Trakt Utilities: found Movie: u'Six Days Seven Nights' - IMDb ID: tt0120828
  2489. 15:09:40 T:3752  NOTICE: Trakt Utilities: found Movie: u'The Sixth Sense' - IMDb ID: tt0167404
  2490. 15:09:40 T:3752  NOTICE: Trakt Utilities: found Movie: u'Slam Dunk Ernest' - IMDb ID: tt0114469
  2491. 15:09:40 T:3752  NOTICE: Trakt Utilities: found Movie: u'Sleeping Beauty' - IMDb ID: tt0053285
  2492. 15:09:40 T:3752  NOTICE: Trakt Utilities: found Movie: u'Sleepless in Seattle' - IMDb ID: tt0108160
  2493. 15:09:40 T:3752  NOTICE: Trakt Utilities: found Movie: u'Sleepy Hollow' - IMDb ID: tt0162661
  2494. 15:09:40 T:3752  NOTICE: Trakt Utilities: found Movie: u'Small Soldiers' - IMDb ID: tt0122718
  2495. 15:09:40 T:3752  NOTICE: Trakt Utilities: found Movie: u'Snakes on a Plane' - IMDb ID: tt0417148
  2496. 15:09:40 T:3752  NOTICE: Trakt Utilities: found Movie: u'Snatch.' - IMDb ID: tt0208092
  2497. 15:09:40 T:3752  NOTICE: Trakt Utilities: found Movie: u'Snow White and the Seven Dwarfs' - IMDb ID: tt0029583
  2498. 15:09:40 T:3752  NOTICE: Trakt Utilities: found Movie: u'So I Married an Axe Murderer' - IMDb ID: tt0108174
  2499. 15:09:40 T:3752  NOTICE: Trakt Utilities: found Movie: u'Song of the South' - IMDb ID: tt0038969
  2500. 15:09:40 T:3752  NOTICE: Trakt Utilities: found Movie: u'The Sound of Music' - IMDb ID: tt0059742
  2501. 15:09:40 T:3752  NOTICE: Trakt Utilities: found Movie: u'Space Jam' - IMDb ID: tt0117705
  2502. 15:09:40 T:3752  NOTICE: Trakt Utilities: found Movie: u'Spaceballs' - IMDb ID: tt0094012
  2503. 15:09:40 T:3752  NOTICE: Trakt Utilities: found Movie: u'Speed' - IMDb ID: tt0111257
  2504. 15:09:40 T:3752  NOTICE: Trakt Utilities: found Movie: u'Sphere' - IMDb ID: tt0120184
  2505. 15:09:40 T:3752  NOTICE: Trakt Utilities: found Movie: u'Spider-Man' - IMDb ID: tt0145487
  2506. 15:09:40 T:3752  NOTICE: Trakt Utilities: found Movie: u'Spider-Man 2' - IMDb ID: tt0316654
  2507. 15:09:40 T:3752  NOTICE: Trakt Utilities: found Movie: u'Spider-Man 3' - IMDb ID: tt0413300
  2508. 15:09:40 T:3752  NOTICE: Trakt Utilities: found Movie: u'Sen to Chihiro no kamikakushi' - IMDb ID: tt0245429
  2509. 15:09:40 T:3752  NOTICE: Trakt Utilities: found Movie: u'Splice' - IMDb ID: tt1017460
  2510. 15:09:40 T:3752  NOTICE: Trakt Utilities: found Movie: u'Stakeout' - IMDb ID: tt0094025
  2511. 15:09:40 T:3752  NOTICE: Trakt Utilities: found Movie: u'Stan Helsing' - IMDb ID: tt1185266
  2512. 15:09:40 T:3752  NOTICE: Trakt Utilities: found Movie: u'Star Trek' - IMDb ID: tt0796366
  2513. 15:09:40 T:3752  NOTICE: Trakt Utilities: found Movie: u'Star Trek III: The Search for Spock' - IMDb ID: tt0088170
  2514. 15:09:40 T:3752  NOTICE: Trakt Utilities: found Movie: u'Star Wars' - IMDb ID: tt0076759
  2515. 15:09:40 T:3752  NOTICE: Trakt Utilities: found Movie: u'Star Wars: Episode I - The Phantom Menace' - IMDb ID: tt0120915
  2516. 15:09:40 T:3752  NOTICE: Trakt Utilities: found Movie: u'Star Wars: Episode II - Attack of the Clones' - IMDb ID: tt0121765
  2517. 15:09:40 T:3752  NOTICE: Trakt Utilities: found Movie: u'Star Wars: Episode III - Revenge of the Sith' - IMDb ID: tt0121766
  2518. 15:09:40 T:3752  NOTICE: Trakt Utilities: found Movie: u'Star Wars: Episode V - The Empire Strikes Back' - IMDb ID: tt0080684
  2519. 15:09:40 T:3752  NOTICE: Trakt Utilities: found Movie: u'Star Wars: Episode VI - Return of the Jedi' - IMDb ID: tt0086190
  2520. 15:09:40 T:3752  NOTICE: Trakt Utilities: found Movie: u'Starship Troopers' - IMDb ID: tt0120201
  2521. 15:09:40 T:3752  NOTICE: Trakt Utilities: found Movie: u'Starship Troopers 2: Hero of the Federation' - IMDb ID: tt0367093
  2522. 15:09:40 T:3752  NOTICE: Trakt Utilities: found Movie: u'Starship Troopers 3: Marauder' - IMDb ID: tt0844760
  2523. 15:09:40 T:3752  NOTICE: Trakt Utilities: found Movie: u'Staten Island' - IMDb ID: tt0976246
  2524. 15:09:40 T:3752  NOTICE: Trakt Utilities: found Movie: u'Step Brothers' - IMDb ID: tt0838283
  2525. 15:09:40 T:3752  NOTICE: Trakt Utilities: found Movie: u'The Sting' - IMDb ID: tt0070735
  2526. 15:09:40 T:3752  NOTICE: Trakt Utilities: found Movie: u'Strange Days' - IMDb ID: tt0114558
  2527. 15:09:40 T:3752  NOTICE: Trakt Utilities: found Movie: u'Stranger Than Fiction' - IMDb ID: tt0420223
  2528. 15:09:40 T:3752  NOTICE: Trakt Utilities: found Movie: u'Street Kings' - IMDb ID: tt0421073
  2529. 15:09:40 T:3752  NOTICE: Trakt Utilities: found Movie: u'Striking Distance' - IMDb ID: tt0108238
  2530. 15:09:40 T:3752  NOTICE: Trakt Utilities: found Movie: u'Stuart Little' - IMDb ID: tt0164912
  2531. 15:09:40 T:3752  NOTICE: Trakt Utilities: found Movie: u'Super Troopers' - IMDb ID: tt0247745
  2532. 15:09:40 T:3752  NOTICE: Trakt Utilities: found Movie: u'Superbad' - IMDb ID: tt0829482
  2533. 15:09:40 T:3752  NOTICE: Trakt Utilities: found Movie: u'Superstar' - IMDb ID: tt0167427
  2534. 15:09:40 T:3752  NOTICE: Trakt Utilities: found Movie: u"Surf's Up" - IMDb ID: tt0423294
  2535. 15:09:40 T:3752  NOTICE: Trakt Utilities: found Movie: u'Surrogates' - IMDb ID: tt0986263
  2536. 15:09:40 T:3752  NOTICE: Trakt Utilities: found Movie: u'Suspect Zero' - IMDb ID: tt0324127
  2537. 15:09:40 T:3752  NOTICE: Trakt Utilities: found Movie: u'Sweeney Todd: The Demon Barber of Fleet Street' - IMDb ID: tt0408236
  2538. 15:09:40 T:3752  NOTICE: Trakt Utilities: found Movie: u'Swingers' - IMDb ID: tt0117802
  2539. 15:09:40 T:3752  NOTICE: Trakt Utilities: found Movie: u'Swiss Family Robinson' - IMDb ID: tt0054357
  2540. 15:09:40 T:3752  NOTICE: Trakt Utilities: found Movie: u'Swordfish' - IMDb ID: tt0244244
  2541. 15:09:40 T:3752  NOTICE: Trakt Utilities: found Movie: u'Taken' - IMDb ID: tt0936501
  2542. 15:09:40 T:3752  NOTICE: Trakt Utilities: found Movie: u'The Taking of Pelham 1 2 3' - IMDb ID: tt1111422
  2543. 15:09:40 T:3752  NOTICE: Trakt Utilities: found Movie: u'The Tale of Despereaux' - IMDb ID: tt0420238
  2544. 15:09:40 T:3752  NOTICE: Trakt Utilities: found Movie: u'Talladega Nights: The Ballad of Ricky Bobby' - IMDb ID: tt0415306
  2545. 15:09:40 T:3752  NOTICE: Trakt Utilities: found Movie: u'Tarzan' - IMDb ID: tt0120855
  2546. 15:09:40 T:3752  NOTICE: Trakt Utilities: found Movie: u'Tears of the Sun' - IMDb ID: tt0314353
  2547. 15:09:40 T:3752  NOTICE: Trakt Utilities: found Movie: u'Teen Wolf' - IMDb ID: tt0090142
  2548. 15:09:40 T:3752  NOTICE: Trakt Utilities: found Movie: u'Tenacious D in The Pick of Destiny' - IMDb ID: tt0365830
  2549. 15:09:40 T:3752  NOTICE: Trakt Utilities: found Movie: u'The Terminal' - IMDb ID: tt0362227
  2550. 15:09:40 T:3752  NOTICE: Trakt Utilities: found Movie: u'Terminator 2: Judgment Day' - IMDb ID: tt0103064
  2551. 15:09:40 T:3752  NOTICE: Trakt Utilities: found Movie: u'Terminator 3: Rise of the Machines' - IMDb ID: tt0181852
  2552. 15:09:40 T:3752  NOTICE: Trakt Utilities: found Movie: u'Terminator Salvation' - IMDb ID: tt0438488
  2553. 15:09:40 T:3752  NOTICE: Trakt Utilities: found Movie: u'The Terminator' - IMDb ID: tt0088247
  2554. 15:09:40 T:3752  NOTICE: Trakt Utilities: found Movie: u'Thank You for Smoking' - IMDb ID: tt0427944
  2555. 15:09:40 T:3752  NOTICE: Trakt Utilities: found Movie: u'The Flintstones' - IMDb ID: tt0109813
  2556. 15:09:40 T:3752  NOTICE: Trakt Utilities: found Movie: u'The Plan' - IMDb ID: tt1286130
  2557. 15:09:40 T:3752  NOTICE: Trakt Utilities: found Movie: u'The Tournament' - IMDb ID: tt0471041
  2558. 15:09:40 T:3752  NOTICE: Trakt Utilities: found Movie: u'There Will Be Blood' - IMDb ID: tt0469494
  2559. 15:09:40 T:3752  NOTICE: Trakt Utilities: found Movie: u'They Live' - IMDb ID: tt0096256
  2560. 15:09:40 T:3752  NOTICE: Trakt Utilities: found Movie: u'Thir13en Ghosts' - IMDb ID: tt0245674
  2561. 15:09:40 T:3752  NOTICE: Trakt Utilities: found Movie: u'This Is Spinal Tap' - IMDb ID: tt0088258
  2562. 15:09:40 T:3752  NOTICE: Trakt Utilities: found Movie: u'The Thomas Crown Affair' - IMDb ID: tt0155267
  2563. 15:09:40 T:3752  NOTICE: Trakt Utilities: found Movie: u'Three Kings' - IMDb ID: tt0120188
  2564. 15:09:40 T:3752  NOTICE: Trakt Utilities: found Movie: u'The Three Musketeers' - IMDb ID: tt0108333
  2565. 15:09:40 T:3752  NOTICE: Trakt Utilities: found Movie: u'The Tigger Movie' - IMDb ID: tt0220099
  2566. 15:09:40 T:3752  NOTICE: Trakt Utilities: found Movie: u'Time Bandits' - IMDb ID: tt0081633
  2567. 15:09:40 T:3752  NOTICE: Trakt Utilities: found Movie: u'The Time Machine' - IMDb ID: tt0054387
  2568. 15:09:40 T:3752  NOTICE: Trakt Utilities: found Movie: u'Tinker Bell' - IMDb ID: tt0823671
  2569. 15:09:40 T:3752  NOTICE: Trakt Utilities: found Movie: u'Titan A.E.' - IMDb ID: tt0120913
  2570. 15:09:40 T:3752  NOTICE: Trakt Utilities: found Movie: u'Tombstone' - IMDb ID: tt0108358
  2571. 15:09:40 T:3752  NOTICE: Trakt Utilities: found Movie: u'Top Gun' - IMDb ID: tt0092099
  2572. 15:09:40 T:3752  NOTICE: Trakt Utilities: found Movie: u'Total Recall' - IMDb ID: tt0100802
  2573. 15:09:40 T:3752  NOTICE: Trakt Utilities: found Movie: u'Toy Story' - IMDb ID: tt0114709
  2574. 15:09:40 T:3752  NOTICE: Trakt Utilities: found Movie: u'Toy Story 2' - IMDb ID: tt0120363
  2575. 15:09:40 T:3752  NOTICE: Trakt Utilities: found Movie: u'Trading Places' - IMDb ID: tt0086465
  2576. 15:09:40 T:3752  NOTICE: Trakt Utilities: found Movie: u'Training Day' - IMDb ID: tt0139654
  2577. 15:09:40 T:3752  NOTICE: Trakt Utilities: found Movie: u'Trainspotting' - IMDb ID: tt0117951
  2578. 15:09:40 T:3752  NOTICE: Trakt Utilities: found Movie: u'Transformers' - IMDb ID: tt0418279
  2579. 15:09:40 T:3752  NOTICE: Trakt Utilities: found Movie: u'Transformers: Revenge of the Fallen' - IMDb ID: tt1055369
  2580. 15:09:40 T:3752  NOTICE: Trakt Utilities: found Movie: u'Transporter 2' - IMDb ID: tt0388482
  2581. 15:09:40 T:3752  NOTICE: Trakt Utilities: found Movie: u'Transporter 3' - IMDb ID: tt1129442
  2582. 15:09:40 T:3752  NOTICE: Trakt Utilities: found Movie: u'The Transporter' - IMDb ID: tt0293662
  2583. 15:09:40 T:3752  NOTICE: Trakt Utilities: found Movie: u'Treasure Planet' - IMDb ID: tt0133240
  2584. 15:09:40 T:3752  NOTICE: Trakt Utilities: found Movie: u'TRON' - IMDb ID: tt0084827
  2585. 15:09:40 T:3752  NOTICE: Trakt Utilities: found Movie: u'Tropic Thunder' - IMDb ID: tt0942385
  2586. 15:09:40 T:3752  NOTICE: Trakt Utilities: found Movie: u'The Truman Show' - IMDb ID: tt0120382
  2587. 15:09:40 T:3752  NOTICE: Trakt Utilities: found Movie: u'Twelve Monkeys' - IMDb ID: tt0114746
  2588. 15:09:40 T:3752  NOTICE: Trakt Utilities: found Movie: u'Twilight' - IMDb ID: tt1099212
  2589. 15:09:40 T:3752  NOTICE: Trakt Utilities: found Movie: u'New Moon' - IMDb ID: tt1259571
  2590. 15:09:40 T:3752  NOTICE: Trakt Utilities: found Movie: u'Twisted' - IMDb ID: tt0315297
  2591. 15:09:40 T:3752  NOTICE: Trakt Utilities: found Movie: u'Twister' - IMDb ID: tt0117998
  2592. 15:09:40 T:3752  NOTICE: Trakt Utilities: found Movie: u'U-571' - IMDb ID: tt0141926
  2593. 15:09:40 T:3752  NOTICE: Trakt Utilities: found Movie: u'U.S. Marshals' - IMDb ID: tt0120873
  2594. 15:09:40 T:3752  NOTICE: Trakt Utilities: found Movie: u'The Ugly Truth' - IMDb ID: tt1142988
  2595. 15:09:40 T:3752  NOTICE: Trakt Utilities: found Movie: u'Ultraviolet' - IMDb ID: tt0370032
  2596. 15:09:40 T:3752  NOTICE: Trakt Utilities: found Movie: u'Unbreakable' - IMDb ID: tt0217869
  2597. 15:09:40 T:3752  NOTICE: Trakt Utilities: found Movie: u'Underworld: Evolution' - IMDb ID: tt0401855
  2598. 15:09:40 T:3752  NOTICE: Trakt Utilities: found Movie: u'Underworld' - IMDb ID: tt0320691
  2599. 15:09:40 T:3752  NOTICE: Trakt Utilities: found Movie: u'Underworld: Rise of the Lycans' - IMDb ID: tt0834001
  2600. 15:09:40 T:3752  NOTICE: Trakt Utilities: found Movie: u'Unforgiven' - IMDb ID: tt0105695
  2601. 15:09:40 T:3752  NOTICE: Trakt Utilities: found Movie: u'The United States of Leland' - IMDb ID: tt0301976
  2602. 15:09:40 T:3752  NOTICE: Trakt Utilities: found Movie: u'Danny the Dog' - IMDb ID: tt0342258
  2603. 15:09:40 T:3752  NOTICE: Trakt Utilities: found Movie: u'Up' - IMDb ID: tt1049413
  2604. 15:09:40 T:3752  NOTICE: Trakt Utilities: found Movie: u'Up in the Air' - IMDb ID: tt1193138
  2605. 15:09:40 T:3752  NOTICE: Trakt Utilities: found Movie: u'The Usual Suspects' - IMDb ID: tt0114814
  2606. 15:09:40 T:3752  NOTICE: Trakt Utilities: found Movie: u'V for Vendetta' - IMDb ID: tt0434409
  2607. 15:09:40 T:3752  NOTICE: Trakt Utilities: found Movie: u'Vacation' - IMDb ID: tt0085995
  2608. 15:09:40 T:3752  NOTICE: Trakt Utilities: found Movie: u'Van Helsing' - IMDb ID: tt0338526
  2609. 15:09:40 T:3752  NOTICE: Trakt Utilities: found Movie: u'Vanilla Sky' - IMDb ID: tt0259711
  2610. 15:09:40 T:3752  NOTICE: Trakt Utilities: found Movie: u'Vantage Point' - IMDb ID: tt0443274
  2611. 15:09:40 T:3752  NOTICE: Trakt Utilities: found Movie: u'Vegas Vacation' - IMDb ID: tt0120434
  2612. 15:09:40 T:3752  NOTICE: Trakt Utilities: found Movie: u'Virtuosity' - IMDb ID: tt0114857
  2613. 15:09:40 T:3752  NOTICE: Trakt Utilities: found Movie: u'Virus' - IMDb ID: tt0120458
  2614. 15:09:40 T:3752  NOTICE: Trakt Utilities: found Movie: u'Waiting...' - IMDb ID: tt0348333
  2615. 15:09:40 T:3752  NOTICE: Trakt Utilities: found Movie: u'Wake Up, Ron Burgundy: The Lost Movie' - IMDb ID: tt0423505
  2616. 15:09:40 T:3752  NOTICE: Trakt Utilities: found Movie: u'Wall Street' - IMDb ID: tt0094291
  2617. 15:09:40 T:3752  NOTICE: Trakt Utilities: found Movie: u'WALL\xb7E' - IMDb ID: tt0910970
  2618. 15:09:40 T:3752  NOTICE: Trakt Utilities: found Movie: u'Wanted' - IMDb ID: tt0493464
  2619. 15:09:40 T:3752  NOTICE: Trakt Utilities: found Movie: u'War of the Worlds' - IMDb ID: tt0407304
  2620. 15:09:40 T:3752  NOTICE: Trakt Utilities: found Movie: u'Watchmen' - IMDb ID: tt0409459
  2621. 15:09:40 T:3752  NOTICE: Trakt Utilities: found Movie: u'The Way of the Gun' - IMDb ID: tt0202677
  2622. 15:09:40 T:3752  NOTICE: Trakt Utilities: found Movie: u"Wayne's World" - IMDb ID: tt0105793
  2623. 15:09:40 T:3752  NOTICE: Trakt Utilities: found Movie: u"Wayne's World 2" - IMDb ID: tt0108525
  2624. 15:09:40 T:3752  NOTICE: Trakt Utilities: found Movie: u"We're Back! A Dinosaur's Story" - IMDb ID: tt0108526
  2625. 15:09:40 T:3752  NOTICE: Trakt Utilities: found Movie: u'We Are Marshall' - IMDb ID: tt0758794
  2626. 15:09:40 T:3752  NOTICE: Trakt Utilities: found Movie: u'Wedding Crashers' - IMDb ID: tt0396269
  2627. 15:09:40 T:3752  NOTICE: Trakt Utilities: found Movie: u'The Wedding Singer' - IMDb ID: tt0120888
  2628. 15:09:40 T:3752  NOTICE: Trakt Utilities: found Movie: u'Where the Wild Things Are' - IMDb ID: tt0386117
  2629. 15:09:40 T:3752  NOTICE: Trakt Utilities: found Movie: u"White Men Can't Jump" - IMDb ID: tt0105812
  2630. 15:09:40 T:3752  NOTICE: Trakt Utilities: found Movie: u'Who Framed Roger Rabbit' - IMDb ID: tt0096438
  2631. 15:09:40 T:3752  NOTICE: Trakt Utilities: found Movie: u'The Whole Nine Yards' - IMDb ID: tt0190138
  2632. 15:09:40 T:3752  NOTICE: Trakt Utilities: found Movie: u'Wild Hogs' - IMDb ID: tt0486946
  2633. 15:09:40 T:3752  NOTICE: Trakt Utilities: found Movie: u'Wild Wild West' - IMDb ID: tt0120891
  2634. 15:09:40 T:3752  NOTICE: Trakt Utilities: found Movie: u'Willy Wonka & the Chocolate Factory' - IMDb ID: tt0067992
  2635. 15:09:40 T:3752  NOTICE: Trakt Utilities: found Movie: u'The Wizard of Oz' - IMDb ID: tt0032138
  2636. 15:09:40 T:3752  NOTICE: Trakt Utilities: found Movie: u'X-Men' - IMDb ID: tt0120903
  2637. 15:09:40 T:3752  NOTICE: Trakt Utilities: found Movie: u'X-Men Origins: Wolverine' - IMDb ID: tt0458525
  2638. 15:09:40 T:3752  NOTICE: Trakt Utilities: found Movie: u'X-Men: The Last Stand' - IMDb ID: tt0376994
  2639. 15:09:40 T:3752  NOTICE: Trakt Utilities: found Movie: u'X2' - IMDb ID: tt0290334
  2640. 15:09:40 T:3752  NOTICE: Trakt Utilities: found Movie: u'Year One' - IMDb ID: tt1045778
  2641. 15:09:40 T:3752  NOTICE: Trakt Utilities: found Movie: u'Yes Man' - IMDb ID: tt1068680
  2642. 15:09:40 T:3752  NOTICE: Trakt Utilities: found Movie: u"You Don't Mess with the Zohan" - IMDb ID: tt0960144
  2643. 15:09:40 T:3752  NOTICE: Trakt Utilities: found Movie: u'Young Guns' - IMDb ID: tt0096487
  2644. 15:09:40 T:3752  NOTICE: Trakt Utilities: found Movie: u'Young Guns II' - IMDb ID: tt0100994
  2645. 15:09:40 T:3752  NOTICE: Trakt Utilities: found Movie: u'Zack and Miri Make a Porno' - IMDb ID: tt1007028
  2646. 15:09:40 T:3752  NOTICE: Trakt Utilities: found Movie: u'Zodiac' - IMDb ID: tt0443706
  2647. 15:09:40 T:3752  NOTICE: Trakt Utilities: found Movie: u'Zombieland' - IMDb ID: tt1156398
  2648. 15:09:48 T:3752  NOTICE: Trakt Utilities: trakt json url: /movie/library/48dfcb4813134da82152984e8c4f329bc8b8b46a
  2649. 15:09:50 T:3752  NOTICE: Trakt Utilities: successfully uploaded collection:
  2650. 15:09:50 T:3752  NOTICE: Trakt Utilities: inserted: 1 already_exist: 1 skipped: 1
  2651. 15:09:50 T:3752  NOTICE: Trakt Utilities: skipped movies: [{u'year': 2010, u'imdb_id': u'tt1758690', u'title': u'Life Is Beautiful'}]
  2652. 15:09:52 T:8380   ERROR: Control 1 in window 10099 has been asked to focus, but it can't
  2653. 15:10:01 T:3752  NOTICE: Trakt Utilities: Select: 1
  2654. 15:10:01 T:3752  NOTICE: Trakt Utilities: trakt json url: /user/library/movies/all.json/48dfcb4813134da82152984e8c4f329bc8b8b46a/anzermanxbmc
  2655. 15:10:08 T:3752  NOTICE: Trakt Utilities: searching local...
  2656. 15:10:12 T:8380   ERROR: Control 1 in window 10099 has been asked to focus, but it can't
  2657. 15:12:04 T:3752   ERROR: Previous line repeats 4 times.
  2658. 15:12:04 T:3752  NOTICE: Trakt Utilities: Select: -1
  2659. 15:12:04 T:3752  NOTICE: Trakt Utilities: menu quit by user
  2660. 15:12:05 T:3752  NOTICE: Trakt Utilities: Select: -1
  2661. 15:12:05 T:3752  NOTICE: Trakt Utilities: menu quit by user
  2662. 15:12:06 T:8380   ERROR: Control 1 in window 10099 has been asked to focus, but it can't
  2663. 15:12:40 T:4916   ERROR: Previous line repeats 1 times.
  2664. 15:12:40 T:4916  NOTICE: -->Python Interpreter Initialized<--
  2665. 15:12:40 T:4916   ERROR: C:\Users\Sidney\AppData\Roaming\XBMC\addons\script.TraktUtilities-0.6.5\nbhttpconnection.py:22: DeprecationWarning: the sha module is deprecated; use the hashlib module instead
  2666.                                               import sha
  2667. 15:12:40 T:4916  NOTICE: Trakt Utilities: default: script.TraktUtilities - version: 0.6.5
  2668. 15:12:41 T:4916  NOTICE: Trakt Utilities: trakt json url: /account/test/48dfcb4813134da82152984e8c4f329bc8b8b46a
  2669. 15:12:41 T:4916  NOTICE: Trakt Utilities: Select: -1
  2670. 15:12:41 T:4916  NOTICE: Trakt Utilities: menu quit by user
  2671. 15:12:42 T:4400  NOTICE: -->Python Interpreter Initialized<--
  2672. 15:12:42 T:4400   ERROR: C:\Users\Sidney\AppData\Roaming\XBMC\addons\script.TraktUtilities-0.6.5\nbhttpconnection.py:22: DeprecationWarning: the sha module is deprecated; use the hashlib module instead
  2673.                                               import sha
  2674. 15:12:42 T:4400  NOTICE: Trakt Utilities: default: script.TraktUtilities - version: 0.6.5
  2675. 15:12:42 T:4400  NOTICE: Trakt Utilities: trakt json url: /account/test/48dfcb4813134da82152984e8c4f329bc8b8b46a
  2676. 15:12:43 T:4400  NOTICE: Trakt Utilities: Broke loop due to abort
  2677. 15:12:48 T:8380   ERROR: XBPyThread::stop - script didn't stop in proper time - lets kill it
  2678. 15:12:51 T:8380   ERROR: Control 1 in window 10099 has been asked to focus, but it can't
  2679. 15:13:39 T:9240   ERROR: Previous line repeats 1 times.
  2680. 15:13:39 T:9240 WARNING: XFILE::CDirectoryFactory::Create - Unsupported protocol(script) in script://
  2681. 15:13:40 T:7380  NOTICE: -->Python Interpreter Initialized<--
  2682. 15:13:40 T:7380   ERROR: C:\Users\Sidney\AppData\Roaming\XBMC\addons\script.TraktUtilities-0.6.5\nbhttpconnection.py:22: DeprecationWarning: the sha module is deprecated; use the hashlib module instead
  2683.                                               import sha
  2684. 15:13:40 T:7380  NOTICE: Trakt Utilities: default: script.TraktUtilities - version: 0.6.5
  2685. 15:13:40 T:7380  NOTICE: Trakt Utilities: trakt json url: /account/test/48dfcb4813134da82152984e8c4f329bc8b8b46a
  2686. 15:13:43 T:7380  NOTICE: Trakt Utilities: Select: 4
  2687. 15:13:46 T:7380  NOTICE: Trakt Utilities: Select: 1
  2688. 15:13:46 T:7380  NOTICE: Trakt Utilities: trakt json url: /user/library/movies/all.json/48dfcb4813134da82152984e8c4f329bc8b8b46a/anzermanxbmc
  2689. 15:13:48 T:8380   ERROR: Control 1 in window 10099 has been asked to focus, but it can't
  2690. 15:16:49 T:2648  NOTICE: Trakt Utilities: [Notification Service] message: {"jsonrpc":"2.0","method":"GUI.OnScreensaverActivated","params":{"data":null,"sender":"xbmc"}}
  2691. 15:19:03 T:8380   ERROR: Control 1 in window 10099 has been asked to focus, but it can't
  2692. 15:19:03 T:2648  NOTICE: Trakt Utilities: [Notification Service] message: {"jsonrpc":"2.0","method":"GUI.OnScreensaverDeactivated","params":{"data":null,"sender":"xbmc"}}
  2693. 15:19:33 T:8380   ERROR: Control 1 in window 10099 has been asked to focus, but it can't
  2694. 15:19:37 T:7380  NOTICE: Trakt Utilities: searching local...
  2695. 15:19:41 T:7380  NOTICE: Trakt Utilities: Select: -1
  2696. 15:19:41 T:7380  NOTICE: Trakt Utilities: menu quit by user
  2697. 15:19:42 T:7380  NOTICE: Trakt Utilities: Select: -1
  2698. 15:19:42 T:7380  NOTICE: Trakt Utilities: menu quit by user
  2699. 15:19:44 T:9688  NOTICE: -->Python Interpreter Initialized<--
  2700. 15:19:44 T:9688   ERROR: C:\Users\Sidney\AppData\Roaming\XBMC\addons\script.TraktUtilities-0.6.5\nbhttpconnection.py:22: DeprecationWarning: the sha module is deprecated; use the hashlib module instead
  2701.                                               import sha
  2702. 15:19:44 T:9688  NOTICE: Trakt Utilities: default: script.TraktUtilities - version: 0.6.5
  2703. 15:19:44 T:9688  NOTICE: Trakt Utilities: trakt json url: /account/test/48dfcb4813134da82152984e8c4f329bc8b8b46a
  2704. 15:19:47 T:9688  NOTICE: Trakt Utilities: Select: 1
  2705. 15:19:47 T:9688  NOTICE: Trakt Utilities: trakt json url: /user/friends.json/48dfcb4813134da82152984e8c4f329bc8b8b46a/anzermanxbmc
  2706. 15:19:54 T:9688  NOTICE: Trakt Utilities: Select: 2
  2707. 15:19:56 T:9688  NOTICE: Trakt Utilities: Select: 0
  2708. 15:19:56 T:9688  NOTICE: Trakt Utilities: trakt json url: /recommendations/movies/48dfcb4813134da82152984e8c4f329bc8b8b46a
  2709. 15:19:58 T:9688  NOTICE: Trakt Utilities: Broke loop due to abort
  2710. 15:19:58 T:9688  NOTICE: Trakt Utilities: Error in request from 'getRecommendedMoviesFromTrakt()'
  2711. 15:19:58 T:9688  NOTICE: Trakt Utilities: trakt json url: /user/watchlist/movies.json/48dfcb4813134da82152984e8c4f329bc8b8b46a/anzermanxbmc
  2712. 15:19:58 T:9688  NOTICE: Trakt Utilities: Broke loop due to abort
  2713. 15:19:58 T:9688  NOTICE: Trakt Utilities: Error in request from 'getWatchlistMoviesFromTrakt()'
  2714. 15:19:58 T:9688   ERROR: Error Type: <type 'exceptions.TypeError'>
  2715. 15:19:58 T:9688   ERROR: Error Contents: object of type 'NoneType' has no len()
  2716. 15:19:58 T:9688   ERROR: Traceback (most recent call last):
  2717.                                               File "C:\Users\Sidney\AppData\Roaming\XBMC\addons\script.TraktUtilities-0.6.5\default.py", line 122, in <module>
  2718.                                                 menu()
  2719.                                               File "C:\Users\Sidney\AppData\Roaming\XBMC\addons\script.TraktUtilities-0.6.5\default.py", line 47, in menu
  2720.                                                 submenuRecommendations()
  2721.                                               File "C:\Users\Sidney\AppData\Roaming\XBMC\addons\script.TraktUtilities-0.6.5\default.py", line 118, in submenuRecommendations
  2722.                                                 showRecommendedMovies()
  2723.                                               File "C:\Users\Sidney\AppData\Roaming\XBMC\addons\script.TraktUtilities-0.6.5\recommend.py", line 30, in showRecommendedMovies
  2724.                                                 watchlist = traktMovieListByImdbID(getWatchlistMoviesFromTrakt())
  2725.                                               File "C:\Users\Sidney\AppData\Roaming\XBMC\addons\script.TraktUtilities-0.6.5\utilities.py", line 214, in traktMovieListByImdbID
  2726.                                                 for i in range(0, len(data)):
  2727.                                             TypeError: object of type 'NoneType' has no len()
  2728. 15:20:01 T:8640  NOTICE: -->Python Interpreter Initialized<--
  2729. 15:20:01 T:8640   ERROR: C:\Users\Sidney\AppData\Roaming\XBMC\addons\script.TraktUtilities-0.6.5\nbhttpconnection.py:22: DeprecationWarning: the sha module is deprecated; use the hashlib module instead
  2730.                                               import sha
  2731. 15:20:01 T:8640  NOTICE: Trakt Utilities: default: script.TraktUtilities - version: 0.6.5
  2732. 15:20:01 T:8640  NOTICE: Trakt Utilities: trakt json url: /account/test/48dfcb4813134da82152984e8c4f329bc8b8b46a
  2733. 15:20:04 T:8640  NOTICE: Trakt Utilities: Select: 4
  2734. 15:20:09 T:8640  NOTICE: Trakt Utilities: Select: 4
  2735. 15:20:14 T:8640  NOTICE: Trakt Utilities: trakt json url: /user/library/movies/all.json/48dfcb4813134da82152984e8c4f329bc8b8b46a/anzermanxbmc
  2736. 15:20:21 T:8640  NOTICE: Trakt Utilities: u'Wrecked' not found in xbmc library
  2737. 15:20:21 T:8640  NOTICE: Trakt Utilities: trakt json url: /movie/unlibrary/48dfcb4813134da82152984e8c4f329bc8b8b46a
  2738. 15:20:21 T:8640  NOTICE: Trakt Utilities: successfully cleared collection: 1 movies removed from library
  2739. 15:20:24 T:8380   ERROR: Control 1 in window 10099 has been asked to focus, but it can't
  2740. 15:20:54 T:8640   ERROR: Previous line repeats 1 times.
  2741. 15:20:54 T:8640  NOTICE: Trakt Utilities: Select: -1
  2742. 15:20:54 T:8640  NOTICE: Trakt Utilities: menu quit by user
  2743. 15:20:55 T:8640  NOTICE: Trakt Utilities: Select: -1
  2744. 15:20:55 T:8640  NOTICE: Trakt Utilities: menu quit by user
  2745. 15:23:21 T:8380   ERROR: Control 1 in window 10099 has been asked to focus, but it can't
  2746. 15:23:25 T:10236   ERROR: Texture manager unable to load file: G:\TV SHOWS\Homeland\poster.jpg
  2747. 15:23:25 T:8812   ERROR: Texture manager unable to load file: G:\TV SHOWS\Justified\poster.jpg
  2748. 15:23:25 T:10176   ERROR: Texture manager unable to load file: G:\TV SHOWS\Luther\poster.jpg
  2749. 15:23:25 T:10236   ERROR: Texture manager unable to load file: G:\TV SHOWS\Once Upon a Time (2011)\poster.jpg
  2750. 15:23:25 T:8812   ERROR: Texture manager unable to load file: G:\TV SHOWS\Sons of Anarchy\poster.jpg
  2751. 15:23:26 T:8812   ERROR: Texture manager unable to load file: G:\TV SHOWS\The Big Bang Theory\/logo.png
  2752. 15:23:26 T:10176   ERROR: Texture manager unable to load file: G:\TV SHOWS\Knights of Mayhem\/logo.png
  2753. 15:23:26 T:8380   ERROR: Control 1 in window 10099 has been asked to focus, but it can't
  2754. 15:23:27 T:10176   ERROR: Texture manager unable to load file: G:\TV SHOWS\How I Met Your Mother\/logo.png
  2755. 15:23:27 T:10176   ERROR: Texture manager unable to load file: G:\TV SHOWS\Fringe\/logo.png
  2756. 15:23:27 T:7860   ERROR: Texture manager unable to load file: G:\TV SHOWS\Dexter\/logo.png
  2757. 15:23:27 T:7860   ERROR: Texture manager unable to load file: G:\TV SHOWS\Burn Notice\/logo.png
  2758. 15:23:27 T:10176   ERROR: Texture manager unable to load file: G:\TV SHOWS\Boardwalk Empire\/logo.png
  2759. 15:23:27 T:8812   ERROR: Texture manager unable to load file: G:\TV SHOWS\Breaking Bad\/logo.png
  2760. 15:23:27 T:7860   ERROR: Texture manager unable to load file: G:\TV SHOWS\The Big Bang Theory\/logo.png
  2761. 15:23:28 T:8380 WARNING: XFILE::CVideoDatabaseDirectory::GetIcon - Unknown nodetype requested videodb://2/2/32/-1/
  2762. 15:23:29 T:8380   ERROR: Control 1 in window 10099 has been asked to focus, but it can't
  2763. 15:23:33 T:8812   ERROR: Previous line repeats 2 times.
  2764. 15:23:33 T:8812   ERROR: Texture manager unable to load file: G:\TV SHOWS\The Big Bang Theory\/logo.png
  2765. 15:23:34 T:8380   ERROR: Previous line repeats 1 times.
  2766. 15:23:34 T:8380   ERROR: Control 1 in window 10099 has been asked to focus, but it can't
  2767. 15:23:41 T:10176   ERROR: Previous line repeats 3 times.
  2768. 15:23:41 T:10176   ERROR: Texture manager unable to load file: G:\TV SHOWS\The Big Bang Theory\Season 1\../logo.png
  2769. 15:23:41 T:10236   ERROR: Texture manager unable to load file: G:\TV SHOWS\The Big Bang Theory\Season 1\logo.png
  2770. 15:23:41 T:8380  NOTICE: DVDPlayer: Opening: G:\TV SHOWS\The Big Bang Theory\Season 1\The Big Bang Theory - S01E01 - Pilot.avi
  2771. 15:23:41 T:8380 WARNING: CDVDMessageQueue(player)::Put MSGQ_NOT_INITIALIZED
  2772. 15:23:41 T:3548  NOTICE: Creating InputStream
  2773. 15:23:41 T:3548  NOTICE: Creating Demuxer
  2774. 15:23:42 T:3548  NOTICE: Opening video stream: 0 source: 256
  2775. 15:23:42 T:3548  NOTICE: Creating video codec with codec id: 13
  2776. 15:23:42 T:3548  NOTICE: CDVDVideoCodecFFmpeg::Open() Using codec: MPEG-4 part 2
  2777. 15:23:42 T:3548  NOTICE: Creating video thread
  2778. 15:23:42 T:3548  NOTICE: Opening audio stream: 1 source: 256
  2779. 15:23:42 T:3548  NOTICE: Finding audio codec for: 86017
  2780. 15:23:42 T:3688  NOTICE: running thread: video_thread
  2781. 15:23:42 T:3548  NOTICE: Creating audio thread
  2782. 15:23:42 T:4916  NOTICE: running thread: CDVDPlayerAudio::Process()
  2783. 15:23:42 T:4916  NOTICE: Creating audio device with codec id: 86017, channels: 2, sample rate: 48000, no pass-through
  2784. 15:23:42 T:3688  NOTICE:  fps: 23.976024, pwidth: 624, pheight: 352, dwidth: 624, dheight: 352
  2785. 15:23:42 T:3688  NOTICE: Display resolution DESKTOP : 1920x1080 @ 59.94 - Full Screen (12)
  2786. 15:23:42 T:2648  NOTICE: Trakt Utilities: [Notification Service] message: {"jsonrpc":"2.0","method":"Player.OnPlay","params":{"data":{"item":{"id":1589,"type":"episode"},"player":{"playerid":1,"speed":1}},"sender":"xbmc"}}
  2787. 15:23:42 T:2648  NOTICE: Trakt Utilities: [Scrobbler] Watching: episode - 1589
  2788. 15:23:42 T:2648  NOTICE: Trakt Utilities: trakt json url: /show/watching/48dfcb4813134da82152984e8c4f329bc8b8b46a
  2789. 15:23:43 T:10236   ERROR: Texture manager unable to load file: G:\TV SHOWS\The Big Bang Theory\Season 1\/clearart.png
  2790. 15:23:43 T:7860   ERROR: Texture manager unable to load file: G:\TV SHOWS\The Big Bang Theory\Season 1\../clearart.png
  2791. 15:23:43 T:10236   ERROR: Texture manager unable to load file: G:\TV SHOWS\The Big Bang Theory\Season 1\/landscape.jpg
  2792. 15:23:43 T:8812   ERROR: Texture manager unable to load file: G:\TV SHOWS\The Big Bang Theory\Season 1\../landscape.jpg
  2793. 15:23:43 T:2648  NOTICE: Trakt Utilities: [Scrobbler] Watch responce: {u'status': u'success', u'episode': {u'number': 1, u'title': u'Pilot'}, u'show': {u'tvdb_id': u'80379', u'year': u'2007', u'imdb_id': u'tt0898266', u'title': u'The Big Bang Theory'}, u'season': 1, u'twitter': False, u'tumblr': False, u'facebook': False, u'message': u'watching The Big Bang Theory 1x01'}
  2794. 15:23:43 T:2648  NOTICE: Trakt Utilities: [Notification Service] message: {"jsonrpc":"2.0","method":"Player.OnSeek","params":{"data":{"item":{"id":1589,"type":"episode"},"player":{"playerid":1,"seekoffset":{"hours":0,"milliseconds":0,"minutes":10,"seconds":0},"speed":1,"time":{"hours":0,"milliseconds":844,"minutes":10,"seconds":0}}},"sender":"xbmc"}}
  2795. 15:23:44 T:2648  NOTICE: Trakt Utilities: [Notification Service] message: {"jsonrpc":"2.0","method":"Player.OnSeek","params":{"data":{"item":{"id":1589,"type":"episode"},"player":{"playerid":1,"seekoffset":{"hours":0,"milliseconds":0,"minutes":10,"seconds":0},"speed":1,"time":{"hours":0,"milliseconds":185,"minutes":20,"seconds":2}}},"sender":"xbmc"}}
  2796. 15:23:46 T:2648  NOTICE: Trakt Utilities: [Notification Service] message: {"jsonrpc":"2.0","method":"Player.OnSeek","params":{"data":{"item":{"id":1589,"type":"episode"},"player":{"playerid":1,"seekoffset":{"hours":0,"milliseconds":0,"minutes":0,"seconds":-30},"speed":1,"time":{"hours":0,"milliseconds":289,"minutes":19,"seconds":36}}},"sender":"xbmc"}}
  2797. 15:23:46 T:4916 WARNING: CDVDMessageQueue(audio)::Get - asked for new data packet, with nothing available
  2798. 15:23:54 T:2648  NOTICE: Trakt Utilities: [Notification Service] message: {"jsonrpc":"2.0","method":"Player.OnSeek","params":{"data":{"item":{"id":1589,"type":"episode"},"player":{"playerid":1,"seekoffset":{"hours":0,"milliseconds":0,"minutes":-10,"seconds":0},"speed":1,"time":{"hours":0,"milliseconds":966,"minutes":9,"seconds":38}}},"sender":"xbmc"}}
  2799. 15:23:54 T:10176   ERROR: Texture manager unable to load file: G:\TV SHOWS\The Big Bang Theory\Season 1\../clearart.png
  2800. 15:23:54 T:10236   ERROR: Texture manager unable to load file: G:\TV SHOWS\The Big Bang Theory\Season 1\/landscape.jpg
  2801. 15:23:54 T:8812   ERROR: Texture manager unable to load file: G:\TV SHOWS\The Big Bang Theory\Season 1\/clearart.png
  2802. 15:23:54 T:7860   ERROR: Texture manager unable to load file: G:\TV SHOWS\The Big Bang Theory\Season 1\../landscape.jpg
  2803. 15:23:54 T:4916 WARNING: CDVDMessageQueue(audio)::Get - asked for new data packet, with nothing available
  2804. 15:23:56 T:2648  NOTICE: Trakt Utilities: [Notification Service] message: {"jsonrpc":"2.0","method":"Player.OnSeek","params":{"data":{"item":{"id":1589,"type":"episode"},"player":{"playerid":1,"seekoffset":{"hours":0,"milliseconds":0,"minutes":0,"seconds":30},"speed":1,"time":{"hours":0,"milliseconds":255,"minutes":10,"seconds":9}}},"sender":"xbmc"}}
  2805. 15:23:56 T:2648  NOTICE: Trakt Utilities: [Notification Service] message: {"jsonrpc":"2.0","method":"Player.OnSeek","params":{"data":{"item":{"id":1589,"type":"episode"},"player":{"playerid":1,"seekoffset":{"hours":0,"milliseconds":0,"minutes":0,"seconds":30},"speed":1,"time":{"hours":0,"milliseconds":786,"minutes":10,"seconds":40}}},"sender":"xbmc"}}
  2806. 15:23:59 T:2648  NOTICE: Trakt Utilities: [Notification Service] message: {"jsonrpc":"2.0","method":"Player.OnSeek","params":{"data":{"item":{"id":1589,"type":"episode"},"player":{"playerid":1,"seekoffset":{"hours":0,"milliseconds":0,"minutes":0,"seconds":-30},"speed":1,"time":{"hours":0,"milliseconds":839,"minutes":10,"seconds":18}}},"sender":"xbmc"}}
  2807. 15:23:59 T:10236   ERROR: Texture manager unable to load file: G:\TV SHOWS\The Big Bang Theory\Season 1\../clearart.png
  2808. 15:23:59 T:8812   ERROR: Texture manager unable to load file: G:\TV SHOWS\The Big Bang Theory\Season 1\/clearart.png
  2809. 15:23:59 T:10236   ERROR: Texture manager unable to load file: G:\TV SHOWS\The Big Bang Theory\Season 1\/landscape.jpg
  2810. 15:23:59 T:10176   ERROR: Texture manager unable to load file: G:\TV SHOWS\The Big Bang Theory\Season 1\../landscape.jpg
  2811. 15:23:59 T:4916 WARNING: CDVDMessageQueue(audio)::Get - asked for new data packet, with nothing available
  2812. 15:24:02 T:2648  NOTICE: Trakt Utilities: [Notification Service] message: {"jsonrpc":"2.0","method":"Player.OnSeek","params":{"data":{"item":{"id":1589,"type":"episode"},"player":{"playerid":1,"seekoffset":{"hours":0,"milliseconds":0,"minutes":0,"seconds":-30},"speed":1,"time":{"hours":0,"milliseconds":859,"minutes":9,"seconds":50}}},"sender":"xbmc"}}
  2813. 15:24:03 T:2648  NOTICE: Trakt Utilities: [Notification Service] message: {"jsonrpc":"2.0","method":"Player.OnSeek","params":{"data":{"item":{"id":1589,"type":"episode"},"player":{"playerid":1,"seekoffset":{"hours":0,"milliseconds":0,"minutes":0,"seconds":-30},"speed":1,"time":{"hours":0,"milliseconds":630,"minutes":9,"seconds":20}}},"sender":"xbmc"}}
  2814. 15:24:03 T:4916 WARNING: CDVDMessageQueue(audio)::Get - asked for new data packet, with nothing available
  2815. 15:25:16 T:2648  NOTICE: Trakt Utilities: [Notification Service] message: {"jsonrpc":"2.0","method":"Player.OnSeek","params":{"data":{"item":{"id":1589,"type":"episode"},"player":{"playerid":1,"seekoffset":{"hours":0,"milliseconds":0,"minutes":0,"seconds":30},"speed":1,"time":{"hours":0,"milliseconds":56,"minutes":11,"seconds":3}}},"sender":"xbmc"}}
  2816. 15:25:16 T:7740   ERROR: Texture manager unable to load file: G:\TV SHOWS\The Big Bang Theory\Season 1\/clearart.png
  2817. 15:25:16 T:10000   ERROR: Texture manager unable to load file: G:\TV SHOWS\The Big Bang Theory\Season 1\../clearart.png
  2818. 15:25:16 T:7740   ERROR: Texture manager unable to load file: G:\TV SHOWS\The Big Bang Theory\Season 1\/landscape.jpg
  2819. 15:25:16 T:10000   ERROR: Texture manager unable to load file: G:\TV SHOWS\The Big Bang Theory\Season 1\../landscape.jpg
  2820. 15:25:16 T:4916 WARNING: CDVDMessageQueue(audio)::Get - asked for new data packet, with nothing available
  2821. 15:25:18 T:2648  NOTICE: Trakt Utilities: [Notification Service] message: {"jsonrpc":"2.0","method":"Player.OnSeek","params":{"data":{"item":{"id":1589,"type":"episode"},"player":{"playerid":1,"seekoffset":{"hours":0,"milliseconds":0,"minutes":0,"seconds":-30},"speed":1,"time":{"hours":0,"milliseconds":301,"minutes":10,"seconds":39}}},"sender":"xbmc"}}
  2822. 15:25:24 T:2648  NOTICE: Trakt Utilities: [Notification Service] message: {"jsonrpc":"2.0","method":"Player.OnSeek","params":{"data":{"item":{"id":1589,"type":"episode"},"player":{"playerid":1,"seekoffset":{"hours":0,"milliseconds":0,"minutes":0,"seconds":30},"speed":1,"time":{"hours":0,"milliseconds":199,"minutes":11,"seconds":14}}},"sender":"xbmc"}}
  2823. 15:25:24 T:7740   ERROR: Texture manager unable to load file: G:\TV SHOWS\The Big Bang Theory\Season 1\../clearart.png
  2824. 15:25:24 T:10000   ERROR: Texture manager unable to load file: G:\TV SHOWS\The Big Bang Theory\Season 1\/clearart.png
  2825. 15:25:24 T:7740   ERROR: Texture manager unable to load file: G:\TV SHOWS\The Big Bang Theory\Season 1\/landscape.jpg
  2826. 15:25:24 T:7420   ERROR: Texture manager unable to load file: G:\TV SHOWS\The Big Bang Theory\Season 1\../landscape.jpg
  2827. 15:25:25 T:2648  NOTICE: Trakt Utilities: [Notification Service] message: {"jsonrpc":"2.0","method":"Player.OnSeek","params":{"data":{"item":{"id":1589,"type":"episode"},"player":{"playerid":1,"seekoffset":{"hours":0,"milliseconds":0,"minutes":0,"seconds":30},"speed":1,"time":{"hours":0,"milliseconds":17,"minutes":11,"seconds":54}}},"sender":"xbmc"}}
  2828. 15:26:03 T:2648  NOTICE: Trakt Utilities: [Notification Service] message: {"jsonrpc":"2.0","method":"Player.OnSeek","params":{"data":{"item":{"id":1589,"type":"episode"},"player":{"playerid":1,"seekoffset":{"hours":0,"milliseconds":0,"minutes":0,"seconds":30},"speed":1,"time":{"hours":0,"milliseconds":842,"minutes":13,"seconds":5}}},"sender":"xbmc"}}
  2829. 15:26:03 T:7380   ERROR: Texture manager unable to load file: G:\TV SHOWS\The Big Bang Theory\Season 1\/clearart.png
  2830. 15:26:03 T:10112   ERROR: Texture manager unable to load file: G:\TV SHOWS\The Big Bang Theory\Season 1\../clearart.png
  2831. 15:26:03 T:7380   ERROR: Texture manager unable to load file: G:\TV SHOWS\The Big Bang Theory\Season 1\/landscape.jpg
  2832. 15:26:03 T:10112   ERROR: Texture manager unable to load file: G:\TV SHOWS\The Big Bang Theory\Season 1\../landscape.jpg
  2833. 15:26:04 T:2648  NOTICE: Trakt Utilities: [Notification Service] message: {"jsonrpc":"2.0","method":"Player.OnSeek","params":{"data":{"item":{"id":1589,"type":"episode"},"player":{"playerid":1,"seekoffset":{"hours":0,"milliseconds":0,"minutes":0,"seconds":30},"speed":1,"time":{"hours":0,"milliseconds":675,"minutes":13,"seconds":40}}},"sender":"xbmc"}}
  2834. 15:26:24 T:2648  NOTICE: Trakt Utilities: [Notification Service] message: {"jsonrpc":"2.0","method":"Player.OnSeek","params":{"data":{"item":{"id":1589,"type":"episode"},"player":{"playerid":1,"seekoffset":{"hours":0,"milliseconds":0,"minutes":0,"seconds":30},"speed":1,"time":{"hours":0,"milliseconds":366,"minutes":14,"seconds":32}}},"sender":"xbmc"}}
  2835. 15:26:24 T:10112   ERROR: Texture manager unable to load file: G:\TV SHOWS\The Big Bang Theory\Season 1\/clearart.png
  2836. 15:26:24 T:7380   ERROR: Texture manager unable to load file: G:\TV SHOWS\The Big Bang Theory\Season 1\../clearart.png
  2837. 15:26:24 T:10112   ERROR: Texture manager unable to load file: G:\TV SHOWS\The Big Bang Theory\Season 1\/landscape.jpg
  2838. 15:26:24 T:7380   ERROR: Texture manager unable to load file: G:\TV SHOWS\The Big Bang Theory\Season 1\../landscape.jpg
  2839. 15:26:45 T:2648  NOTICE: Trakt Utilities: [Notification Service] message: {"jsonrpc":"2.0","method":"Player.OnSeek","params":{"data":{"item":{"id":1589,"type":"episode"},"player":{"playerid":1,"seekoffset":{"hours":0,"milliseconds":0,"minutes":0,"seconds":30},"speed":1,"time":{"hours":0,"milliseconds":368,"minutes":15,"seconds":23}}},"sender":"xbmc"}}
  2840. 15:26:45 T:7380   ERROR: Texture manager unable to load file: G:\TV SHOWS\The Big Bang Theory\Season 1\/clearart.png
  2841. 15:26:45 T:6680   ERROR: Texture manager unable to load file: G:\TV SHOWS\The Big Bang Theory\Season 1\../clearart.png
  2842. 15:26:45 T:7380   ERROR: Texture manager unable to load file: G:\TV SHOWS\The Big Bang Theory\Season 1\/landscape.jpg
  2843. 15:26:45 T:10112   ERROR: Texture manager unable to load file: G:\TV SHOWS\The Big Bang Theory\Season 1\../landscape.jpg
  2844. 15:26:45 T:4916 WARNING: CDVDMessageQueue(audio)::Get - asked for new data packet, with nothing available
  2845. 15:26:48 T:2648  NOTICE: Trakt Utilities: [Notification Service] message: {"jsonrpc":"2.0","method":"Player.OnSeek","params":{"data":{"item":{"id":1589,"type":"episode"},"player":{"playerid":1,"seekoffset":{"hours":0,"milliseconds":0,"minutes":0,"seconds":-30},"speed":1,"time":{"hours":0,"milliseconds":239,"minutes":14,"seconds":57}}},"sender":"xbmc"}}
  2846. 15:27:43 T:2648  NOTICE: Trakt Utilities: [Notification Service] message: {"jsonrpc":"2.0","method":"Player.OnSeek","params":{"data":{"item":{"id":1589,"type":"episode"},"player":{"playerid":1,"seekoffset":{"hours":0,"milliseconds":0,"minutes":0,"seconds":30},"speed":1,"time":{"hours":0,"milliseconds":824,"minutes":16,"seconds":18}}},"sender":"xbmc"}}
  2847. 15:27:43 T:6400   ERROR: Texture manager unable to load file: G:\TV SHOWS\The Big Bang Theory\Season 1\/clearart.png
  2848. 15:27:43 T:9516   ERROR: Texture manager unable to load file: G:\TV SHOWS\The Big Bang Theory\Season 1\../clearart.png
  2849. 15:27:43 T:6400   ERROR: Texture manager unable to load file: G:\TV SHOWS\The Big Bang Theory\Season 1\/landscape.jpg
  2850. 15:27:43 T:9516   ERROR: Texture manager unable to load file: G:\TV SHOWS\The Big Bang Theory\Season 1\../landscape.jpg
  2851. 15:27:43 T:2648  NOTICE: Trakt Utilities: [Notification Service] message: {"jsonrpc":"2.0","method":"Player.OnSeek","params":{"data":{"item":{"id":1589,"type":"episode"},"player":{"playerid":1,"seekoffset":{"hours":0,"milliseconds":0,"minutes":0,"seconds":30},"speed":1,"time":{"hours":0,"milliseconds":755,"minutes":16,"seconds":50}}},"sender":"xbmc"}}
  2852. 15:27:44 T:2648  NOTICE: Trakt Utilities: [Notification Service] message: {"jsonrpc":"2.0","method":"Player.OnSeek","params":{"data":{"item":{"id":1589,"type":"episode"},"player":{"playerid":1,"seekoffset":{"hours":0,"milliseconds":0,"minutes":0,"seconds":30},"speed":1,"time":{"hours":0,"milliseconds":622,"minutes":17,"seconds":27}}},"sender":"xbmc"}}
  2853. 15:27:44 T:2648  NOTICE: Trakt Utilities: [Notification Service] message: {"jsonrpc":"2.0","method":"Player.OnSeek","params":{"data":{"item":{"id":1589,"type":"episode"},"player":{"playerid":1,"seekoffset":{"hours":0,"milliseconds":0,"minutes":0,"seconds":30},"speed":1,"time":{"hours":0,"milliseconds":525,"minutes":17,"seconds":58}}},"sender":"xbmc"}}
  2854. 15:27:46 T:2648  NOTICE: Trakt Utilities: [Notification Service] message: {"jsonrpc":"2.0","method":"Player.OnSeek","params":{"data":{"item":{"id":1589,"type":"episode"},"player":{"playerid":1,"seekoffset":{"hours":0,"milliseconds":0,"minutes":0,"seconds":30},"speed":1,"time":{"hours":0,"milliseconds":162,"minutes":18,"seconds":35}}},"sender":"xbmc"}}
  2855. 15:27:48 T:2648  NOTICE: Trakt Utilities: [Notification Service] message: {"jsonrpc":"2.0","method":"Player.OnSeek","params":{"data":{"item":{"id":1589,"type":"episode"},"player":{"playerid":1,"seekoffset":{"hours":0,"milliseconds":0,"minutes":0,"seconds":30},"speed":1,"time":{"hours":0,"milliseconds":127,"minutes":19,"seconds":8}}},"sender":"xbmc"}}
  2856. 15:27:50 T:2648  NOTICE: Trakt Utilities: [Notification Service] message: {"jsonrpc":"2.0","method":"Player.OnSeek","params":{"data":{"item":{"id":1589,"type":"episode"},"player":{"playerid":1,"seekoffset":{"hours":0,"milliseconds":0,"minutes":0,"seconds":-30},"speed":1,"time":{"hours":0,"milliseconds":328,"minutes":18,"seconds":42}}},"sender":"xbmc"}}
  2857. 15:28:24 T:2648  NOTICE: Trakt Utilities: [Notification Service] message: {"jsonrpc":"2.0","method":"Player.OnSeek","params":{"data":{"item":{"id":1589,"type":"episode"},"player":{"playerid":1,"seekoffset":{"hours":0,"milliseconds":0,"minutes":0,"seconds":30},"speed":1,"time":{"hours":0,"milliseconds":34,"minutes":19,"seconds":43}}},"sender":"xbmc"}}
  2858. 15:28:24 T:3764   ERROR: Texture manager unable to load file: G:\TV SHOWS\The Big Bang Theory\Season 1\/clearart.png
  2859. 15:28:24 T:7156   ERROR: Texture manager unable to load file: G:\TV SHOWS\The Big Bang Theory\Season 1\../clearart.png
  2860. 15:28:24 T:3764   ERROR: Texture manager unable to load file: G:\TV SHOWS\The Big Bang Theory\Season 1\/landscape.jpg
  2861. 15:28:24 T:7156   ERROR: Texture manager unable to load file: G:\TV SHOWS\The Big Bang Theory\Season 1\../landscape.jpg
  2862. 15:28:25 T:2648  NOTICE: Trakt Utilities: [Notification Service] message: {"jsonrpc":"2.0","method":"Player.OnSeek","params":{"data":{"item":{"id":1589,"type":"episode"},"player":{"playerid":1,"seekoffset":{"hours":0,"milliseconds":0,"minutes":0,"seconds":30},"speed":1,"time":{"hours":0,"milliseconds":568,"minutes":20,"seconds":14}}},"sender":"xbmc"}}
  2863. 15:30:12 T:2648  NOTICE: Trakt Utilities: [Notification Service] message: {"jsonrpc":"2.0","method":"Player.OnPause","params":{"data":{"item":{"id":1589,"type":"episode"},"player":{"playerid":1,"speed":0}},"sender":"xbmc"}}
  2864. 15:30:12 T:2648  NOTICE: Trakt Utilities: [Scrobbler] Paused after: 389.947999954
  2865. 15:30:12 T:10024   ERROR: Texture manager unable to load file: G:\TV SHOWS\The Big Bang Theory\Season 1\/clearart.png
  2866. 15:30:12 T:8872   ERROR: Texture manager unable to load file: G:\TV SHOWS\The Big Bang Theory\Season 1\../clearart.png
  2867. 15:30:12 T:10024   ERROR: Texture manager unable to load file: G:\TV SHOWS\The Big Bang Theory\Season 1\/landscape.jpg
  2868. 15:30:12 T:8872   ERROR: Texture manager unable to load file: G:\TV SHOWS\The Big Bang Theory\Season 1\../landscape.jpg
  2869. 15:30:13 T:2648  NOTICE: Trakt Utilities: [Notification Service] message: {"jsonrpc":"2.0","method":"Player.OnPlay","params":{"data":{"item":{"id":1589,"type":"episode"},"player":{"playerid":1,"speed":1}},"sender":"xbmc"}}
  2870. 15:30:13 T:2648  NOTICE: Trakt Utilities: [Scrobbler] Watching: episode - 1589
  2871. 15:30:13 T:2648  NOTICE: Trakt Utilities: trakt json url: /show/watching/48dfcb4813134da82152984e8c4f329bc8b8b46a
  2872. 15:30:13 T:8872   ERROR: Texture manager unable to load file: G:\TV SHOWS\The Big Bang Theory\Season 1\/clearart.png
  2873. 15:30:13 T:10024   ERROR: Texture manager unable to load file: G:\TV SHOWS\The Big Bang Theory\Season 1\../clearart.png
  2874. 15:30:13 T:8872   ERROR: Texture manager unable to load file: G:\TV SHOWS\The Big Bang Theory\Season 1\/landscape.jpg
  2875. 15:30:13 T:10024   ERROR: Texture manager unable to load file: G:\TV SHOWS\The Big Bang Theory\Season 1\../landscape.jpg
  2876. 15:30:14 T:2648  NOTICE: Trakt Utilities: [Scrobbler] Watch responce: {u'status': u'success', u'episode': {u'number': 1, u'title': u'Pilot'}, u'show': {u'tvdb_id': u'80379', u'year': u'2007', u'imdb_id': u'tt0898266', u'title': u'The Big Bang Theory'}, u'season': 1, u'twitter': False, u'tumblr': False, u'facebook': False, u'message': u'watching The Big Bang Theory 1x01'}
  2877. 15:30:14 T:2648  NOTICE: Trakt Utilities: [Notification Service] message: {"jsonrpc":"2.0","method":"Player.OnPause","params":{"data":{"item":{"id":1589,"type":"episode"},"player":{"playerid":1,"speed":0}},"sender":"xbmc"}}
  2878. 15:30:14 T:2648  NOTICE: Trakt Utilities: [Scrobbler] Paused after: 390.944999933
  2879. 15:30:15 T:2648  NOTICE: Trakt Utilities: [Notification Service] message: {"jsonrpc":"2.0","method":"Player.OnPlay","params":{"data":{"item":{"id":1589,"type":"episode"},"player":{"playerid":1,"speed":1}},"sender":"xbmc"}}
  2880. 15:30:15 T:2648  NOTICE: Trakt Utilities: [Scrobbler] Watching: episode - 1589
  2881. 15:30:15 T:2648  NOTICE: Trakt Utilities: trakt json url: /show/watching/48dfcb4813134da82152984e8c4f329bc8b8b46a
  2882. 15:30:18 T:2648  NOTICE: Trakt Utilities: [Scrobbler] Watch responce: {u'status': u'success', u'episode': {u'number': 1, u'title': u'Pilot'}, u'show': {u'tvdb_id': u'80379', u'year': u'2007', u'imdb_id': u'tt0898266', u'title': u'The Big Bang Theory'}, u'season': 1, u'twitter': False, u'tumblr': False, u'facebook': False, u'message': u'watching The Big Bang Theory 1x01'}
  2883. 15:30:33 T:4916 WARNING: CDVDMessageQueue(audio)::Get - asked for new data packet, with nothing available
  2884. 15:30:34 T:3688 WARNING: CDVDMessageQueue(video)::Get - asked for new data packet, with nothing available
  2885. 15:30:34 T:3548  NOTICE: CDVDPlayer::OnExit()
  2886. 15:30:34 T:3548  NOTICE: DVDPlayer: eof, waiting for queues to empty
  2887. 15:30:34 T:3548  NOTICE: DVDPlayer: closing audio stream
  2888. 15:30:34 T:3548  NOTICE: Closing audio stream
  2889. 15:30:34 T:3548  NOTICE: CDVDMessageQueue(audio)::WaitUntilEmpty
  2890. 15:30:34 T:3548  NOTICE: Waiting for audio thread to exit
  2891. 15:30:34 T:4916  NOTICE: thread end: CDVDPlayerAudio::OnExit()
  2892. 15:30:34 T:3548  NOTICE: Closing audio device
  2893. 15:30:34 T:3548  NOTICE: Deleting audio codec
  2894. 15:30:34 T:3548  NOTICE: DVDPlayer: closing video stream
  2895. 15:30:34 T:3548  NOTICE: Closing video stream
  2896. 15:30:34 T:3548  NOTICE: CDVDMessageQueue(video)::WaitUntilEmpty
  2897. 15:30:34 T:3548  NOTICE: waiting for video thread to exit
  2898. 15:30:34 T:3688   ERROR: Got MSGQ_ABORT or MSGO_IS_ERROR return true
  2899. 15:30:34 T:3688  NOTICE: thread end: video_thread
  2900. 15:30:34 T:3548  NOTICE: deleting video codec
  2901. 15:30:34 T:3548  NOTICE: CDVDPlayer::OnExit() deleting demuxer
  2902. 15:30:34 T:3548  NOTICE: CDVDPlayer::OnExit() deleting input stream
  2903. 15:30:34 T:2648  NOTICE: Trakt Utilities: [Notification Service] message: {"jsonrpc":"2.0","method":"Player.OnStop","params":{"data":null,"sender":"xbmc"}}
  2904. 15:30:34 T:2648  NOTICE: Trakt Utilities: trakt json url: /show/cancelwatching/48dfcb4813134da82152984e8c4f329bc8b8b46a
  2905. 15:30:35 T:9052   ERROR: Texture manager unable to load file: G:\TV SHOWS\The Big Bang Theory\Season 1\logo.png
  2906. 15:30:35 T:9052   ERROR: Texture manager unable to load file: G:\TV SHOWS\The Big Bang Theory\Season 1\../logo.png
  2907. 15:30:35 T:8380  NOTICE: CDVDPlayer::CloseFile()
  2908. 15:30:35 T:8380 WARNING: CDVDMessageQueue(player)::Put MSGQ_NOT_INITIALIZED
  2909. 15:30:35 T:8380  NOTICE: DVDPlayer: waiting for threads to exit
  2910. 15:30:35 T:8380  NOTICE: DVDPlayer: finished waiting
  2911. 15:30:35 T:2648  NOTICE: Trakt Utilities: [Scrobbler] Cancel watch responce: {u'status': u'success', u'message': u'cancelled watching'}
  2912. 15:30:35 T:2648  NOTICE: Trakt Utilities: [Notification Service] message: {"jsonrpc":"2.0","method":"VideoLibrary.OnUpdate","params":{"data":{"item":{"id":1589,"type":"episode"},"playcount":1},"sender":"xbmc"}}
  2913. 15:30:35 T:2648  NOTICE: Trakt Utilities: [Instant-sync] (episode playcount): {u'season': 1, u'episode': 1, u'episodeid': 1589, u'showtitle': u'The Big Bang Theory', u'label': u'The Pilot'}
  2914. 15:30:36 T:2648  NOTICE: Trakt Utilities: trakt json url: /show/episode/seen/48dfcb4813134da82152984e8c4f329bc8b8b46a
  2915. 15:30:37 T:2648  NOTICE: Trakt Utilities: [Instant-sync] (episode playcount): responce {u'status': u'success', u'message': u'1 episodes marked as seen'}
  2916. 15:31:04 T:8380   ERROR: Control 1 in window 10099 has been asked to focus, but it can't
  2917. 15:31:09 T:8380 WARNING: XFILE::CVideoDatabaseDirectory::GetIcon - Unknown nodetype requested videodb://2/2/32/-1/
  2918. 15:31:09 T:9092   ERROR: Texture manager unable to load file: G:\TV SHOWS\The Big Bang Theory\/logo.png
  2919. 15:31:09 T:6644   ERROR: Texture manager unable to load file: G:\TV SHOWS\Homeland\poster.jpg
  2920. 15:31:09 T:9908   ERROR: Texture manager unable to load file: G:\TV SHOWS\Justified\poster.jpg
  2921. 15:31:09 T:6644   ERROR: Texture manager unable to load file: G:\TV SHOWS\Luther\poster.jpg
  2922. 15:31:09 T:2484   ERROR: Texture manager unable to load file: G:\TV SHOWS\Once Upon a Time (2011)\poster.jpg
  2923. 15:31:09 T:6644   ERROR: Texture manager unable to load file: G:\TV SHOWS\Sons of Anarchy\poster.jpg
  2924. 15:31:09 T:6644   ERROR: Texture manager unable to load file: G:\TV SHOWS\The Big Bang Theory\/logo.png
  2925. 15:31:12 T:6644   ERROR: Texture manager unable to load file: G:\TV SHOWS\Homeland\poster.jpg
  2926. 15:31:12 T:2484   ERROR: Texture manager unable to load file: G:\TV SHOWS\Justified\poster.jpg
  2927. 15:31:12 T:2484   ERROR: Texture manager unable to load file: G:\TV SHOWS\Luther\poster.jpg
  2928. 15:31:12 T:9908   ERROR: Texture manager unable to load file: G:\TV SHOWS\Once Upon a Time (2011)\poster.jpg
  2929. 15:31:12 T:6644   ERROR: Texture manager unable to load file: G:\TV SHOWS\Sons of Anarchy\poster.jpg
  2930. 15:31:12 T:2484   ERROR: Texture manager unable to load file: G:\TV SHOWS\The Big Bang Theory\/logo.png
  2931. 15:31:13 T:8380 WARNING: XFILE::CVideoDatabaseDirectory::GetIcon - Unknown nodetype requested videodb://2/2/32/-1/
  2932. 15:31:13 T:2484   ERROR: Texture manager unable to load file: G:\TV SHOWS\The Big Bang Theory\/logo.png
  2933. 15:31:14 T:2484   ERROR: Texture manager unable to load file: G:\TV SHOWS\The Big Bang Theory\Season 1\../logo.png
  2934. 15:31:14 T:9092   ERROR: Texture manager unable to load file: G:\TV SHOWS\The Big Bang Theory\Season 1\logo.png
  2935. 15:31:16 T:8380  NOTICE: DVDPlayer: Opening: G:\TV SHOWS\The Big Bang Theory\Season 1\The Big Bang Theory - S01E02 - The Big Bran Hypothesis.avi
  2936. 15:31:16 T:8380 WARNING: CDVDMessageQueue(player)::Put MSGQ_NOT_INITIALIZED
  2937. 15:31:16 T:8372  NOTICE: Creating InputStream
  2938. 15:31:16 T:8372  NOTICE: Creating Demuxer
  2939. 15:31:17 T:8372  NOTICE: Opening video stream: 0 source: 256
  2940. 15:31:17 T:8372  NOTICE: Creating video codec with codec id: 13
  2941. 15:31:17 T:8372  NOTICE: CDVDVideoCodecFFmpeg::Open() Using codec: MPEG-4 part 2
  2942. 15:31:17 T:8372  NOTICE: Creating video thread
  2943. 15:31:17 T:8372  NOTICE: Opening audio stream: 1 source: 256
  2944. 15:31:17 T:8372  NOTICE: Finding audio codec for: 86017
  2945. 15:31:17 T:9692  NOTICE: running thread: video_thread
  2946. 15:31:17 T:8372  NOTICE: Creating audio thread
  2947. 15:31:17 T:3300  NOTICE: running thread: CDVDPlayerAudio::Process()
  2948. 15:31:17 T:3300  NOTICE: Creating audio device with codec id: 86017, channels: 2, sample rate: 48000, no pass-through
  2949. 15:31:17 T:9692  NOTICE:  fps: 23.976024, pwidth: 624, pheight: 352, dwidth: 624, dheight: 352
  2950. 15:31:17 T:9692  NOTICE: Display resolution DESKTOP : 1920x1080 @ 59.94 - Full Screen (12)
  2951. 15:31:17 T:2648  NOTICE: Trakt Utilities: [Notification Service] message: {"jsonrpc":"2.0","method":"Player.OnPlay","params":{"data":{"item":{"id":1590,"type":"episode"},"player":{"playerid":1,"speed":1}},"sender":"xbmc"}}
  2952. 15:31:17 T:2648  NOTICE: Trakt Utilities: [Scrobbler] Watching: episode - 1590
  2953. 15:31:17 T:2648  NOTICE: Trakt Utilities: trakt json url: /show/watching/48dfcb4813134da82152984e8c4f329bc8b8b46a
  2954. 15:31:18 T:9908   ERROR: Texture manager unable to load file: G:\TV SHOWS\The Big Bang Theory\Season 1\/clearart.png
  2955. 15:31:18 T:2484   ERROR: Texture manager unable to load file: G:\TV SHOWS\The Big Bang Theory\Season 1\../clearart.png
  2956. 15:31:18 T:9092   ERROR: Texture manager unable to load file: G:\TV SHOWS\The Big Bang Theory\Season 1\/landscape.jpg
  2957. 15:31:18 T:9908   ERROR: Texture manager unable to load file: G:\TV SHOWS\The Big Bang Theory\Season 1\../landscape.jpg
  2958. 15:31:18 T:2648  NOTICE: Trakt Utilities: [Scrobbler] Watch responce: {u'status': u'success', u'episode': {u'number': 2, u'title': u'The Big Bran Hypothesis'}, u'show': {u'tvdb_id': u'80379', u'year': u'2007', u'imdb_id': u'tt0898266', u'title': u'The Big Bang Theory'}, u'season': 1, u'twitter': False, u'tumblr': False, u'facebook': False, u'message': u'watching The Big Bang Theory 1x02'}
  2959. 15:31:18 T:2648  NOTICE: Trakt Utilities: [Notification Service] message: {"jsonrpc":"2.0","method":"Player.OnSeek","params":{"data":{"item":{"id":1590,"type":"episode"},"player":{"playerid":1,"seekoffset":{"hours":0,"milliseconds":0,"minutes":10,"seconds":0},"speed":1,"time":{"hours":0,"milliseconds":423,"minutes":10,"seconds":1}}},"sender":"xbmc"}}
  2960. 15:31:31 T:8380   ERROR: Control 1 in window 10099 has been asked to focus, but it can't
  2961. 15:31:32 T:8380   ERROR: Window Translator: Can't find window pvrosdchannels
  2962. 15:31:32 T:8380   ERROR: Window Translator: Can't find window pvrosdguide
  2963. 15:32:05 T:2648  NOTICE: Trakt Utilities: [Notification Service] message: {"jsonrpc":"2.0","method":"Player.OnSeek","params":{"data":{"item":{"id":1590,"type":"episode"},"player":{"playerid":1,"seekoffset":{"hours":0,"milliseconds":0,"minutes":0,"seconds":30},"speed":1,"time":{"hours":0,"milliseconds":737,"minutes":11,"seconds":18}}},"sender":"xbmc"}}
  2964. 15:32:05 T:9168   ERROR: Texture manager unable to load file: G:\TV SHOWS\The Big Bang Theory\Season 1\/clearart.png
  2965. 15:32:05 T:9176   ERROR: Texture manager unable to load file: G:\TV SHOWS\The Big Bang Theory\Season 1\../clearart.png
  2966. 15:32:05 T:9168   ERROR: Texture manager unable to load file: G:\TV SHOWS\The Big Bang Theory\Season 1\/landscape.jpg
  2967. 15:32:05 T:9176   ERROR: Texture manager unable to load file: G:\TV SHOWS\The Big Bang Theory\Season 1\../landscape.jpg
  2968. 15:32:05 T:3300 WARNING: CDVDMessageQueue(audio)::Get - asked for new data packet, with nothing available
  2969. 15:32:06 T:2648  NOTICE: Trakt Utilities: [Notification Service] message: {"jsonrpc":"2.0","method":"Player.OnSeek","params":{"data":{"item":{"id":1590,"type":"episode"},"player":{"playerid":1,"seekoffset":{"hours":0,"milliseconds":0,"minutes":0,"seconds":30},"speed":1,"time":{"hours":0,"milliseconds":33,"minutes":11,"seconds":52}}},"sender":"xbmc"}}
  2970. 15:32:06 T:3300 WARNING: CDVDMessageQueue(audio)::Get - asked for new data packet, with nothing available
  2971. 15:33:27 T:2648  NOTICE: Trakt Utilities: [Notification Service] message: {"jsonrpc":"2.0","method":"Player.OnSeek","params":{"data":{"item":{"id":1590,"type":"episode"},"player":{"playerid":1,"seekoffset":{"hours":0,"milliseconds":0,"minutes":0,"seconds":30},"speed":1,"time":{"hours":0,"milliseconds":340,"minutes":13,"seconds":45}}},"sender":"xbmc"}}
  2972. 15:33:27 T:9408   ERROR: Texture manager unable to load file: G:\TV SHOWS\The Big Bang Theory\Season 1\/clearart.png
  2973. 15:33:27 T:10128   ERROR: Texture manager unable to load file: G:\TV SHOWS\The Big Bang Theory\Season 1\../clearart.png
  2974. 15:33:27 T:9408   ERROR: Texture manager unable to load file: G:\TV SHOWS\The Big Bang Theory\Season 1\/landscape.jpg
  2975. 15:33:27 T:10128   ERROR: Texture manager unable to load file: G:\TV SHOWS\The Big Bang Theory\Season 1\../landscape.jpg
  2976. 15:33:28 T:2648  NOTICE: Trakt Utilities: [Notification Service] message: {"jsonrpc":"2.0","method":"Player.OnSeek","params":{"data":{"item":{"id":1590,"type":"episode"},"player":{"playerid":1,"seekoffset":{"hours":0,"milliseconds":0,"minutes":0,"seconds":30},"speed":1,"time":{"hours":0,"milliseconds":616,"minutes":14,"seconds":17}}},"sender":"xbmc"}}
  2977. 15:33:28 T:3300 WARNING: CDVDMessageQueue(audio)::Get - asked for new data packet, with nothing available
  2978. 15:33:29 T:2648  NOTICE: Trakt Utilities: [Notification Service] message: {"jsonrpc":"2.0","method":"Player.OnSeek","params":{"data":{"item":{"id":1590,"type":"episode"},"player":{"playerid":1,"seekoffset":{"hours":0,"milliseconds":0,"minutes":0,"seconds":-30},"speed":1,"time":{"hours":0,"milliseconds":993,"minutes":13,"seconds":48}}},"sender":"xbmc"}}
  2979. 15:33:37 T:2648  NOTICE: Trakt Utilities: [Notification Service] message: {"jsonrpc":"2.0","method":"Player.OnSeek","params":{"data":{"item":{"id":1590,"type":"episode"},"player":{"playerid":1,"seekoffset":{"hours":0,"milliseconds":0,"minutes":0,"seconds":30},"speed":1,"time":{"hours":0,"milliseconds":908,"minutes":14,"seconds":25}}},"sender":"xbmc"}}
  2980. 15:33:37 T:10128   ERROR: Texture manager unable to load file: G:\TV SHOWS\The Big Bang Theory\Season 1\/clearart.png
  2981. 15:33:37 T:9408   ERROR: Texture manager unable to load file: G:\TV SHOWS\The Big Bang Theory\Season 1\../clearart.png
  2982. 15:33:37 T:10128   ERROR: Texture manager unable to load file: G:\TV SHOWS\The Big Bang Theory\Season 1\/landscape.jpg
  2983. 15:33:37 T:9408   ERROR: Texture manager unable to load file: G:\TV SHOWS\The Big Bang Theory\Season 1\../landscape.jpg
  2984. 15:33:38 T:2648  NOTICE: Trakt Utilities: [Notification Service] message: {"jsonrpc":"2.0","method":"Player.OnSeek","params":{"data":{"item":{"id":1590,"type":"episode"},"player":{"playerid":1,"seekoffset":{"hours":0,"milliseconds":0,"minutes":0,"seconds":30},"speed":1,"time":{"hours":0,"milliseconds":415,"minutes":15,"seconds":5}}},"sender":"xbmc"}}
  2985. 15:33:44 T:2648  NOTICE: Trakt Utilities: [Notification Service] message: {"jsonrpc":"2.0","method":"Player.OnSeek","params":{"data":{"item":{"id":1590,"type":"episode"},"player":{"playerid":1,"seekoffset":{"hours":0,"milliseconds":0,"minutes":0,"seconds":30},"speed":1,"time":{"hours":0,"milliseconds":823,"minutes":15,"seconds":41}}},"sender":"xbmc"}}
  2986. 15:33:44 T:9408   ERROR: Texture manager unable to load file: G:\TV SHOWS\The Big Bang Theory\Season 1\/clearart.png
  2987. 15:33:44 T:10128   ERROR: Texture manager unable to load file: G:\TV SHOWS\The Big Bang Theory\Season 1\../clearart.png
  2988. 15:33:44 T:9408   ERROR: Texture manager unable to load file: G:\TV SHOWS\The Big Bang Theory\Season 1\/landscape.jpg
  2989. 15:33:44 T:10128   ERROR: Texture manager unable to load file: G:\TV SHOWS\The Big Bang Theory\Season 1\../landscape.jpg
  2990. 15:33:44 T:3300 WARNING: CDVDMessageQueue(audio)::Get - asked for new data packet, with nothing available
  2991. 15:33:51 T:2648  NOTICE: Trakt Utilities: [Notification Service] message: {"jsonrpc":"2.0","method":"Player.OnSeek","params":{"data":{"item":{"id":1590,"type":"episode"},"player":{"playerid":1,"seekoffset":{"hours":0,"milliseconds":0,"minutes":0,"seconds":-30},"speed":1,"time":{"hours":0,"milliseconds":303,"minutes":15,"seconds":25}}},"sender":"xbmc"}}
  2992. 15:33:51 T:10128   ERROR: Texture manager unable to load file: G:\TV SHOWS\The Big Bang Theory\Season 1\/clearart.png
  2993. 15:33:51 T:9408   ERROR: Texture manager unable to load file: G:\TV SHOWS\The Big Bang Theory\Season 1\../clearart.png
  2994. 15:33:51 T:10128   ERROR: Texture manager unable to load file: G:\TV SHOWS\The Big Bang Theory\Season 1\/landscape.jpg
  2995. 15:33:51 T:9408   ERROR: Texture manager unable to load file: G:\TV SHOWS\The Big Bang Theory\Season 1\../landscape.jpg
  2996. 15:33:51 T:3300 WARNING: CDVDMessageQueue(audio)::Get - asked for new data packet, with nothing available
  2997. 15:34:49 T:2648  NOTICE: Trakt Utilities: [Notification Service] message: {"jsonrpc":"2.0","method":"Player.OnSeek","params":{"data":{"item":{"id":1590,"type":"episode"},"player":{"playerid":1,"seekoffset":{"hours":0,"milliseconds":0,"minutes":0,"seconds":30},"speed":1,"time":{"hours":0,"milliseconds":814,"minutes":16,"seconds":49}}},"sender":"xbmc"}}
  2998. 15:34:50 T:8988   ERROR: Texture manager unable to load file: G:\TV SHOWS\The Big Bang Theory\Season 1\/clearart.png
  2999. 15:34:50 T:10028   ERROR: Texture manager unable to load file: G:\TV SHOWS\The Big Bang Theory\Season 1\../clearart.png
  3000. 15:34:50 T:8988   ERROR: Texture manager unable to load file: G:\TV SHOWS\The Big Bang Theory\Season 1\/landscape.jpg
  3001. 15:34:50 T:10028   ERROR: Texture manager unable to load file: G:\TV SHOWS\The Big Bang Theory\Season 1\../landscape.jpg
  3002. 15:34:53 T:8380   ERROR: Control 1 in window 10099 has been asked to focus, but it can't
  3003. 15:34:56 T:2648  NOTICE: Trakt Utilities: [Notification Service] message: {"jsonrpc":"2.0","method":"Player.OnSeek","params":{"data":{"item":{"id":1590,"type":"episode"},"player":{"playerid":1,"seekoffset":{"hours":0,"milliseconds":0,"minutes":0,"seconds":30},"speed":1,"time":{"hours":0,"milliseconds":137,"minutes":17,"seconds":30}}},"sender":"xbmc"}}
  3004. 15:34:56 T:10028   ERROR: Texture manager unable to load file: G:\TV SHOWS\The Big Bang Theory\Season 1\/clearart.png
  3005. 15:34:56 T:8988   ERROR: Texture manager unable to load file: G:\TV SHOWS\The Big Bang Theory\Season 1\../clearart.png
  3006. 15:34:56 T:10028   ERROR: Texture manager unable to load file: G:\TV SHOWS\The Big Bang Theory\Season 1\/landscape.jpg
  3007. 15:34:56 T:8988   ERROR: Texture manager unable to load file: G:\TV SHOWS\The Big Bang Theory\Season 1\../landscape.jpg
  3008. 15:34:57 T:2648  NOTICE: Trakt Utilities: [Notification Service] message: {"jsonrpc":"2.0","method":"Player.OnSeek","params":{"data":{"item":{"id":1590,"type":"episode"},"player":{"playerid":1,"seekoffset":{"hours":0,"milliseconds":0,"minutes":0,"seconds":-30},"speed":1,"time":{"hours":0,"milliseconds":741,"minutes":17,"seconds":3}}},"sender":"xbmc"}}
  3009. 15:35:22 T:2648  NOTICE: Trakt Utilities: [Notification Service] message: {"jsonrpc":"2.0","method":"Player.OnSeek","params":{"data":{"item":{"id":1590,"type":"episode"},"player":{"playerid":1,"seekoffset":{"hours":0,"milliseconds":0,"minutes":0,"seconds":30},"speed":1,"time":{"hours":0,"milliseconds":517,"minutes":17,"seconds":56}}},"sender":"xbmc"}}
  3010. 15:35:22 T:8988   ERROR: Texture manager unable to load file: G:\TV SHOWS\The Big Bang Theory\Season 1\/clearart.png
  3011. 15:35:22 T:9760   ERROR: Texture manager unable to load file: G:\TV SHOWS\The Big Bang Theory\Season 1\../clearart.png
  3012. 15:35:22 T:8988   ERROR: Texture manager unable to load file: G:\TV SHOWS\The Big Bang Theory\Season 1\/landscape.jpg
  3013. 15:35:22 T:10028   ERROR: Texture manager unable to load file: G:\TV SHOWS\The Big Bang Theory\Season 1\../landscape.jpg
  3014. 15:35:22 T:3300 WARNING: CDVDMessageQueue(audio)::Get - asked for new data packet, with nothing available
  3015. 15:35:37 T:2648  NOTICE: Trakt Utilities: [Notification Service] message: {"jsonrpc":"2.0","method":"Player.OnSeek","params":{"data":{"item":{"id":1590,"type":"episode"},"player":{"playerid":1,"seekoffset":{"hours":0,"milliseconds":0,"minutes":0,"seconds":30},"speed":1,"time":{"hours":0,"milliseconds":917,"minutes":18,"seconds":41}}},"sender":"xbmc"}}
  3016. 15:35:37 T:10028   ERROR: Texture manager unable to load file: G:\TV SHOWS\The Big Bang Theory\Season 1\/clearart.png
  3017. 15:35:37 T:9760   ERROR: Texture manager unable to load file: G:\TV SHOWS\The Big Bang Theory\Season 1\../clearart.png
  3018. 15:35:37 T:10028   ERROR: Texture manager unable to load file: G:\TV SHOWS\The Big Bang Theory\Season 1\../landscape.jpg
  3019. 15:35:37 T:8988   ERROR: Texture manager unable to load file: G:\TV SHOWS\The Big Bang Theory\Season 1\/landscape.jpg
  3020. 15:35:37 T:3300 WARNING: CDVDMessageQueue(audio)::Get - asked for new data packet, with nothing available
  3021. 15:37:15 T:9692 WARNING: Previous line repeats 1 times.
  3022. 15:37:15 T:9692 WARNING: CDVDMessageQueue(video)::Get - asked for new data packet, with nothing available
  3023. 15:37:15 T:8372  NOTICE: CDVDPlayer::OnExit()
  3024. 15:37:15 T:8372  NOTICE: DVDPlayer: eof, waiting for queues to empty
  3025. 15:37:15 T:8372  NOTICE: DVDPlayer: closing audio stream
  3026. 15:37:15 T:8372  NOTICE: Closing audio stream
  3027. 15:37:15 T:8372  NOTICE: CDVDMessageQueue(audio)::WaitUntilEmpty
  3028. 15:37:15 T:8372  NOTICE: Waiting for audio thread to exit
  3029. 15:37:15 T:3300  NOTICE: thread end: CDVDPlayerAudio::OnExit()
  3030. 15:37:15 T:8372  NOTICE: Closing audio device
  3031. 15:37:15 T:8372  NOTICE: Deleting audio codec
  3032. 15:37:15 T:8372  NOTICE: DVDPlayer: closing video stream
  3033. 15:37:15 T:8372  NOTICE: Closing video stream
  3034. 15:37:15 T:8372  NOTICE: CDVDMessageQueue(video)::WaitUntilEmpty
  3035. 15:37:15 T:8372  NOTICE: waiting for video thread to exit
  3036. 15:37:15 T:9692   ERROR: Got MSGQ_ABORT or MSGO_IS_ERROR return true
  3037. 15:37:15 T:9692  NOTICE: thread end: video_thread
  3038. 15:37:15 T:8372  NOTICE: deleting video codec
  3039. 15:37:15 T:8372  NOTICE: CDVDPlayer::OnExit() deleting demuxer
  3040. 15:37:15 T:8372  NOTICE: CDVDPlayer::OnExit() deleting input stream
  3041. 15:37:15 T:2648  NOTICE: Trakt Utilities: [Notification Service] message: {"jsonrpc":"2.0","method":"Player.OnStop","params":{"data":null,"sender":"xbmc"}}
  3042. 15:37:16 T:2648  NOTICE: Trakt Utilities: trakt json url: /show/cancelwatching/48dfcb4813134da82152984e8c4f329bc8b8b46a
  3043. 15:37:16 T:364   ERROR: Texture manager unable to load file: G:\TV SHOWS\The Big Bang Theory\Season 1\logo.png
  3044. 15:37:16 T:364   ERROR: Texture manager unable to load file: G:\TV SHOWS\The Big Bang Theory\Season 1\../logo.png
  3045. 15:37:16 T:8380  NOTICE: CDVDPlayer::CloseFile()
  3046. 15:37:16 T:8380 WARNING: CDVDMessageQueue(player)::Put MSGQ_NOT_INITIALIZED
  3047. 15:37:16 T:8380  NOTICE: DVDPlayer: waiting for threads to exit
  3048. 15:37:16 T:8380  NOTICE: DVDPlayer: finished waiting
  3049. 15:37:17 T:2648  NOTICE: Trakt Utilities: [Scrobbler] Cancel watch responce: {u'status': u'success', u'message': u'cancelled watching'}
  3050. 15:37:17 T:2648  NOTICE: Trakt Utilities: [Notification Service] message: {"jsonrpc":"2.0","method":"VideoLibrary.OnUpdate","params":{"data":{"item":{"id":1590,"type":"episode"},"playcount":1},"sender":"xbmc"}}
  3051. 15:37:17 T:2648  NOTICE: Trakt Utilities: [Instant-sync] (episode playcount): {u'season': 1, u'episode': 2, u'episodeid': 1590, u'showtitle': u'The Big Bang Theory', u'label': u'The Big Bran Hypothesis'}
  3052. 15:37:17 T:2648  NOTICE: Trakt Utilities: trakt json url: /show/episode/seen/48dfcb4813134da82152984e8c4f329bc8b8b46a
  3053. 15:37:18 T:2648  NOTICE: Trakt Utilities: [Instant-sync] (episode playcount): responce {u'status': u'success', u'message': u'1 episodes marked as seen'}
  3054. 15:37:21 T:8380 WARNING: XFILE::CVideoDatabaseDirectory::GetIcon - Unknown nodetype requested videodb://2/2/32/-1/
  3055. 15:37:21 T:8496   ERROR: Texture manager unable to load file: G:\TV SHOWS\The Big Bang Theory\/logo.png
  3056. 15:37:22 T:8496   ERROR: Texture manager unable to load file: G:\TV SHOWS\The Big Bang Theory\Season 1\logo.png
  3057. 15:37:22 T:8932   ERROR: Texture manager unable to load file: G:\TV SHOWS\The Big Bang Theory\Season 1\../logo.png
  3058. 15:37:33 T:8380   ERROR: Control 1 in window 10099 has been asked to focus, but it can't
  3059. 15:37:37 T:8380 WARNING: XFILE::CVideoDatabaseDirectory::GetIcon - Unknown nodetype requested videodb://2/2/32/-1/
  3060. 15:37:37 T:8496   ERROR: Texture manager unable to load file: G:\TV SHOWS\The Big Bang Theory\/logo.png
  3061. 15:37:38 T:8932   ERROR: Texture manager unable to load file: G:\TV SHOWS\Homeland\poster.jpg
  3062. 15:37:38 T:8932   ERROR: Texture manager unable to load file: G:\TV SHOWS\Justified\poster.jpg
  3063. 15:37:38 T:8496   ERROR: Texture manager unable to load file: G:\TV SHOWS\Luther\poster.jpg
  3064. 15:37:38 T:8496   ERROR: Texture manager unable to load file: G:\TV SHOWS\Once Upon a Time (2011)\poster.jpg
  3065. 15:37:38 T:8496   ERROR: Texture manager unable to load file: G:\TV SHOWS\Sons of Anarchy\poster.jpg
  3066. 15:37:38 T:8496   ERROR: Texture manager unable to load file: G:\TV SHOWS\The Big Bang Theory\/logo.png
  3067. 15:37:45 T:7304 WARNING: XFILE::CDirectoryFactory::Create - Unsupported protocol(script) in script://
  3068. 15:37:47 T:10136  NOTICE: -->Python Interpreter Initialized<--
  3069. 15:37:47 T:10136   ERROR: C:\Users\Sidney\AppData\Roaming\XBMC\addons\script.TraktUtilities-0.6.5\nbhttpconnection.py:22: DeprecationWarning: the sha module is deprecated; use the hashlib module instead
  3070.                                               import sha
  3071. 15:37:47 T:10136  NOTICE: Trakt Utilities: default: script.TraktUtilities - version: 0.6.5
  3072. 15:37:47 T:10136  NOTICE: Trakt Utilities: trakt json url: /account/test/48dfcb4813134da82152984e8c4f329bc8b8b46a
  3073. 15:37:50 T:10136  NOTICE: Trakt Utilities: Select: 4
  3074. 15:37:56 T:10136  NOTICE: Trakt Utilities: Select: 2
  3075. 15:37:56 T:10136  NOTICE: Trakt Utilities: trakt json url: /user/library/shows/collection.json/48dfcb4813134da82152984e8c4f329bc8b8b46a/anzermanxbmc
  3076. 15:37:58 T:10136   ERROR: CThread::staticThread : Access violation at 0x007fefbb: Reading location 0xc2ff9a5f
clone this paste RAW Paste Data